<?xml version="1.0" encoding="UTF-8" standalone="no" ?>
<gpx xmlns="http://www.topografix.com/GPX/1/1" xmlns:xsi="http://www.w3.org/2001/XMLSchema-instance" xsi:schemaLocation="http://www.topografix.com/GPX/1/1 http://www.topografix.com/GPX/1/1/gpx.xsd" version="1.1" creator="VisuGPX - https://www.visugpx.com">
  <metadata>
    <name>Pornichet 23/01/2022</name>
    <desc><![CDATA[Sortie dimanche 23 janvier 2022]]></desc>
  </metadata>
  <trk>
    <name><![CDATA[Pornichet Cyclisme]]></name>
    <trkseg>
      <trkpt lat="47.26373" lon="-2.31554">
        <ele>8.5</ele>
        <time>2022-01-23T07:55:19.000Z</time>
      </trkpt>
      <trkpt lat="47.26373" lon="-2.31574">
        <ele>8.4</ele>
        <time>2022-01-23T07:55:23.000Z</time>
      </trkpt>
      <trkpt lat="47.26373" lon="-2.31579">
        <ele>-0.60000002384186</ele>
        <time>2022-01-23T07:55:24.000Z</time>
      </trkpt>
      <trkpt lat="47.26372" lon="-2.3162">
        <ele>-0.60000002384186</ele>
        <time>2022-01-23T07:55:31.000Z</time>
      </trkpt>
      <trkpt lat="47.26371" lon="-2.31664">
        <ele>-0.60000002384186</ele>
        <time>2022-01-23T07:55:39.000Z</time>
      </trkpt>
      <trkpt lat="47.2636" lon="-2.31673">
        <ele>-0.60000002384186</ele>
        <time>2022-01-23T07:55:43.000Z</time>
      </trkpt>
      <trkpt lat="47.26339" lon="-2.31685">
        <ele>-0.60000002384186</ele>
        <time>2022-01-23T07:55:48.000Z</time>
      </trkpt>
      <trkpt lat="47.26334" lon="-2.31687">
        <ele>-0.60000002384186</ele>
        <time>2022-01-23T07:55:49.000Z</time>
      </trkpt>
      <trkpt lat="47.26324" lon="-2.31692">
        <ele>-1</ele>
        <time>2022-01-23T07:55:51.000Z</time>
      </trkpt>
      <trkpt lat="47.2632" lon="-2.31695">
        <ele>-1.3999999761581</ele>
        <time>2022-01-23T07:55:52.000Z</time>
      </trkpt>
      <trkpt lat="47.26315" lon="-2.31698">
        <ele>-1.7999999523163</ele>
        <time>2022-01-23T07:55:53.000Z</time>
      </trkpt>
      <trkpt lat="47.2631" lon="-2.31701">
        <ele>-2.2000000476837</ele>
        <time>2022-01-23T07:55:54.000Z</time>
      </trkpt>
      <trkpt lat="47.26306" lon="-2.31702">
        <ele>-2.7999999523163</ele>
        <time>2022-01-23T07:55:55.000Z</time>
      </trkpt>
      <trkpt lat="47.26295" lon="-2.31707">
        <ele>-2.7999999523163</ele>
        <time>2022-01-23T07:55:57.000Z</time>
      </trkpt>
      <trkpt lat="47.2629" lon="-2.31711">
        <ele>-2.7999999523163</ele>
        <time>2022-01-23T07:55:58.000Z</time>
      </trkpt>
      <trkpt lat="47.2628" lon="-2.31715">
        <ele>-2.7999999523163</ele>
        <time>2022-01-23T07:56:00.000Z</time>
      </trkpt>
      <trkpt lat="47.26272" lon="-2.31721">
        <ele>-3.2000000476837</ele>
        <time>2022-01-23T07:56:02.000Z</time>
      </trkpt>
      <trkpt lat="47.2627" lon="-2.31725">
        <ele>-3.5999999046326</ele>
        <time>2022-01-23T07:56:03.000Z</time>
      </trkpt>
      <trkpt lat="47.26268" lon="-2.3173">
        <ele>-4.1999998092651</ele>
        <time>2022-01-23T07:56:04.000Z</time>
      </trkpt>
      <trkpt lat="47.26268" lon="-2.31733">
        <ele>-4.5999999046326</ele>
        <time>2022-01-23T07:56:05.000Z</time>
      </trkpt>
      <trkpt lat="47.26267" lon="-2.31738">
        <ele>-5</ele>
        <time>2022-01-23T07:56:06.000Z</time>
      </trkpt>
      <trkpt lat="47.26268" lon="-2.31749">
        <ele>-5</ele>
        <time>2022-01-23T07:56:08.000Z</time>
      </trkpt>
      <trkpt lat="47.26269" lon="-2.31755">
        <ele>-5</ele>
        <time>2022-01-23T07:56:09.000Z</time>
      </trkpt>
      <trkpt lat="47.26275" lon="-2.31782">
        <ele>-5</ele>
        <time>2022-01-23T07:56:14.000Z</time>
      </trkpt>
      <trkpt lat="47.26278" lon="-2.31812">
        <ele>-5</ele>
        <time>2022-01-23T07:56:19.000Z</time>
      </trkpt>
      <trkpt lat="47.26275" lon="-2.31847">
        <ele>-5</ele>
        <time>2022-01-23T07:56:25.000Z</time>
      </trkpt>
      <trkpt lat="47.2627" lon="-2.31883">
        <ele>-5</ele>
        <time>2022-01-23T07:56:32.000Z</time>
      </trkpt>
      <trkpt lat="47.26257" lon="-2.31898">
        <ele>-5</ele>
        <time>2022-01-23T07:56:37.000Z</time>
      </trkpt>
      <trkpt lat="47.26243" lon="-2.31918">
        <ele>-5</ele>
        <time>2022-01-23T07:56:42.000Z</time>
      </trkpt>
      <trkpt lat="47.26232" lon="-2.31935">
        <ele>-5</ele>
        <time>2022-01-23T07:56:47.000Z</time>
      </trkpt>
      <trkpt lat="47.26225" lon="-2.31949">
        <ele>-5</ele>
        <time>2022-01-23T07:56:51.000Z</time>
      </trkpt>
      <trkpt lat="47.26211" lon="-2.31965">
        <ele>-5</ele>
        <time>2022-01-23T07:56:56.000Z</time>
      </trkpt>
      <trkpt lat="47.26203" lon="-2.31973">
        <ele>-5</ele>
        <time>2022-01-23T07:57:00.000Z</time>
      </trkpt>
      <trkpt lat="47.26196" lon="-2.31989">
        <ele>-5</ele>
        <time>2022-01-23T07:57:05.000Z</time>
      </trkpt>
      <trkpt lat="47.26185" lon="-2.32001">
        <ele>-5</ele>
        <time>2022-01-23T07:57:10.000Z</time>
      </trkpt>
      <trkpt lat="47.26182" lon="-2.32017">
        <ele>-5</ele>
        <time>2022-01-23T07:57:15.000Z</time>
      </trkpt>
      <trkpt lat="47.26177" lon="-2.32017">
        <ele>-5</ele>
        <time>2022-01-23T07:57:19.000Z</time>
      </trkpt>
      <trkpt lat="47.26167" lon="-2.3202">
        <ele>-5</ele>
        <time>2022-01-23T07:57:23.000Z</time>
      </trkpt>
      <trkpt lat="47.26151" lon="-2.32031">
        <ele>-5</ele>
        <time>2022-01-23T07:57:28.000Z</time>
      </trkpt>
      <trkpt lat="47.26142" lon="-2.32052">
        <ele>-5</ele>
        <time>2022-01-23T07:57:32.000Z</time>
      </trkpt>
      <trkpt lat="47.26139" lon="-2.32063">
        <ele>-5</ele>
        <time>2022-01-23T07:57:34.000Z</time>
      </trkpt>
      <trkpt lat="47.26133" lon="-2.32085">
        <ele>-5</ele>
        <time>2022-01-23T07:57:38.000Z</time>
      </trkpt>
      <trkpt lat="47.26131" lon="-2.32091">
        <ele>-5</ele>
        <time>2022-01-23T07:57:39.000Z</time>
      </trkpt>
      <trkpt lat="47.2612" lon="-2.32136">
        <ele>-5</ele>
        <time>2022-01-23T07:57:47.000Z</time>
      </trkpt>
      <trkpt lat="47.26106" lon="-2.32173">
        <ele>-5</ele>
        <time>2022-01-23T07:57:54.000Z</time>
      </trkpt>
      <trkpt lat="47.26099" lon="-2.32188">
        <ele>-5</ele>
        <time>2022-01-23T07:57:57.000Z</time>
      </trkpt>
      <trkpt lat="47.26092" lon="-2.32203">
        <ele>-5</ele>
        <time>2022-01-23T07:58:00.000Z</time>
      </trkpt>
      <trkpt lat="47.26078" lon="-2.32226">
        <ele>-5</ele>
        <time>2022-01-23T07:58:05.000Z</time>
      </trkpt>
      <trkpt lat="47.26056" lon="-2.32253">
        <ele>-5</ele>
        <time>2022-01-23T07:58:12.000Z</time>
      </trkpt>
      <trkpt lat="47.26028" lon="-2.32284">
        <ele>-5</ele>
        <time>2022-01-23T07:58:20.000Z</time>
      </trkpt>
      <trkpt lat="47.26006" lon="-2.32308">
        <ele>-5</ele>
        <time>2022-01-23T07:58:26.000Z</time>
      </trkpt>
      <trkpt lat="47.26003" lon="-2.32312">
        <ele>-5</ele>
        <time>2022-01-23T07:58:27.000Z</time>
      </trkpt>
      <trkpt lat="47.25971" lon="-2.32351">
        <ele>-5</ele>
        <time>2022-01-23T07:58:36.000Z</time>
      </trkpt>
      <trkpt lat="47.25957" lon="-2.32368">
        <ele>-5</ele>
        <time>2022-01-23T07:58:40.000Z</time>
      </trkpt>
      <trkpt lat="47.2595" lon="-2.32377">
        <ele>-5</ele>
        <time>2022-01-23T07:58:42.000Z</time>
      </trkpt>
      <trkpt lat="47.25928" lon="-2.32406">
        <ele>-5</ele>
        <time>2022-01-23T07:58:49.000Z</time>
      </trkpt>
      <trkpt lat="47.25914" lon="-2.32427">
        <ele>-5</ele>
        <time>2022-01-23T07:58:54.000Z</time>
      </trkpt>
      <trkpt lat="47.25906" lon="-2.3244">
        <ele>-5</ele>
        <time>2022-01-23T07:58:57.000Z</time>
      </trkpt>
      <trkpt lat="47.25889" lon="-2.32466">
        <ele>-5</ele>
        <time>2022-01-23T07:59:04.000Z</time>
      </trkpt>
      <trkpt lat="47.25869" lon="-2.32476">
        <ele>-5</ele>
        <time>2022-01-23T07:59:10.000Z</time>
      </trkpt>
      <trkpt lat="47.25845" lon="-2.32476">
        <ele>-5</ele>
        <time>2022-01-23T07:59:16.000Z</time>
      </trkpt>
      <trkpt lat="47.25821" lon="-2.32468">
        <ele>-5</ele>
        <time>2022-01-23T07:59:22.000Z</time>
      </trkpt>
      <trkpt lat="47.25799" lon="-2.3246">
        <ele>-5</ele>
        <time>2022-01-23T07:59:28.000Z</time>
      </trkpt>
      <trkpt lat="47.25792" lon="-2.3246">
        <ele>-5</ele>
        <time>2022-01-23T07:59:30.000Z</time>
      </trkpt>
      <trkpt lat="47.25777" lon="-2.32451">
        <ele>-4.5999999046326</ele>
        <time>2022-01-23T07:59:35.000Z</time>
      </trkpt>
      <trkpt lat="47.25775" lon="-2.32446">
        <ele>-4.1999998092651</ele>
        <time>2022-01-23T07:59:36.000Z</time>
      </trkpt>
      <trkpt lat="47.25773" lon="-2.32442">
        <ele>-3.5999999046326</ele>
        <time>2022-01-23T07:59:37.000Z</time>
      </trkpt>
      <trkpt lat="47.25771" lon="-2.32437">
        <ele>-3.2000000476837</ele>
        <time>2022-01-23T07:59:38.000Z</time>
      </trkpt>
      <trkpt lat="47.25768" lon="-2.32433">
        <ele>-2.7999999523163</ele>
        <time>2022-01-23T07:59:39.000Z</time>
      </trkpt>
      <trkpt lat="47.25765" lon="-2.3243">
        <ele>-2.7999999523163</ele>
        <time>2022-01-23T07:59:40.000Z</time>
      </trkpt>
      <trkpt lat="47.2576" lon="-2.32428">
        <ele>-2.7999999523163</ele>
        <time>2022-01-23T07:59:41.000Z</time>
      </trkpt>
      <trkpt lat="47.25751" lon="-2.32428">
        <ele>-2.7999999523163</ele>
        <time>2022-01-23T07:59:43.000Z</time>
      </trkpt>
      <trkpt lat="47.25736" lon="-2.32427">
        <ele>-2.7999999523163</ele>
        <time>2022-01-23T07:59:46.000Z</time>
      </trkpt>
      <trkpt lat="47.25722" lon="-2.32427">
        <ele>-2.7999999523163</ele>
        <time>2022-01-23T07:59:49.000Z</time>
      </trkpt>
      <trkpt lat="47.25695" lon="-2.32424">
        <ele>-2.7999999523163</ele>
        <time>2022-01-23T07:59:55.000Z</time>
      </trkpt>
      <trkpt lat="47.25667" lon="-2.32424">
        <ele>-2.7999999523163</ele>
        <time>2022-01-23T08:00:02.000Z</time>
      </trkpt>
      <trkpt lat="47.25662" lon="-2.32431">
        <ele>-2.7999999523163</ele>
        <time>2022-01-23T08:00:04.000Z</time>
      </trkpt>
      <trkpt lat="47.25661" lon="-2.32436">
        <ele>-2.7999999523163</ele>
        <time>2022-01-23T08:00:05.000Z</time>
      </trkpt>
      <trkpt lat="47.25663" lon="-2.32459">
        <ele>-2.7999999523163</ele>
        <time>2022-01-23T08:00:09.000Z</time>
      </trkpt>
      <trkpt lat="47.25664" lon="-2.32464">
        <ele>-2.7999999523163</ele>
        <time>2022-01-23T08:00:10.000Z</time>
      </trkpt>
      <trkpt lat="47.25671" lon="-2.32482">
        <ele>-2.4000000953674</ele>
        <time>2022-01-23T08:00:14.000Z</time>
      </trkpt>
      <trkpt lat="47.25673" lon="-2.32487">
        <ele>-2</ele>
        <time>2022-01-23T08:00:15.000Z</time>
      </trkpt>
      <trkpt lat="47.25676" lon="-2.32492">
        <ele>-1.6000000238419</ele>
        <time>2022-01-23T08:00:16.000Z</time>
      </trkpt>
      <trkpt lat="47.25677" lon="-2.32497">
        <ele>-1</ele>
        <time>2022-01-23T08:00:17.000Z</time>
      </trkpt>
      <trkpt lat="47.25679" lon="-2.32502">
        <ele>-0.60000002384186</ele>
        <time>2022-01-23T08:00:18.000Z</time>
      </trkpt>
      <trkpt lat="47.25686" lon="-2.32522">
        <ele>-0.60000002384186</ele>
        <time>2022-01-23T08:00:22.000Z</time>
      </trkpt>
      <trkpt lat="47.2569" lon="-2.32535">
        <ele>-0.60000002384186</ele>
        <time>2022-01-23T08:00:25.000Z</time>
      </trkpt>
      <trkpt lat="47.25693" lon="-2.32544">
        <ele>-0.20000000298023</ele>
        <time>2022-01-23T08:00:27.000Z</time>
      </trkpt>
      <trkpt lat="47.25695" lon="-2.32549">
        <ele>0.60000002384186</ele>
        <time>2022-01-23T08:00:28.000Z</time>
      </trkpt>
      <trkpt lat="47.25697" lon="-2.32553">
        <ele>1</ele>
        <time>2022-01-23T08:00:29.000Z</time>
      </trkpt>
      <trkpt lat="47.25698" lon="-2.32557">
        <ele>1.3999999761581</ele>
        <time>2022-01-23T08:00:30.000Z</time>
      </trkpt>
      <trkpt lat="47.25707" lon="-2.3259">
        <ele>1.3999999761581</ele>
        <time>2022-01-23T08:00:37.000Z</time>
      </trkpt>
      <trkpt lat="47.25707" lon="-2.32617">
        <ele>1.3999999761581</ele>
        <time>2022-01-23T08:00:42.000Z</time>
      </trkpt>
      <trkpt lat="47.25699" lon="-2.32628">
        <ele>1.3999999761581</ele>
        <time>2022-01-23T08:00:45.000Z</time>
      </trkpt>
      <trkpt lat="47.25696" lon="-2.3263">
        <ele>1.3999999761581</ele>
        <time>2022-01-23T08:00:46.000Z</time>
      </trkpt>
      <trkpt lat="47.25686" lon="-2.32634">
        <ele>1.7999999523163</ele>
        <time>2022-01-23T08:00:49.000Z</time>
      </trkpt>
      <trkpt lat="47.25682" lon="-2.32635">
        <ele>2.2000000476837</ele>
        <time>2022-01-23T08:00:50.000Z</time>
      </trkpt>
      <trkpt lat="47.25679" lon="-2.32636">
        <ele>2.5999999046326</ele>
        <time>2022-01-23T08:00:51.000Z</time>
      </trkpt>
      <trkpt lat="47.25676" lon="-2.32638">
        <ele>3.2000000476837</ele>
        <time>2022-01-23T08:00:52.000Z</time>
      </trkpt>
      <trkpt lat="47.25672" lon="-2.32639">
        <ele>3.5999999046326</ele>
        <time>2022-01-23T08:00:53.000Z</time>
      </trkpt>
      <trkpt lat="47.25651" lon="-2.32648">
        <ele>4</ele>
        <time>2022-01-23T08:00:59.000Z</time>
      </trkpt>
      <trkpt lat="47.25648" lon="-2.32649">
        <ele>4.4000000953674</ele>
        <time>2022-01-23T08:01:00.000Z</time>
      </trkpt>
      <trkpt lat="47.25644" lon="-2.3265">
        <ele>4.8000001907349</ele>
        <time>2022-01-23T08:01:01.000Z</time>
      </trkpt>
      <trkpt lat="47.2564" lon="-2.32651">
        <ele>5.1999998092651</ele>
        <time>2022-01-23T08:01:02.000Z</time>
      </trkpt>
      <trkpt lat="47.25637" lon="-2.32653">
        <ele>5.5999999046326</ele>
        <time>2022-01-23T08:01:03.000Z</time>
      </trkpt>
      <trkpt lat="47.25619" lon="-2.32661">
        <ele>5.5999999046326</ele>
        <time>2022-01-23T08:01:08.000Z</time>
      </trkpt>
      <trkpt lat="47.2559" lon="-2.32672">
        <ele>5.5999999046326</ele>
        <time>2022-01-23T08:01:16.000Z</time>
      </trkpt>
      <trkpt lat="47.25586" lon="-2.32675">
        <ele>5.5999999046326</ele>
        <time>2022-01-23T08:01:17.000Z</time>
      </trkpt>
      <trkpt lat="47.25578" lon="-2.3268">
        <ele>5.5999999046326</ele>
        <time>2022-01-23T08:01:19.000Z</time>
      </trkpt>
      <trkpt lat="47.25567" lon="-2.32687">
        <ele>5.5999999046326</ele>
        <time>2022-01-23T08:01:22.000Z</time>
      </trkpt>
      <trkpt lat="47.25548" lon="-2.32695">
        <ele>5.5999999046326</ele>
        <time>2022-01-23T08:01:27.000Z</time>
      </trkpt>
      <trkpt lat="47.25544" lon="-2.32696">
        <ele>5.5999999046326</ele>
        <time>2022-01-23T08:01:28.000Z</time>
      </trkpt>
      <trkpt lat="47.25528" lon="-2.32702">
        <ele>5.5999999046326</ele>
        <time>2022-01-23T08:01:32.000Z</time>
      </trkpt>
      <trkpt lat="47.2552" lon="-2.32703">
        <ele>5.5999999046326</ele>
        <time>2022-01-23T08:01:34.000Z</time>
      </trkpt>
      <trkpt lat="47.25511" lon="-2.32704">
        <ele>5.5999999046326</ele>
        <time>2022-01-23T08:01:36.000Z</time>
      </trkpt>
      <trkpt lat="47.25498" lon="-2.32705">
        <ele>6</ele>
        <time>2022-01-23T08:01:39.000Z</time>
      </trkpt>
      <trkpt lat="47.25494" lon="-2.32706">
        <ele>6.4000000953674</ele>
        <time>2022-01-23T08:01:40.000Z</time>
      </trkpt>
      <trkpt lat="47.2549" lon="-2.32706">
        <ele>6.8000001907349</ele>
        <time>2022-01-23T08:01:41.000Z</time>
      </trkpt>
      <trkpt lat="47.25486" lon="-2.32708">
        <ele>7.4000000953674</ele>
        <time>2022-01-23T08:01:42.000Z</time>
      </trkpt>
      <trkpt lat="47.25482" lon="-2.3271">
        <ele>7.8000001907349</ele>
        <time>2022-01-23T08:01:43.000Z</time>
      </trkpt>
      <trkpt lat="47.25472" lon="-2.3272">
        <ele>7.8000001907349</ele>
        <time>2022-01-23T08:01:46.000Z</time>
      </trkpt>
      <trkpt lat="47.25468" lon="-2.32724">
        <ele>7.8000001907349</ele>
        <time>2022-01-23T08:01:47.000Z</time>
      </trkpt>
      <trkpt lat="47.25466" lon="-2.32729">
        <ele>7.8000001907349</ele>
        <time>2022-01-23T08:01:48.000Z</time>
      </trkpt>
      <trkpt lat="47.25451" lon="-2.32751">
        <ele>7.8000001907349</ele>
        <time>2022-01-23T08:01:53.000Z</time>
      </trkpt>
      <trkpt lat="47.25437" lon="-2.32773">
        <ele>7.8000001907349</ele>
        <time>2022-01-23T08:01:58.000Z</time>
      </trkpt>
      <trkpt lat="47.25434" lon="-2.32785">
        <ele>7.8000001907349</ele>
        <time>2022-01-23T08:02:00.000Z</time>
      </trkpt>
      <trkpt lat="47.25431" lon="-2.3279">
        <ele>7.8000001907349</ele>
        <time>2022-01-23T08:02:01.000Z</time>
      </trkpt>
      <trkpt lat="47.25424" lon="-2.32798">
        <ele>7.4000000953674</ele>
        <time>2022-01-23T08:02:03.000Z</time>
      </trkpt>
      <trkpt lat="47.25421" lon="-2.32803">
        <ele>6.8000001907349</ele>
        <time>2022-01-23T08:02:04.000Z</time>
      </trkpt>
      <trkpt lat="47.25417" lon="-2.32808">
        <ele>6.4000000953674</ele>
        <time>2022-01-23T08:02:05.000Z</time>
      </trkpt>
      <trkpt lat="47.25413" lon="-2.32813">
        <ele>6</ele>
        <time>2022-01-23T08:02:06.000Z</time>
      </trkpt>
      <trkpt lat="47.25409" lon="-2.32819">
        <ele>5.5999999046326</ele>
        <time>2022-01-23T08:02:07.000Z</time>
      </trkpt>
      <trkpt lat="47.25392" lon="-2.3284">
        <ele>5.5999999046326</ele>
        <time>2022-01-23T08:02:11.000Z</time>
      </trkpt>
      <trkpt lat="47.25364" lon="-2.32873">
        <ele>5.5999999046326</ele>
        <time>2022-01-23T08:02:18.000Z</time>
      </trkpt>
      <trkpt lat="47.2534" lon="-2.32897">
        <ele>5.5999999046326</ele>
        <time>2022-01-23T08:02:24.000Z</time>
      </trkpt>
      <trkpt lat="47.25315" lon="-2.3292">
        <ele>5.5999999046326</ele>
        <time>2022-01-23T08:02:30.000Z</time>
      </trkpt>
      <trkpt lat="47.25312" lon="-2.32925">
        <ele>5.5999999046326</ele>
        <time>2022-01-23T08:02:31.000Z</time>
      </trkpt>
      <trkpt lat="47.25308" lon="-2.32945">
        <ele>5.5999999046326</ele>
        <time>2022-01-23T08:02:34.000Z</time>
      </trkpt>
      <trkpt lat="47.25313" lon="-2.3297">
        <ele>5.5999999046326</ele>
        <time>2022-01-23T08:02:38.000Z</time>
      </trkpt>
      <trkpt lat="47.25318" lon="-2.32982">
        <ele>5.5999999046326</ele>
        <time>2022-01-23T08:02:40.000Z</time>
      </trkpt>
      <trkpt lat="47.2533" lon="-2.33013">
        <ele>5.5999999046326</ele>
        <time>2022-01-23T08:02:45.000Z</time>
      </trkpt>
      <trkpt lat="47.25332" lon="-2.3302">
        <ele>5.5999999046326</ele>
        <time>2022-01-23T08:02:46.000Z</time>
      </trkpt>
      <trkpt lat="47.25343" lon="-2.3305">
        <ele>5.5999999046326</ele>
        <time>2022-01-23T08:02:52.000Z</time>
      </trkpt>
      <trkpt lat="47.25358" lon="-2.3309">
        <ele>5.5999999046326</ele>
        <time>2022-01-23T08:03:01.000Z</time>
      </trkpt>
      <trkpt lat="47.25359" lon="-2.33094">
        <ele>5.1999998092651</ele>
        <time>2022-01-23T08:03:04.000Z</time>
      </trkpt>
      <trkpt lat="47.25359" lon="-2.33094">
        <ele>4.8000001907349</ele>
        <time>2022-01-23T08:03:05.000Z</time>
      </trkpt>
      <trkpt lat="47.25367" lon="-2.33104">
        <ele>5.5999999046326</ele>
        <time>2022-01-23T08:06:33.000Z</time>
      </trkpt>
      <trkpt lat="47.25369" lon="-2.33111">
        <ele>5.5999999046326</ele>
        <time>2022-01-23T08:06:36.000Z</time>
      </trkpt>
      <trkpt lat="47.25379" lon="-2.3313">
        <ele>5.5999999046326</ele>
        <time>2022-01-23T08:06:42.000Z</time>
      </trkpt>
      <trkpt lat="47.25386" lon="-2.33137">
        <ele>5.5999999046326</ele>
        <time>2022-01-23T08:06:45.000Z</time>
      </trkpt>
      <trkpt lat="47.25394" lon="-2.33132">
        <ele>5.5999999046326</ele>
        <time>2022-01-23T08:06:47.000Z</time>
      </trkpt>
      <trkpt lat="47.25412" lon="-2.33125">
        <ele>5.5999999046326</ele>
        <time>2022-01-23T08:06:52.000Z</time>
      </trkpt>
      <trkpt lat="47.25421" lon="-2.33121">
        <ele>5.5999999046326</ele>
        <time>2022-01-23T08:06:54.000Z</time>
      </trkpt>
      <trkpt lat="47.2544" lon="-2.33114">
        <ele>5.5999999046326</ele>
        <time>2022-01-23T08:06:59.000Z</time>
      </trkpt>
      <trkpt lat="47.25477" lon="-2.33095">
        <ele>5.5999999046326</ele>
        <time>2022-01-23T08:07:09.000Z</time>
      </trkpt>
      <trkpt lat="47.25487" lon="-2.33087">
        <ele>5.5999999046326</ele>
        <time>2022-01-23T08:07:12.000Z</time>
      </trkpt>
      <trkpt lat="47.25498" lon="-2.33076">
        <ele>5.5999999046326</ele>
        <time>2022-01-23T08:07:15.000Z</time>
      </trkpt>
      <trkpt lat="47.25512" lon="-2.33058">
        <ele>5.5999999046326</ele>
        <time>2022-01-23T08:07:19.000Z</time>
      </trkpt>
      <trkpt lat="47.25516" lon="-2.33054">
        <ele>5.5999999046326</ele>
        <time>2022-01-23T08:07:20.000Z</time>
      </trkpt>
      <trkpt lat="47.25528" lon="-2.33046">
        <ele>5.5999999046326</ele>
        <time>2022-01-23T08:07:23.000Z</time>
      </trkpt>
      <trkpt lat="47.25537" lon="-2.33042">
        <ele>5.5999999046326</ele>
        <time>2022-01-23T08:07:25.000Z</time>
      </trkpt>
      <trkpt lat="47.25569" lon="-2.33036">
        <ele>6</ele>
        <time>2022-01-23T08:07:33.000Z</time>
      </trkpt>
      <trkpt lat="47.25573" lon="-2.33036">
        <ele>6.4000000953674</ele>
        <time>2022-01-23T08:07:34.000Z</time>
      </trkpt>
      <trkpt lat="47.25577" lon="-2.33035">
        <ele>7</ele>
        <time>2022-01-23T08:07:35.000Z</time>
      </trkpt>
      <trkpt lat="47.25581" lon="-2.33034">
        <ele>7.4000000953674</ele>
        <time>2022-01-23T08:07:36.000Z</time>
      </trkpt>
      <trkpt lat="47.25585" lon="-2.33033">
        <ele>7.8000001907349</ele>
        <time>2022-01-23T08:07:37.000Z</time>
      </trkpt>
      <trkpt lat="47.25599" lon="-2.3303">
        <ele>7.8000001907349</ele>
        <time>2022-01-23T08:07:41.000Z</time>
      </trkpt>
      <trkpt lat="47.25617" lon="-2.33015">
        <ele>7.8000001907349</ele>
        <time>2022-01-23T08:07:47.000Z</time>
      </trkpt>
      <trkpt lat="47.25616" lon="-2.32994">
        <ele>8.1999998092651</ele>
        <time>2022-01-23T08:07:51.000Z</time>
      </trkpt>
      <trkpt lat="47.25615" lon="-2.32988">
        <ele>8.6000003814697</ele>
        <time>2022-01-23T08:07:52.000Z</time>
      </trkpt>
      <trkpt lat="47.25613" lon="-2.32982">
        <ele>9</ele>
        <time>2022-01-23T08:07:53.000Z</time>
      </trkpt>
      <trkpt lat="47.25611" lon="-2.32975">
        <ele>9.8000001907349</ele>
        <time>2022-01-23T08:07:54.000Z</time>
      </trkpt>
      <trkpt lat="47.25608" lon="-2.32959">
        <ele>9.8000001907349</ele>
        <time>2022-01-23T08:07:57.000Z</time>
      </trkpt>
      <trkpt lat="47.25601" lon="-2.32918">
        <ele>9.8000001907349</ele>
        <time>2022-01-23T08:08:05.000Z</time>
      </trkpt>
      <trkpt lat="47.25594" lon="-2.32872">
        <ele>9.8000001907349</ele>
        <time>2022-01-23T08:08:13.000Z</time>
      </trkpt>
      <trkpt lat="47.25589" lon="-2.32841">
        <ele>9.8000001907349</ele>
        <time>2022-01-23T08:08:18.000Z</time>
      </trkpt>
      <trkpt lat="47.25591" lon="-2.32822">
        <ele>9.8000001907349</ele>
        <time>2022-01-23T08:08:21.000Z</time>
      </trkpt>
      <trkpt lat="47.25593" lon="-2.3281">
        <ele>9.8000001907349</ele>
        <time>2022-01-23T08:08:23.000Z</time>
      </trkpt>
      <trkpt lat="47.25597" lon="-2.32791">
        <ele>10.199999809265</ele>
        <time>2022-01-23T08:08:26.000Z</time>
      </trkpt>
      <trkpt lat="47.25598" lon="-2.32785">
        <ele>10.60000038147</ele>
        <time>2022-01-23T08:08:27.000Z</time>
      </trkpt>
      <trkpt lat="47.25598" lon="-2.32779">
        <ele>11</ele>
        <time>2022-01-23T08:08:28.000Z</time>
      </trkpt>
      <trkpt lat="47.25599" lon="-2.32772">
        <ele>11.39999961853</ele>
        <time>2022-01-23T08:08:29.000Z</time>
      </trkpt>
      <trkpt lat="47.25599" lon="-2.32766">
        <ele>11.800000190735</ele>
        <time>2022-01-23T08:08:30.000Z</time>
      </trkpt>
      <trkpt lat="47.25601" lon="-2.32735">
        <ele>11.800000190735</ele>
        <time>2022-01-23T08:08:35.000Z</time>
      </trkpt>
      <trkpt lat="47.25604" lon="-2.32688">
        <ele>11.800000190735</ele>
        <time>2022-01-23T08:08:43.000Z</time>
      </trkpt>
      <trkpt lat="47.25607" lon="-2.32665">
        <ele>11.800000190735</ele>
        <time>2022-01-23T08:08:48.000Z</time>
      </trkpt>
      <trkpt lat="47.25622" lon="-2.32658">
        <ele>11.800000190735</ele>
        <time>2022-01-23T08:08:52.000Z</time>
      </trkpt>
      <trkpt lat="47.25658" lon="-2.32644">
        <ele>11.800000190735</ele>
        <time>2022-01-23T08:09:00.000Z</time>
      </trkpt>
      <trkpt lat="47.25681" lon="-2.32633">
        <ele>11.39999961853</ele>
        <time>2022-01-23T08:09:05.000Z</time>
      </trkpt>
      <trkpt lat="47.25686" lon="-2.32631">
        <ele>11</ele>
        <time>2022-01-23T08:09:06.000Z</time>
      </trkpt>
      <trkpt lat="47.2569" lon="-2.3263">
        <ele>10.199999809265</ele>
        <time>2022-01-23T08:09:07.000Z</time>
      </trkpt>
      <trkpt lat="47.25695" lon="-2.32627">
        <ele>9.8000001907349</ele>
        <time>2022-01-23T08:09:08.000Z</time>
      </trkpt>
      <trkpt lat="47.25699" lon="-2.32625">
        <ele>9.8000001907349</ele>
        <time>2022-01-23T08:09:09.000Z</time>
      </trkpt>
      <trkpt lat="47.25706" lon="-2.3262">
        <ele>9.8000001907349</ele>
        <time>2022-01-23T08:09:11.000Z</time>
      </trkpt>
      <trkpt lat="47.2571" lon="-2.32608">
        <ele>9.8000001907349</ele>
        <time>2022-01-23T08:09:13.000Z</time>
      </trkpt>
      <trkpt lat="47.25708" lon="-2.32589">
        <ele>9.8000001907349</ele>
        <time>2022-01-23T08:09:16.000Z</time>
      </trkpt>
      <trkpt lat="47.25706" lon="-2.32582">
        <ele>9.8000001907349</ele>
        <time>2022-01-23T08:09:17.000Z</time>
      </trkpt>
      <trkpt lat="47.25696" lon="-2.32554">
        <ele>9.3999996185303</ele>
        <time>2022-01-23T08:09:21.000Z</time>
      </trkpt>
      <trkpt lat="47.25694" lon="-2.32547">
        <ele>9</ele>
        <time>2022-01-23T08:09:22.000Z</time>
      </trkpt>
      <trkpt lat="47.25692" lon="-2.32539">
        <ele>8.3999996185303</ele>
        <time>2022-01-23T08:09:23.000Z</time>
      </trkpt>
      <trkpt lat="47.2569" lon="-2.32532">
        <ele>8</ele>
        <time>2022-01-23T08:09:24.000Z</time>
      </trkpt>
      <trkpt lat="47.25687" lon="-2.32524">
        <ele>7.5999999046326</ele>
        <time>2022-01-23T08:09:25.000Z</time>
      </trkpt>
      <trkpt lat="47.25683" lon="-2.32508">
        <ele>7.5999999046326</ele>
        <time>2022-01-23T08:09:27.000Z</time>
      </trkpt>
      <trkpt lat="47.25672" lon="-2.32476">
        <ele>7.5999999046326</ele>
        <time>2022-01-23T08:09:31.000Z</time>
      </trkpt>
      <trkpt lat="47.25667" lon="-2.32459">
        <ele>6.8000001907349</ele>
        <time>2022-01-23T08:09:33.000Z</time>
      </trkpt>
      <trkpt lat="47.25665" lon="-2.32451">
        <ele>6.4000000953674</ele>
        <time>2022-01-23T08:09:34.000Z</time>
      </trkpt>
      <trkpt lat="47.25663" lon="-2.32442">
        <ele>6</ele>
        <time>2022-01-23T08:09:35.000Z</time>
      </trkpt>
      <trkpt lat="47.25661" lon="-2.32435">
        <ele>5.5999999046326</ele>
        <time>2022-01-23T08:09:36.000Z</time>
      </trkpt>
      <trkpt lat="47.25661" lon="-2.32427">
        <ele>5.5999999046326</ele>
        <time>2022-01-23T08:09:37.000Z</time>
      </trkpt>
      <trkpt lat="47.25666" lon="-2.32417">
        <ele>5.5999999046326</ele>
        <time>2022-01-23T08:09:39.000Z</time>
      </trkpt>
      <trkpt lat="47.25679" lon="-2.32418">
        <ele>5.5999999046326</ele>
        <time>2022-01-23T08:09:42.000Z</time>
      </trkpt>
      <trkpt lat="47.25688" lon="-2.3242">
        <ele>5.5999999046326</ele>
        <time>2022-01-23T08:09:44.000Z</time>
      </trkpt>
      <trkpt lat="47.25705" lon="-2.32422">
        <ele>5.1999998092651</ele>
        <time>2022-01-23T08:09:47.000Z</time>
      </trkpt>
      <trkpt lat="47.2571" lon="-2.32422">
        <ele>4.8000001907349</ele>
        <time>2022-01-23T08:09:48.000Z</time>
      </trkpt>
      <trkpt lat="47.25715" lon="-2.32423">
        <ele>4.4000000953674</ele>
        <time>2022-01-23T08:09:49.000Z</time>
      </trkpt>
      <trkpt lat="47.25721" lon="-2.32423">
        <ele>4</ele>
        <time>2022-01-23T08:09:50.000Z</time>
      </trkpt>
      <trkpt lat="47.25726" lon="-2.32423">
        <ele>3.5999999046326</ele>
        <time>2022-01-23T08:09:51.000Z</time>
      </trkpt>
      <trkpt lat="47.25742" lon="-2.32424">
        <ele>3.5999999046326</ele>
        <time>2022-01-23T08:09:54.000Z</time>
      </trkpt>
      <trkpt lat="47.25767" lon="-2.32419">
        <ele>3.5999999046326</ele>
        <time>2022-01-23T08:09:59.000Z</time>
      </trkpt>
      <trkpt lat="47.25772" lon="-2.32417">
        <ele>3.5999999046326</ele>
        <time>2022-01-23T08:10:00.000Z</time>
      </trkpt>
      <trkpt lat="47.25776" lon="-2.32416">
        <ele>3.5999999046326</ele>
        <time>2022-01-23T08:10:01.000Z</time>
      </trkpt>
      <trkpt lat="47.25784" lon="-2.32422">
        <ele>3.5999999046326</ele>
        <time>2022-01-23T08:10:03.000Z</time>
      </trkpt>
      <trkpt lat="47.25793" lon="-2.32433">
        <ele>3.5999999046326</ele>
        <time>2022-01-23T08:10:05.000Z</time>
      </trkpt>
      <trkpt lat="47.25801" lon="-2.32446">
        <ele>3.5999999046326</ele>
        <time>2022-01-23T08:10:07.000Z</time>
      </trkpt>
      <trkpt lat="47.25823" lon="-2.32463">
        <ele>3.5999999046326</ele>
        <time>2022-01-23T08:10:11.000Z</time>
      </trkpt>
      <trkpt lat="47.25851" lon="-2.32475">
        <ele>3.5999999046326</ele>
        <time>2022-01-23T08:10:16.000Z</time>
      </trkpt>
      <trkpt lat="47.25856" lon="-2.32476">
        <ele>3.5999999046326</ele>
        <time>2022-01-23T08:10:17.000Z</time>
      </trkpt>
      <trkpt lat="47.25887" lon="-2.32471">
        <ele>3.5999999046326</ele>
        <time>2022-01-23T08:10:23.000Z</time>
      </trkpt>
      <trkpt lat="47.25891" lon="-2.32469">
        <ele>3.5999999046326</ele>
        <time>2022-01-23T08:10:24.000Z</time>
      </trkpt>
      <trkpt lat="47.25904" lon="-2.32456">
        <ele>3.5999999046326</ele>
        <time>2022-01-23T08:10:27.000Z</time>
      </trkpt>
      <trkpt lat="47.25908" lon="-2.32451">
        <ele>3.5999999046326</ele>
        <time>2022-01-23T08:10:28.000Z</time>
      </trkpt>
      <trkpt lat="47.25933" lon="-2.32419">
        <ele>3.5999999046326</ele>
        <time>2022-01-23T08:10:34.000Z</time>
      </trkpt>
      <trkpt lat="47.25955" lon="-2.3239">
        <ele>3.5999999046326</ele>
        <time>2022-01-23T08:10:40.000Z</time>
      </trkpt>
      <trkpt lat="47.2598" lon="-2.32359">
        <ele>3.5999999046326</ele>
        <time>2022-01-23T08:10:47.000Z</time>
      </trkpt>
      <trkpt lat="47.25987" lon="-2.3235">
        <ele>3.5999999046326</ele>
        <time>2022-01-23T08:10:49.000Z</time>
      </trkpt>
      <trkpt lat="47.25997" lon="-2.32336">
        <ele>3.5999999046326</ele>
        <time>2022-01-23T08:10:52.000Z</time>
      </trkpt>
      <trkpt lat="47.2601" lon="-2.32318">
        <ele>3.5999999046326</ele>
        <time>2022-01-23T08:10:56.000Z</time>
      </trkpt>
      <trkpt lat="47.26021" lon="-2.32306">
        <ele>3.5999999046326</ele>
        <time>2022-01-23T08:10:59.000Z</time>
      </trkpt>
      <trkpt lat="47.26046" lon="-2.32277">
        <ele>3.5999999046326</ele>
        <time>2022-01-23T08:11:06.000Z</time>
      </trkpt>
      <trkpt lat="47.26073" lon="-2.32243">
        <ele>3.5999999046326</ele>
        <time>2022-01-23T08:11:14.000Z</time>
      </trkpt>
      <trkpt lat="47.26098" lon="-2.32207">
        <ele>3.5999999046326</ele>
        <time>2022-01-23T08:11:21.000Z</time>
      </trkpt>
      <trkpt lat="47.26114" lon="-2.32174">
        <ele>3.5999999046326</ele>
        <time>2022-01-23T08:11:27.000Z</time>
      </trkpt>
      <trkpt lat="47.26116" lon="-2.32168">
        <ele>3.5999999046326</ele>
        <time>2022-01-23T08:11:28.000Z</time>
      </trkpt>
      <trkpt lat="47.26123" lon="-2.32143">
        <ele>3.5999999046326</ele>
        <time>2022-01-23T08:11:32.000Z</time>
      </trkpt>
      <trkpt lat="47.26125" lon="-2.32136">
        <ele>3.5999999046326</ele>
        <time>2022-01-23T08:11:33.000Z</time>
      </trkpt>
      <trkpt lat="47.26136" lon="-2.32104">
        <ele>3.5999999046326</ele>
        <time>2022-01-23T08:11:38.000Z</time>
      </trkpt>
      <trkpt lat="47.26154" lon="-2.32046">
        <ele>3.5999999046326</ele>
        <time>2022-01-23T08:11:47.000Z</time>
      </trkpt>
      <trkpt lat="47.26164" lon="-2.32027">
        <ele>3.5999999046326</ele>
        <time>2022-01-23T08:11:51.000Z</time>
      </trkpt>
      <trkpt lat="47.26174" lon="-2.32024">
        <ele>3.5999999046326</ele>
        <time>2022-01-23T08:11:55.000Z</time>
      </trkpt>
      <trkpt lat="47.26183" lon="-2.32024">
        <ele>3.5999999046326</ele>
        <time>2022-01-23T08:12:01.000Z</time>
      </trkpt>
      <trkpt lat="47.26191" lon="-2.32026">
        <ele>3.5999999046326</ele>
        <time>2022-01-23T08:12:06.000Z</time>
      </trkpt>
      <trkpt lat="47.26193" lon="-2.32025">
        <ele>3.5999999046326</ele>
        <time>2022-01-23T08:12:07.000Z</time>
      </trkpt>
      <trkpt lat="47.26194" lon="-2.32017">
        <ele>3.5999999046326</ele>
        <time>2022-01-23T08:12:10.000Z</time>
      </trkpt>
      <trkpt lat="47.26195" lon="-2.32012">
        <ele>3.5999999046326</ele>
        <time>2022-01-23T08:12:12.000Z</time>
      </trkpt>
      <trkpt lat="47.262" lon="-2.32006">
        <ele>3.5999999046326</ele>
        <time>2022-01-23T08:12:15.000Z</time>
      </trkpt>
      <trkpt lat="47.26202" lon="-2.32004">
        <ele>3.5999999046326</ele>
        <time>2022-01-23T08:12:16.000Z</time>
      </trkpt>
      <trkpt lat="47.2621" lon="-2.31996">
        <ele>3.5999999046326</ele>
        <time>2022-01-23T08:12:19.000Z</time>
      </trkpt>
      <trkpt lat="47.26226" lon="-2.31979">
        <ele>3.5999999046326</ele>
        <time>2022-01-23T08:12:24.000Z</time>
      </trkpt>
      <trkpt lat="47.26246" lon="-2.3196">
        <ele>3.5999999046326</ele>
        <time>2022-01-23T08:12:30.000Z</time>
      </trkpt>
      <trkpt lat="47.26254" lon="-2.31944">
        <ele>3.5999999046326</ele>
        <time>2022-01-23T08:12:34.000Z</time>
      </trkpt>
      <trkpt lat="47.2627" lon="-2.31919">
        <ele>3.5999999046326</ele>
        <time>2022-01-23T08:12:40.000Z</time>
      </trkpt>
      <trkpt lat="47.26287" lon="-2.31899">
        <ele>3.5999999046326</ele>
        <time>2022-01-23T08:12:45.000Z</time>
      </trkpt>
      <trkpt lat="47.26297" lon="-2.31879">
        <ele>3.5999999046326</ele>
        <time>2022-01-23T08:12:49.000Z</time>
      </trkpt>
      <trkpt lat="47.26303" lon="-2.31836">
        <ele>3.5999999046326</ele>
        <time>2022-01-23T08:12:56.000Z</time>
      </trkpt>
      <trkpt lat="47.26304" lon="-2.31796">
        <ele>3.5999999046326</ele>
        <time>2022-01-23T08:13:02.000Z</time>
      </trkpt>
      <trkpt lat="47.26304" lon="-2.31788">
        <ele>4</ele>
        <time>2022-01-23T08:13:03.000Z</time>
      </trkpt>
      <trkpt lat="47.26304" lon="-2.31781">
        <ele>4.4000000953674</ele>
        <time>2022-01-23T08:13:04.000Z</time>
      </trkpt>
      <trkpt lat="47.26304" lon="-2.31773">
        <ele>4.8000001907349</ele>
        <time>2022-01-23T08:13:05.000Z</time>
      </trkpt>
      <trkpt lat="47.26304" lon="-2.31766">
        <ele>5.1999998092651</ele>
        <time>2022-01-23T08:13:06.000Z</time>
      </trkpt>
      <trkpt lat="47.26303" lon="-2.31759">
        <ele>5.5999999046326</ele>
        <time>2022-01-23T08:13:07.000Z</time>
      </trkpt>
      <trkpt lat="47.26303" lon="-2.31753">
        <ele>5.5999999046326</ele>
        <time>2022-01-23T08:13:08.000Z</time>
      </trkpt>
      <trkpt lat="47.26305" lon="-2.31723">
        <ele>5.5999999046326</ele>
        <time>2022-01-23T08:13:13.000Z</time>
      </trkpt>
      <trkpt lat="47.26308" lon="-2.31719">
        <ele>5.5999999046326</ele>
        <time>2022-01-23T08:13:14.000Z</time>
      </trkpt>
      <trkpt lat="47.26314" lon="-2.31714">
        <ele>5.5999999046326</ele>
        <time>2022-01-23T08:13:16.000Z</time>
      </trkpt>
      <trkpt lat="47.26333" lon="-2.31702">
        <ele>5.5999999046326</ele>
        <time>2022-01-23T08:13:22.000Z</time>
      </trkpt>
      <trkpt lat="47.26337" lon="-2.31692">
        <ele>5.5999999046326</ele>
        <time>2022-01-23T08:13:24.000Z</time>
      </trkpt>
      <trkpt lat="47.2634" lon="-2.3169">
        <ele>6</ele>
        <time>2022-01-23T08:13:25.000Z</time>
      </trkpt>
      <trkpt lat="47.26343" lon="-2.31689">
        <ele>6.4000000953674</ele>
        <time>2022-01-23T08:13:26.000Z</time>
      </trkpt>
      <trkpt lat="47.26346" lon="-2.31688">
        <ele>7</ele>
        <time>2022-01-23T08:13:27.000Z</time>
      </trkpt>
      <trkpt lat="47.26349" lon="-2.31686">
        <ele>7.4000000953674</ele>
        <time>2022-01-23T08:13:28.000Z</time>
      </trkpt>
      <trkpt lat="47.26351" lon="-2.31684">
        <ele>7.8000001907349</ele>
        <time>2022-01-23T08:13:29.000Z</time>
      </trkpt>
      <trkpt lat="47.2636" lon="-2.31681">
        <ele>7.8000001907349</ele>
        <time>2022-01-23T08:13:32.000Z</time>
      </trkpt>
      <trkpt lat="47.26368" lon="-2.31678">
        <ele>8.1999998092651</ele>
        <time>2022-01-23T08:13:35.000Z</time>
      </trkpt>
      <trkpt lat="47.26371" lon="-2.31676">
        <ele>8.6000003814697</ele>
        <time>2022-01-23T08:13:36.000Z</time>
      </trkpt>
      <trkpt lat="47.26374" lon="-2.31674">
        <ele>9</ele>
        <time>2022-01-23T08:13:37.000Z</time>
      </trkpt>
      <trkpt lat="47.26377" lon="-2.31672">
        <ele>9.3999996185303</ele>
        <time>2022-01-23T08:13:38.000Z</time>
      </trkpt>
      <trkpt lat="47.26381" lon="-2.3167">
        <ele>9.8000001907349</ele>
        <time>2022-01-23T08:13:39.000Z</time>
      </trkpt>
      <trkpt lat="47.26401" lon="-2.31659">
        <ele>9.8000001907349</ele>
        <time>2022-01-23T08:13:45.000Z</time>
      </trkpt>
      <trkpt lat="47.2642" lon="-2.31656">
        <ele>9.8000001907349</ele>
        <time>2022-01-23T08:13:50.000Z</time>
      </trkpt>
      <trkpt lat="47.26424" lon="-2.31654">
        <ele>9.8000001907349</ele>
        <time>2022-01-23T08:13:51.000Z</time>
      </trkpt>
      <trkpt lat="47.2644" lon="-2.31651">
        <ele>9.8000001907349</ele>
        <time>2022-01-23T08:13:55.000Z</time>
      </trkpt>
      <trkpt lat="47.26444" lon="-2.3165">
        <ele>9.8000001907349</ele>
        <time>2022-01-23T08:13:56.000Z</time>
      </trkpt>
      <trkpt lat="47.26452" lon="-2.31648">
        <ele>10.800000190735</ele>
        <time>2022-01-23T08:13:58.000Z</time>
      </trkpt>
      <trkpt lat="47.26457" lon="-2.31648">
        <ele>11.199999809265</ele>
        <time>2022-01-23T08:13:59.000Z</time>
      </trkpt>
      <trkpt lat="47.26461" lon="-2.31647">
        <ele>11.60000038147</ele>
        <time>2022-01-23T08:14:00.000Z</time>
      </trkpt>
      <trkpt lat="47.26465" lon="-2.31647">
        <ele>12</ele>
        <time>2022-01-23T08:14:01.000Z</time>
      </trkpt>
      <trkpt lat="47.26473" lon="-2.31647">
        <ele>12</ele>
        <time>2022-01-23T08:14:03.000Z</time>
      </trkpt>
      <trkpt lat="47.26489" lon="-2.31644">
        <ele>12.39999961853</ele>
        <time>2022-01-23T08:14:07.000Z</time>
      </trkpt>
      <trkpt lat="47.26494" lon="-2.31643">
        <ele>12.800000190735</ele>
        <time>2022-01-23T08:14:08.000Z</time>
      </trkpt>
      <trkpt lat="47.26498" lon="-2.31642">
        <ele>13.199999809265</ele>
        <time>2022-01-23T08:14:09.000Z</time>
      </trkpt>
      <trkpt lat="47.26502" lon="-2.31641">
        <ele>13.60000038147</ele>
        <time>2022-01-23T08:14:10.000Z</time>
      </trkpt>
      <trkpt lat="47.26507" lon="-2.3164">
        <ele>14</ele>
        <time>2022-01-23T08:14:11.000Z</time>
      </trkpt>
      <trkpt lat="47.26518" lon="-2.31635">
        <ele>14</ele>
        <time>2022-01-23T08:14:14.000Z</time>
      </trkpt>
      <trkpt lat="47.26522" lon="-2.31632">
        <ele>14</ele>
        <time>2022-01-23T08:14:15.000Z</time>
      </trkpt>
      <trkpt lat="47.26531" lon="-2.31628">
        <ele>14.60000038147</ele>
        <time>2022-01-23T08:14:17.000Z</time>
      </trkpt>
      <trkpt lat="47.26534" lon="-2.31626">
        <ele>15</ele>
        <time>2022-01-23T08:14:18.000Z</time>
      </trkpt>
      <trkpt lat="47.26538" lon="-2.31624">
        <ele>15.39999961853</ele>
        <time>2022-01-23T08:14:19.000Z</time>
      </trkpt>
      <trkpt lat="47.26542" lon="-2.31622">
        <ele>15.800000190735</ele>
        <time>2022-01-23T08:14:20.000Z</time>
      </trkpt>
      <trkpt lat="47.26545" lon="-2.31619">
        <ele>16.39999961853</ele>
        <time>2022-01-23T08:14:21.000Z</time>
      </trkpt>
      <trkpt lat="47.26548" lon="-2.31617">
        <ele>16.39999961853</ele>
        <time>2022-01-23T08:14:22.000Z</time>
      </trkpt>
      <trkpt lat="47.26551" lon="-2.31615">
        <ele>16.799999237061</ele>
        <time>2022-01-23T08:14:23.000Z</time>
      </trkpt>
      <trkpt lat="47.26555" lon="-2.31612">
        <ele>17.200000762939</ele>
        <time>2022-01-23T08:14:24.000Z</time>
      </trkpt>
      <trkpt lat="47.26558" lon="-2.3161">
        <ele>17.60000038147</ele>
        <time>2022-01-23T08:14:25.000Z</time>
      </trkpt>
      <trkpt lat="47.26562" lon="-2.31608">
        <ele>18</ele>
        <time>2022-01-23T08:14:26.000Z</time>
      </trkpt>
      <trkpt lat="47.26565" lon="-2.31606">
        <ele>18.39999961853</ele>
        <time>2022-01-23T08:14:27.000Z</time>
      </trkpt>
      <trkpt lat="47.26568" lon="-2.31604">
        <ele>18.39999961853</ele>
        <time>2022-01-23T08:14:28.000Z</time>
      </trkpt>
      <trkpt lat="47.26584" lon="-2.31593">
        <ele>18.799999237061</ele>
        <time>2022-01-23T08:14:33.000Z</time>
      </trkpt>
      <trkpt lat="47.26587" lon="-2.3159">
        <ele>19.200000762939</ele>
        <time>2022-01-23T08:14:34.000Z</time>
      </trkpt>
      <trkpt lat="47.2659" lon="-2.31588">
        <ele>19.60000038147</ele>
        <time>2022-01-23T08:14:35.000Z</time>
      </trkpt>
      <trkpt lat="47.26593" lon="-2.31586">
        <ele>20</ele>
        <time>2022-01-23T08:14:36.000Z</time>
      </trkpt>
      <trkpt lat="47.26596" lon="-2.31583">
        <ele>20.39999961853</ele>
        <time>2022-01-23T08:14:37.000Z</time>
      </trkpt>
      <trkpt lat="47.26604" lon="-2.31578">
        <ele>21</ele>
        <time>2022-01-23T08:14:40.000Z</time>
      </trkpt>
      <trkpt lat="47.26608" lon="-2.31576">
        <ele>21.39999961853</ele>
        <time>2022-01-23T08:14:41.000Z</time>
      </trkpt>
      <trkpt lat="47.2661" lon="-2.31574">
        <ele>21.799999237061</ele>
        <time>2022-01-23T08:14:42.000Z</time>
      </trkpt>
      <trkpt lat="47.26613" lon="-2.31572">
        <ele>22.39999961853</ele>
        <time>2022-01-23T08:14:43.000Z</time>
      </trkpt>
      <trkpt lat="47.26615" lon="-2.3157">
        <ele>22.799999237061</ele>
        <time>2022-01-23T08:14:44.000Z</time>
      </trkpt>
      <trkpt lat="47.26622" lon="-2.31564">
        <ele>23.200000762939</ele>
        <time>2022-01-23T08:14:47.000Z</time>
      </trkpt>
      <trkpt lat="47.26625" lon="-2.31561">
        <ele>23.60000038147</ele>
        <time>2022-01-23T08:14:48.000Z</time>
      </trkpt>
      <trkpt lat="47.26627" lon="-2.31559">
        <ele>24</ele>
        <time>2022-01-23T08:14:49.000Z</time>
      </trkpt>
      <trkpt lat="47.26629" lon="-2.31555">
        <ele>24.39999961853</ele>
        <time>2022-01-23T08:14:50.000Z</time>
      </trkpt>
      <trkpt lat="47.2663" lon="-2.31551">
        <ele>24.799999237061</ele>
        <time>2022-01-23T08:14:51.000Z</time>
      </trkpt>
      <trkpt lat="47.2663" lon="-2.31543">
        <ele>24.799999237061</ele>
        <time>2022-01-23T08:14:53.000Z</time>
      </trkpt>
      <trkpt lat="47.26622" lon="-2.31524">
        <ele>24.799999237061</ele>
        <time>2022-01-23T08:14:58.000Z</time>
      </trkpt>
      <trkpt lat="47.26611" lon="-2.31496">
        <ele>25.200000762939</ele>
        <time>2022-01-23T08:15:04.000Z</time>
      </trkpt>
      <trkpt lat="47.26611" lon="-2.31491">
        <ele>25.799999237061</ele>
        <time>2022-01-23T08:15:05.000Z</time>
      </trkpt>
      <trkpt lat="47.26611" lon="-2.31487">
        <ele>26.200000762939</ele>
        <time>2022-01-23T08:15:06.000Z</time>
      </trkpt>
      <trkpt lat="47.26612" lon="-2.31482">
        <ele>26.60000038147</ele>
        <time>2022-01-23T08:15:07.000Z</time>
      </trkpt>
      <trkpt lat="47.26614" lon="-2.31479">
        <ele>27</ele>
        <time>2022-01-23T08:15:08.000Z</time>
      </trkpt>
      <trkpt lat="47.26629" lon="-2.31461">
        <ele>27</ele>
        <time>2022-01-23T08:15:14.000Z</time>
      </trkpt>
      <trkpt lat="47.26637" lon="-2.31454">
        <ele>27.39999961853</ele>
        <time>2022-01-23T08:15:17.000Z</time>
      </trkpt>
      <trkpt lat="47.2664" lon="-2.31451">
        <ele>27.799999237061</ele>
        <time>2022-01-23T08:15:18.000Z</time>
      </trkpt>
      <trkpt lat="47.26643" lon="-2.31449">
        <ele>28.200000762939</ele>
        <time>2022-01-23T08:15:19.000Z</time>
      </trkpt>
      <trkpt lat="47.26645" lon="-2.31446">
        <ele>28.60000038147</ele>
        <time>2022-01-23T08:15:20.000Z</time>
      </trkpt>
      <trkpt lat="47.26647" lon="-2.31444">
        <ele>29</ele>
        <time>2022-01-23T08:15:21.000Z</time>
      </trkpt>
      <trkpt lat="47.2665" lon="-2.31442">
        <ele>29</ele>
        <time>2022-01-23T08:15:22.000Z</time>
      </trkpt>
      <trkpt lat="47.26666" lon="-2.31434">
        <ele>29</ele>
        <time>2022-01-23T08:15:28.000Z</time>
      </trkpt>
      <trkpt lat="47.26688" lon="-2.31422">
        <ele>29</ele>
        <time>2022-01-23T08:15:35.000Z</time>
      </trkpt>
      <trkpt lat="47.26692" lon="-2.3142">
        <ele>29.39999961853</ele>
        <time>2022-01-23T08:15:36.000Z</time>
      </trkpt>
      <trkpt lat="47.26695" lon="-2.31419">
        <ele>30.200000762939</ele>
        <time>2022-01-23T08:15:37.000Z</time>
      </trkpt>
      <trkpt lat="47.26698" lon="-2.31417">
        <ele>30.60000038147</ele>
        <time>2022-01-23T08:15:38.000Z</time>
      </trkpt>
      <trkpt lat="47.26702" lon="-2.31415">
        <ele>31</ele>
        <time>2022-01-23T08:15:39.000Z</time>
      </trkpt>
      <trkpt lat="47.26709" lon="-2.31411">
        <ele>31</ele>
        <time>2022-01-23T08:15:41.000Z</time>
      </trkpt>
      <trkpt lat="47.26726" lon="-2.31399">
        <ele>31</ele>
        <time>2022-01-23T08:15:47.000Z</time>
      </trkpt>
      <trkpt lat="47.26739" lon="-2.31392">
        <ele>31.39999961853</ele>
        <time>2022-01-23T08:15:51.000Z</time>
      </trkpt>
      <trkpt lat="47.26742" lon="-2.3139">
        <ele>31.799999237061</ele>
        <time>2022-01-23T08:15:52.000Z</time>
      </trkpt>
      <trkpt lat="47.26746" lon="-2.31388">
        <ele>32.200000762939</ele>
        <time>2022-01-23T08:15:53.000Z</time>
      </trkpt>
      <trkpt lat="47.2675" lon="-2.31386">
        <ele>32.599998474121</ele>
        <time>2022-01-23T08:15:54.000Z</time>
      </trkpt>
      <trkpt lat="47.26753" lon="-2.31384">
        <ele>33</ele>
        <time>2022-01-23T08:15:55.000Z</time>
      </trkpt>
      <trkpt lat="47.26765" lon="-2.31376">
        <ele>33</ele>
        <time>2022-01-23T08:15:59.000Z</time>
      </trkpt>
      <trkpt lat="47.26789" lon="-2.31364">
        <ele>33</ele>
        <time>2022-01-23T08:16:06.000Z</time>
      </trkpt>
      <trkpt lat="47.26808" lon="-2.3135">
        <ele>33</ele>
        <time>2022-01-23T08:16:12.000Z</time>
      </trkpt>
      <trkpt lat="47.26828" lon="-2.31336">
        <ele>33</ele>
        <time>2022-01-23T08:16:18.000Z</time>
      </trkpt>
      <trkpt lat="47.26831" lon="-2.31332">
        <ele>33.400001525879</ele>
        <time>2022-01-23T08:16:19.000Z</time>
      </trkpt>
      <trkpt lat="47.26833" lon="-2.31328">
        <ele>33.799999237061</ele>
        <time>2022-01-23T08:16:20.000Z</time>
      </trkpt>
      <trkpt lat="47.26835" lon="-2.31323">
        <ele>34.200000762939</ele>
        <time>2022-01-23T08:16:21.000Z</time>
      </trkpt>
      <trkpt lat="47.26838" lon="-2.31318">
        <ele>34.799999237061</ele>
        <time>2022-01-23T08:16:22.000Z</time>
      </trkpt>
      <trkpt lat="47.2684" lon="-2.31312">
        <ele>35.200000762939</ele>
        <time>2022-01-23T08:16:23.000Z</time>
      </trkpt>
      <trkpt lat="47.26843" lon="-2.313">
        <ele>35.200000762939</ele>
        <time>2022-01-23T08:16:25.000Z</time>
      </trkpt>
      <trkpt lat="47.26846" lon="-2.3128">
        <ele>35.200000762939</ele>
        <time>2022-01-23T08:16:28.000Z</time>
      </trkpt>
      <trkpt lat="47.26848" lon="-2.31264">
        <ele>35.200000762939</ele>
        <time>2022-01-23T08:16:30.000Z</time>
      </trkpt>
      <trkpt lat="47.26849" lon="-2.3124">
        <ele>35.200000762939</ele>
        <time>2022-01-23T08:16:33.000Z</time>
      </trkpt>
      <trkpt lat="47.26852" lon="-2.31184">
        <ele>35.200000762939</ele>
        <time>2022-01-23T08:16:40.000Z</time>
      </trkpt>
      <trkpt lat="47.26854" lon="-2.31129">
        <ele>35.200000762939</ele>
        <time>2022-01-23T08:16:47.000Z</time>
      </trkpt>
      <trkpt lat="47.26853" lon="-2.31096">
        <ele>35.200000762939</ele>
        <time>2022-01-23T08:16:51.000Z</time>
      </trkpt>
      <trkpt lat="47.26852" lon="-2.31081">
        <ele>35.200000762939</ele>
        <time>2022-01-23T08:16:53.000Z</time>
      </trkpt>
      <trkpt lat="47.2685" lon="-2.31037">
        <ele>35.200000762939</ele>
        <time>2022-01-23T08:16:59.000Z</time>
      </trkpt>
      <trkpt lat="47.26848" lon="-2.30992">
        <ele>35.200000762939</ele>
        <time>2022-01-23T08:17:05.000Z</time>
      </trkpt>
      <trkpt lat="47.26842" lon="-2.30934">
        <ele>35.200000762939</ele>
        <time>2022-01-23T08:17:13.000Z</time>
      </trkpt>
      <trkpt lat="47.26833" lon="-2.30876">
        <ele>35.200000762939</ele>
        <time>2022-01-23T08:17:21.000Z</time>
      </trkpt>
      <trkpt lat="47.26831" lon="-2.30817">
        <ele>35.200000762939</ele>
        <time>2022-01-23T08:17:29.000Z</time>
      </trkpt>
      <trkpt lat="47.26837" lon="-2.30773">
        <ele>35.200000762939</ele>
        <time>2022-01-23T08:17:35.000Z</time>
      </trkpt>
      <trkpt lat="47.2685" lon="-2.30733">
        <ele>35.200000762939</ele>
        <time>2022-01-23T08:17:41.000Z</time>
      </trkpt>
      <trkpt lat="47.2687" lon="-2.3069">
        <ele>35.200000762939</ele>
        <time>2022-01-23T08:17:48.000Z</time>
      </trkpt>
      <trkpt lat="47.26891" lon="-2.30663">
        <ele>35.200000762939</ele>
        <time>2022-01-23T08:17:54.000Z</time>
      </trkpt>
      <trkpt lat="47.26895" lon="-2.30659">
        <ele>35.200000762939</ele>
        <time>2022-01-23T08:17:55.000Z</time>
      </trkpt>
      <trkpt lat="47.26919" lon="-2.30638">
        <ele>35.200000762939</ele>
        <time>2022-01-23T08:18:01.000Z</time>
      </trkpt>
      <trkpt lat="47.26933" lon="-2.30632">
        <ele>35.200000762939</ele>
        <time>2022-01-23T08:18:04.000Z</time>
      </trkpt>
      <trkpt lat="47.26944" lon="-2.3063">
        <ele>35.200000762939</ele>
        <time>2022-01-23T08:18:06.000Z</time>
      </trkpt>
      <trkpt lat="47.2695" lon="-2.30628">
        <ele>34.599998474121</ele>
        <time>2022-01-23T08:18:07.000Z</time>
      </trkpt>
      <trkpt lat="47.26955" lon="-2.30626">
        <ele>34.200000762939</ele>
        <time>2022-01-23T08:18:08.000Z</time>
      </trkpt>
      <trkpt lat="47.26961" lon="-2.30624">
        <ele>33.799999237061</ele>
        <time>2022-01-23T08:18:09.000Z</time>
      </trkpt>
      <trkpt lat="47.26966" lon="-2.30621">
        <ele>33.400001525879</ele>
        <time>2022-01-23T08:18:10.000Z</time>
      </trkpt>
      <trkpt lat="47.26971" lon="-2.30619">
        <ele>32.799999237061</ele>
        <time>2022-01-23T08:18:11.000Z</time>
      </trkpt>
      <trkpt lat="47.26976" lon="-2.30616">
        <ele>32.799999237061</ele>
        <time>2022-01-23T08:18:12.000Z</time>
      </trkpt>
      <trkpt lat="47.27001" lon="-2.30601">
        <ele>32.799999237061</ele>
        <time>2022-01-23T08:18:17.000Z</time>
      </trkpt>
      <trkpt lat="47.27013" lon="-2.30578">
        <ele>32.799999237061</ele>
        <time>2022-01-23T08:18:21.000Z</time>
      </trkpt>
      <trkpt lat="47.27015" lon="-2.30571">
        <ele>32.799999237061</ele>
        <time>2022-01-23T08:18:22.000Z</time>
      </trkpt>
      <trkpt lat="47.27026" lon="-2.30531">
        <ele>32.799999237061</ele>
        <time>2022-01-23T08:18:28.000Z</time>
      </trkpt>
      <trkpt lat="47.27035" lon="-2.30496">
        <ele>32.799999237061</ele>
        <time>2022-01-23T08:18:34.000Z</time>
      </trkpt>
      <trkpt lat="47.27043" lon="-2.30462">
        <ele>32.799999237061</ele>
        <time>2022-01-23T08:18:39.000Z</time>
      </trkpt>
      <trkpt lat="47.27045" lon="-2.30448">
        <ele>32.799999237061</ele>
        <time>2022-01-23T08:18:41.000Z</time>
      </trkpt>
      <trkpt lat="47.27047" lon="-2.30435">
        <ele>32.799999237061</ele>
        <time>2022-01-23T08:18:43.000Z</time>
      </trkpt>
      <trkpt lat="47.27049" lon="-2.30428">
        <ele>32.799999237061</ele>
        <time>2022-01-23T08:18:44.000Z</time>
      </trkpt>
      <trkpt lat="47.27051" lon="-2.30413">
        <ele>32.799999237061</ele>
        <time>2022-01-23T08:18:46.000Z</time>
      </trkpt>
      <trkpt lat="47.27055" lon="-2.3038">
        <ele>32.799999237061</ele>
        <time>2022-01-23T08:18:51.000Z</time>
      </trkpt>
      <trkpt lat="47.27061" lon="-2.30337">
        <ele>32.799999237061</ele>
        <time>2022-01-23T08:18:58.000Z</time>
      </trkpt>
      <trkpt lat="47.27066" lon="-2.30296">
        <ele>32.799999237061</ele>
        <time>2022-01-23T08:19:05.000Z</time>
      </trkpt>
      <trkpt lat="47.27073" lon="-2.30281">
        <ele>32.799999237061</ele>
        <time>2022-01-23T08:19:08.000Z</time>
      </trkpt>
      <trkpt lat="47.27076" lon="-2.30277">
        <ele>32.799999237061</ele>
        <time>2022-01-23T08:19:09.000Z</time>
      </trkpt>
      <trkpt lat="47.27086" lon="-2.3027">
        <ele>32.400001525879</ele>
        <time>2022-01-23T08:19:12.000Z</time>
      </trkpt>
      <trkpt lat="47.27089" lon="-2.30268">
        <ele>32</ele>
        <time>2022-01-23T08:19:13.000Z</time>
      </trkpt>
      <trkpt lat="47.27091" lon="-2.30266">
        <ele>31.60000038147</ele>
        <time>2022-01-23T08:19:14.000Z</time>
      </trkpt>
      <trkpt lat="47.27094" lon="-2.30266">
        <ele>31.200000762939</ele>
        <time>2022-01-23T08:19:15.000Z</time>
      </trkpt>
      <trkpt lat="47.27097" lon="-2.30265">
        <ele>30.799999237061</ele>
        <time>2022-01-23T08:19:16.000Z</time>
      </trkpt>
      <trkpt lat="47.27106" lon="-2.30262">
        <ele>30.799999237061</ele>
        <time>2022-01-23T08:19:19.000Z</time>
      </trkpt>
      <trkpt lat="47.27129" lon="-2.30249">
        <ele>30.799999237061</ele>
        <time>2022-01-23T08:19:25.000Z</time>
      </trkpt>
      <trkpt lat="47.27155" lon="-2.30244">
        <ele>30.799999237061</ele>
        <time>2022-01-23T08:19:31.000Z</time>
      </trkpt>
      <trkpt lat="47.27167" lon="-2.30254">
        <ele>30.799999237061</ele>
        <time>2022-01-23T08:19:35.000Z</time>
      </trkpt>
      <trkpt lat="47.27176" lon="-2.3026">
        <ele>30.799999237061</ele>
        <time>2022-01-23T08:19:38.000Z</time>
      </trkpt>
      <trkpt lat="47.2718" lon="-2.30259">
        <ele>30.799999237061</ele>
        <time>2022-01-23T08:19:39.000Z</time>
      </trkpt>
      <trkpt lat="47.2719" lon="-2.30254">
        <ele>30.799999237061</ele>
        <time>2022-01-23T08:19:42.000Z</time>
      </trkpt>
      <trkpt lat="47.27199" lon="-2.30253">
        <ele>30.799999237061</ele>
        <time>2022-01-23T08:19:44.000Z</time>
      </trkpt>
      <trkpt lat="47.27203" lon="-2.30254">
        <ele>30.39999961853</ele>
        <time>2022-01-23T08:19:45.000Z</time>
      </trkpt>
      <trkpt lat="47.27207" lon="-2.30255">
        <ele>30</ele>
        <time>2022-01-23T08:19:46.000Z</time>
      </trkpt>
      <trkpt lat="47.27211" lon="-2.30256">
        <ele>29.60000038147</ele>
        <time>2022-01-23T08:19:47.000Z</time>
      </trkpt>
      <trkpt lat="47.27215" lon="-2.30257">
        <ele>29.200000762939</ele>
        <time>2022-01-23T08:19:48.000Z</time>
      </trkpt>
      <trkpt lat="47.27218" lon="-2.30257">
        <ele>28.60000038147</ele>
        <time>2022-01-23T08:19:49.000Z</time>
      </trkpt>
      <trkpt lat="47.27231" lon="-2.3026">
        <ele>28.60000038147</ele>
        <time>2022-01-23T08:19:53.000Z</time>
      </trkpt>
      <trkpt lat="47.27255" lon="-2.30262">
        <ele>28.60000038147</ele>
        <time>2022-01-23T08:19:59.000Z</time>
      </trkpt>
      <trkpt lat="47.27265" lon="-2.30259">
        <ele>28.60000038147</ele>
        <time>2022-01-23T08:20:01.000Z</time>
      </trkpt>
      <trkpt lat="47.27275" lon="-2.30259">
        <ele>28.60000038147</ele>
        <time>2022-01-23T08:20:03.000Z</time>
      </trkpt>
      <trkpt lat="47.27284" lon="-2.30259">
        <ele>28.60000038147</ele>
        <time>2022-01-23T08:20:05.000Z</time>
      </trkpt>
      <trkpt lat="47.27312" lon="-2.30261">
        <ele>28.60000038147</ele>
        <time>2022-01-23T08:20:11.000Z</time>
      </trkpt>
      <trkpt lat="47.27321" lon="-2.3026">
        <ele>28.60000038147</ele>
        <time>2022-01-23T08:20:13.000Z</time>
      </trkpt>
      <trkpt lat="47.27325" lon="-2.30258">
        <ele>29.200000762939</ele>
        <time>2022-01-23T08:20:14.000Z</time>
      </trkpt>
      <trkpt lat="47.2733" lon="-2.30257">
        <ele>29.60000038147</ele>
        <time>2022-01-23T08:20:15.000Z</time>
      </trkpt>
      <trkpt lat="47.27334" lon="-2.30257">
        <ele>30</ele>
        <time>2022-01-23T08:20:16.000Z</time>
      </trkpt>
      <trkpt lat="47.27338" lon="-2.30256">
        <ele>30.39999961853</ele>
        <time>2022-01-23T08:20:17.000Z</time>
      </trkpt>
      <trkpt lat="47.27343" lon="-2.30256">
        <ele>30.799999237061</ele>
        <time>2022-01-23T08:20:18.000Z</time>
      </trkpt>
      <trkpt lat="47.27347" lon="-2.30256">
        <ele>30.799999237061</ele>
        <time>2022-01-23T08:20:19.000Z</time>
      </trkpt>
      <trkpt lat="47.27367" lon="-2.30254">
        <ele>30.799999237061</ele>
        <time>2022-01-23T08:20:23.000Z</time>
      </trkpt>
      <trkpt lat="47.27372" lon="-2.30252">
        <ele>30.799999237061</ele>
        <time>2022-01-23T08:20:24.000Z</time>
      </trkpt>
      <trkpt lat="47.27391" lon="-2.30246">
        <ele>30.799999237061</ele>
        <time>2022-01-23T08:20:28.000Z</time>
      </trkpt>
      <trkpt lat="47.27395" lon="-2.30244">
        <ele>30.799999237061</ele>
        <time>2022-01-23T08:20:29.000Z</time>
      </trkpt>
      <trkpt lat="47.27411" lon="-2.30234">
        <ele>30.799999237061</ele>
        <time>2022-01-23T08:20:33.000Z</time>
      </trkpt>
      <trkpt lat="47.2742" lon="-2.30229">
        <ele>30.799999237061</ele>
        <time>2022-01-23T08:20:35.000Z</time>
      </trkpt>
      <trkpt lat="47.27432" lon="-2.30222">
        <ele>30.799999237061</ele>
        <time>2022-01-23T08:20:38.000Z</time>
      </trkpt>
      <trkpt lat="47.27446" lon="-2.30213">
        <ele>30.799999237061</ele>
        <time>2022-01-23T08:20:43.000Z</time>
      </trkpt>
      <trkpt lat="47.27452" lon="-2.30207">
        <ele>30.799999237061</ele>
        <time>2022-01-23T08:20:45.000Z</time>
      </trkpt>
      <trkpt lat="47.27454" lon="-2.30196">
        <ele>30.799999237061</ele>
        <time>2022-01-23T08:20:47.000Z</time>
      </trkpt>
      <trkpt lat="47.27451" lon="-2.30176">
        <ele>30.799999237061</ele>
        <time>2022-01-23T08:20:51.000Z</time>
      </trkpt>
      <trkpt lat="47.27449" lon="-2.30164">
        <ele>31.200000762939</ele>
        <time>2022-01-23T08:20:53.000Z</time>
      </trkpt>
      <trkpt lat="47.27448" lon="-2.30157">
        <ele>31.60000038147</ele>
        <time>2022-01-23T08:20:54.000Z</time>
      </trkpt>
      <trkpt lat="47.27447" lon="-2.30151">
        <ele>32</ele>
        <time>2022-01-23T08:20:55.000Z</time>
      </trkpt>
      <trkpt lat="47.27445" lon="-2.30144">
        <ele>32.400001525879</ele>
        <time>2022-01-23T08:20:56.000Z</time>
      </trkpt>
      <trkpt lat="47.27444" lon="-2.30138">
        <ele>32.799999237061</ele>
        <time>2022-01-23T08:20:57.000Z</time>
      </trkpt>
      <trkpt lat="47.27437" lon="-2.30103">
        <ele>33.200000762939</ele>
        <time>2022-01-23T08:21:02.000Z</time>
      </trkpt>
      <trkpt lat="47.27436" lon="-2.30095">
        <ele>33.799999237061</ele>
        <time>2022-01-23T08:21:03.000Z</time>
      </trkpt>
      <trkpt lat="47.27434" lon="-2.30089">
        <ele>34.200000762939</ele>
        <time>2022-01-23T08:21:04.000Z</time>
      </trkpt>
      <trkpt lat="47.27432" lon="-2.30082">
        <ele>34.599998474121</ele>
        <time>2022-01-23T08:21:05.000Z</time>
      </trkpt>
      <trkpt lat="47.2743" lon="-2.30076">
        <ele>35</ele>
        <time>2022-01-23T08:21:06.000Z</time>
      </trkpt>
      <trkpt lat="47.27419" lon="-2.30037">
        <ele>35</ele>
        <time>2022-01-23T08:21:12.000Z</time>
      </trkpt>
      <trkpt lat="47.27399" lon="-2.2999">
        <ele>35</ele>
        <time>2022-01-23T08:21:20.000Z</time>
      </trkpt>
      <trkpt lat="47.27385" lon="-2.29957">
        <ele>35</ele>
        <time>2022-01-23T08:21:26.000Z</time>
      </trkpt>
      <trkpt lat="47.27366" lon="-2.29918">
        <ele>35</ele>
        <time>2022-01-23T08:21:33.000Z</time>
      </trkpt>
      <trkpt lat="47.27346" lon="-2.29876">
        <ele>35.400001525879</ele>
        <time>2022-01-23T08:21:40.000Z</time>
      </trkpt>
      <trkpt lat="47.27343" lon="-2.29871">
        <ele>35.799999237061</ele>
        <time>2022-01-23T08:21:41.000Z</time>
      </trkpt>
      <trkpt lat="47.27339" lon="-2.29866">
        <ele>36.200000762939</ele>
        <time>2022-01-23T08:21:42.000Z</time>
      </trkpt>
      <trkpt lat="47.27337" lon="-2.29861">
        <ele>36.599998474121</ele>
        <time>2022-01-23T08:21:43.000Z</time>
      </trkpt>
      <trkpt lat="47.27333" lon="-2.29855">
        <ele>37</ele>
        <time>2022-01-23T08:21:44.000Z</time>
      </trkpt>
      <trkpt lat="47.27321" lon="-2.2983">
        <ele>37</ele>
        <time>2022-01-23T08:21:48.000Z</time>
      </trkpt>
      <trkpt lat="47.27299" lon="-2.29785">
        <ele>37</ele>
        <time>2022-01-23T08:21:55.000Z</time>
      </trkpt>
      <trkpt lat="47.27295" lon="-2.29771">
        <ele>37</ele>
        <time>2022-01-23T08:21:57.000Z</time>
      </trkpt>
      <trkpt lat="47.27289" lon="-2.29749">
        <ele>37</ele>
        <time>2022-01-23T08:22:00.000Z</time>
      </trkpt>
      <trkpt lat="47.27286" lon="-2.29736">
        <ele>37</ele>
        <time>2022-01-23T08:22:02.000Z</time>
      </trkpt>
      <trkpt lat="47.27279" lon="-2.29711">
        <ele>37</ele>
        <time>2022-01-23T08:22:06.000Z</time>
      </trkpt>
      <trkpt lat="47.27276" lon="-2.29699">
        <ele>37</ele>
        <time>2022-01-23T08:22:08.000Z</time>
      </trkpt>
      <trkpt lat="47.2727" lon="-2.29672">
        <ele>37</ele>
        <time>2022-01-23T08:22:12.000Z</time>
      </trkpt>
      <trkpt lat="47.27262" lon="-2.29638">
        <ele>37</ele>
        <time>2022-01-23T08:22:18.000Z</time>
      </trkpt>
      <trkpt lat="47.27255" lon="-2.29598">
        <ele>37</ele>
        <time>2022-01-23T08:22:24.000Z</time>
      </trkpt>
      <trkpt lat="47.27248" lon="-2.2955">
        <ele>37</ele>
        <time>2022-01-23T08:22:31.000Z</time>
      </trkpt>
      <trkpt lat="47.27244" lon="-2.29531">
        <ele>37</ele>
        <time>2022-01-23T08:22:34.000Z</time>
      </trkpt>
      <trkpt lat="47.27237" lon="-2.29512">
        <ele>37</ele>
        <time>2022-01-23T08:22:37.000Z</time>
      </trkpt>
      <trkpt lat="47.27235" lon="-2.29507">
        <ele>37</ele>
        <time>2022-01-23T08:22:38.000Z</time>
      </trkpt>
      <trkpt lat="47.27227" lon="-2.29481">
        <ele>37</ele>
        <time>2022-01-23T08:22:42.000Z</time>
      </trkpt>
      <trkpt lat="47.27224" lon="-2.29473">
        <ele>37</ele>
        <time>2022-01-23T08:22:43.000Z</time>
      </trkpt>
      <trkpt lat="47.27213" lon="-2.29437">
        <ele>37</ele>
        <time>2022-01-23T08:22:48.000Z</time>
      </trkpt>
      <trkpt lat="47.27199" lon="-2.29392">
        <ele>37</ele>
        <time>2022-01-23T08:22:55.000Z</time>
      </trkpt>
      <trkpt lat="47.27183" lon="-2.29356">
        <ele>37</ele>
        <time>2022-01-23T08:23:01.000Z</time>
      </trkpt>
      <trkpt lat="47.27176" lon="-2.29348">
        <ele>37</ele>
        <time>2022-01-23T08:23:03.000Z</time>
      </trkpt>
      <trkpt lat="47.27166" lon="-2.29337">
        <ele>37</ele>
        <time>2022-01-23T08:23:06.000Z</time>
      </trkpt>
      <trkpt lat="47.27154" lon="-2.29316">
        <ele>37</ele>
        <time>2022-01-23T08:23:11.000Z</time>
      </trkpt>
      <trkpt lat="47.27157" lon="-2.29295">
        <ele>37</ele>
        <time>2022-01-23T08:23:14.000Z</time>
      </trkpt>
      <trkpt lat="47.27159" lon="-2.29288">
        <ele>37</ele>
        <time>2022-01-23T08:23:15.000Z</time>
      </trkpt>
      <trkpt lat="47.27161" lon="-2.29282">
        <ele>37</ele>
        <time>2022-01-23T08:23:16.000Z</time>
      </trkpt>
      <trkpt lat="47.27171" lon="-2.29255">
        <ele>37</ele>
        <time>2022-01-23T08:23:20.000Z</time>
      </trkpt>
      <trkpt lat="47.27173" lon="-2.29243">
        <ele>37</ele>
        <time>2022-01-23T08:23:22.000Z</time>
      </trkpt>
      <trkpt lat="47.27171" lon="-2.29231">
        <ele>37</ele>
        <time>2022-01-23T08:23:24.000Z</time>
      </trkpt>
      <trkpt lat="47.27158" lon="-2.29202">
        <ele>37</ele>
        <time>2022-01-23T08:23:29.000Z</time>
      </trkpt>
      <trkpt lat="47.27154" lon="-2.29189">
        <ele>37</ele>
        <time>2022-01-23T08:23:31.000Z</time>
      </trkpt>
      <trkpt lat="47.27152" lon="-2.2917">
        <ele>37</ele>
        <time>2022-01-23T08:23:34.000Z</time>
      </trkpt>
      <trkpt lat="47.27159" lon="-2.2915">
        <ele>37</ele>
        <time>2022-01-23T08:23:38.000Z</time>
      </trkpt>
      <trkpt lat="47.27163" lon="-2.29145">
        <ele>37</ele>
        <time>2022-01-23T08:23:39.000Z</time>
      </trkpt>
      <trkpt lat="47.2717" lon="-2.29135">
        <ele>37</ele>
        <time>2022-01-23T08:23:41.000Z</time>
      </trkpt>
      <trkpt lat="47.27183" lon="-2.29121">
        <ele>37</ele>
        <time>2022-01-23T08:23:44.000Z</time>
      </trkpt>
      <trkpt lat="47.272" lon="-2.291">
        <ele>37</ele>
        <time>2022-01-23T08:23:48.000Z</time>
      </trkpt>
      <trkpt lat="47.27205" lon="-2.29097">
        <ele>37</ele>
        <time>2022-01-23T08:23:49.000Z</time>
      </trkpt>
      <trkpt lat="47.27219" lon="-2.29082">
        <ele>37</ele>
        <time>2022-01-23T08:23:52.000Z</time>
      </trkpt>
      <trkpt lat="47.27223" lon="-2.29078">
        <ele>37</ele>
        <time>2022-01-23T08:23:53.000Z</time>
      </trkpt>
      <trkpt lat="47.27228" lon="-2.29074">
        <ele>37</ele>
        <time>2022-01-23T08:23:54.000Z</time>
      </trkpt>
      <trkpt lat="47.27246" lon="-2.29061">
        <ele>37</ele>
        <time>2022-01-23T08:23:58.000Z</time>
      </trkpt>
      <trkpt lat="47.2725" lon="-2.29057">
        <ele>37</ele>
        <time>2022-01-23T08:23:59.000Z</time>
      </trkpt>
      <trkpt lat="47.27253" lon="-2.29051">
        <ele>36.599998474121</ele>
        <time>2022-01-23T08:24:00.000Z</time>
      </trkpt>
      <trkpt lat="47.27256" lon="-2.29045">
        <ele>36.200000762939</ele>
        <time>2022-01-23T08:24:01.000Z</time>
      </trkpt>
      <trkpt lat="47.27259" lon="-2.2904">
        <ele>35.799999237061</ele>
        <time>2022-01-23T08:24:02.000Z</time>
      </trkpt>
      <trkpt lat="47.27263" lon="-2.29035">
        <ele>35.400001525879</ele>
        <time>2022-01-23T08:24:03.000Z</time>
      </trkpt>
      <trkpt lat="47.27266" lon="-2.2903">
        <ele>35</ele>
        <time>2022-01-23T08:24:04.000Z</time>
      </trkpt>
      <trkpt lat="47.27269" lon="-2.29023">
        <ele>35</ele>
        <time>2022-01-23T08:24:05.000Z</time>
      </trkpt>
      <trkpt lat="47.27272" lon="-2.2901">
        <ele>35</ele>
        <time>2022-01-23T08:24:07.000Z</time>
      </trkpt>
      <trkpt lat="47.27279" lon="-2.28997">
        <ele>35</ele>
        <time>2022-01-23T08:24:10.000Z</time>
      </trkpt>
      <trkpt lat="47.27281" lon="-2.28992">
        <ele>35</ele>
        <time>2022-01-23T08:24:11.000Z</time>
      </trkpt>
      <trkpt lat="47.27295" lon="-2.28975">
        <ele>35</ele>
        <time>2022-01-23T08:24:16.000Z</time>
      </trkpt>
      <trkpt lat="47.27301" lon="-2.28961">
        <ele>35</ele>
        <time>2022-01-23T08:24:20.000Z</time>
      </trkpt>
      <trkpt lat="47.27314" lon="-2.28951">
        <ele>35</ele>
        <time>2022-01-23T08:24:25.000Z</time>
      </trkpt>
      <trkpt lat="47.27335" lon="-2.28955">
        <ele>35</ele>
        <time>2022-01-23T08:24:29.000Z</time>
      </trkpt>
      <trkpt lat="47.2734" lon="-2.28941">
        <ele>35</ele>
        <time>2022-01-23T08:24:32.000Z</time>
      </trkpt>
      <trkpt lat="47.27341" lon="-2.28929">
        <ele>35</ele>
        <time>2022-01-23T08:24:34.000Z</time>
      </trkpt>
      <trkpt lat="47.27343" lon="-2.28913">
        <ele>35</ele>
        <time>2022-01-23T08:24:36.000Z</time>
      </trkpt>
      <trkpt lat="47.27352" lon="-2.28855">
        <ele>35</ele>
        <time>2022-01-23T08:24:43.000Z</time>
      </trkpt>
      <trkpt lat="47.27361" lon="-2.28823">
        <ele>35</ele>
        <time>2022-01-23T08:24:47.000Z</time>
      </trkpt>
      <trkpt lat="47.27367" lon="-2.28807">
        <ele>35</ele>
        <time>2022-01-23T08:24:49.000Z</time>
      </trkpt>
      <trkpt lat="47.27379" lon="-2.28783">
        <ele>35</ele>
        <time>2022-01-23T08:24:52.000Z</time>
      </trkpt>
      <trkpt lat="47.27399" lon="-2.28738">
        <ele>35</ele>
        <time>2022-01-23T08:24:58.000Z</time>
      </trkpt>
      <trkpt lat="47.27414" lon="-2.28704">
        <ele>35</ele>
        <time>2022-01-23T08:25:03.000Z</time>
      </trkpt>
      <trkpt lat="47.2743" lon="-2.28675">
        <ele>35</ele>
        <time>2022-01-23T08:25:08.000Z</time>
      </trkpt>
      <trkpt lat="47.27434" lon="-2.28669">
        <ele>35</ele>
        <time>2022-01-23T08:25:09.000Z</time>
      </trkpt>
      <trkpt lat="47.27448" lon="-2.28645">
        <ele>35</ele>
        <time>2022-01-23T08:25:13.000Z</time>
      </trkpt>
      <trkpt lat="47.27466" lon="-2.28612">
        <ele>35</ele>
        <time>2022-01-23T08:25:19.000Z</time>
      </trkpt>
      <trkpt lat="47.27471" lon="-2.28613">
        <ele>35</ele>
        <time>2022-01-23T08:25:20.000Z</time>
      </trkpt>
      <trkpt lat="47.27476" lon="-2.28617">
        <ele>35</ele>
        <time>2022-01-23T08:25:21.000Z</time>
      </trkpt>
      <trkpt lat="47.27486" lon="-2.28637">
        <ele>35</ele>
        <time>2022-01-23T08:25:24.000Z</time>
      </trkpt>
      <trkpt lat="47.27491" lon="-2.2865">
        <ele>35</ele>
        <time>2022-01-23T08:25:26.000Z</time>
      </trkpt>
      <trkpt lat="47.27501" lon="-2.28669">
        <ele>35</ele>
        <time>2022-01-23T08:25:29.000Z</time>
      </trkpt>
      <trkpt lat="47.27504" lon="-2.28675">
        <ele>35</ele>
        <time>2022-01-23T08:25:30.000Z</time>
      </trkpt>
      <trkpt lat="47.27508" lon="-2.2868">
        <ele>35</ele>
        <time>2022-01-23T08:25:31.000Z</time>
      </trkpt>
      <trkpt lat="47.27515" lon="-2.28688">
        <ele>35</ele>
        <time>2022-01-23T08:25:33.000Z</time>
      </trkpt>
      <trkpt lat="47.27519" lon="-2.28691">
        <ele>35</ele>
        <time>2022-01-23T08:25:34.000Z</time>
      </trkpt>
      <trkpt lat="47.27532" lon="-2.28702">
        <ele>35</ele>
        <time>2022-01-23T08:25:37.000Z</time>
      </trkpt>
      <trkpt lat="47.27542" lon="-2.28709">
        <ele>35</ele>
        <time>2022-01-23T08:25:39.000Z</time>
      </trkpt>
      <trkpt lat="47.27547" lon="-2.28711">
        <ele>35</ele>
        <time>2022-01-23T08:25:40.000Z</time>
      </trkpt>
      <trkpt lat="47.27567" lon="-2.28723">
        <ele>35</ele>
        <time>2022-01-23T08:25:44.000Z</time>
      </trkpt>
      <trkpt lat="47.27597" lon="-2.28743">
        <ele>35</ele>
        <time>2022-01-23T08:25:50.000Z</time>
      </trkpt>
      <trkpt lat="47.27631" lon="-2.28755">
        <ele>35</ele>
        <time>2022-01-23T08:25:56.000Z</time>
      </trkpt>
      <trkpt lat="47.27673" lon="-2.28772">
        <ele>35</ele>
        <time>2022-01-23T08:26:04.000Z</time>
      </trkpt>
      <trkpt lat="47.2769" lon="-2.28793">
        <ele>35</ele>
        <time>2022-01-23T08:26:08.000Z</time>
      </trkpt>
      <trkpt lat="47.27698" lon="-2.28807">
        <ele>35</ele>
        <time>2022-01-23T08:26:10.000Z</time>
      </trkpt>
      <trkpt lat="47.27704" lon="-2.28813">
        <ele>35</ele>
        <time>2022-01-23T08:26:11.000Z</time>
      </trkpt>
      <trkpt lat="47.27709" lon="-2.28814">
        <ele>35</ele>
        <time>2022-01-23T08:26:12.000Z</time>
      </trkpt>
      <trkpt lat="47.27724" lon="-2.2881">
        <ele>35</ele>
        <time>2022-01-23T08:26:15.000Z</time>
      </trkpt>
      <trkpt lat="47.27728" lon="-2.28808">
        <ele>35</ele>
        <time>2022-01-23T08:26:16.000Z</time>
      </trkpt>
      <trkpt lat="47.27749" lon="-2.28801">
        <ele>35</ele>
        <time>2022-01-23T08:26:20.000Z</time>
      </trkpt>
      <trkpt lat="47.27755" lon="-2.28799">
        <ele>35</ele>
        <time>2022-01-23T08:26:21.000Z</time>
      </trkpt>
      <trkpt lat="47.27783" lon="-2.28793">
        <ele>35</ele>
        <time>2022-01-23T08:26:26.000Z</time>
      </trkpt>
      <trkpt lat="47.27795" lon="-2.28794">
        <ele>35</ele>
        <time>2022-01-23T08:26:28.000Z</time>
      </trkpt>
      <trkpt lat="47.27807" lon="-2.28793">
        <ele>35</ele>
        <time>2022-01-23T08:26:30.000Z</time>
      </trkpt>
      <trkpt lat="47.27826" lon="-2.28796">
        <ele>35</ele>
        <time>2022-01-23T08:26:33.000Z</time>
      </trkpt>
      <trkpt lat="47.27836" lon="-2.28799">
        <ele>35</ele>
        <time>2022-01-23T08:26:35.000Z</time>
      </trkpt>
      <trkpt lat="47.27846" lon="-2.28806">
        <ele>34.599998474121</ele>
        <time>2022-01-23T08:26:37.000Z</time>
      </trkpt>
      <trkpt lat="47.2785" lon="-2.2881">
        <ele>34</ele>
        <time>2022-01-23T08:26:38.000Z</time>
      </trkpt>
      <trkpt lat="47.27854" lon="-2.28813">
        <ele>33.599998474121</ele>
        <time>2022-01-23T08:26:39.000Z</time>
      </trkpt>
      <trkpt lat="47.27858" lon="-2.28816">
        <ele>33.200000762939</ele>
        <time>2022-01-23T08:26:40.000Z</time>
      </trkpt>
      <trkpt lat="47.27862" lon="-2.28816">
        <ele>32.799999237061</ele>
        <time>2022-01-23T08:26:41.000Z</time>
      </trkpt>
      <trkpt lat="47.27869" lon="-2.2881">
        <ele>32.799999237061</ele>
        <time>2022-01-23T08:26:43.000Z</time>
      </trkpt>
      <trkpt lat="47.27873" lon="-2.28793">
        <ele>32.799999237061</ele>
        <time>2022-01-23T08:26:46.000Z</time>
      </trkpt>
      <trkpt lat="47.27878" lon="-2.28776">
        <ele>32.799999237061</ele>
        <time>2022-01-23T08:26:49.000Z</time>
      </trkpt>
      <trkpt lat="47.27887" lon="-2.28769">
        <ele>32.799999237061</ele>
        <time>2022-01-23T08:26:51.000Z</time>
      </trkpt>
      <trkpt lat="47.27909" lon="-2.28762">
        <ele>32.799999237061</ele>
        <time>2022-01-23T08:26:55.000Z</time>
      </trkpt>
      <trkpt lat="47.27953" lon="-2.28748">
        <ele>32.799999237061</ele>
        <time>2022-01-23T08:27:03.000Z</time>
      </trkpt>
      <trkpt lat="47.27981" lon="-2.28747">
        <ele>32.799999237061</ele>
        <time>2022-01-23T08:27:08.000Z</time>
      </trkpt>
      <trkpt lat="47.27987" lon="-2.28749">
        <ele>32.799999237061</ele>
        <time>2022-01-23T08:27:09.000Z</time>
      </trkpt>
      <trkpt lat="47.28022" lon="-2.28756">
        <ele>32.799999237061</ele>
        <time>2022-01-23T08:27:15.000Z</time>
      </trkpt>
      <trkpt lat="47.28051" lon="-2.28763">
        <ele>32.799999237061</ele>
        <time>2022-01-23T08:27:20.000Z</time>
      </trkpt>
      <trkpt lat="47.28056" lon="-2.28765">
        <ele>32.799999237061</ele>
        <time>2022-01-23T08:27:21.000Z</time>
      </trkpt>
      <trkpt lat="47.28094" lon="-2.28781">
        <ele>32.799999237061</ele>
        <time>2022-01-23T08:27:28.000Z</time>
      </trkpt>
      <trkpt lat="47.28109" lon="-2.2879">
        <ele>33.200000762939</ele>
        <time>2022-01-23T08:27:31.000Z</time>
      </trkpt>
      <trkpt lat="47.28114" lon="-2.28793">
        <ele>33.599998474121</ele>
        <time>2022-01-23T08:27:32.000Z</time>
      </trkpt>
      <trkpt lat="47.28118" lon="-2.28796">
        <ele>34</ele>
        <time>2022-01-23T08:27:33.000Z</time>
      </trkpt>
      <trkpt lat="47.28123" lon="-2.28799">
        <ele>34.400001525879</ele>
        <time>2022-01-23T08:27:34.000Z</time>
      </trkpt>
      <trkpt lat="47.28128" lon="-2.28802">
        <ele>34.799999237061</ele>
        <time>2022-01-23T08:27:35.000Z</time>
      </trkpt>
      <trkpt lat="47.28152" lon="-2.28822">
        <ele>34.799999237061</ele>
        <time>2022-01-23T08:27:41.000Z</time>
      </trkpt>
      <trkpt lat="47.28167" lon="-2.28834">
        <ele>35.200000762939</ele>
        <time>2022-01-23T08:27:45.000Z</time>
      </trkpt>
      <trkpt lat="47.28171" lon="-2.28837">
        <ele>35.799999237061</ele>
        <time>2022-01-23T08:27:46.000Z</time>
      </trkpt>
      <trkpt lat="47.28175" lon="-2.2884">
        <ele>36.200000762939</ele>
        <time>2022-01-23T08:27:47.000Z</time>
      </trkpt>
      <trkpt lat="47.28179" lon="-2.28844">
        <ele>36.599998474121</ele>
        <time>2022-01-23T08:27:48.000Z</time>
      </trkpt>
      <trkpt lat="47.28182" lon="-2.28848">
        <ele>37</ele>
        <time>2022-01-23T08:27:49.000Z</time>
      </trkpt>
      <trkpt lat="47.28193" lon="-2.28859">
        <ele>37</ele>
        <time>2022-01-23T08:27:52.000Z</time>
      </trkpt>
      <trkpt lat="47.28205" lon="-2.28868">
        <ele>37</ele>
        <time>2022-01-23T08:27:55.000Z</time>
      </trkpt>
      <trkpt lat="47.28213" lon="-2.28872">
        <ele>37</ele>
        <time>2022-01-23T08:27:57.000Z</time>
      </trkpt>
      <trkpt lat="47.28217" lon="-2.28872">
        <ele>37</ele>
        <time>2022-01-23T08:27:58.000Z</time>
      </trkpt>
      <trkpt lat="47.28228" lon="-2.2886">
        <ele>37.400001525879</ele>
        <time>2022-01-23T08:28:01.000Z</time>
      </trkpt>
      <trkpt lat="47.2823" lon="-2.28855">
        <ele>38</ele>
        <time>2022-01-23T08:28:02.000Z</time>
      </trkpt>
      <trkpt lat="47.28232" lon="-2.28848">
        <ele>38.400001525879</ele>
        <time>2022-01-23T08:28:03.000Z</time>
      </trkpt>
      <trkpt lat="47.28233" lon="-2.28841">
        <ele>38.799999237061</ele>
        <time>2022-01-23T08:28:04.000Z</time>
      </trkpt>
      <trkpt lat="47.28234" lon="-2.28834">
        <ele>39.400001525879</ele>
        <time>2022-01-23T08:28:05.000Z</time>
      </trkpt>
      <trkpt lat="47.28242" lon="-2.28782">
        <ele>39.400001525879</ele>
        <time>2022-01-23T08:28:12.000Z</time>
      </trkpt>
      <trkpt lat="47.2825" lon="-2.28728">
        <ele>39.400001525879</ele>
        <time>2022-01-23T08:28:19.000Z</time>
      </trkpt>
      <trkpt lat="47.28262" lon="-2.28665">
        <ele>39.400001525879</ele>
        <time>2022-01-23T08:28:27.000Z</time>
      </trkpt>
      <trkpt lat="47.28274" lon="-2.28608">
        <ele>39.400001525879</ele>
        <time>2022-01-23T08:28:34.000Z</time>
      </trkpt>
      <trkpt lat="47.28286" lon="-2.28551">
        <ele>39.400001525879</ele>
        <time>2022-01-23T08:28:41.000Z</time>
      </trkpt>
      <trkpt lat="47.28294" lon="-2.28498">
        <ele>39.400001525879</ele>
        <time>2022-01-23T08:28:48.000Z</time>
      </trkpt>
      <trkpt lat="47.28298" lon="-2.28471">
        <ele>39.400001525879</ele>
        <time>2022-01-23T08:28:52.000Z</time>
      </trkpt>
      <trkpt lat="47.28302" lon="-2.2845">
        <ele>39.400001525879</ele>
        <time>2022-01-23T08:28:55.000Z</time>
      </trkpt>
      <trkpt lat="47.28304" lon="-2.28444">
        <ele>39.400001525879</ele>
        <time>2022-01-23T08:28:56.000Z</time>
      </trkpt>
      <trkpt lat="47.28314" lon="-2.28411">
        <ele>39.400001525879</ele>
        <time>2022-01-23T08:29:01.000Z</time>
      </trkpt>
      <trkpt lat="47.28321" lon="-2.28377">
        <ele>39.400001525879</ele>
        <time>2022-01-23T08:29:06.000Z</time>
      </trkpt>
      <trkpt lat="47.28323" lon="-2.28364">
        <ele>39.400001525879</ele>
        <time>2022-01-23T08:29:08.000Z</time>
      </trkpt>
      <trkpt lat="47.28324" lon="-2.28322">
        <ele>40.200000762939</ele>
        <time>2022-01-23T08:29:14.000Z</time>
      </trkpt>
      <trkpt lat="47.28324" lon="-2.28314">
        <ele>40.599998474121</ele>
        <time>2022-01-23T08:29:15.000Z</time>
      </trkpt>
      <trkpt lat="47.28324" lon="-2.28307">
        <ele>41</ele>
        <time>2022-01-23T08:29:16.000Z</time>
      </trkpt>
      <trkpt lat="47.28324" lon="-2.283">
        <ele>41.400001525879</ele>
        <time>2022-01-23T08:29:17.000Z</time>
      </trkpt>
      <trkpt lat="47.28325" lon="-2.28292">
        <ele>41.400001525879</ele>
        <time>2022-01-23T08:29:18.000Z</time>
      </trkpt>
      <trkpt lat="47.28325" lon="-2.28276">
        <ele>41.400001525879</ele>
        <time>2022-01-23T08:29:20.000Z</time>
      </trkpt>
      <trkpt lat="47.28325" lon="-2.2824">
        <ele>41</ele>
        <time>2022-01-23T08:29:24.000Z</time>
      </trkpt>
      <trkpt lat="47.28325" lon="-2.28232">
        <ele>40.599998474121</ele>
        <time>2022-01-23T08:29:25.000Z</time>
      </trkpt>
      <trkpt lat="47.28325" lon="-2.28223">
        <ele>40.200000762939</ele>
        <time>2022-01-23T08:29:26.000Z</time>
      </trkpt>
      <trkpt lat="47.28325" lon="-2.28214">
        <ele>39.799999237061</ele>
        <time>2022-01-23T08:29:27.000Z</time>
      </trkpt>
      <trkpt lat="47.28325" lon="-2.28205">
        <ele>39.200000762939</ele>
        <time>2022-01-23T08:29:28.000Z</time>
      </trkpt>
      <trkpt lat="47.28325" lon="-2.28176">
        <ele>38.799999237061</ele>
        <time>2022-01-23T08:29:31.000Z</time>
      </trkpt>
      <trkpt lat="47.28325" lon="-2.28166">
        <ele>38.400001525879</ele>
        <time>2022-01-23T08:29:32.000Z</time>
      </trkpt>
      <trkpt lat="47.28325" lon="-2.28156">
        <ele>38</ele>
        <time>2022-01-23T08:29:33.000Z</time>
      </trkpt>
      <trkpt lat="47.28325" lon="-2.28146">
        <ele>37.400001525879</ele>
        <time>2022-01-23T08:29:34.000Z</time>
      </trkpt>
      <trkpt lat="47.28325" lon="-2.28138">
        <ele>37</ele>
        <time>2022-01-23T08:29:35.000Z</time>
      </trkpt>
      <trkpt lat="47.28325" lon="-2.2813">
        <ele>36.400001525879</ele>
        <time>2022-01-23T08:29:36.000Z</time>
      </trkpt>
      <trkpt lat="47.28325" lon="-2.28121">
        <ele>36</ele>
        <time>2022-01-23T08:29:37.000Z</time>
      </trkpt>
      <trkpt lat="47.28324" lon="-2.28114">
        <ele>35.400001525879</ele>
        <time>2022-01-23T08:29:38.000Z</time>
      </trkpt>
      <trkpt lat="47.28324" lon="-2.28107">
        <ele>34.400001525879</ele>
        <time>2022-01-23T08:29:39.000Z</time>
      </trkpt>
      <trkpt lat="47.28324" lon="-2.28102">
        <ele>34.400001525879</ele>
        <time>2022-01-23T08:29:40.000Z</time>
      </trkpt>
      <trkpt lat="47.28325" lon="-2.28096">
        <ele>33.799999237061</ele>
        <time>2022-01-23T08:29:41.000Z</time>
      </trkpt>
      <trkpt lat="47.28327" lon="-2.28093">
        <ele>33.400001525879</ele>
        <time>2022-01-23T08:29:42.000Z</time>
      </trkpt>
      <trkpt lat="47.2833" lon="-2.2809">
        <ele>33</ele>
        <time>2022-01-23T08:29:43.000Z</time>
      </trkpt>
      <trkpt lat="47.28331" lon="-2.28088">
        <ele>32.599998474121</ele>
        <time>2022-01-23T08:29:44.000Z</time>
      </trkpt>
      <trkpt lat="47.28333" lon="-2.28086">
        <ele>32.200000762939</ele>
        <time>2022-01-23T08:29:45.000Z</time>
      </trkpt>
      <trkpt lat="47.28351" lon="-2.28081">
        <ele>32.200000762939</ele>
        <time>2022-01-23T08:29:54.000Z</time>
      </trkpt>
      <trkpt lat="47.28356" lon="-2.28076">
        <ele>32.200000762939</ele>
        <time>2022-01-23T08:29:56.000Z</time>
      </trkpt>
      <trkpt lat="47.28365" lon="-2.28075">
        <ele>32.200000762939</ele>
        <time>2022-01-23T08:30:01.000Z</time>
      </trkpt>
      <trkpt lat="47.2837" lon="-2.28075">
        <ele>32.200000762939</ele>
        <time>2022-01-23T08:30:04.000Z</time>
      </trkpt>
      <trkpt lat="47.28374" lon="-2.28075">
        <ele>32.200000762939</ele>
        <time>2022-01-23T08:30:06.000Z</time>
      </trkpt>
      <trkpt lat="47.28376" lon="-2.28076">
        <ele>32.200000762939</ele>
        <time>2022-01-23T08:30:07.000Z</time>
      </trkpt>
      <trkpt lat="47.28392" lon="-2.28077">
        <ele>32.200000762939</ele>
        <time>2022-01-23T08:30:12.000Z</time>
      </trkpt>
      <trkpt lat="47.28409" lon="-2.28085">
        <ele>32.200000762939</ele>
        <time>2022-01-23T08:30:17.000Z</time>
      </trkpt>
      <trkpt lat="47.28415" lon="-2.28084">
        <ele>32.200000762939</ele>
        <time>2022-01-23T08:30:19.000Z</time>
      </trkpt>
      <trkpt lat="47.28419" lon="-2.28084">
        <ele>32.200000762939</ele>
        <time>2022-01-23T08:30:21.000Z</time>
      </trkpt>
      <trkpt lat="47.28426" lon="-2.28086">
        <ele>32.200000762939</ele>
        <time>2022-01-23T08:30:24.000Z</time>
      </trkpt>
      <trkpt lat="47.28431" lon="-2.28082">
        <ele>32.200000762939</ele>
        <time>2022-01-23T08:30:26.000Z</time>
      </trkpt>
      <trkpt lat="47.28441" lon="-2.28087">
        <ele>32.200000762939</ele>
        <time>2022-01-23T08:30:30.000Z</time>
      </trkpt>
      <trkpt lat="47.28451" lon="-2.2809">
        <ele>32.200000762939</ele>
        <time>2022-01-23T08:30:35.000Z</time>
      </trkpt>
      <trkpt lat="47.28453" lon="-2.2809">
        <ele>32.200000762939</ele>
        <time>2022-01-23T08:30:38.000Z</time>
      </trkpt>
      <trkpt lat="47.28459" lon="-2.28096">
        <ele>32.200000762939</ele>
        <time>2022-01-23T08:30:42.000Z</time>
      </trkpt>
      <trkpt lat="47.28461" lon="-2.28097">
        <ele>32.200000762939</ele>
        <time>2022-01-23T08:30:43.000Z</time>
      </trkpt>
      <trkpt lat="47.28464" lon="-2.28095">
        <ele>32.200000762939</ele>
        <time>2022-01-23T08:30:44.000Z</time>
      </trkpt>
      <trkpt lat="47.28469" lon="-2.28096">
        <ele>32.200000762939</ele>
        <time>2022-01-23T08:30:46.000Z</time>
      </trkpt>
      <trkpt lat="47.28472" lon="-2.28094">
        <ele>32.200000762939</ele>
        <time>2022-01-23T08:30:47.000Z</time>
      </trkpt>
      <trkpt lat="47.2848" lon="-2.28088">
        <ele>32.200000762939</ele>
        <time>2022-01-23T08:30:50.000Z</time>
      </trkpt>
      <trkpt lat="47.28483" lon="-2.28088">
        <ele>32.200000762939</ele>
        <time>2022-01-23T08:30:52.000Z</time>
      </trkpt>
      <trkpt lat="47.28488" lon="-2.28082">
        <ele>32.200000762939</ele>
        <time>2022-01-23T08:30:54.000Z</time>
      </trkpt>
      <trkpt lat="47.28489" lon="-2.28078">
        <ele>32.599998474121</ele>
        <time>2022-01-23T08:30:55.000Z</time>
      </trkpt>
      <trkpt lat="47.28489" lon="-2.28077">
        <ele>33</ele>
        <time>2022-01-23T08:30:56.000Z</time>
      </trkpt>
      <trkpt lat="47.28489" lon="-2.28075">
        <ele>33.599998474121</ele>
        <time>2022-01-23T08:30:57.000Z</time>
      </trkpt>
      <trkpt lat="47.28488" lon="-2.28073">
        <ele>34</ele>
        <time>2022-01-23T08:30:58.000Z</time>
      </trkpt>
      <trkpt lat="47.28487" lon="-2.28071">
        <ele>34.400001525879</ele>
        <time>2022-01-23T08:30:59.000Z</time>
      </trkpt>
      <trkpt lat="47.28484" lon="-2.28061">
        <ele>34.400001525879</ele>
        <time>2022-01-23T08:31:02.000Z</time>
      </trkpt>
      <trkpt lat="47.28483" lon="-2.28057">
        <ele>34.400001525879</ele>
        <time>2022-01-23T08:31:03.000Z</time>
      </trkpt>
      <trkpt lat="47.28483" lon="-2.28051">
        <ele>34.799999237061</ele>
        <time>2022-01-23T08:31:05.000Z</time>
      </trkpt>
      <trkpt lat="47.28484" lon="-2.28048">
        <ele>35.200000762939</ele>
        <time>2022-01-23T08:31:06.000Z</time>
      </trkpt>
      <trkpt lat="47.28485" lon="-2.28047">
        <ele>35.599998474121</ele>
        <time>2022-01-23T08:31:07.000Z</time>
      </trkpt>
      <trkpt lat="47.28486" lon="-2.28045">
        <ele>36</ele>
        <time>2022-01-23T08:31:08.000Z</time>
      </trkpt>
      <trkpt lat="47.28488" lon="-2.28044">
        <ele>36.400001525879</ele>
        <time>2022-01-23T08:31:09.000Z</time>
      </trkpt>
      <trkpt lat="47.28493" lon="-2.28038">
        <ele>36.400001525879</ele>
        <time>2022-01-23T08:31:12.000Z</time>
      </trkpt>
      <trkpt lat="47.28495" lon="-2.28038">
        <ele>36.400001525879</ele>
        <time>2022-01-23T08:31:13.000Z</time>
      </trkpt>
      <trkpt lat="47.28502" lon="-2.28044">
        <ele>36.400001525879</ele>
        <time>2022-01-23T08:31:16.000Z</time>
      </trkpt>
      <trkpt lat="47.28504" lon="-2.28046">
        <ele>36.400001525879</ele>
        <time>2022-01-23T08:31:17.000Z</time>
      </trkpt>
      <trkpt lat="47.28513" lon="-2.28049">
        <ele>36</ele>
        <time>2022-01-23T08:31:20.000Z</time>
      </trkpt>
      <trkpt lat="47.28517" lon="-2.2805">
        <ele>35.599998474121</ele>
        <time>2022-01-23T08:31:21.000Z</time>
      </trkpt>
      <trkpt lat="47.28521" lon="-2.28049">
        <ele>35.200000762939</ele>
        <time>2022-01-23T08:31:22.000Z</time>
      </trkpt>
      <trkpt lat="47.28525" lon="-2.28048">
        <ele>34.599998474121</ele>
        <time>2022-01-23T08:31:23.000Z</time>
      </trkpt>
      <trkpt lat="47.2853" lon="-2.2805">
        <ele>34.200000762939</ele>
        <time>2022-01-23T08:31:24.000Z</time>
      </trkpt>
      <trkpt lat="47.28533" lon="-2.28052">
        <ele>33.799999237061</ele>
        <time>2022-01-23T08:31:25.000Z</time>
      </trkpt>
      <trkpt lat="47.28536" lon="-2.28053">
        <ele>33.400001525879</ele>
        <time>2022-01-23T08:31:26.000Z</time>
      </trkpt>
      <trkpt lat="47.28539" lon="-2.28052">
        <ele>33</ele>
        <time>2022-01-23T08:31:27.000Z</time>
      </trkpt>
      <trkpt lat="47.28542" lon="-2.28051">
        <ele>32.599998474121</ele>
        <time>2022-01-23T08:31:28.000Z</time>
      </trkpt>
      <trkpt lat="47.28545" lon="-2.2805">
        <ele>32.200000762939</ele>
        <time>2022-01-23T08:31:29.000Z</time>
      </trkpt>
      <trkpt lat="47.28548" lon="-2.28052">
        <ele>31.60000038147</ele>
        <time>2022-01-23T08:31:30.000Z</time>
      </trkpt>
      <trkpt lat="47.28551" lon="-2.28054">
        <ele>31.200000762939</ele>
        <time>2022-01-23T08:31:31.000Z</time>
      </trkpt>
      <trkpt lat="47.28555" lon="-2.28055">
        <ele>30.799999237061</ele>
        <time>2022-01-23T08:31:32.000Z</time>
      </trkpt>
      <trkpt lat="47.2856" lon="-2.28054">
        <ele>30.200000762939</ele>
        <time>2022-01-23T08:31:33.000Z</time>
      </trkpt>
      <trkpt lat="47.28563" lon="-2.2805">
        <ele>29.799999237061</ele>
        <time>2022-01-23T08:31:34.000Z</time>
      </trkpt>
      <trkpt lat="47.28566" lon="-2.28048">
        <ele>29.799999237061</ele>
        <time>2022-01-23T08:31:35.000Z</time>
      </trkpt>
      <trkpt lat="47.2857" lon="-2.28048">
        <ele>29.799999237061</ele>
        <time>2022-01-23T08:31:36.000Z</time>
      </trkpt>
      <trkpt lat="47.28574" lon="-2.28044">
        <ele>29.799999237061</ele>
        <time>2022-01-23T08:31:38.000Z</time>
      </trkpt>
      <trkpt lat="47.28579" lon="-2.28036">
        <ele>29.799999237061</ele>
        <time>2022-01-23T08:31:40.000Z</time>
      </trkpt>
      <trkpt lat="47.28588" lon="-2.28026">
        <ele>29.799999237061</ele>
        <time>2022-01-23T08:31:43.000Z</time>
      </trkpt>
      <trkpt lat="47.28597" lon="-2.28012">
        <ele>29.799999237061</ele>
        <time>2022-01-23T08:31:46.000Z</time>
      </trkpt>
      <trkpt lat="47.28602" lon="-2.28002">
        <ele>29.799999237061</ele>
        <time>2022-01-23T08:31:48.000Z</time>
      </trkpt>
      <trkpt lat="47.28607" lon="-2.27984">
        <ele>29.799999237061</ele>
        <time>2022-01-23T08:31:51.000Z</time>
      </trkpt>
      <trkpt lat="47.28608" lon="-2.27977">
        <ele>29.799999237061</ele>
        <time>2022-01-23T08:31:52.000Z</time>
      </trkpt>
      <trkpt lat="47.28614" lon="-2.27957">
        <ele>29.39999961853</ele>
        <time>2022-01-23T08:31:55.000Z</time>
      </trkpt>
      <trkpt lat="47.28616" lon="-2.27952">
        <ele>29</ele>
        <time>2022-01-23T08:31:56.000Z</time>
      </trkpt>
      <trkpt lat="47.28618" lon="-2.27946">
        <ele>28.60000038147</ele>
        <time>2022-01-23T08:31:57.000Z</time>
      </trkpt>
      <trkpt lat="47.28621" lon="-2.27942">
        <ele>28.200000762939</ele>
        <time>2022-01-23T08:31:58.000Z</time>
      </trkpt>
      <trkpt lat="47.28624" lon="-2.27935">
        <ele>27.799999237061</ele>
        <time>2022-01-23T08:31:59.000Z</time>
      </trkpt>
      <trkpt lat="47.28627" lon="-2.2792">
        <ele>27.799999237061</ele>
        <time>2022-01-23T08:32:01.000Z</time>
      </trkpt>
      <trkpt lat="47.28635" lon="-2.27865">
        <ele>27.799999237061</ele>
        <time>2022-01-23T08:32:08.000Z</time>
      </trkpt>
      <trkpt lat="47.28649" lon="-2.27794">
        <ele>27.799999237061</ele>
        <time>2022-01-23T08:32:16.000Z</time>
      </trkpt>
      <trkpt lat="47.28664" lon="-2.27749">
        <ele>27.799999237061</ele>
        <time>2022-01-23T08:32:22.000Z</time>
      </trkpt>
      <trkpt lat="47.28668" lon="-2.27741">
        <ele>27.799999237061</ele>
        <time>2022-01-23T08:32:23.000Z</time>
      </trkpt>
      <trkpt lat="47.28684" lon="-2.27714">
        <ele>27.799999237061</ele>
        <time>2022-01-23T08:32:27.000Z</time>
      </trkpt>
      <trkpt lat="47.2871" lon="-2.27672">
        <ele>27.799999237061</ele>
        <time>2022-01-23T08:32:33.000Z</time>
      </trkpt>
      <trkpt lat="47.28714" lon="-2.27665">
        <ele>27.39999961853</ele>
        <time>2022-01-23T08:32:34.000Z</time>
      </trkpt>
      <trkpt lat="47.28718" lon="-2.27658">
        <ele>27</ele>
        <time>2022-01-23T08:32:35.000Z</time>
      </trkpt>
      <trkpt lat="47.28722" lon="-2.27651">
        <ele>26.60000038147</ele>
        <time>2022-01-23T08:32:36.000Z</time>
      </trkpt>
      <trkpt lat="47.28727" lon="-2.27645">
        <ele>26.200000762939</ele>
        <time>2022-01-23T08:32:37.000Z</time>
      </trkpt>
      <trkpt lat="47.28731" lon="-2.27638">
        <ele>25.799999237061</ele>
        <time>2022-01-23T08:32:38.000Z</time>
      </trkpt>
      <trkpt lat="47.28749" lon="-2.27614">
        <ele>25.799999237061</ele>
        <time>2022-01-23T08:32:42.000Z</time>
      </trkpt>
      <trkpt lat="47.2878" lon="-2.27576">
        <ele>25.799999237061</ele>
        <time>2022-01-23T08:32:49.000Z</time>
      </trkpt>
      <trkpt lat="47.28796" lon="-2.27551">
        <ele>25.799999237061</ele>
        <time>2022-01-23T08:32:53.000Z</time>
      </trkpt>
      <trkpt lat="47.288" lon="-2.27544">
        <ele>25.799999237061</ele>
        <time>2022-01-23T08:32:54.000Z</time>
      </trkpt>
      <trkpt lat="47.28816" lon="-2.27539">
        <ele>25.799999237061</ele>
        <time>2022-01-23T08:32:57.000Z</time>
      </trkpt>
      <trkpt lat="47.2886" lon="-2.27531">
        <ele>25.799999237061</ele>
        <time>2022-01-23T08:33:04.000Z</time>
      </trkpt>
      <trkpt lat="47.28904" lon="-2.27524">
        <ele>25.799999237061</ele>
        <time>2022-01-23T08:33:11.000Z</time>
      </trkpt>
      <trkpt lat="47.28943" lon="-2.27522">
        <ele>25.799999237061</ele>
        <time>2022-01-23T08:33:17.000Z</time>
      </trkpt>
      <trkpt lat="47.28985" lon="-2.27522">
        <ele>25.799999237061</ele>
        <time>2022-01-23T08:33:24.000Z</time>
      </trkpt>
      <trkpt lat="47.29018" lon="-2.27522">
        <ele>25.799999237061</ele>
        <time>2022-01-23T08:33:30.000Z</time>
      </trkpt>
      <trkpt lat="47.29054" lon="-2.27523">
        <ele>25.799999237061</ele>
        <time>2022-01-23T08:33:37.000Z</time>
      </trkpt>
      <trkpt lat="47.29081" lon="-2.27526">
        <ele>25.799999237061</ele>
        <time>2022-01-23T08:33:43.000Z</time>
      </trkpt>
      <trkpt lat="47.291" lon="-2.27528">
        <ele>25.799999237061</ele>
        <time>2022-01-23T08:33:48.000Z</time>
      </trkpt>
      <trkpt lat="47.29104" lon="-2.27517">
        <ele>25.799999237061</ele>
        <time>2022-01-23T08:33:51.000Z</time>
      </trkpt>
      <trkpt lat="47.29104" lon="-2.275">
        <ele>25.799999237061</ele>
        <time>2022-01-23T08:33:54.000Z</time>
      </trkpt>
      <trkpt lat="47.29105" lon="-2.27493">
        <ele>25.799999237061</ele>
        <time>2022-01-23T08:33:55.000Z</time>
      </trkpt>
      <trkpt lat="47.29108" lon="-2.27448">
        <ele>25.799999237061</ele>
        <time>2022-01-23T08:34:01.000Z</time>
      </trkpt>
      <trkpt lat="47.29109" lon="-2.27432">
        <ele>25.799999237061</ele>
        <time>2022-01-23T08:34:03.000Z</time>
      </trkpt>
      <trkpt lat="47.29107" lon="-2.27407">
        <ele>25.799999237061</ele>
        <time>2022-01-23T08:34:06.000Z</time>
      </trkpt>
      <trkpt lat="47.29104" lon="-2.27391">
        <ele>25.799999237061</ele>
        <time>2022-01-23T08:34:08.000Z</time>
      </trkpt>
      <trkpt lat="47.29102" lon="-2.27384">
        <ele>25.799999237061</ele>
        <time>2022-01-23T08:34:09.000Z</time>
      </trkpt>
      <trkpt lat="47.291" lon="-2.27371">
        <ele>25.200000762939</ele>
        <time>2022-01-23T08:34:11.000Z</time>
      </trkpt>
      <trkpt lat="47.29099" lon="-2.27366">
        <ele>24.799999237061</ele>
        <time>2022-01-23T08:34:12.000Z</time>
      </trkpt>
      <trkpt lat="47.29097" lon="-2.27363">
        <ele>24.39999961853</ele>
        <time>2022-01-23T08:34:13.000Z</time>
      </trkpt>
      <trkpt lat="47.29095" lon="-2.27361">
        <ele>24</ele>
        <time>2022-01-23T08:34:14.000Z</time>
      </trkpt>
      <trkpt lat="47.29094" lon="-2.27359">
        <ele>23.60000038147</ele>
        <time>2022-01-23T08:34:15.000Z</time>
      </trkpt>
      <trkpt lat="47.29092" lon="-2.27348">
        <ele>23.60000038147</ele>
        <time>2022-01-23T08:34:18.000Z</time>
      </trkpt>
      <trkpt lat="47.29093" lon="-2.27326">
        <ele>23.60000038147</ele>
        <time>2022-01-23T08:34:23.000Z</time>
      </trkpt>
      <trkpt lat="47.29095" lon="-2.27308">
        <ele>23.60000038147</ele>
        <time>2022-01-23T08:34:28.000Z</time>
      </trkpt>
      <trkpt lat="47.29099" lon="-2.27286">
        <ele>23.60000038147</ele>
        <time>2022-01-23T08:34:33.000Z</time>
      </trkpt>
      <trkpt lat="47.29103" lon="-2.27264">
        <ele>23.60000038147</ele>
        <time>2022-01-23T08:34:38.000Z</time>
      </trkpt>
      <trkpt lat="47.29108" lon="-2.27238">
        <ele>23.60000038147</ele>
        <time>2022-01-23T08:34:43.000Z</time>
      </trkpt>
      <trkpt lat="47.29112" lon="-2.27225">
        <ele>23.60000038147</ele>
        <time>2022-01-23T08:34:48.000Z</time>
      </trkpt>
      <trkpt lat="47.29112" lon="-2.2722">
        <ele>23.60000038147</ele>
        <time>2022-01-23T08:34:50.000Z</time>
      </trkpt>
      <trkpt lat="47.29114" lon="-2.27214">
        <ele>23.60000038147</ele>
        <time>2022-01-23T08:34:53.000Z</time>
      </trkpt>
      <trkpt lat="47.29112" lon="-2.27212">
        <ele>23.60000038147</ele>
        <time>2022-01-23T08:34:55.000Z</time>
      </trkpt>
      <trkpt lat="47.2911" lon="-2.2721">
        <ele>23.60000038147</ele>
        <time>2022-01-23T08:34:57.000Z</time>
      </trkpt>
      <trkpt lat="47.29109" lon="-2.27209">
        <ele>23.60000038147</ele>
        <time>2022-01-23T08:34:58.000Z</time>
      </trkpt>
      <trkpt lat="47.29105" lon="-2.27208">
        <ele>23.60000038147</ele>
        <time>2022-01-23T08:35:02.000Z</time>
      </trkpt>
      <trkpt lat="47.29103" lon="-2.27208">
        <ele>23.60000038147</ele>
        <time>2022-01-23T08:35:03.000Z</time>
      </trkpt>
      <trkpt lat="47.29089" lon="-2.27208">
        <ele>23.60000038147</ele>
        <time>2022-01-23T08:35:08.000Z</time>
      </trkpt>
      <trkpt lat="47.29079" lon="-2.272">
        <ele>23.60000038147</ele>
        <time>2022-01-23T08:35:11.000Z</time>
      </trkpt>
      <trkpt lat="47.29075" lon="-2.27196">
        <ele>23.60000038147</ele>
        <time>2022-01-23T08:35:12.000Z</time>
      </trkpt>
      <trkpt lat="47.29068" lon="-2.27185">
        <ele>23.60000038147</ele>
        <time>2022-01-23T08:35:15.000Z</time>
      </trkpt>
      <trkpt lat="47.29066" lon="-2.2718">
        <ele>24</ele>
        <time>2022-01-23T08:35:16.000Z</time>
      </trkpt>
      <trkpt lat="47.29065" lon="-2.27175">
        <ele>24.39999961853</ele>
        <time>2022-01-23T08:35:17.000Z</time>
      </trkpt>
      <trkpt lat="47.29063" lon="-2.2717">
        <ele>25</ele>
        <time>2022-01-23T08:35:18.000Z</time>
      </trkpt>
      <trkpt lat="47.2906" lon="-2.27165">
        <ele>25.39999961853</ele>
        <time>2022-01-23T08:35:19.000Z</time>
      </trkpt>
      <trkpt lat="47.29057" lon="-2.27161">
        <ele>25.799999237061</ele>
        <time>2022-01-23T08:35:20.000Z</time>
      </trkpt>
      <trkpt lat="47.29054" lon="-2.27157">
        <ele>25.799999237061</ele>
        <time>2022-01-23T08:35:21.000Z</time>
      </trkpt>
      <trkpt lat="47.29034" lon="-2.27138">
        <ele>25.799999237061</ele>
        <time>2022-01-23T08:35:27.000Z</time>
      </trkpt>
      <trkpt lat="47.29024" lon="-2.27117">
        <ele>25.799999237061</ele>
        <time>2022-01-23T08:35:32.000Z</time>
      </trkpt>
      <trkpt lat="47.29024" lon="-2.27106">
        <ele>25.799999237061</ele>
        <time>2022-01-23T08:35:34.000Z</time>
      </trkpt>
      <trkpt lat="47.29025" lon="-2.27102">
        <ele>25.799999237061</ele>
        <time>2022-01-23T08:35:35.000Z</time>
      </trkpt>
      <trkpt lat="47.29032" lon="-2.27099">
        <ele>25.799999237061</ele>
        <time>2022-01-23T08:35:38.000Z</time>
      </trkpt>
      <trkpt lat="47.29033" lon="-2.27097">
        <ele>25.799999237061</ele>
        <time>2022-01-23T08:35:39.000Z</time>
      </trkpt>
      <trkpt lat="47.29042" lon="-2.27084">
        <ele>25.799999237061</ele>
        <time>2022-01-23T08:35:42.000Z</time>
      </trkpt>
      <trkpt lat="47.29046" lon="-2.27078">
        <ele>25.799999237061</ele>
        <time>2022-01-23T08:35:43.000Z</time>
      </trkpt>
      <trkpt lat="47.29057" lon="-2.27051">
        <ele>25.799999237061</ele>
        <time>2022-01-23T08:35:47.000Z</time>
      </trkpt>
      <trkpt lat="47.29054" lon="-2.2703">
        <ele>25.39999961853</ele>
        <time>2022-01-23T08:35:50.000Z</time>
      </trkpt>
      <trkpt lat="47.29053" lon="-2.27024">
        <ele>25</ele>
        <time>2022-01-23T08:35:51.000Z</time>
      </trkpt>
      <trkpt lat="47.29052" lon="-2.27017">
        <ele>24.60000038147</ele>
        <time>2022-01-23T08:35:52.000Z</time>
      </trkpt>
      <trkpt lat="47.29052" lon="-2.2701">
        <ele>24.200000762939</ele>
        <time>2022-01-23T08:35:53.000Z</time>
      </trkpt>
      <trkpt lat="47.29052" lon="-2.27001">
        <ele>23.799999237061</ele>
        <time>2022-01-23T08:35:54.000Z</time>
      </trkpt>
      <trkpt lat="47.29053" lon="-2.26993">
        <ele>23.799999237061</ele>
        <time>2022-01-23T08:35:55.000Z</time>
      </trkpt>
      <trkpt lat="47.29056" lon="-2.26929">
        <ele>23.799999237061</ele>
        <time>2022-01-23T08:36:02.000Z</time>
      </trkpt>
      <trkpt lat="47.29059" lon="-2.26866">
        <ele>23.799999237061</ele>
        <time>2022-01-23T08:36:09.000Z</time>
      </trkpt>
      <trkpt lat="47.29062" lon="-2.26813">
        <ele>23.799999237061</ele>
        <time>2022-01-23T08:36:15.000Z</time>
      </trkpt>
      <trkpt lat="47.29063" lon="-2.26797">
        <ele>23.799999237061</ele>
        <time>2022-01-23T08:36:17.000Z</time>
      </trkpt>
      <trkpt lat="47.29061" lon="-2.26773">
        <ele>23.799999237061</ele>
        <time>2022-01-23T08:36:20.000Z</time>
      </trkpt>
      <trkpt lat="47.2906" lon="-2.2676">
        <ele>23.799999237061</ele>
        <time>2022-01-23T08:36:22.000Z</time>
      </trkpt>
      <trkpt lat="47.29058" lon="-2.26739">
        <ele>24.200000762939</ele>
        <time>2022-01-23T08:36:25.000Z</time>
      </trkpt>
      <trkpt lat="47.29057" lon="-2.26732">
        <ele>24.60000038147</ele>
        <time>2022-01-23T08:36:26.000Z</time>
      </trkpt>
      <trkpt lat="47.29057" lon="-2.26726">
        <ele>25</ele>
        <time>2022-01-23T08:36:27.000Z</time>
      </trkpt>
      <trkpt lat="47.29056" lon="-2.26719">
        <ele>25.39999961853</ele>
        <time>2022-01-23T08:36:28.000Z</time>
      </trkpt>
      <trkpt lat="47.29056" lon="-2.26714">
        <ele>25.799999237061</ele>
        <time>2022-01-23T08:36:29.000Z</time>
      </trkpt>
      <trkpt lat="47.29055" lon="-2.26708">
        <ele>25.799999237061</ele>
        <time>2022-01-23T08:36:30.000Z</time>
      </trkpt>
      <trkpt lat="47.29053" lon="-2.26696">
        <ele>26.200000762939</ele>
        <time>2022-01-23T08:36:32.000Z</time>
      </trkpt>
      <trkpt lat="47.29052" lon="-2.26689">
        <ele>26.60000038147</ele>
        <time>2022-01-23T08:36:33.000Z</time>
      </trkpt>
      <trkpt lat="47.29051" lon="-2.26684">
        <ele>27.200000762939</ele>
        <time>2022-01-23T08:36:34.000Z</time>
      </trkpt>
      <trkpt lat="47.2905" lon="-2.26678">
        <ele>27.60000038147</ele>
        <time>2022-01-23T08:36:35.000Z</time>
      </trkpt>
      <trkpt lat="47.2905" lon="-2.26672">
        <ele>28</ele>
        <time>2022-01-23T08:36:36.000Z</time>
      </trkpt>
      <trkpt lat="47.29049" lon="-2.26661">
        <ele>28</ele>
        <time>2022-01-23T08:36:38.000Z</time>
      </trkpt>
      <trkpt lat="47.29048" lon="-2.26655">
        <ele>28.799999237061</ele>
        <time>2022-01-23T08:36:39.000Z</time>
      </trkpt>
      <trkpt lat="47.29047" lon="-2.26649">
        <ele>29.200000762939</ele>
        <time>2022-01-23T08:36:40.000Z</time>
      </trkpt>
      <trkpt lat="47.29047" lon="-2.26643">
        <ele>29.60000038147</ele>
        <time>2022-01-23T08:36:41.000Z</time>
      </trkpt>
      <trkpt lat="47.29047" lon="-2.26637">
        <ele>30</ele>
        <time>2022-01-23T08:36:42.000Z</time>
      </trkpt>
      <trkpt lat="47.29046" lon="-2.26631">
        <ele>30</ele>
        <time>2022-01-23T08:36:43.000Z</time>
      </trkpt>
      <trkpt lat="47.29045" lon="-2.26613">
        <ele>30</ele>
        <time>2022-01-23T08:36:46.000Z</time>
      </trkpt>
      <trkpt lat="47.29044" lon="-2.26602">
        <ele>30</ele>
        <time>2022-01-23T08:36:48.000Z</time>
      </trkpt>
      <trkpt lat="47.29042" lon="-2.26586">
        <ele>30</ele>
        <time>2022-01-23T08:36:52.000Z</time>
      </trkpt>
      <trkpt lat="47.29038" lon="-2.26564">
        <ele>30</ele>
        <time>2022-01-23T08:36:56.000Z</time>
      </trkpt>
      <trkpt lat="47.29036" lon="-2.26558">
        <ele>30</ele>
        <time>2022-01-23T08:36:57.000Z</time>
      </trkpt>
      <trkpt lat="47.29035" lon="-2.26552">
        <ele>30.39999961853</ele>
        <time>2022-01-23T08:36:58.000Z</time>
      </trkpt>
      <trkpt lat="47.29033" lon="-2.26545">
        <ele>30.799999237061</ele>
        <time>2022-01-23T08:36:59.000Z</time>
      </trkpt>
      <trkpt lat="47.29031" lon="-2.26538">
        <ele>31.200000762939</ele>
        <time>2022-01-23T08:37:00.000Z</time>
      </trkpt>
      <trkpt lat="47.29029" lon="-2.26531">
        <ele>31.60000038147</ele>
        <time>2022-01-23T08:37:01.000Z</time>
      </trkpt>
      <trkpt lat="47.29028" lon="-2.26525">
        <ele>32</ele>
        <time>2022-01-23T08:37:02.000Z</time>
      </trkpt>
      <trkpt lat="47.29022" lon="-2.26497">
        <ele>32</ele>
        <time>2022-01-23T08:37:06.000Z</time>
      </trkpt>
      <trkpt lat="47.2902" lon="-2.26483">
        <ele>32</ele>
        <time>2022-01-23T08:37:08.000Z</time>
      </trkpt>
      <trkpt lat="47.29016" lon="-2.26441">
        <ele>32</ele>
        <time>2022-01-23T08:37:14.000Z</time>
      </trkpt>
      <trkpt lat="47.29013" lon="-2.26415">
        <ele>32.400001525879</ele>
        <time>2022-01-23T08:37:18.000Z</time>
      </trkpt>
      <trkpt lat="47.29013" lon="-2.26409">
        <ele>33</ele>
        <time>2022-01-23T08:37:19.000Z</time>
      </trkpt>
      <trkpt lat="47.29012" lon="-2.26403">
        <ele>33.400001525879</ele>
        <time>2022-01-23T08:37:20.000Z</time>
      </trkpt>
      <trkpt lat="47.29012" lon="-2.26397">
        <ele>33.799999237061</ele>
        <time>2022-01-23T08:37:21.000Z</time>
      </trkpt>
      <trkpt lat="47.29012" lon="-2.26391">
        <ele>34.400001525879</ele>
        <time>2022-01-23T08:37:22.000Z</time>
      </trkpt>
      <trkpt lat="47.29013" lon="-2.26385">
        <ele>34.799999237061</ele>
        <time>2022-01-23T08:37:23.000Z</time>
      </trkpt>
      <trkpt lat="47.29014" lon="-2.2638">
        <ele>35.200000762939</ele>
        <time>2022-01-23T08:37:24.000Z</time>
      </trkpt>
      <trkpt lat="47.29015" lon="-2.26374">
        <ele>35.599998474121</ele>
        <time>2022-01-23T08:37:25.000Z</time>
      </trkpt>
      <trkpt lat="47.29017" lon="-2.26369">
        <ele>36</ele>
        <time>2022-01-23T08:37:26.000Z</time>
      </trkpt>
      <trkpt lat="47.29019" lon="-2.26364">
        <ele>36.400001525879</ele>
        <time>2022-01-23T08:37:27.000Z</time>
      </trkpt>
      <trkpt lat="47.2903" lon="-2.26353">
        <ele>36.400001525879</ele>
        <time>2022-01-23T08:37:30.000Z</time>
      </trkpt>
      <trkpt lat="47.29034" lon="-2.2635">
        <ele>36.400001525879</ele>
        <time>2022-01-23T08:37:31.000Z</time>
      </trkpt>
      <trkpt lat="47.29051" lon="-2.26335">
        <ele>36.400001525879</ele>
        <time>2022-01-23T08:37:35.000Z</time>
      </trkpt>
      <trkpt lat="47.29055" lon="-2.2633">
        <ele>36.400001525879</ele>
        <time>2022-01-23T08:37:36.000Z</time>
      </trkpt>
      <trkpt lat="47.29065" lon="-2.26313">
        <ele>36.400001525879</ele>
        <time>2022-01-23T08:37:39.000Z</time>
      </trkpt>
      <trkpt lat="47.2907" lon="-2.263">
        <ele>36.400001525879</ele>
        <time>2022-01-23T08:37:41.000Z</time>
      </trkpt>
      <trkpt lat="47.2908" lon="-2.26249">
        <ele>36.400001525879</ele>
        <time>2022-01-23T08:37:48.000Z</time>
      </trkpt>
      <trkpt lat="47.29082" lon="-2.26235">
        <ele>36.400001525879</ele>
        <time>2022-01-23T08:37:50.000Z</time>
      </trkpt>
      <trkpt lat="47.29085" lon="-2.26214">
        <ele>36.400001525879</ele>
        <time>2022-01-23T08:37:53.000Z</time>
      </trkpt>
      <trkpt lat="47.29087" lon="-2.26207">
        <ele>36.400001525879</ele>
        <time>2022-01-23T08:37:54.000Z</time>
      </trkpt>
      <trkpt lat="47.29092" lon="-2.2618">
        <ele>36.400001525879</ele>
        <time>2022-01-23T08:37:58.000Z</time>
      </trkpt>
      <trkpt lat="47.29095" lon="-2.26161">
        <ele>36.400001525879</ele>
        <time>2022-01-23T08:38:01.000Z</time>
      </trkpt>
      <trkpt lat="47.29098" lon="-2.2614">
        <ele>36.400001525879</ele>
        <time>2022-01-23T08:38:04.000Z</time>
      </trkpt>
      <trkpt lat="47.29101" lon="-2.26128">
        <ele>36.400001525879</ele>
        <time>2022-01-23T08:38:06.000Z</time>
      </trkpt>
      <trkpt lat="47.29102" lon="-2.26121">
        <ele>36</ele>
        <time>2022-01-23T08:38:07.000Z</time>
      </trkpt>
      <trkpt lat="47.29103" lon="-2.26115">
        <ele>35.400001525879</ele>
        <time>2022-01-23T08:38:08.000Z</time>
      </trkpt>
      <trkpt lat="47.29104" lon="-2.26109">
        <ele>35</ele>
        <time>2022-01-23T08:38:09.000Z</time>
      </trkpt>
      <trkpt lat="47.29103" lon="-2.26103">
        <ele>34.599998474121</ele>
        <time>2022-01-23T08:38:10.000Z</time>
      </trkpt>
      <trkpt lat="47.29102" lon="-2.26097">
        <ele>34.200000762939</ele>
        <time>2022-01-23T08:38:11.000Z</time>
      </trkpt>
      <trkpt lat="47.29101" lon="-2.26092">
        <ele>34.200000762939</ele>
        <time>2022-01-23T08:38:12.000Z</time>
      </trkpt>
      <trkpt lat="47.29091" lon="-2.26063">
        <ele>34.200000762939</ele>
        <time>2022-01-23T08:38:18.000Z</time>
      </trkpt>
      <trkpt lat="47.29083" lon="-2.26034">
        <ele>34.200000762939</ele>
        <time>2022-01-23T08:38:24.000Z</time>
      </trkpt>
      <trkpt lat="47.29079" lon="-2.26024">
        <ele>34.200000762939</ele>
        <time>2022-01-23T08:38:28.000Z</time>
      </trkpt>
      <trkpt lat="47.29078" lon="-2.26023">
        <ele>34.200000762939</ele>
        <time>2022-01-23T08:38:29.000Z</time>
      </trkpt>
      <trkpt lat="47.29078" lon="-2.26022">
        <ele>34.200000762939</ele>
        <time>2022-01-23T08:38:30.000Z</time>
      </trkpt>
      <trkpt lat="47.29079" lon="-2.2602">
        <ele>33.799999237061</ele>
        <time>2022-01-23T08:38:32.000Z</time>
      </trkpt>
      <trkpt lat="47.2908" lon="-2.26018">
        <ele>33.400001525879</ele>
        <time>2022-01-23T08:38:33.000Z</time>
      </trkpt>
      <trkpt lat="47.2908" lon="-2.26015">
        <ele>33</ele>
        <time>2022-01-23T08:38:34.000Z</time>
      </trkpt>
      <trkpt lat="47.29081" lon="-2.26011">
        <ele>32.599998474121</ele>
        <time>2022-01-23T08:38:35.000Z</time>
      </trkpt>
      <trkpt lat="47.29081" lon="-2.26007">
        <ele>32.200000762939</ele>
        <time>2022-01-23T08:38:36.000Z</time>
      </trkpt>
      <trkpt lat="47.29083" lon="-2.26">
        <ele>32.200000762939</ele>
        <time>2022-01-23T08:38:38.000Z</time>
      </trkpt>
      <trkpt lat="47.29083" lon="-2.25993">
        <ele>32.200000762939</ele>
        <time>2022-01-23T08:38:42.000Z</time>
      </trkpt>
      <trkpt lat="47.29087" lon="-2.2599">
        <ele>32.200000762939</ele>
        <time>2022-01-23T08:38:45.000Z</time>
      </trkpt>
      <trkpt lat="47.2909" lon="-2.2599">
        <ele>32.200000762939</ele>
        <time>2022-01-23T08:38:47.000Z</time>
      </trkpt>
      <trkpt lat="47.29092" lon="-2.25988">
        <ele>32.200000762939</ele>
        <time>2022-01-23T08:38:48.000Z</time>
      </trkpt>
      <trkpt lat="47.29099" lon="-2.2598">
        <ele>32.200000762939</ele>
        <time>2022-01-23T08:38:51.000Z</time>
      </trkpt>
      <trkpt lat="47.29113" lon="-2.25968">
        <ele>32.200000762939</ele>
        <time>2022-01-23T08:38:56.000Z</time>
      </trkpt>
      <trkpt lat="47.29137" lon="-2.2597">
        <ele>32.200000762939</ele>
        <time>2022-01-23T08:39:02.000Z</time>
      </trkpt>
      <trkpt lat="47.29157" lon="-2.2598">
        <ele>32.200000762939</ele>
        <time>2022-01-23T08:39:08.000Z</time>
      </trkpt>
      <trkpt lat="47.29177" lon="-2.25984">
        <ele>32.200000762939</ele>
        <time>2022-01-23T08:39:15.000Z</time>
      </trkpt>
      <trkpt lat="47.2918" lon="-2.25987">
        <ele>32.200000762939</ele>
        <time>2022-01-23T08:39:17.000Z</time>
      </trkpt>
      <trkpt lat="47.29181" lon="-2.2599">
        <ele>32.200000762939</ele>
        <time>2022-01-23T08:39:19.000Z</time>
      </trkpt>
      <trkpt lat="47.29183" lon="-2.25996">
        <ele>32.200000762939</ele>
        <time>2022-01-23T08:40:37.000Z</time>
      </trkpt>
      <trkpt lat="47.29184" lon="-2.26016">
        <ele>32.200000762939</ele>
        <time>2022-01-23T08:40:42.000Z</time>
      </trkpt>
      <trkpt lat="47.29191" lon="-2.26029">
        <ele>32.599998474121</ele>
        <time>2022-01-23T08:40:45.000Z</time>
      </trkpt>
      <trkpt lat="47.29193" lon="-2.26033">
        <ele>33</ele>
        <time>2022-01-23T08:40:46.000Z</time>
      </trkpt>
      <trkpt lat="47.29196" lon="-2.26036">
        <ele>33.799999237061</ele>
        <time>2022-01-23T08:40:47.000Z</time>
      </trkpt>
      <trkpt lat="47.29199" lon="-2.2604">
        <ele>34.200000762939</ele>
        <time>2022-01-23T08:40:48.000Z</time>
      </trkpt>
      <trkpt lat="47.29211" lon="-2.26058">
        <ele>34.200000762939</ele>
        <time>2022-01-23T08:40:53.000Z</time>
      </trkpt>
      <trkpt lat="47.29216" lon="-2.26067">
        <ele>34.200000762939</ele>
        <time>2022-01-23T08:40:55.000Z</time>
      </trkpt>
      <trkpt lat="47.29225" lon="-2.2608">
        <ele>34.200000762939</ele>
        <time>2022-01-23T08:40:58.000Z</time>
      </trkpt>
      <trkpt lat="47.29231" lon="-2.26088">
        <ele>34.200000762939</ele>
        <time>2022-01-23T08:41:00.000Z</time>
      </trkpt>
      <trkpt lat="47.29235" lon="-2.26098">
        <ele>34.200000762939</ele>
        <time>2022-01-23T08:41:02.000Z</time>
      </trkpt>
      <trkpt lat="47.29245" lon="-2.26123">
        <ele>34.200000762939</ele>
        <time>2022-01-23T08:41:07.000Z</time>
      </trkpt>
      <trkpt lat="47.2926" lon="-2.26163">
        <ele>34.200000762939</ele>
        <time>2022-01-23T08:41:14.000Z</time>
      </trkpt>
      <trkpt lat="47.29266" lon="-2.26177">
        <ele>34.200000762939</ele>
        <time>2022-01-23T08:41:17.000Z</time>
      </trkpt>
      <trkpt lat="47.29268" lon="-2.26178">
        <ele>34.200000762939</ele>
        <time>2022-01-23T08:41:18.000Z</time>
      </trkpt>
      <trkpt lat="47.29284" lon="-2.26181">
        <ele>34.200000762939</ele>
        <time>2022-01-23T08:41:22.000Z</time>
      </trkpt>
      <trkpt lat="47.293" lon="-2.26181">
        <ele>34.200000762939</ele>
        <time>2022-01-23T08:41:26.000Z</time>
      </trkpt>
      <trkpt lat="47.2931" lon="-2.26185">
        <ele>34.200000762939</ele>
        <time>2022-01-23T08:41:29.000Z</time>
      </trkpt>
      <trkpt lat="47.29312" lon="-2.26184">
        <ele>34.200000762939</ele>
        <time>2022-01-23T08:41:30.000Z</time>
      </trkpt>
      <trkpt lat="47.29313" lon="-2.26175">
        <ele>34.200000762939</ele>
        <time>2022-01-23T08:41:34.000Z</time>
      </trkpt>
      <trkpt lat="47.29318" lon="-2.26173">
        <ele>34.200000762939</ele>
        <time>2022-01-23T08:41:37.000Z</time>
      </trkpt>
      <trkpt lat="47.29321" lon="-2.26172">
        <ele>34.200000762939</ele>
        <time>2022-01-23T08:41:38.000Z</time>
      </trkpt>
      <trkpt lat="47.29342" lon="-2.26167">
        <ele>34.200000762939</ele>
        <time>2022-01-23T08:41:43.000Z</time>
      </trkpt>
      <trkpt lat="47.29362" lon="-2.26163">
        <ele>34.200000762939</ele>
        <time>2022-01-23T08:41:47.000Z</time>
      </trkpt>
      <trkpt lat="47.29367" lon="-2.26162">
        <ele>34.200000762939</ele>
        <time>2022-01-23T08:41:48.000Z</time>
      </trkpt>
      <trkpt lat="47.29382" lon="-2.26163">
        <ele>33.799999237061</ele>
        <time>2022-01-23T08:41:51.000Z</time>
      </trkpt>
      <trkpt lat="47.29386" lon="-2.26164">
        <ele>33.400001525879</ele>
        <time>2022-01-23T08:41:52.000Z</time>
      </trkpt>
      <trkpt lat="47.29391" lon="-2.26166">
        <ele>33</ele>
        <time>2022-01-23T08:41:53.000Z</time>
      </trkpt>
      <trkpt lat="47.29395" lon="-2.26166">
        <ele>32.599998474121</ele>
        <time>2022-01-23T08:41:54.000Z</time>
      </trkpt>
      <trkpt lat="47.294" lon="-2.26165">
        <ele>32.200000762939</ele>
        <time>2022-01-23T08:41:55.000Z</time>
      </trkpt>
      <trkpt lat="47.29405" lon="-2.26163">
        <ele>32.200000762939</ele>
        <time>2022-01-23T08:41:56.000Z</time>
      </trkpt>
      <trkpt lat="47.29412" lon="-2.26153">
        <ele>31.799999237061</ele>
        <time>2022-01-23T08:41:58.000Z</time>
      </trkpt>
      <trkpt lat="47.29415" lon="-2.26147">
        <ele>31.39999961853</ele>
        <time>2022-01-23T08:41:59.000Z</time>
      </trkpt>
      <trkpt lat="47.29415" lon="-2.26139">
        <ele>31</ele>
        <time>2022-01-23T08:42:00.000Z</time>
      </trkpt>
      <trkpt lat="47.29416" lon="-2.26132">
        <ele>30</ele>
        <time>2022-01-23T08:42:01.000Z</time>
      </trkpt>
      <trkpt lat="47.29416" lon="-2.26126">
        <ele>29.60000038147</ele>
        <time>2022-01-23T08:42:02.000Z</time>
      </trkpt>
      <trkpt lat="47.29417" lon="-2.2612">
        <ele>29.200000762939</ele>
        <time>2022-01-23T08:42:03.000Z</time>
      </trkpt>
      <trkpt lat="47.29417" lon="-2.26114">
        <ele>28.799999237061</ele>
        <time>2022-01-23T08:42:04.000Z</time>
      </trkpt>
      <trkpt lat="47.29417" lon="-2.26106">
        <ele>28.39999961853</ele>
        <time>2022-01-23T08:42:05.000Z</time>
      </trkpt>
      <trkpt lat="47.29416" lon="-2.261">
        <ele>28</ele>
        <time>2022-01-23T08:42:06.000Z</time>
      </trkpt>
      <trkpt lat="47.29415" lon="-2.26095">
        <ele>28</ele>
        <time>2022-01-23T08:42:07.000Z</time>
      </trkpt>
      <trkpt lat="47.29409" lon="-2.26077">
        <ele>28</ele>
        <time>2022-01-23T08:42:11.000Z</time>
      </trkpt>
      <trkpt lat="47.29403" lon="-2.26062">
        <ele>28</ele>
        <time>2022-01-23T08:42:15.000Z</time>
      </trkpt>
      <trkpt lat="47.29395" lon="-2.26048">
        <ele>28</ele>
        <time>2022-01-23T08:42:20.000Z</time>
      </trkpt>
      <trkpt lat="47.29393" lon="-2.26039">
        <ele>28</ele>
        <time>2022-01-23T08:42:22.000Z</time>
      </trkpt>
      <trkpt lat="47.29394" lon="-2.26028">
        <ele>28</ele>
        <time>2022-01-23T08:42:24.000Z</time>
      </trkpt>
      <trkpt lat="47.29396" lon="-2.26">
        <ele>28</ele>
        <time>2022-01-23T08:42:29.000Z</time>
      </trkpt>
      <trkpt lat="47.29396" lon="-2.25994">
        <ele>28</ele>
        <time>2022-01-23T08:42:30.000Z</time>
      </trkpt>
      <trkpt lat="47.29394" lon="-2.25982">
        <ele>28</ele>
        <time>2022-01-23T08:42:33.000Z</time>
      </trkpt>
      <trkpt lat="47.29396" lon="-2.2597">
        <ele>28</ele>
        <time>2022-01-23T08:42:38.000Z</time>
      </trkpt>
      <trkpt lat="47.29403" lon="-2.25974">
        <ele>28</ele>
        <time>2022-01-23T08:42:41.000Z</time>
      </trkpt>
      <trkpt lat="47.29404" lon="-2.25973">
        <ele>28</ele>
        <time>2022-01-23T08:42:42.000Z</time>
      </trkpt>
      <trkpt lat="47.29412" lon="-2.25967">
        <ele>28</ele>
        <time>2022-01-23T08:42:45.000Z</time>
      </trkpt>
      <trkpt lat="47.29422" lon="-2.25955">
        <ele>28</ele>
        <time>2022-01-23T08:42:48.000Z</time>
      </trkpt>
      <trkpt lat="47.29429" lon="-2.25949">
        <ele>28</ele>
        <time>2022-01-23T08:42:50.000Z</time>
      </trkpt>
      <trkpt lat="47.29437" lon="-2.25937">
        <ele>28</ele>
        <time>2022-01-23T08:42:55.000Z</time>
      </trkpt>
      <trkpt lat="47.29439" lon="-2.2593">
        <ele>28</ele>
        <time>2022-01-23T08:42:57.000Z</time>
      </trkpt>
      <trkpt lat="47.29438" lon="-2.25922">
        <ele>28</ele>
        <time>2022-01-23T08:42:59.000Z</time>
      </trkpt>
      <trkpt lat="47.29436" lon="-2.25903">
        <ele>28</ele>
        <time>2022-01-23T08:43:04.000Z</time>
      </trkpt>
      <trkpt lat="47.29435" lon="-2.25897">
        <ele>28</ele>
        <time>2022-01-23T08:43:08.000Z</time>
      </trkpt>
      <trkpt lat="47.29434" lon="-2.25886">
        <ele>28</ele>
        <time>2022-01-23T08:43:21.000Z</time>
      </trkpt>
      <trkpt lat="47.29432" lon="-2.25883">
        <ele>28</ele>
        <time>2022-01-23T08:43:22.000Z</time>
      </trkpt>
      <trkpt lat="47.29426" lon="-2.25871">
        <ele>28</ele>
        <time>2022-01-23T08:43:26.000Z</time>
      </trkpt>
      <trkpt lat="47.29425" lon="-2.25867">
        <ele>28</ele>
        <time>2022-01-23T08:43:27.000Z</time>
      </trkpt>
      <trkpt lat="47.29426" lon="-2.25857">
        <ele>28</ele>
        <time>2022-01-23T08:43:30.000Z</time>
      </trkpt>
      <trkpt lat="47.29429" lon="-2.2585">
        <ele>28</ele>
        <time>2022-01-23T08:43:32.000Z</time>
      </trkpt>
      <trkpt lat="47.29433" lon="-2.25832">
        <ele>28</ele>
        <time>2022-01-23T08:43:35.000Z</time>
      </trkpt>
      <trkpt lat="47.29434" lon="-2.25813">
        <ele>28</ele>
        <time>2022-01-23T08:43:39.000Z</time>
      </trkpt>
      <trkpt lat="47.29433" lon="-2.25811">
        <ele>28</ele>
        <time>2022-01-23T08:43:40.000Z</time>
      </trkpt>
      <trkpt lat="47.29431" lon="-2.258">
        <ele>28</ele>
        <time>2022-01-23T08:43:43.000Z</time>
      </trkpt>
      <trkpt lat="47.29438" lon="-2.25787">
        <ele>28</ele>
        <time>2022-01-23T08:43:47.000Z</time>
      </trkpt>
      <trkpt lat="47.29441" lon="-2.25785">
        <ele>28</ele>
        <time>2022-01-23T08:43:48.000Z</time>
      </trkpt>
      <trkpt lat="47.29445" lon="-2.25782">
        <ele>28</ele>
        <time>2022-01-23T08:43:49.000Z</time>
      </trkpt>
      <trkpt lat="47.29448" lon="-2.25775">
        <ele>28</ele>
        <time>2022-01-23T08:43:51.000Z</time>
      </trkpt>
      <trkpt lat="47.29446" lon="-2.25757">
        <ele>28</ele>
        <time>2022-01-23T08:43:55.000Z</time>
      </trkpt>
      <trkpt lat="47.29437" lon="-2.25724">
        <ele>28</ele>
        <time>2022-01-23T08:44:02.000Z</time>
      </trkpt>
      <trkpt lat="47.29435" lon="-2.25716">
        <ele>28.39999961853</ele>
        <time>2022-01-23T08:44:04.000Z</time>
      </trkpt>
      <trkpt lat="47.29434" lon="-2.25712">
        <ele>29</ele>
        <time>2022-01-23T08:44:05.000Z</time>
      </trkpt>
      <trkpt lat="47.29433" lon="-2.25708">
        <ele>29.39999961853</ele>
        <time>2022-01-23T08:44:06.000Z</time>
      </trkpt>
      <trkpt lat="47.29431" lon="-2.25704">
        <ele>29.799999237061</ele>
        <time>2022-01-23T08:44:07.000Z</time>
      </trkpt>
      <trkpt lat="47.2943" lon="-2.257">
        <ele>30.200000762939</ele>
        <time>2022-01-23T08:44:08.000Z</time>
      </trkpt>
      <trkpt lat="47.29428" lon="-2.25696">
        <ele>30.200000762939</ele>
        <time>2022-01-23T08:44:09.000Z</time>
      </trkpt>
      <trkpt lat="47.29424" lon="-2.25685">
        <ele>30.60000038147</ele>
        <time>2022-01-23T08:44:12.000Z</time>
      </trkpt>
      <trkpt lat="47.29422" lon="-2.2568">
        <ele>31</ele>
        <time>2022-01-23T08:44:13.000Z</time>
      </trkpt>
      <trkpt lat="47.2942" lon="-2.25677">
        <ele>31.39999961853</ele>
        <time>2022-01-23T08:44:14.000Z</time>
      </trkpt>
      <trkpt lat="47.29419" lon="-2.25674">
        <ele>31.799999237061</ele>
        <time>2022-01-23T08:44:15.000Z</time>
      </trkpt>
      <trkpt lat="47.29416" lon="-2.25671">
        <ele>32.200000762939</ele>
        <time>2022-01-23T08:44:16.000Z</time>
      </trkpt>
      <trkpt lat="47.29404" lon="-2.25659">
        <ele>32.200000762939</ele>
        <time>2022-01-23T08:44:22.000Z</time>
      </trkpt>
      <trkpt lat="47.29398" lon="-2.25658">
        <ele>32.200000762939</ele>
        <time>2022-01-23T08:44:25.000Z</time>
      </trkpt>
      <trkpt lat="47.29395" lon="-2.25654">
        <ele>32.200000762939</ele>
        <time>2022-01-23T08:44:27.000Z</time>
      </trkpt>
      <trkpt lat="47.29393" lon="-2.25647">
        <ele>32.200000762939</ele>
        <time>2022-01-23T08:44:29.000Z</time>
      </trkpt>
      <trkpt lat="47.29393" lon="-2.2564">
        <ele>32.799999237061</ele>
        <time>2022-01-23T08:44:31.000Z</time>
      </trkpt>
      <trkpt lat="47.29394" lon="-2.25637">
        <ele>33.200000762939</ele>
        <time>2022-01-23T08:44:32.000Z</time>
      </trkpt>
      <trkpt lat="47.29396" lon="-2.25634">
        <ele>33.599998474121</ele>
        <time>2022-01-23T08:44:33.000Z</time>
      </trkpt>
      <trkpt lat="47.29399" lon="-2.25631">
        <ele>34</ele>
        <time>2022-01-23T08:44:34.000Z</time>
      </trkpt>
      <trkpt lat="47.29402" lon="-2.25628">
        <ele>34.400001525879</ele>
        <time>2022-01-23T08:44:35.000Z</time>
      </trkpt>
      <trkpt lat="47.29406" lon="-2.25626">
        <ele>34.400001525879</ele>
        <time>2022-01-23T08:44:36.000Z</time>
      </trkpt>
      <trkpt lat="47.29432" lon="-2.25615">
        <ele>34.400001525879</ele>
        <time>2022-01-23T08:44:42.000Z</time>
      </trkpt>
      <trkpt lat="47.29466" lon="-2.25601">
        <ele>34.400001525879</ele>
        <time>2022-01-23T08:44:49.000Z</time>
      </trkpt>
      <trkpt lat="47.29501" lon="-2.25583">
        <ele>34.400001525879</ele>
        <time>2022-01-23T08:44:56.000Z</time>
      </trkpt>
      <trkpt lat="47.2955" lon="-2.25551">
        <ele>34.400001525879</ele>
        <time>2022-01-23T08:45:05.000Z</time>
      </trkpt>
      <trkpt lat="47.29567" lon="-2.25537">
        <ele>34</ele>
        <time>2022-01-23T08:45:08.000Z</time>
      </trkpt>
      <trkpt lat="47.29572" lon="-2.25532">
        <ele>33.599998474121</ele>
        <time>2022-01-23T08:45:09.000Z</time>
      </trkpt>
      <trkpt lat="47.29576" lon="-2.25525">
        <ele>33.200000762939</ele>
        <time>2022-01-23T08:45:10.000Z</time>
      </trkpt>
      <trkpt lat="47.2958" lon="-2.25518">
        <ele>32.799999237061</ele>
        <time>2022-01-23T08:45:11.000Z</time>
      </trkpt>
      <trkpt lat="47.29583" lon="-2.25509">
        <ele>32.400001525879</ele>
        <time>2022-01-23T08:45:12.000Z</time>
      </trkpt>
      <trkpt lat="47.29585" lon="-2.25501">
        <ele>32.400001525879</ele>
        <time>2022-01-23T08:45:13.000Z</time>
      </trkpt>
      <trkpt lat="47.29585" lon="-2.25466">
        <ele>32.400001525879</ele>
        <time>2022-01-23T08:45:17.000Z</time>
      </trkpt>
      <trkpt lat="47.29585" lon="-2.25458">
        <ele>32.400001525879</ele>
        <time>2022-01-23T08:45:18.000Z</time>
      </trkpt>
      <trkpt lat="47.29581" lon="-2.25412">
        <ele>32</ele>
        <time>2022-01-23T08:45:23.000Z</time>
      </trkpt>
      <trkpt lat="47.2958" lon="-2.25402">
        <ele>31.60000038147</ele>
        <time>2022-01-23T08:45:24.000Z</time>
      </trkpt>
      <trkpt lat="47.29578" lon="-2.25392">
        <ele>31.200000762939</ele>
        <time>2022-01-23T08:45:25.000Z</time>
      </trkpt>
      <trkpt lat="47.29575" lon="-2.25383">
        <ele>30.60000038147</ele>
        <time>2022-01-23T08:45:26.000Z</time>
      </trkpt>
      <trkpt lat="47.29573" lon="-2.25374">
        <ele>30.200000762939</ele>
        <time>2022-01-23T08:45:27.000Z</time>
      </trkpt>
      <trkpt lat="47.2957" lon="-2.25364">
        <ele>30.200000762939</ele>
        <time>2022-01-23T08:45:28.000Z</time>
      </trkpt>
      <trkpt lat="47.29566" lon="-2.25355">
        <ele>30.200000762939</ele>
        <time>2022-01-23T08:45:29.000Z</time>
      </trkpt>
      <trkpt lat="47.29543" lon="-2.253">
        <ele>30.200000762939</ele>
        <time>2022-01-23T08:45:35.000Z</time>
      </trkpt>
      <trkpt lat="47.29539" lon="-2.25268">
        <ele>29.799999237061</ele>
        <time>2022-01-23T08:45:38.000Z</time>
      </trkpt>
      <trkpt lat="47.29539" lon="-2.25258">
        <ele>29.39999961853</ele>
        <time>2022-01-23T08:45:39.000Z</time>
      </trkpt>
      <trkpt lat="47.29539" lon="-2.25248">
        <ele>29</ele>
        <time>2022-01-23T08:45:40.000Z</time>
      </trkpt>
      <trkpt lat="47.29539" lon="-2.25239">
        <ele>28.60000038147</ele>
        <time>2022-01-23T08:45:41.000Z</time>
      </trkpt>
      <trkpt lat="47.2954" lon="-2.25229">
        <ele>28.200000762939</ele>
        <time>2022-01-23T08:45:42.000Z</time>
      </trkpt>
      <trkpt lat="47.29543" lon="-2.25213">
        <ele>28.200000762939</ele>
        <time>2022-01-23T08:45:44.000Z</time>
      </trkpt>
      <trkpt lat="47.29545" lon="-2.25205">
        <ele>28.200000762939</ele>
        <time>2022-01-23T08:45:45.000Z</time>
      </trkpt>
      <trkpt lat="47.29548" lon="-2.25192">
        <ele>28.200000762939</ele>
        <time>2022-01-23T08:45:47.000Z</time>
      </trkpt>
      <trkpt lat="47.29547" lon="-2.25186">
        <ele>28.200000762939</ele>
        <time>2022-01-23T08:45:48.000Z</time>
      </trkpt>
      <trkpt lat="47.29542" lon="-2.25179">
        <ele>27.799999237061</ele>
        <time>2022-01-23T08:45:50.000Z</time>
      </trkpt>
      <trkpt lat="47.29538" lon="-2.25179">
        <ele>27.39999961853</ele>
        <time>2022-01-23T08:45:51.000Z</time>
      </trkpt>
      <trkpt lat="47.29534" lon="-2.2518">
        <ele>26.799999237061</ele>
        <time>2022-01-23T08:45:52.000Z</time>
      </trkpt>
      <trkpt lat="47.29529" lon="-2.25181">
        <ele>26.39999961853</ele>
        <time>2022-01-23T08:45:53.000Z</time>
      </trkpt>
      <trkpt lat="47.29524" lon="-2.25183">
        <ele>26</ele>
        <time>2022-01-23T08:45:54.000Z</time>
      </trkpt>
      <trkpt lat="47.29515" lon="-2.25187">
        <ele>26</ele>
        <time>2022-01-23T08:45:56.000Z</time>
      </trkpt>
      <trkpt lat="47.29488" lon="-2.25195">
        <ele>26</ele>
        <time>2022-01-23T08:46:01.000Z</time>
      </trkpt>
      <trkpt lat="47.29458" lon="-2.25203">
        <ele>26</ele>
        <time>2022-01-23T08:46:06.000Z</time>
      </trkpt>
      <trkpt lat="47.29451" lon="-2.25205">
        <ele>25.60000038147</ele>
        <time>2022-01-23T08:46:07.000Z</time>
      </trkpt>
      <trkpt lat="47.29445" lon="-2.25207">
        <ele>25.200000762939</ele>
        <time>2022-01-23T08:46:08.000Z</time>
      </trkpt>
      <trkpt lat="47.29438" lon="-2.25209">
        <ele>24.799999237061</ele>
        <time>2022-01-23T08:46:09.000Z</time>
      </trkpt>
      <trkpt lat="47.29432" lon="-2.25212">
        <ele>24.39999961853</ele>
        <time>2022-01-23T08:46:10.000Z</time>
      </trkpt>
      <trkpt lat="47.29426" lon="-2.25214">
        <ele>24</ele>
        <time>2022-01-23T08:46:11.000Z</time>
      </trkpt>
      <trkpt lat="47.2942" lon="-2.25216">
        <ele>24</ele>
        <time>2022-01-23T08:46:12.000Z</time>
      </trkpt>
      <trkpt lat="47.29413" lon="-2.25216">
        <ele>24</ele>
        <time>2022-01-23T08:46:13.000Z</time>
      </trkpt>
      <trkpt lat="47.29394" lon="-2.2521">
        <ele>24</ele>
        <time>2022-01-23T08:46:16.000Z</time>
      </trkpt>
      <trkpt lat="47.29348" lon="-2.25199">
        <ele>24</ele>
        <time>2022-01-23T08:46:23.000Z</time>
      </trkpt>
      <trkpt lat="47.29319" lon="-2.25199">
        <ele>24</ele>
        <time>2022-01-23T08:46:28.000Z</time>
      </trkpt>
      <trkpt lat="47.29311" lon="-2.2519">
        <ele>23.39999961853</ele>
        <time>2022-01-23T08:46:30.000Z</time>
      </trkpt>
      <trkpt lat="47.29309" lon="-2.25184">
        <ele>23</ele>
        <time>2022-01-23T08:46:31.000Z</time>
      </trkpt>
      <trkpt lat="47.29307" lon="-2.25176">
        <ele>22.200000762939</ele>
        <time>2022-01-23T08:46:32.000Z</time>
      </trkpt>
      <trkpt lat="47.29306" lon="-2.25168">
        <ele>21.799999237061</ele>
        <time>2022-01-23T08:46:33.000Z</time>
      </trkpt>
      <trkpt lat="47.29305" lon="-2.2516">
        <ele>21.799999237061</ele>
        <time>2022-01-23T08:46:34.000Z</time>
      </trkpt>
      <trkpt lat="47.29295" lon="-2.25101">
        <ele>22.200000762939</ele>
        <time>2022-01-23T08:46:42.000Z</time>
      </trkpt>
      <trkpt lat="47.29293" lon="-2.25094">
        <ele>22.60000038147</ele>
        <time>2022-01-23T08:46:43.000Z</time>
      </trkpt>
      <trkpt lat="47.29292" lon="-2.25087">
        <ele>23</ele>
        <time>2022-01-23T08:46:44.000Z</time>
      </trkpt>
      <trkpt lat="47.2929" lon="-2.25081">
        <ele>23.39999961853</ele>
        <time>2022-01-23T08:46:45.000Z</time>
      </trkpt>
      <trkpt lat="47.29289" lon="-2.25074">
        <ele>23.799999237061</ele>
        <time>2022-01-23T08:46:46.000Z</time>
      </trkpt>
      <trkpt lat="47.29286" lon="-2.25063">
        <ele>23.799999237061</ele>
        <time>2022-01-23T08:46:48.000Z</time>
      </trkpt>
      <trkpt lat="47.29282" lon="-2.25051">
        <ele>24.39999961853</ele>
        <time>2022-01-23T08:46:50.000Z</time>
      </trkpt>
      <trkpt lat="47.2928" lon="-2.25046">
        <ele>24.799999237061</ele>
        <time>2022-01-23T08:46:51.000Z</time>
      </trkpt>
      <trkpt lat="47.29278" lon="-2.2504">
        <ele>25.200000762939</ele>
        <time>2022-01-23T08:46:52.000Z</time>
      </trkpt>
      <trkpt lat="47.29277" lon="-2.25034">
        <ele>25.60000038147</ele>
        <time>2022-01-23T08:46:53.000Z</time>
      </trkpt>
      <trkpt lat="47.29276" lon="-2.25028">
        <ele>26</ele>
        <time>2022-01-23T08:46:54.000Z</time>
      </trkpt>
      <trkpt lat="47.29268" lon="-2.24996">
        <ele>26</ele>
        <time>2022-01-23T08:46:59.000Z</time>
      </trkpt>
      <trkpt lat="47.29268" lon="-2.2499">
        <ele>26</ele>
        <time>2022-01-23T08:47:00.000Z</time>
      </trkpt>
      <trkpt lat="47.29261" lon="-2.24951">
        <ele>26</ele>
        <time>2022-01-23T08:47:06.000Z</time>
      </trkpt>
      <trkpt lat="47.29265" lon="-2.24928">
        <ele>26</ele>
        <time>2022-01-23T08:47:10.000Z</time>
      </trkpt>
      <trkpt lat="47.2928" lon="-2.2492">
        <ele>26</ele>
        <time>2022-01-23T08:47:14.000Z</time>
      </trkpt>
      <trkpt lat="47.29284" lon="-2.24919">
        <ele>26</ele>
        <time>2022-01-23T08:47:15.000Z</time>
      </trkpt>
      <trkpt lat="47.29302" lon="-2.24917">
        <ele>26</ele>
        <time>2022-01-23T08:47:20.000Z</time>
      </trkpt>
      <trkpt lat="47.29322" lon="-2.24917">
        <ele>26</ele>
        <time>2022-01-23T08:47:25.000Z</time>
      </trkpt>
      <trkpt lat="47.2933" lon="-2.24917">
        <ele>26</ele>
        <time>2022-01-23T08:47:27.000Z</time>
      </trkpt>
      <trkpt lat="47.29333" lon="-2.24913">
        <ele>26</ele>
        <time>2022-01-23T08:47:28.000Z</time>
      </trkpt>
      <trkpt lat="47.29338" lon="-2.24902">
        <ele>26</ele>
        <time>2022-01-23T08:47:30.000Z</time>
      </trkpt>
      <trkpt lat="47.29337" lon="-2.24892">
        <ele>26</ele>
        <time>2022-01-23T08:47:32.000Z</time>
      </trkpt>
      <trkpt lat="47.29337" lon="-2.2488">
        <ele>26</ele>
        <time>2022-01-23T08:47:34.000Z</time>
      </trkpt>
      <trkpt lat="47.29334" lon="-2.24838">
        <ele>26</ele>
        <time>2022-01-23T08:47:40.000Z</time>
      </trkpt>
      <trkpt lat="47.29331" lon="-2.24818">
        <ele>26</ele>
        <time>2022-01-23T08:47:43.000Z</time>
      </trkpt>
      <trkpt lat="47.29327" lon="-2.24806">
        <ele>26</ele>
        <time>2022-01-23T08:47:45.000Z</time>
      </trkpt>
      <trkpt lat="47.29326" lon="-2.24799">
        <ele>26</ele>
        <time>2022-01-23T08:47:46.000Z</time>
      </trkpt>
      <trkpt lat="47.2932" lon="-2.24779">
        <ele>26</ele>
        <time>2022-01-23T08:47:49.000Z</time>
      </trkpt>
      <trkpt lat="47.29313" lon="-2.2476">
        <ele>26</ele>
        <time>2022-01-23T08:47:52.000Z</time>
      </trkpt>
      <trkpt lat="47.29311" lon="-2.24753">
        <ele>26</ele>
        <time>2022-01-23T08:47:53.000Z</time>
      </trkpt>
      <trkpt lat="47.29307" lon="-2.24728">
        <ele>26</ele>
        <time>2022-01-23T08:47:56.000Z</time>
      </trkpt>
      <trkpt lat="47.29294" lon="-2.2467">
        <ele>26</ele>
        <time>2022-01-23T08:48:03.000Z</time>
      </trkpt>
      <trkpt lat="47.29293" lon="-2.24661">
        <ele>25.60000038147</ele>
        <time>2022-01-23T08:48:04.000Z</time>
      </trkpt>
      <trkpt lat="47.29293" lon="-2.24652">
        <ele>25.200000762939</ele>
        <time>2022-01-23T08:48:05.000Z</time>
      </trkpt>
      <trkpt lat="47.29293" lon="-2.24643">
        <ele>24.60000038147</ele>
        <time>2022-01-23T08:48:06.000Z</time>
      </trkpt>
      <trkpt lat="47.29294" lon="-2.24635">
        <ele>24.200000762939</ele>
        <time>2022-01-23T08:48:07.000Z</time>
      </trkpt>
      <trkpt lat="47.29295" lon="-2.24627">
        <ele>23.799999237061</ele>
        <time>2022-01-23T08:48:08.000Z</time>
      </trkpt>
      <trkpt lat="47.29297" lon="-2.24604">
        <ele>23.799999237061</ele>
        <time>2022-01-23T08:48:11.000Z</time>
      </trkpt>
      <trkpt lat="47.29297" lon="-2.2459">
        <ele>23.799999237061</ele>
        <time>2022-01-23T08:48:13.000Z</time>
      </trkpt>
      <trkpt lat="47.29296" lon="-2.24583">
        <ele>23.799999237061</ele>
        <time>2022-01-23T08:48:14.000Z</time>
      </trkpt>
      <trkpt lat="47.29295" lon="-2.24565">
        <ele>23.799999237061</ele>
        <time>2022-01-23T08:48:17.000Z</time>
      </trkpt>
      <trkpt lat="47.29295" lon="-2.24559">
        <ele>23.799999237061</ele>
        <time>2022-01-23T08:48:18.000Z</time>
      </trkpt>
      <trkpt lat="47.29294" lon="-2.24545">
        <ele>23.799999237061</ele>
        <time>2022-01-23T08:48:20.000Z</time>
      </trkpt>
      <trkpt lat="47.29295" lon="-2.24515">
        <ele>23.799999237061</ele>
        <time>2022-01-23T08:48:25.000Z</time>
      </trkpt>
      <trkpt lat="47.29295" lon="-2.24509">
        <ele>23.799999237061</ele>
        <time>2022-01-23T08:48:26.000Z</time>
      </trkpt>
      <trkpt lat="47.29294" lon="-2.2449">
        <ele>23.799999237061</ele>
        <time>2022-01-23T08:48:29.000Z</time>
      </trkpt>
      <trkpt lat="47.29294" lon="-2.24467">
        <ele>23.799999237061</ele>
        <time>2022-01-23T08:48:33.000Z</time>
      </trkpt>
      <trkpt lat="47.29296" lon="-2.24462">
        <ele>23.799999237061</ele>
        <time>2022-01-23T08:48:34.000Z</time>
      </trkpt>
      <trkpt lat="47.293" lon="-2.24452">
        <ele>23.799999237061</ele>
        <time>2022-01-23T08:48:36.000Z</time>
      </trkpt>
      <trkpt lat="47.29308" lon="-2.24445">
        <ele>23.799999237061</ele>
        <time>2022-01-23T08:48:38.000Z</time>
      </trkpt>
      <trkpt lat="47.29335" lon="-2.24419">
        <ele>23.799999237061</ele>
        <time>2022-01-23T08:48:45.000Z</time>
      </trkpt>
      <trkpt lat="47.29361" lon="-2.2439">
        <ele>23.799999237061</ele>
        <time>2022-01-23T08:48:51.000Z</time>
      </trkpt>
      <trkpt lat="47.2939" lon="-2.2436">
        <ele>23.799999237061</ele>
        <time>2022-01-23T08:48:58.000Z</time>
      </trkpt>
      <trkpt lat="47.29419" lon="-2.24331">
        <ele>23.799999237061</ele>
        <time>2022-01-23T08:49:05.000Z</time>
      </trkpt>
      <trkpt lat="47.29428" lon="-2.24324">
        <ele>23.39999961853</ele>
        <time>2022-01-23T08:49:07.000Z</time>
      </trkpt>
      <trkpt lat="47.29433" lon="-2.24322">
        <ele>23</ele>
        <time>2022-01-23T08:49:08.000Z</time>
      </trkpt>
      <trkpt lat="47.29438" lon="-2.24319">
        <ele>22.60000038147</ele>
        <time>2022-01-23T08:49:09.000Z</time>
      </trkpt>
      <trkpt lat="47.29442" lon="-2.24317">
        <ele>22.200000762939</ele>
        <time>2022-01-23T08:49:10.000Z</time>
      </trkpt>
      <trkpt lat="47.29447" lon="-2.24315">
        <ele>21.799999237061</ele>
        <time>2022-01-23T08:49:11.000Z</time>
      </trkpt>
      <trkpt lat="47.29485" lon="-2.24302">
        <ele>21.799999237061</ele>
        <time>2022-01-23T08:49:19.000Z</time>
      </trkpt>
      <trkpt lat="47.29496" lon="-2.24299">
        <ele>21.39999961853</ele>
        <time>2022-01-23T08:49:21.000Z</time>
      </trkpt>
      <trkpt lat="47.29501" lon="-2.24296">
        <ele>21</ele>
        <time>2022-01-23T08:49:22.000Z</time>
      </trkpt>
      <trkpt lat="47.29507" lon="-2.24295">
        <ele>20.60000038147</ele>
        <time>2022-01-23T08:49:23.000Z</time>
      </trkpt>
      <trkpt lat="47.29513" lon="-2.24292">
        <ele>20</ele>
        <time>2022-01-23T08:49:24.000Z</time>
      </trkpt>
      <trkpt lat="47.29519" lon="-2.2429">
        <ele>19.60000038147</ele>
        <time>2022-01-23T08:49:25.000Z</time>
      </trkpt>
      <trkpt lat="47.29524" lon="-2.24287">
        <ele>19.200000762939</ele>
        <time>2022-01-23T08:49:26.000Z</time>
      </trkpt>
      <trkpt lat="47.2953" lon="-2.24285">
        <ele>18.799999237061</ele>
        <time>2022-01-23T08:49:27.000Z</time>
      </trkpt>
      <trkpt lat="47.29536" lon="-2.24283">
        <ele>18.39999961853</ele>
        <time>2022-01-23T08:49:28.000Z</time>
      </trkpt>
      <trkpt lat="47.29542" lon="-2.24283">
        <ele>17.799999237061</ele>
        <time>2022-01-23T08:49:29.000Z</time>
      </trkpt>
      <trkpt lat="47.29548" lon="-2.24285">
        <ele>17.39999961853</ele>
        <time>2022-01-23T08:49:30.000Z</time>
      </trkpt>
      <trkpt lat="47.29554" lon="-2.24288">
        <ele>17</ele>
        <time>2022-01-23T08:49:31.000Z</time>
      </trkpt>
      <trkpt lat="47.29559" lon="-2.24292">
        <ele>16.60000038147</ele>
        <time>2022-01-23T08:49:32.000Z</time>
      </trkpt>
      <trkpt lat="47.29564" lon="-2.24298">
        <ele>16.200000762939</ele>
        <time>2022-01-23T08:49:33.000Z</time>
      </trkpt>
      <trkpt lat="47.29568" lon="-2.24304">
        <ele>15.800000190735</ele>
        <time>2022-01-23T08:49:34.000Z</time>
      </trkpt>
      <trkpt lat="47.29573" lon="-2.2431">
        <ele>15.39999961853</ele>
        <time>2022-01-23T08:49:35.000Z</time>
      </trkpt>
      <trkpt lat="47.29583" lon="-2.24316">
        <ele>15.39999961853</ele>
        <time>2022-01-23T08:49:37.000Z</time>
      </trkpt>
      <trkpt lat="47.29588" lon="-2.24316">
        <ele>15.800000190735</ele>
        <time>2022-01-23T08:49:38.000Z</time>
      </trkpt>
      <trkpt lat="47.29592" lon="-2.24315">
        <ele>16.200000762939</ele>
        <time>2022-01-23T08:49:39.000Z</time>
      </trkpt>
      <trkpt lat="47.29597" lon="-2.24315">
        <ele>16.799999237061</ele>
        <time>2022-01-23T08:49:40.000Z</time>
      </trkpt>
      <trkpt lat="47.29602" lon="-2.24314">
        <ele>17.200000762939</ele>
        <time>2022-01-23T08:49:41.000Z</time>
      </trkpt>
      <trkpt lat="47.29606" lon="-2.24313">
        <ele>17.60000038147</ele>
        <time>2022-01-23T08:49:42.000Z</time>
      </trkpt>
      <trkpt lat="47.2963" lon="-2.24306">
        <ele>17.60000038147</ele>
        <time>2022-01-23T08:49:47.000Z</time>
      </trkpt>
      <trkpt lat="47.29655" lon="-2.24293">
        <ele>17.60000038147</ele>
        <time>2022-01-23T08:49:53.000Z</time>
      </trkpt>
      <trkpt lat="47.29668" lon="-2.24286">
        <ele>18</ele>
        <time>2022-01-23T08:49:56.000Z</time>
      </trkpt>
      <trkpt lat="47.29672" lon="-2.24283">
        <ele>18.39999961853</ele>
        <time>2022-01-23T08:49:57.000Z</time>
      </trkpt>
      <trkpt lat="47.29677" lon="-2.24282">
        <ele>18.799999237061</ele>
        <time>2022-01-23T08:49:58.000Z</time>
      </trkpt>
      <trkpt lat="47.29681" lon="-2.2428">
        <ele>19.200000762939</ele>
        <time>2022-01-23T08:49:59.000Z</time>
      </trkpt>
      <trkpt lat="47.29685" lon="-2.24277">
        <ele>19.60000038147</ele>
        <time>2022-01-23T08:50:00.000Z</time>
      </trkpt>
      <trkpt lat="47.29689" lon="-2.24275">
        <ele>19.60000038147</ele>
        <time>2022-01-23T08:50:01.000Z</time>
      </trkpt>
      <trkpt lat="47.2972" lon="-2.24258">
        <ele>20.200000762939</ele>
        <time>2022-01-23T08:50:08.000Z</time>
      </trkpt>
      <trkpt lat="47.29725" lon="-2.24254">
        <ele>20.60000038147</ele>
        <time>2022-01-23T08:50:09.000Z</time>
      </trkpt>
      <trkpt lat="47.29729" lon="-2.24251">
        <ele>21</ele>
        <time>2022-01-23T08:50:10.000Z</time>
      </trkpt>
      <trkpt lat="47.29734" lon="-2.24249">
        <ele>21.39999961853</ele>
        <time>2022-01-23T08:50:11.000Z</time>
      </trkpt>
      <trkpt lat="47.29739" lon="-2.24245">
        <ele>21.799999237061</ele>
        <time>2022-01-23T08:50:12.000Z</time>
      </trkpt>
      <trkpt lat="47.29748" lon="-2.2424">
        <ele>21.799999237061</ele>
        <time>2022-01-23T08:50:14.000Z</time>
      </trkpt>
      <trkpt lat="47.29762" lon="-2.24233">
        <ele>22.39999961853</ele>
        <time>2022-01-23T08:50:17.000Z</time>
      </trkpt>
      <trkpt lat="47.29766" lon="-2.24231">
        <ele>22.799999237061</ele>
        <time>2022-01-23T08:50:18.000Z</time>
      </trkpt>
      <trkpt lat="47.29771" lon="-2.24228">
        <ele>23.200000762939</ele>
        <time>2022-01-23T08:50:19.000Z</time>
      </trkpt>
      <trkpt lat="47.29775" lon="-2.24226">
        <ele>23.60000038147</ele>
        <time>2022-01-23T08:50:20.000Z</time>
      </trkpt>
      <trkpt lat="47.2978" lon="-2.24224">
        <ele>24</ele>
        <time>2022-01-23T08:50:21.000Z</time>
      </trkpt>
      <trkpt lat="47.29784" lon="-2.24222">
        <ele>24</ele>
        <time>2022-01-23T08:50:22.000Z</time>
      </trkpt>
      <trkpt lat="47.29797" lon="-2.24217">
        <ele>24.39999961853</ele>
        <time>2022-01-23T08:50:25.000Z</time>
      </trkpt>
      <trkpt lat="47.29801" lon="-2.24217">
        <ele>24.799999237061</ele>
        <time>2022-01-23T08:50:26.000Z</time>
      </trkpt>
      <trkpt lat="47.29805" lon="-2.24218">
        <ele>25.200000762939</ele>
        <time>2022-01-23T08:50:27.000Z</time>
      </trkpt>
      <trkpt lat="47.2981" lon="-2.24219">
        <ele>25.60000038147</ele>
        <time>2022-01-23T08:50:28.000Z</time>
      </trkpt>
      <trkpt lat="47.29814" lon="-2.24222">
        <ele>26</ele>
        <time>2022-01-23T08:50:29.000Z</time>
      </trkpt>
      <trkpt lat="47.29822" lon="-2.24227">
        <ele>26</ele>
        <time>2022-01-23T08:50:31.000Z</time>
      </trkpt>
      <trkpt lat="47.29834" lon="-2.24234">
        <ele>26</ele>
        <time>2022-01-23T08:50:34.000Z</time>
      </trkpt>
      <trkpt lat="47.29837" lon="-2.24235">
        <ele>26.39999961853</ele>
        <time>2022-01-23T08:50:35.000Z</time>
      </trkpt>
      <trkpt lat="47.29841" lon="-2.24236">
        <ele>26.799999237061</ele>
        <time>2022-01-23T08:50:36.000Z</time>
      </trkpt>
      <trkpt lat="47.29845" lon="-2.24238">
        <ele>27.200000762939</ele>
        <time>2022-01-23T08:50:37.000Z</time>
      </trkpt>
      <trkpt lat="47.2985" lon="-2.2424">
        <ele>27.60000038147</ele>
        <time>2022-01-23T08:50:38.000Z</time>
      </trkpt>
      <trkpt lat="47.29854" lon="-2.24242">
        <ele>28</ele>
        <time>2022-01-23T08:50:39.000Z</time>
      </trkpt>
      <trkpt lat="47.29858" lon="-2.24244">
        <ele>28</ele>
        <time>2022-01-23T08:50:40.000Z</time>
      </trkpt>
      <trkpt lat="47.29877" lon="-2.24254">
        <ele>28</ele>
        <time>2022-01-23T08:50:44.000Z</time>
      </trkpt>
      <trkpt lat="47.29886" lon="-2.24261">
        <ele>28</ele>
        <time>2022-01-23T08:50:46.000Z</time>
      </trkpt>
      <trkpt lat="47.29914" lon="-2.24282">
        <ele>28</ele>
        <time>2022-01-23T08:50:52.000Z</time>
      </trkpt>
      <trkpt lat="47.29919" lon="-2.24285">
        <ele>28</ele>
        <time>2022-01-23T08:50:53.000Z</time>
      </trkpt>
      <trkpt lat="47.29937" lon="-2.24297">
        <ele>28</ele>
        <time>2022-01-23T08:50:57.000Z</time>
      </trkpt>
      <trkpt lat="47.2994" lon="-2.24303">
        <ele>28</ele>
        <time>2022-01-23T08:50:58.000Z</time>
      </trkpt>
      <trkpt lat="47.29947" lon="-2.24318">
        <ele>28</ele>
        <time>2022-01-23T08:51:01.000Z</time>
      </trkpt>
      <trkpt lat="47.29961" lon="-2.24328">
        <ele>28</ele>
        <time>2022-01-23T08:51:05.000Z</time>
      </trkpt>
      <trkpt lat="47.29975" lon="-2.24346">
        <ele>28</ele>
        <time>2022-01-23T08:51:09.000Z</time>
      </trkpt>
      <trkpt lat="47.29979" lon="-2.2435">
        <ele>28</ele>
        <time>2022-01-23T08:51:10.000Z</time>
      </trkpt>
      <trkpt lat="47.29991" lon="-2.24362">
        <ele>28</ele>
        <time>2022-01-23T08:51:15.000Z</time>
      </trkpt>
      <trkpt lat="47.29998" lon="-2.24352">
        <ele>28</ele>
        <time>2022-01-23T08:51:20.000Z</time>
      </trkpt>
      <trkpt lat="47.29999" lon="-2.24349">
        <ele>28</ele>
        <time>2022-01-23T08:51:21.000Z</time>
      </trkpt>
      <trkpt lat="47.30006" lon="-2.24323">
        <ele>28</ele>
        <time>2022-01-23T08:51:27.000Z</time>
      </trkpt>
      <trkpt lat="47.30014" lon="-2.24302">
        <ele>28</ele>
        <time>2022-01-23T08:51:32.000Z</time>
      </trkpt>
      <trkpt lat="47.30017" lon="-2.2429">
        <ele>28</ele>
        <time>2022-01-23T08:51:35.000Z</time>
      </trkpt>
      <trkpt lat="47.30019" lon="-2.24288">
        <ele>28</ele>
        <time>2022-01-23T08:51:36.000Z</time>
      </trkpt>
      <trkpt lat="47.30024" lon="-2.24273">
        <ele>28</ele>
        <time>2022-01-23T08:51:40.000Z</time>
      </trkpt>
      <trkpt lat="47.30023" lon="-2.24263">
        <ele>28</ele>
        <time>2022-01-23T08:51:43.000Z</time>
      </trkpt>
      <trkpt lat="47.30022" lon="-2.24257">
        <ele>28</ele>
        <time>2022-01-23T08:51:44.000Z</time>
      </trkpt>
      <trkpt lat="47.30021" lon="-2.24251">
        <ele>28</ele>
        <time>2022-01-23T08:51:45.000Z</time>
      </trkpt>
      <trkpt lat="47.3002" lon="-2.2423">
        <ele>27.60000038147</ele>
        <time>2022-01-23T08:51:48.000Z</time>
      </trkpt>
      <trkpt lat="47.30021" lon="-2.24226">
        <ele>27.200000762939</ele>
        <time>2022-01-23T08:51:49.000Z</time>
      </trkpt>
      <trkpt lat="47.30022" lon="-2.24222">
        <ele>26.60000038147</ele>
        <time>2022-01-23T08:51:50.000Z</time>
      </trkpt>
      <trkpt lat="47.30022" lon="-2.24219">
        <ele>26.200000762939</ele>
        <time>2022-01-23T08:51:51.000Z</time>
      </trkpt>
      <trkpt lat="47.30023" lon="-2.24216">
        <ele>25.799999237061</ele>
        <time>2022-01-23T08:51:52.000Z</time>
      </trkpt>
      <trkpt lat="47.30026" lon="-2.24202">
        <ele>25.39999961853</ele>
        <time>2022-01-23T08:51:56.000Z</time>
      </trkpt>
      <trkpt lat="47.30026" lon="-2.24197">
        <ele>24.799999237061</ele>
        <time>2022-01-23T08:51:57.000Z</time>
      </trkpt>
      <trkpt lat="47.30026" lon="-2.24192">
        <ele>24.39999961853</ele>
        <time>2022-01-23T08:51:58.000Z</time>
      </trkpt>
      <trkpt lat="47.30026" lon="-2.24187">
        <ele>24</ele>
        <time>2022-01-23T08:51:59.000Z</time>
      </trkpt>
      <trkpt lat="47.30026" lon="-2.24181">
        <ele>23.60000038147</ele>
        <time>2022-01-23T08:52:00.000Z</time>
      </trkpt>
      <trkpt lat="47.30026" lon="-2.24175">
        <ele>23.60000038147</ele>
        <time>2022-01-23T08:52:02.000Z</time>
      </trkpt>
      <trkpt lat="47.30025" lon="-2.24171">
        <ele>23.200000762939</ele>
        <time>2022-01-23T08:52:03.000Z</time>
      </trkpt>
      <trkpt lat="47.30024" lon="-2.24167">
        <ele>22.60000038147</ele>
        <time>2022-01-23T08:52:04.000Z</time>
      </trkpt>
      <trkpt lat="47.30024" lon="-2.24165">
        <ele>22.200000762939</ele>
        <time>2022-01-23T08:52:05.000Z</time>
      </trkpt>
      <trkpt lat="47.30023" lon="-2.24162">
        <ele>21.799999237061</ele>
        <time>2022-01-23T08:52:06.000Z</time>
      </trkpt>
      <trkpt lat="47.30022" lon="-2.24159">
        <ele>21.39999961853</ele>
        <time>2022-01-23T08:52:07.000Z</time>
      </trkpt>
      <trkpt lat="47.30021" lon="-2.24153">
        <ele>21.39999961853</ele>
        <time>2022-01-23T08:52:09.000Z</time>
      </trkpt>
      <trkpt lat="47.30023" lon="-2.24149">
        <ele>21.39999961853</ele>
        <time>2022-01-23T08:52:11.000Z</time>
      </trkpt>
      <trkpt lat="47.3003" lon="-2.24139">
        <ele>21.39999961853</ele>
        <time>2022-01-23T08:52:15.000Z</time>
      </trkpt>
      <trkpt lat="47.30051" lon="-2.24127">
        <ele>21.39999961853</ele>
        <time>2022-01-23T08:52:21.000Z</time>
      </trkpt>
      <trkpt lat="47.30068" lon="-2.24117">
        <ele>21.799999237061</ele>
        <time>2022-01-23T08:52:26.000Z</time>
      </trkpt>
      <trkpt lat="47.30072" lon="-2.24116">
        <ele>22.200000762939</ele>
        <time>2022-01-23T08:52:27.000Z</time>
      </trkpt>
      <trkpt lat="47.30075" lon="-2.24114">
        <ele>22.60000038147</ele>
        <time>2022-01-23T08:52:28.000Z</time>
      </trkpt>
      <trkpt lat="47.30078" lon="-2.24113">
        <ele>23</ele>
        <time>2022-01-23T08:52:29.000Z</time>
      </trkpt>
      <trkpt lat="47.30082" lon="-2.24111">
        <ele>23.39999961853</ele>
        <time>2022-01-23T08:52:30.000Z</time>
      </trkpt>
      <trkpt lat="47.30093" lon="-2.24105">
        <ele>23.39999961853</ele>
        <time>2022-01-23T08:52:33.000Z</time>
      </trkpt>
      <trkpt lat="47.30114" lon="-2.24093">
        <ele>23.39999961853</ele>
        <time>2022-01-23T08:52:39.000Z</time>
      </trkpt>
      <trkpt lat="47.30136" lon="-2.24079">
        <ele>23.39999961853</ele>
        <time>2022-01-23T08:52:45.000Z</time>
      </trkpt>
      <trkpt lat="47.3016" lon="-2.24068">
        <ele>23.39999961853</ele>
        <time>2022-01-23T08:52:50.000Z</time>
      </trkpt>
      <trkpt lat="47.30199" lon="-2.24058">
        <ele>23.39999961853</ele>
        <time>2022-01-23T08:52:58.000Z</time>
      </trkpt>
      <trkpt lat="47.30205" lon="-2.24058">
        <ele>23.39999961853</ele>
        <time>2022-01-23T08:52:59.000Z</time>
      </trkpt>
      <trkpt lat="47.30227" lon="-2.24058">
        <ele>23.39999961853</ele>
        <time>2022-01-23T08:53:03.000Z</time>
      </trkpt>
      <trkpt lat="47.30257" lon="-2.24061">
        <ele>23.39999961853</ele>
        <time>2022-01-23T08:53:09.000Z</time>
      </trkpt>
      <trkpt lat="47.30262" lon="-2.24061">
        <ele>23.39999961853</ele>
        <time>2022-01-23T08:53:10.000Z</time>
      </trkpt>
      <trkpt lat="47.30271" lon="-2.2406">
        <ele>23.39999961853</ele>
        <time>2022-01-23T08:53:12.000Z</time>
      </trkpt>
      <trkpt lat="47.30279" lon="-2.24054">
        <ele>23.39999961853</ele>
        <time>2022-01-23T08:53:14.000Z</time>
      </trkpt>
      <trkpt lat="47.3028" lon="-2.24031">
        <ele>23.39999961853</ele>
        <time>2022-01-23T08:53:17.000Z</time>
      </trkpt>
      <trkpt lat="47.3028" lon="-2.24024">
        <ele>23</ele>
        <time>2022-01-23T08:53:18.000Z</time>
      </trkpt>
      <trkpt lat="47.30279" lon="-2.24015">
        <ele>22.60000038147</ele>
        <time>2022-01-23T08:53:19.000Z</time>
      </trkpt>
      <trkpt lat="47.30278" lon="-2.24007">
        <ele>22</ele>
        <time>2022-01-23T08:53:20.000Z</time>
      </trkpt>
      <trkpt lat="47.30277" lon="-2.23998">
        <ele>21.60000038147</ele>
        <time>2022-01-23T08:53:21.000Z</time>
      </trkpt>
      <trkpt lat="47.30275" lon="-2.23988">
        <ele>21.200000762939</ele>
        <time>2022-01-23T08:53:22.000Z</time>
      </trkpt>
      <trkpt lat="47.30273" lon="-2.23978">
        <ele>20.799999237061</ele>
        <time>2022-01-23T08:53:23.000Z</time>
      </trkpt>
      <trkpt lat="47.30272" lon="-2.23969">
        <ele>20.39999961853</ele>
        <time>2022-01-23T08:53:24.000Z</time>
      </trkpt>
      <trkpt lat="47.30269" lon="-2.23961">
        <ele>20</ele>
        <time>2022-01-23T08:53:25.000Z</time>
      </trkpt>
      <trkpt lat="47.30266" lon="-2.23952">
        <ele>19.60000038147</ele>
        <time>2022-01-23T08:53:26.000Z</time>
      </trkpt>
      <trkpt lat="47.30264" lon="-2.23943">
        <ele>19.200000762939</ele>
        <time>2022-01-23T08:53:27.000Z</time>
      </trkpt>
      <trkpt lat="47.30262" lon="-2.23933">
        <ele>18.799999237061</ele>
        <time>2022-01-23T08:53:28.000Z</time>
      </trkpt>
      <trkpt lat="47.30261" lon="-2.23924">
        <ele>18.39999961853</ele>
        <time>2022-01-23T08:53:29.000Z</time>
      </trkpt>
      <trkpt lat="47.30262" lon="-2.23914">
        <ele>18</ele>
        <time>2022-01-23T08:53:30.000Z</time>
      </trkpt>
      <trkpt lat="47.30264" lon="-2.23906">
        <ele>17.60000038147</ele>
        <time>2022-01-23T08:53:31.000Z</time>
      </trkpt>
      <trkpt lat="47.30267" lon="-2.23899">
        <ele>17.200000762939</ele>
        <time>2022-01-23T08:53:32.000Z</time>
      </trkpt>
      <trkpt lat="47.30279" lon="-2.23886">
        <ele>17.200000762939</ele>
        <time>2022-01-23T08:53:35.000Z</time>
      </trkpt>
      <trkpt lat="47.30295" lon="-2.23881">
        <ele>17.200000762939</ele>
        <time>2022-01-23T08:53:38.000Z</time>
      </trkpt>
      <trkpt lat="47.30307" lon="-2.23878">
        <ele>17.200000762939</ele>
        <time>2022-01-23T08:53:40.000Z</time>
      </trkpt>
      <trkpt lat="47.30348" lon="-2.2386">
        <ele>17.200000762939</ele>
        <time>2022-01-23T08:53:47.000Z</time>
      </trkpt>
      <trkpt lat="47.30399" lon="-2.2385">
        <ele>17.200000762939</ele>
        <time>2022-01-23T08:53:55.000Z</time>
      </trkpt>
      <trkpt lat="47.30449" lon="-2.23843">
        <ele>17.200000762939</ele>
        <time>2022-01-23T08:54:03.000Z</time>
      </trkpt>
      <trkpt lat="47.30473" lon="-2.2384">
        <ele>16.799999237061</ele>
        <time>2022-01-23T08:54:07.000Z</time>
      </trkpt>
      <trkpt lat="47.3048" lon="-2.2384">
        <ele>16.200000762939</ele>
        <time>2022-01-23T08:54:08.000Z</time>
      </trkpt>
      <trkpt lat="47.30485" lon="-2.2384">
        <ele>15.800000190735</ele>
        <time>2022-01-23T08:54:09.000Z</time>
      </trkpt>
      <trkpt lat="47.30492" lon="-2.23843">
        <ele>15.39999961853</ele>
        <time>2022-01-23T08:54:10.000Z</time>
      </trkpt>
      <trkpt lat="47.30497" lon="-2.23846">
        <ele>15</ele>
        <time>2022-01-23T08:54:11.000Z</time>
      </trkpt>
      <trkpt lat="47.30502" lon="-2.23852">
        <ele>15</ele>
        <time>2022-01-23T08:54:12.000Z</time>
      </trkpt>
      <trkpt lat="47.3051" lon="-2.23864">
        <ele>15</ele>
        <time>2022-01-23T08:54:14.000Z</time>
      </trkpt>
      <trkpt lat="47.30522" lon="-2.23882">
        <ele>15</ele>
        <time>2022-01-23T08:54:17.000Z</time>
      </trkpt>
      <trkpt lat="47.30541" lon="-2.23908">
        <ele>15</ele>
        <time>2022-01-23T08:54:22.000Z</time>
      </trkpt>
      <trkpt lat="47.30546" lon="-2.23911">
        <ele>15</ele>
        <time>2022-01-23T08:54:23.000Z</time>
      </trkpt>
      <trkpt lat="47.30557" lon="-2.23906">
        <ele>15</ele>
        <time>2022-01-23T08:54:25.000Z</time>
      </trkpt>
      <trkpt lat="47.30564" lon="-2.23886">
        <ele>15</ele>
        <time>2022-01-23T08:54:28.000Z</time>
      </trkpt>
      <trkpt lat="47.30566" lon="-2.23877">
        <ele>15</ele>
        <time>2022-01-23T08:54:29.000Z</time>
      </trkpt>
      <trkpt lat="47.30574" lon="-2.23823">
        <ele>15</ele>
        <time>2022-01-23T08:54:36.000Z</time>
      </trkpt>
      <trkpt lat="47.30587" lon="-2.23755">
        <ele>15</ele>
        <time>2022-01-23T08:54:45.000Z</time>
      </trkpt>
      <trkpt lat="47.306" lon="-2.23691">
        <ele>15</ele>
        <time>2022-01-23T08:54:53.000Z</time>
      </trkpt>
      <trkpt lat="47.3061" lon="-2.23635">
        <ele>15</ele>
        <time>2022-01-23T08:55:00.000Z</time>
      </trkpt>
      <trkpt lat="47.30623" lon="-2.23574">
        <ele>15</ele>
        <time>2022-01-23T08:55:08.000Z</time>
      </trkpt>
      <trkpt lat="47.30635" lon="-2.23519">
        <ele>15</ele>
        <time>2022-01-23T08:55:15.000Z</time>
      </trkpt>
      <trkpt lat="47.30644" lon="-2.23471">
        <ele>15</ele>
        <time>2022-01-23T08:55:21.000Z</time>
      </trkpt>
      <trkpt lat="47.30661" lon="-2.23387">
        <ele>15</ele>
        <time>2022-01-23T08:55:31.000Z</time>
      </trkpt>
      <trkpt lat="47.30674" lon="-2.23317">
        <ele>15</ele>
        <time>2022-01-23T08:55:40.000Z</time>
      </trkpt>
      <trkpt lat="47.30683" lon="-2.23271">
        <ele>15</ele>
        <time>2022-01-23T08:55:46.000Z</time>
      </trkpt>
      <trkpt lat="47.30694" lon="-2.23215">
        <ele>15</ele>
        <time>2022-01-23T08:55:53.000Z</time>
      </trkpt>
      <trkpt lat="47.30707" lon="-2.23152">
        <ele>15</ele>
        <time>2022-01-23T08:56:01.000Z</time>
      </trkpt>
      <trkpt lat="47.30718" lon="-2.23097">
        <ele>15</ele>
        <time>2022-01-23T08:56:08.000Z</time>
      </trkpt>
      <trkpt lat="47.30729" lon="-2.23042">
        <ele>15</ele>
        <time>2022-01-23T08:56:15.000Z</time>
      </trkpt>
      <trkpt lat="47.3074" lon="-2.22993">
        <ele>15</ele>
        <time>2022-01-23T08:56:21.000Z</time>
      </trkpt>
      <trkpt lat="47.30745" lon="-2.22959">
        <ele>15.39999961853</ele>
        <time>2022-01-23T08:56:25.000Z</time>
      </trkpt>
      <trkpt lat="47.30747" lon="-2.22951">
        <ele>15.800000190735</ele>
        <time>2022-01-23T08:56:26.000Z</time>
      </trkpt>
      <trkpt lat="47.30749" lon="-2.22943">
        <ele>16.60000038147</ele>
        <time>2022-01-23T08:56:27.000Z</time>
      </trkpt>
      <trkpt lat="47.30751" lon="-2.22935">
        <ele>17</ele>
        <time>2022-01-23T08:56:28.000Z</time>
      </trkpt>
      <trkpt lat="47.30761" lon="-2.22885">
        <ele>17</ele>
        <time>2022-01-23T08:56:34.000Z</time>
      </trkpt>
      <trkpt lat="47.30772" lon="-2.22829">
        <ele>17</ele>
        <time>2022-01-23T08:56:41.000Z</time>
      </trkpt>
      <trkpt lat="47.30783" lon="-2.22773">
        <ele>17</ele>
        <time>2022-01-23T08:56:48.000Z</time>
      </trkpt>
      <trkpt lat="47.30798" lon="-2.22722">
        <ele>17</ele>
        <time>2022-01-23T08:56:55.000Z</time>
      </trkpt>
      <trkpt lat="47.30803" lon="-2.22709">
        <ele>17</ele>
        <time>2022-01-23T08:56:57.000Z</time>
      </trkpt>
      <trkpt lat="47.30814" lon="-2.22691">
        <ele>17</ele>
        <time>2022-01-23T08:57:00.000Z</time>
      </trkpt>
      <trkpt lat="47.30841" lon="-2.22659">
        <ele>17</ele>
        <time>2022-01-23T08:57:06.000Z</time>
      </trkpt>
      <trkpt lat="47.30879" lon="-2.22634">
        <ele>17</ele>
        <time>2022-01-23T08:57:13.000Z</time>
      </trkpt>
      <trkpt lat="47.30891" lon="-2.22628">
        <ele>17</ele>
        <time>2022-01-23T08:57:15.000Z</time>
      </trkpt>
      <trkpt lat="47.30914" lon="-2.22617">
        <ele>17</ele>
        <time>2022-01-23T08:57:19.000Z</time>
      </trkpt>
      <trkpt lat="47.30953" lon="-2.22598">
        <ele>17</ele>
        <time>2022-01-23T08:57:26.000Z</time>
      </trkpt>
      <trkpt lat="47.30999" lon="-2.22575">
        <ele>17</ele>
        <time>2022-01-23T08:57:34.000Z</time>
      </trkpt>
      <trkpt lat="47.31017" lon="-2.22566">
        <ele>17</ele>
        <time>2022-01-23T08:57:37.000Z</time>
      </trkpt>
      <trkpt lat="47.31034" lon="-2.22556">
        <ele>17</ele>
        <time>2022-01-23T08:57:40.000Z</time>
      </trkpt>
      <trkpt lat="47.31073" lon="-2.2253">
        <ele>17</ele>
        <time>2022-01-23T08:57:47.000Z</time>
      </trkpt>
      <trkpt lat="47.31102" lon="-2.22502">
        <ele>17</ele>
        <time>2022-01-23T08:57:53.000Z</time>
      </trkpt>
      <trkpt lat="47.31141" lon="-2.22463">
        <ele>17</ele>
        <time>2022-01-23T08:58:01.000Z</time>
      </trkpt>
      <trkpt lat="47.31183" lon="-2.22416">
        <ele>17</ele>
        <time>2022-01-23T08:58:10.000Z</time>
      </trkpt>
      <trkpt lat="47.31213" lon="-2.2239">
        <ele>17</ele>
        <time>2022-01-23T08:58:16.000Z</time>
      </trkpt>
      <trkpt lat="47.31253" lon="-2.22369">
        <ele>17</ele>
        <time>2022-01-23T08:58:23.000Z</time>
      </trkpt>
      <trkpt lat="47.31279" lon="-2.22363">
        <ele>17</ele>
        <time>2022-01-23T08:58:27.000Z</time>
      </trkpt>
      <trkpt lat="47.31293" lon="-2.22362">
        <ele>17</ele>
        <time>2022-01-23T08:58:29.000Z</time>
      </trkpt>
      <trkpt lat="47.3134" lon="-2.22356">
        <ele>17</ele>
        <time>2022-01-23T08:58:36.000Z</time>
      </trkpt>
      <trkpt lat="47.31353" lon="-2.22355">
        <ele>17</ele>
        <time>2022-01-23T08:58:38.000Z</time>
      </trkpt>
      <trkpt lat="47.31378" lon="-2.22352">
        <ele>17</ele>
        <time>2022-01-23T08:58:42.000Z</time>
      </trkpt>
      <trkpt lat="47.31416" lon="-2.22347">
        <ele>17</ele>
        <time>2022-01-23T08:58:48.000Z</time>
      </trkpt>
      <trkpt lat="47.31454" lon="-2.22344">
        <ele>17</ele>
        <time>2022-01-23T08:58:54.000Z</time>
      </trkpt>
      <trkpt lat="47.31503" lon="-2.22339">
        <ele>17</ele>
        <time>2022-01-23T08:59:02.000Z</time>
      </trkpt>
      <trkpt lat="47.31543" lon="-2.22336">
        <ele>17</ele>
        <time>2022-01-23T08:59:09.000Z</time>
      </trkpt>
      <trkpt lat="47.31549" lon="-2.22337">
        <ele>17</ele>
        <time>2022-01-23T08:59:10.000Z</time>
      </trkpt>
      <trkpt lat="47.3157" lon="-2.22341">
        <ele>17</ele>
        <time>2022-01-23T08:59:14.000Z</time>
      </trkpt>
      <trkpt lat="47.3161" lon="-2.22344">
        <ele>17</ele>
        <time>2022-01-23T08:59:21.000Z</time>
      </trkpt>
      <trkpt lat="47.31642" lon="-2.22348">
        <ele>16.60000038147</ele>
        <time>2022-01-23T08:59:27.000Z</time>
      </trkpt>
      <trkpt lat="47.31647" lon="-2.22349">
        <ele>16.200000762939</ele>
        <time>2022-01-23T08:59:28.000Z</time>
      </trkpt>
      <trkpt lat="47.31652" lon="-2.2235">
        <ele>15.800000190735</ele>
        <time>2022-01-23T08:59:29.000Z</time>
      </trkpt>
      <trkpt lat="47.31657" lon="-2.2235">
        <ele>15.39999961853</ele>
        <time>2022-01-23T08:59:30.000Z</time>
      </trkpt>
      <trkpt lat="47.31662" lon="-2.2235">
        <ele>15</ele>
        <time>2022-01-23T08:59:31.000Z</time>
      </trkpt>
      <trkpt lat="47.31679" lon="-2.22351">
        <ele>15</ele>
        <time>2022-01-23T08:59:35.000Z</time>
      </trkpt>
      <trkpt lat="47.31705" lon="-2.22354">
        <ele>15</ele>
        <time>2022-01-23T08:59:41.000Z</time>
      </trkpt>
      <trkpt lat="47.31722" lon="-2.22355">
        <ele>15</ele>
        <time>2022-01-23T08:59:45.000Z</time>
      </trkpt>
      <trkpt lat="47.31729" lon="-2.22356">
        <ele>15</ele>
        <time>2022-01-23T08:59:47.000Z</time>
      </trkpt>
      <trkpt lat="47.31743" lon="-2.22359">
        <ele>15</ele>
        <time>2022-01-23T08:59:51.000Z</time>
      </trkpt>
      <trkpt lat="47.3175" lon="-2.22356">
        <ele>15</ele>
        <time>2022-01-23T08:59:53.000Z</time>
      </trkpt>
      <trkpt lat="47.31758" lon="-2.22355">
        <ele>15</ele>
        <time>2022-01-23T08:59:55.000Z</time>
      </trkpt>
      <trkpt lat="47.31763" lon="-2.22355">
        <ele>15</ele>
        <time>2022-01-23T08:59:56.000Z</time>
      </trkpt>
      <trkpt lat="47.31776" lon="-2.22358">
        <ele>15</ele>
        <time>2022-01-23T08:59:59.000Z</time>
      </trkpt>
      <trkpt lat="47.31791" lon="-2.22359">
        <ele>15</ele>
        <time>2022-01-23T09:00:02.000Z</time>
      </trkpt>
      <trkpt lat="47.31814" lon="-2.2236">
        <ele>15</ele>
        <time>2022-01-23T09:00:07.000Z</time>
      </trkpt>
      <trkpt lat="47.31848" lon="-2.22361">
        <ele>15</ele>
        <time>2022-01-23T09:00:14.000Z</time>
      </trkpt>
      <trkpt lat="47.31859" lon="-2.22362">
        <ele>15</ele>
        <time>2022-01-23T09:00:16.000Z</time>
      </trkpt>
      <trkpt lat="47.3188" lon="-2.22367">
        <ele>15</ele>
        <time>2022-01-23T09:00:20.000Z</time>
      </trkpt>
      <trkpt lat="47.31914" lon="-2.22376">
        <ele>15</ele>
        <time>2022-01-23T09:00:26.000Z</time>
      </trkpt>
      <trkpt lat="47.31943" lon="-2.2238">
        <ele>15</ele>
        <time>2022-01-23T09:00:31.000Z</time>
      </trkpt>
      <trkpt lat="47.31961" lon="-2.22377">
        <ele>15</ele>
        <time>2022-01-23T09:00:34.000Z</time>
      </trkpt>
      <trkpt lat="47.31974" lon="-2.22377">
        <ele>15</ele>
        <time>2022-01-23T09:00:36.000Z</time>
      </trkpt>
      <trkpt lat="47.31992" lon="-2.22388">
        <ele>15</ele>
        <time>2022-01-23T09:00:39.000Z</time>
      </trkpt>
      <trkpt lat="47.31997" lon="-2.22391">
        <ele>15</ele>
        <time>2022-01-23T09:00:40.000Z</time>
      </trkpt>
      <trkpt lat="47.32023" lon="-2.22411">
        <ele>15</ele>
        <time>2022-01-23T09:00:45.000Z</time>
      </trkpt>
      <trkpt lat="47.32064" lon="-2.22429">
        <ele>15</ele>
        <time>2022-01-23T09:00:52.000Z</time>
      </trkpt>
      <trkpt lat="47.32085" lon="-2.22434">
        <ele>15</ele>
        <time>2022-01-23T09:00:56.000Z</time>
      </trkpt>
      <trkpt lat="47.3209" lon="-2.22435">
        <ele>15</ele>
        <time>2022-01-23T09:00:57.000Z</time>
      </trkpt>
      <trkpt lat="47.3212" lon="-2.22444">
        <ele>15</ele>
        <time>2022-01-23T09:01:03.000Z</time>
      </trkpt>
      <trkpt lat="47.32139" lon="-2.22461">
        <ele>15</ele>
        <time>2022-01-23T09:01:07.000Z</time>
      </trkpt>
      <trkpt lat="47.32143" lon="-2.22466">
        <ele>15</ele>
        <time>2022-01-23T09:01:08.000Z</time>
      </trkpt>
      <trkpt lat="47.32161" lon="-2.22483">
        <ele>15</ele>
        <time>2022-01-23T09:01:12.000Z</time>
      </trkpt>
      <trkpt lat="47.32171" lon="-2.22492">
        <ele>15</ele>
        <time>2022-01-23T09:01:14.000Z</time>
      </trkpt>
      <trkpt lat="47.322" lon="-2.22518">
        <ele>15</ele>
        <time>2022-01-23T09:01:20.000Z</time>
      </trkpt>
      <trkpt lat="47.32232" lon="-2.22542">
        <ele>15</ele>
        <time>2022-01-23T09:01:26.000Z</time>
      </trkpt>
      <trkpt lat="47.32253" lon="-2.22557">
        <ele>15</ele>
        <time>2022-01-23T09:01:30.000Z</time>
      </trkpt>
      <trkpt lat="47.32258" lon="-2.22559">
        <ele>15</ele>
        <time>2022-01-23T09:01:31.000Z</time>
      </trkpt>
      <trkpt lat="47.32284" lon="-2.22565">
        <ele>15</ele>
        <time>2022-01-23T09:01:36.000Z</time>
      </trkpt>
      <trkpt lat="47.3229" lon="-2.22563">
        <ele>15</ele>
        <time>2022-01-23T09:01:37.000Z</time>
      </trkpt>
      <trkpt lat="47.32305" lon="-2.2255">
        <ele>15</ele>
        <time>2022-01-23T09:01:40.000Z</time>
      </trkpt>
      <trkpt lat="47.32316" lon="-2.22532">
        <ele>15</ele>
        <time>2022-01-23T09:01:43.000Z</time>
      </trkpt>
      <trkpt lat="47.32323" lon="-2.2252">
        <ele>15</ele>
        <time>2022-01-23T09:01:45.000Z</time>
      </trkpt>
      <trkpt lat="47.32344" lon="-2.2248">
        <ele>15</ele>
        <time>2022-01-23T09:01:51.000Z</time>
      </trkpt>
      <trkpt lat="47.3235" lon="-2.22465">
        <ele>15</ele>
        <time>2022-01-23T09:01:53.000Z</time>
      </trkpt>
      <trkpt lat="47.32354" lon="-2.22448">
        <ele>15</ele>
        <time>2022-01-23T09:01:55.000Z</time>
      </trkpt>
      <trkpt lat="47.32358" lon="-2.22431">
        <ele>15</ele>
        <time>2022-01-23T09:01:57.000Z</time>
      </trkpt>
      <trkpt lat="47.32365" lon="-2.22396">
        <ele>15</ele>
        <time>2022-01-23T09:02:01.000Z</time>
      </trkpt>
      <trkpt lat="47.32365" lon="-2.22378">
        <ele>15</ele>
        <time>2022-01-23T09:02:03.000Z</time>
      </trkpt>
      <trkpt lat="47.32366" lon="-2.22361">
        <ele>15</ele>
        <time>2022-01-23T09:02:05.000Z</time>
      </trkpt>
      <trkpt lat="47.32368" lon="-2.22339">
        <ele>15</ele>
        <time>2022-01-23T09:02:08.000Z</time>
      </trkpt>
      <trkpt lat="47.32371" lon="-2.22316">
        <ele>15</ele>
        <time>2022-01-23T09:02:11.000Z</time>
      </trkpt>
      <trkpt lat="47.32373" lon="-2.223">
        <ele>15</ele>
        <time>2022-01-23T09:02:13.000Z</time>
      </trkpt>
      <trkpt lat="47.3238" lon="-2.2228">
        <ele>15</ele>
        <time>2022-01-23T09:02:16.000Z</time>
      </trkpt>
      <trkpt lat="47.32384" lon="-2.22273">
        <ele>15</ele>
        <time>2022-01-23T09:02:17.000Z</time>
      </trkpt>
      <trkpt lat="47.32393" lon="-2.2224">
        <ele>15</ele>
        <time>2022-01-23T09:02:21.000Z</time>
      </trkpt>
      <trkpt lat="47.32394" lon="-2.22231">
        <ele>15</ele>
        <time>2022-01-23T09:02:22.000Z</time>
      </trkpt>
      <trkpt lat="47.32389" lon="-2.22196">
        <ele>15</ele>
        <time>2022-01-23T09:02:26.000Z</time>
      </trkpt>
      <trkpt lat="47.32386" lon="-2.22187">
        <ele>15</ele>
        <time>2022-01-23T09:02:27.000Z</time>
      </trkpt>
      <trkpt lat="47.32377" lon="-2.22139">
        <ele>15</ele>
        <time>2022-01-23T09:02:33.000Z</time>
      </trkpt>
      <trkpt lat="47.32377" lon="-2.22096">
        <ele>15</ele>
        <time>2022-01-23T09:02:38.000Z</time>
      </trkpt>
      <trkpt lat="47.3238" lon="-2.22043">
        <ele>15</ele>
        <time>2022-01-23T09:02:44.000Z</time>
      </trkpt>
      <trkpt lat="47.3238" lon="-2.22025">
        <ele>15</ele>
        <time>2022-01-23T09:02:46.000Z</time>
      </trkpt>
      <trkpt lat="47.32378" lon="-2.21991">
        <ele>15</ele>
        <time>2022-01-23T09:02:50.000Z</time>
      </trkpt>
      <trkpt lat="47.32377" lon="-2.21983">
        <ele>15</ele>
        <time>2022-01-23T09:02:51.000Z</time>
      </trkpt>
      <trkpt lat="47.32371" lon="-2.21934">
        <ele>15</ele>
        <time>2022-01-23T09:02:57.000Z</time>
      </trkpt>
      <trkpt lat="47.32369" lon="-2.21927">
        <ele>15</ele>
        <time>2022-01-23T09:02:58.000Z</time>
      </trkpt>
      <trkpt lat="47.32358" lon="-2.21911">
        <ele>15</ele>
        <time>2022-01-23T09:03:01.000Z</time>
      </trkpt>
      <trkpt lat="47.32336" lon="-2.21907">
        <ele>15</ele>
        <time>2022-01-23T09:03:05.000Z</time>
      </trkpt>
      <trkpt lat="47.3233" lon="-2.21908">
        <ele>15</ele>
        <time>2022-01-23T09:03:06.000Z</time>
      </trkpt>
      <trkpt lat="47.32302" lon="-2.2191">
        <ele>15</ele>
        <time>2022-01-23T09:03:11.000Z</time>
      </trkpt>
      <trkpt lat="47.32283" lon="-2.2191">
        <ele>15</ele>
        <time>2022-01-23T09:03:15.000Z</time>
      </trkpt>
      <trkpt lat="47.32276" lon="-2.219">
        <ele>15</ele>
        <time>2022-01-23T09:03:17.000Z</time>
      </trkpt>
      <trkpt lat="47.32275" lon="-2.21878">
        <ele>15</ele>
        <time>2022-01-23T09:03:20.000Z</time>
      </trkpt>
      <trkpt lat="47.32274" lon="-2.2187">
        <ele>15</ele>
        <time>2022-01-23T09:03:21.000Z</time>
      </trkpt>
      <trkpt lat="47.32268" lon="-2.21818">
        <ele>15</ele>
        <time>2022-01-23T09:03:27.000Z</time>
      </trkpt>
      <trkpt lat="47.32259" lon="-2.21759">
        <ele>15</ele>
        <time>2022-01-23T09:03:34.000Z</time>
      </trkpt>
      <trkpt lat="47.32258" lon="-2.21751">
        <ele>15</ele>
        <time>2022-01-23T09:03:35.000Z</time>
      </trkpt>
      <trkpt lat="47.32248" lon="-2.21697">
        <ele>15</ele>
        <time>2022-01-23T09:03:42.000Z</time>
      </trkpt>
      <trkpt lat="47.32246" lon="-2.21682">
        <ele>15</ele>
        <time>2022-01-23T09:03:44.000Z</time>
      </trkpt>
      <trkpt lat="47.32239" lon="-2.21644">
        <ele>15</ele>
        <time>2022-01-23T09:03:49.000Z</time>
      </trkpt>
      <trkpt lat="47.3223" lon="-2.2159">
        <ele>15</ele>
        <time>2022-01-23T09:03:56.000Z</time>
      </trkpt>
      <trkpt lat="47.3222" lon="-2.21537">
        <ele>15</ele>
        <time>2022-01-23T09:04:03.000Z</time>
      </trkpt>
      <trkpt lat="47.32209" lon="-2.21476">
        <ele>15</ele>
        <time>2022-01-23T09:04:11.000Z</time>
      </trkpt>
      <trkpt lat="47.32203" lon="-2.2144">
        <ele>15.39999961853</ele>
        <time>2022-01-23T09:04:16.000Z</time>
      </trkpt>
      <trkpt lat="47.32202" lon="-2.21432">
        <ele>15.800000190735</ele>
        <time>2022-01-23T09:04:17.000Z</time>
      </trkpt>
      <trkpt lat="47.32201" lon="-2.21425">
        <ele>16.200000762939</ele>
        <time>2022-01-23T09:04:18.000Z</time>
      </trkpt>
      <trkpt lat="47.32199" lon="-2.21418">
        <ele>16.60000038147</ele>
        <time>2022-01-23T09:04:19.000Z</time>
      </trkpt>
      <trkpt lat="47.32198" lon="-2.21411">
        <ele>17</ele>
        <time>2022-01-23T09:04:20.000Z</time>
      </trkpt>
      <trkpt lat="47.32192" lon="-2.21375">
        <ele>17</ele>
        <time>2022-01-23T09:04:25.000Z</time>
      </trkpt>
      <trkpt lat="47.32187" lon="-2.21361">
        <ele>17</ele>
        <time>2022-01-23T09:04:27.000Z</time>
      </trkpt>
      <trkpt lat="47.32178" lon="-2.21342">
        <ele>17</ele>
        <time>2022-01-23T09:04:30.000Z</time>
      </trkpt>
      <trkpt lat="47.32153" lon="-2.21301">
        <ele>17</ele>
        <time>2022-01-23T09:04:37.000Z</time>
      </trkpt>
      <trkpt lat="47.32116" lon="-2.21242">
        <ele>17</ele>
        <time>2022-01-23T09:04:47.000Z</time>
      </trkpt>
      <trkpt lat="47.32097" lon="-2.21213">
        <ele>16.60000038147</ele>
        <time>2022-01-23T09:04:52.000Z</time>
      </trkpt>
      <trkpt lat="47.32094" lon="-2.21207">
        <ele>16.200000762939</ele>
        <time>2022-01-23T09:04:53.000Z</time>
      </trkpt>
      <trkpt lat="47.3209" lon="-2.21201">
        <ele>15.800000190735</ele>
        <time>2022-01-23T09:04:54.000Z</time>
      </trkpt>
      <trkpt lat="47.32087" lon="-2.21195">
        <ele>15.39999961853</ele>
        <time>2022-01-23T09:04:55.000Z</time>
      </trkpt>
      <trkpt lat="47.32082" lon="-2.21189">
        <ele>15</ele>
        <time>2022-01-23T09:04:56.000Z</time>
      </trkpt>
      <trkpt lat="47.32063" lon="-2.2116">
        <ele>15</ele>
        <time>2022-01-23T09:05:01.000Z</time>
      </trkpt>
      <trkpt lat="47.32036" lon="-2.21124">
        <ele>15</ele>
        <time>2022-01-23T09:05:08.000Z</time>
      </trkpt>
      <trkpt lat="47.3203" lon="-2.21096">
        <ele>15</ele>
        <time>2022-01-23T09:05:12.000Z</time>
      </trkpt>
      <trkpt lat="47.32028" lon="-2.2108">
        <ele>15</ele>
        <time>2022-01-23T09:05:14.000Z</time>
      </trkpt>
      <trkpt lat="47.32026" lon="-2.21065">
        <ele>15.60000038147</ele>
        <time>2022-01-23T09:05:16.000Z</time>
      </trkpt>
      <trkpt lat="47.32025" lon="-2.21059">
        <ele>16</ele>
        <time>2022-01-23T09:05:17.000Z</time>
      </trkpt>
      <trkpt lat="47.32024" lon="-2.21051">
        <ele>16.39999961853</ele>
        <time>2022-01-23T09:05:18.000Z</time>
      </trkpt>
      <trkpt lat="47.32023" lon="-2.21044">
        <ele>16.799999237061</ele>
        <time>2022-01-23T09:05:19.000Z</time>
      </trkpt>
      <trkpt lat="47.3202" lon="-2.21037">
        <ele>17.39999961853</ele>
        <time>2022-01-23T09:05:20.000Z</time>
      </trkpt>
      <trkpt lat="47.3201" lon="-2.21019">
        <ele>17.39999961853</ele>
        <time>2022-01-23T09:05:23.000Z</time>
      </trkpt>
      <trkpt lat="47.32" lon="-2.21009">
        <ele>17.39999961853</ele>
        <time>2022-01-23T09:05:25.000Z</time>
      </trkpt>
      <trkpt lat="47.31992" lon="-2.21001">
        <ele>17.39999961853</ele>
        <time>2022-01-23T09:05:27.000Z</time>
      </trkpt>
      <trkpt lat="47.31987" lon="-2.20996">
        <ele>17.39999961853</ele>
        <time>2022-01-23T09:05:28.000Z</time>
      </trkpt>
      <trkpt lat="47.31959" lon="-2.20973">
        <ele>17.39999961853</ele>
        <time>2022-01-23T09:05:34.000Z</time>
      </trkpt>
      <trkpt lat="47.31931" lon="-2.20948">
        <ele>17.39999961853</ele>
        <time>2022-01-23T09:05:40.000Z</time>
      </trkpt>
      <trkpt lat="47.31922" lon="-2.2094">
        <ele>17.39999961853</ele>
        <time>2022-01-23T09:05:42.000Z</time>
      </trkpt>
      <trkpt lat="47.31888" lon="-2.20911">
        <ele>17.39999961853</ele>
        <time>2022-01-23T09:05:50.000Z</time>
      </trkpt>
      <trkpt lat="47.31885" lon="-2.20907">
        <ele>17.39999961853</ele>
        <time>2022-01-23T09:05:51.000Z</time>
      </trkpt>
      <trkpt lat="47.31877" lon="-2.20899">
        <ele>17.39999961853</ele>
        <time>2022-01-23T09:05:53.000Z</time>
      </trkpt>
      <trkpt lat="47.3187" lon="-2.20891">
        <ele>17.39999961853</ele>
        <time>2022-01-23T09:05:55.000Z</time>
      </trkpt>
      <trkpt lat="47.31862" lon="-2.2088">
        <ele>17.39999961853</ele>
        <time>2022-01-23T09:05:58.000Z</time>
      </trkpt>
      <trkpt lat="47.31861" lon="-2.20875">
        <ele>17.39999961853</ele>
        <time>2022-01-23T09:05:59.000Z</time>
      </trkpt>
      <trkpt lat="47.31862" lon="-2.20862">
        <ele>17.39999961853</ele>
        <time>2022-01-23T09:06:01.000Z</time>
      </trkpt>
      <trkpt lat="47.31864" lon="-2.20856">
        <ele>17.39999961853</ele>
        <time>2022-01-23T09:06:02.000Z</time>
      </trkpt>
      <trkpt lat="47.31875" lon="-2.20825">
        <ele>17.39999961853</ele>
        <time>2022-01-23T09:06:07.000Z</time>
      </trkpt>
      <trkpt lat="47.31881" lon="-2.20806">
        <ele>17.39999961853</ele>
        <time>2022-01-23T09:06:10.000Z</time>
      </trkpt>
      <trkpt lat="47.31887" lon="-2.20778">
        <ele>17.39999961853</ele>
        <time>2022-01-23T09:06:14.000Z</time>
      </trkpt>
      <trkpt lat="47.3189" lon="-2.20725">
        <ele>17.39999961853</ele>
        <time>2022-01-23T09:06:21.000Z</time>
      </trkpt>
      <trkpt lat="47.31891" lon="-2.20666">
        <ele>17.39999961853</ele>
        <time>2022-01-23T09:06:29.000Z</time>
      </trkpt>
      <trkpt lat="47.31891" lon="-2.20613">
        <ele>17.39999961853</ele>
        <time>2022-01-23T09:06:36.000Z</time>
      </trkpt>
      <trkpt lat="47.31897" lon="-2.20537">
        <ele>17.39999961853</ele>
        <time>2022-01-23T09:06:46.000Z</time>
      </trkpt>
      <trkpt lat="47.31907" lon="-2.20496">
        <ele>17.39999961853</ele>
        <time>2022-01-23T09:06:52.000Z</time>
      </trkpt>
      <trkpt lat="47.31923" lon="-2.20457">
        <ele>17.39999961853</ele>
        <time>2022-01-23T09:06:58.000Z</time>
      </trkpt>
      <trkpt lat="47.31926" lon="-2.20451">
        <ele>17.39999961853</ele>
        <time>2022-01-23T09:06:59.000Z</time>
      </trkpt>
      <trkpt lat="47.31947" lon="-2.20409">
        <ele>17.39999961853</ele>
        <time>2022-01-23T09:07:06.000Z</time>
      </trkpt>
      <trkpt lat="47.31967" lon="-2.20367">
        <ele>17.39999961853</ele>
        <time>2022-01-23T09:07:13.000Z</time>
      </trkpt>
      <trkpt lat="47.31999" lon="-2.20303">
        <ele>17.39999961853</ele>
        <time>2022-01-23T09:07:22.000Z</time>
      </trkpt>
      <trkpt lat="47.3203" lon="-2.20247">
        <ele>17.39999961853</ele>
        <time>2022-01-23T09:07:30.000Z</time>
      </trkpt>
      <trkpt lat="47.32065" lon="-2.20196">
        <ele>17.39999961853</ele>
        <time>2022-01-23T09:07:38.000Z</time>
      </trkpt>
      <trkpt lat="47.32103" lon="-2.20148">
        <ele>17.39999961853</ele>
        <time>2022-01-23T09:07:46.000Z</time>
      </trkpt>
      <trkpt lat="47.3214" lon="-2.20101">
        <ele>17.39999961853</ele>
        <time>2022-01-23T09:07:54.000Z</time>
      </trkpt>
      <trkpt lat="47.32168" lon="-2.20059">
        <ele>17.39999961853</ele>
        <time>2022-01-23T09:08:01.000Z</time>
      </trkpt>
      <trkpt lat="47.32186" lon="-2.20017">
        <ele>17.39999961853</ele>
        <time>2022-01-23T09:08:07.000Z</time>
      </trkpt>
      <trkpt lat="47.322" lon="-2.19965">
        <ele>17.39999961853</ele>
        <time>2022-01-23T09:08:14.000Z</time>
      </trkpt>
      <trkpt lat="47.32211" lon="-2.19917">
        <ele>17.39999961853</ele>
        <time>2022-01-23T09:08:21.000Z</time>
      </trkpt>
      <trkpt lat="47.32215" lon="-2.19892">
        <ele>17.39999961853</ele>
        <time>2022-01-23T09:08:26.000Z</time>
      </trkpt>
      <trkpt lat="47.32219" lon="-2.19886">
        <ele>17.39999961853</ele>
        <time>2022-01-23T09:08:28.000Z</time>
      </trkpt>
      <trkpt lat="47.32221" lon="-2.19886">
        <ele>17.39999961853</ele>
        <time>2022-01-23T09:08:29.000Z</time>
      </trkpt>
      <trkpt lat="47.32232" lon="-2.1989">
        <ele>17.39999961853</ele>
        <time>2022-01-23T09:08:34.000Z</time>
      </trkpt>
      <trkpt lat="47.32235" lon="-2.19891">
        <ele>17.39999961853</ele>
        <time>2022-01-23T09:08:35.000Z</time>
      </trkpt>
      <trkpt lat="47.32244" lon="-2.19883">
        <ele>17.39999961853</ele>
        <time>2022-01-23T09:08:39.000Z</time>
      </trkpt>
      <trkpt lat="47.32259" lon="-2.19864">
        <ele>17.39999961853</ele>
        <time>2022-01-23T09:08:44.000Z</time>
      </trkpt>
      <trkpt lat="47.32262" lon="-2.19859">
        <ele>17.39999961853</ele>
        <time>2022-01-23T09:08:45.000Z</time>
      </trkpt>
      <trkpt lat="47.32265" lon="-2.19855">
        <ele>17.39999961853</ele>
        <time>2022-01-23T09:08:46.000Z</time>
      </trkpt>
      <trkpt lat="47.32284" lon="-2.19831">
        <ele>17.39999961853</ele>
        <time>2022-01-23T09:08:52.000Z</time>
      </trkpt>
      <trkpt lat="47.32304" lon="-2.19803">
        <ele>17.39999961853</ele>
        <time>2022-01-23T09:08:59.000Z</time>
      </trkpt>
      <trkpt lat="47.32314" lon="-2.1979">
        <ele>17.39999961853</ele>
        <time>2022-01-23T09:09:04.000Z</time>
      </trkpt>
      <trkpt lat="47.32321" lon="-2.19779">
        <ele>17.39999961853</ele>
        <time>2022-01-23T09:09:09.000Z</time>
      </trkpt>
      <trkpt lat="47.32321" lon="-2.1977">
        <ele>17.39999961853</ele>
        <time>2022-01-23T09:09:12.000Z</time>
      </trkpt>
      <trkpt lat="47.32323" lon="-2.19768">
        <ele>17.39999961853</ele>
        <time>2022-01-23T09:09:13.000Z</time>
      </trkpt>
      <trkpt lat="47.32326" lon="-2.19776">
        <ele>17.39999961853</ele>
        <time>2022-01-23T09:09:16.000Z</time>
      </trkpt>
      <trkpt lat="47.3232" lon="-2.19784">
        <ele>17.39999961853</ele>
        <time>2022-01-23T09:09:19.000Z</time>
      </trkpt>
      <trkpt lat="47.32307" lon="-2.19802">
        <ele>17.39999961853</ele>
        <time>2022-01-23T09:09:25.000Z</time>
      </trkpt>
      <trkpt lat="47.32287" lon="-2.19829">
        <ele>17.39999961853</ele>
        <time>2022-01-23T09:09:32.000Z</time>
      </trkpt>
      <trkpt lat="47.32264" lon="-2.1986">
        <ele>17.39999961853</ele>
        <time>2022-01-23T09:09:39.000Z</time>
      </trkpt>
      <trkpt lat="47.32244" lon="-2.19884">
        <ele>17.39999961853</ele>
        <time>2022-01-23T09:09:45.000Z</time>
      </trkpt>
      <trkpt lat="47.32231" lon="-2.19892">
        <ele>17.39999961853</ele>
        <time>2022-01-23T09:09:49.000Z</time>
      </trkpt>
      <trkpt lat="47.32219" lon="-2.19882">
        <ele>17.39999961853</ele>
        <time>2022-01-23T09:09:53.000Z</time>
      </trkpt>
      <trkpt lat="47.32218" lon="-2.19865">
        <ele>17.39999961853</ele>
        <time>2022-01-23T09:09:56.000Z</time>
      </trkpt>
      <trkpt lat="47.32219" lon="-2.19858">
        <ele>17.39999961853</ele>
        <time>2022-01-23T09:09:57.000Z</time>
      </trkpt>
      <trkpt lat="47.32222" lon="-2.19837">
        <ele>17.39999961853</ele>
        <time>2022-01-23T09:10:00.000Z</time>
      </trkpt>
      <trkpt lat="47.32225" lon="-2.19824">
        <ele>17.39999961853</ele>
        <time>2022-01-23T09:10:02.000Z</time>
      </trkpt>
      <trkpt lat="47.32229" lon="-2.19797">
        <ele>17.799999237061</ele>
        <time>2022-01-23T09:10:06.000Z</time>
      </trkpt>
      <trkpt lat="47.3223" lon="-2.19791">
        <ele>18.200000762939</ele>
        <time>2022-01-23T09:10:07.000Z</time>
      </trkpt>
      <trkpt lat="47.32232" lon="-2.19784">
        <ele>18.60000038147</ele>
        <time>2022-01-23T09:10:08.000Z</time>
      </trkpt>
      <trkpt lat="47.32233" lon="-2.19778">
        <ele>19</ele>
        <time>2022-01-23T09:10:09.000Z</time>
      </trkpt>
      <trkpt lat="47.32234" lon="-2.19771">
        <ele>19.39999961853</ele>
        <time>2022-01-23T09:10:10.000Z</time>
      </trkpt>
      <trkpt lat="47.32237" lon="-2.19753">
        <ele>19.799999237061</ele>
        <time>2022-01-23T09:10:13.000Z</time>
      </trkpt>
      <trkpt lat="47.32238" lon="-2.19748">
        <ele>20.200000762939</ele>
        <time>2022-01-23T09:10:14.000Z</time>
      </trkpt>
      <trkpt lat="47.32238" lon="-2.19742">
        <ele>20.60000038147</ele>
        <time>2022-01-23T09:10:15.000Z</time>
      </trkpt>
      <trkpt lat="47.32239" lon="-2.19737">
        <ele>21</ele>
        <time>2022-01-23T09:10:16.000Z</time>
      </trkpt>
      <trkpt lat="47.3224" lon="-2.19731">
        <ele>21.39999961853</ele>
        <time>2022-01-23T09:10:17.000Z</time>
      </trkpt>
      <trkpt lat="47.32243" lon="-2.19709">
        <ele>21.799999237061</ele>
        <time>2022-01-23T09:10:21.000Z</time>
      </trkpt>
      <trkpt lat="47.32245" lon="-2.19703">
        <ele>22.200000762939</ele>
        <time>2022-01-23T09:10:22.000Z</time>
      </trkpt>
      <trkpt lat="47.32245" lon="-2.19697">
        <ele>22.799999237061</ele>
        <time>2022-01-23T09:10:23.000Z</time>
      </trkpt>
      <trkpt lat="47.32246" lon="-2.19691">
        <ele>23.200000762939</ele>
        <time>2022-01-23T09:10:24.000Z</time>
      </trkpt>
      <trkpt lat="47.32248" lon="-2.19684">
        <ele>23.60000038147</ele>
        <time>2022-01-23T09:10:25.000Z</time>
      </trkpt>
      <trkpt lat="47.32252" lon="-2.19662">
        <ele>23.60000038147</ele>
        <time>2022-01-23T09:10:28.000Z</time>
      </trkpt>
      <trkpt lat="47.32258" lon="-2.19616">
        <ele>23.60000038147</ele>
        <time>2022-01-23T09:10:34.000Z</time>
      </trkpt>
      <trkpt lat="47.32258" lon="-2.19608">
        <ele>23.200000762939</ele>
        <time>2022-01-23T09:10:35.000Z</time>
      </trkpt>
      <trkpt lat="47.32258" lon="-2.196">
        <ele>22.799999237061</ele>
        <time>2022-01-23T09:10:36.000Z</time>
      </trkpt>
      <trkpt lat="47.32258" lon="-2.19592">
        <ele>22.39999961853</ele>
        <time>2022-01-23T09:10:37.000Z</time>
      </trkpt>
      <trkpt lat="47.32258" lon="-2.19584">
        <ele>22</ele>
        <time>2022-01-23T09:10:38.000Z</time>
      </trkpt>
      <trkpt lat="47.32258" lon="-2.19576">
        <ele>21.60000038147</ele>
        <time>2022-01-23T09:10:39.000Z</time>
      </trkpt>
      <trkpt lat="47.32258" lon="-2.19569">
        <ele>21.60000038147</ele>
        <time>2022-01-23T09:10:40.000Z</time>
      </trkpt>
      <trkpt lat="47.32259" lon="-2.19555">
        <ele>21.60000038147</ele>
        <time>2022-01-23T09:10:42.000Z</time>
      </trkpt>
      <trkpt lat="47.32258" lon="-2.19542">
        <ele>21.200000762939</ele>
        <time>2022-01-23T09:10:44.000Z</time>
      </trkpt>
      <trkpt lat="47.32257" lon="-2.19536">
        <ele>20.799999237061</ele>
        <time>2022-01-23T09:10:45.000Z</time>
      </trkpt>
      <trkpt lat="47.32256" lon="-2.1953">
        <ele>20.39999961853</ele>
        <time>2022-01-23T09:10:46.000Z</time>
      </trkpt>
      <trkpt lat="47.32255" lon="-2.19524">
        <ele>19.799999237061</ele>
        <time>2022-01-23T09:10:47.000Z</time>
      </trkpt>
      <trkpt lat="47.32254" lon="-2.19517">
        <ele>19.39999961853</ele>
        <time>2022-01-23T09:10:48.000Z</time>
      </trkpt>
      <trkpt lat="47.32253" lon="-2.19497">
        <ele>19.39999961853</ele>
        <time>2022-01-23T09:10:51.000Z</time>
      </trkpt>
      <trkpt lat="47.32254" lon="-2.19473">
        <ele>19.39999961853</ele>
        <time>2022-01-23T09:10:55.000Z</time>
      </trkpt>
      <trkpt lat="47.32256" lon="-2.19461">
        <ele>19.39999961853</ele>
        <time>2022-01-23T09:10:57.000Z</time>
      </trkpt>
      <trkpt lat="47.3227" lon="-2.19416">
        <ele>19.39999961853</ele>
        <time>2022-01-23T09:11:04.000Z</time>
      </trkpt>
      <trkpt lat="47.3228" lon="-2.19382">
        <ele>19.39999961853</ele>
        <time>2022-01-23T09:11:09.000Z</time>
      </trkpt>
      <trkpt lat="47.32281" lon="-2.19375">
        <ele>19.39999961853</ele>
        <time>2022-01-23T09:11:10.000Z</time>
      </trkpt>
      <trkpt lat="47.32284" lon="-2.19363">
        <ele>19.39999961853</ele>
        <time>2022-01-23T09:11:12.000Z</time>
      </trkpt>
      <trkpt lat="47.32284" lon="-2.19346">
        <ele>19.39999961853</ele>
        <time>2022-01-23T09:11:15.000Z</time>
      </trkpt>
      <trkpt lat="47.32282" lon="-2.19338">
        <ele>19.39999961853</ele>
        <time>2022-01-23T09:11:17.000Z</time>
      </trkpt>
      <trkpt lat="47.32277" lon="-2.19318">
        <ele>19.39999961853</ele>
        <time>2022-01-23T09:11:21.000Z</time>
      </trkpt>
      <trkpt lat="47.32265" lon="-2.19278">
        <ele>19.39999961853</ele>
        <time>2022-01-23T09:11:28.000Z</time>
      </trkpt>
      <trkpt lat="47.32258" lon="-2.19255">
        <ele>19.39999961853</ele>
        <time>2022-01-23T09:11:32.000Z</time>
      </trkpt>
      <trkpt lat="47.32252" lon="-2.19238">
        <ele>19.39999961853</ele>
        <time>2022-01-23T09:11:35.000Z</time>
      </trkpt>
      <trkpt lat="47.32242" lon="-2.1921">
        <ele>19.39999961853</ele>
        <time>2022-01-23T09:11:40.000Z</time>
      </trkpt>
      <trkpt lat="47.32237" lon="-2.192">
        <ele>19.39999961853</ele>
        <time>2022-01-23T09:11:42.000Z</time>
      </trkpt>
      <trkpt lat="47.32222" lon="-2.19169">
        <ele>19.39999961853</ele>
        <time>2022-01-23T09:11:48.000Z</time>
      </trkpt>
      <trkpt lat="47.32207" lon="-2.19144">
        <ele>19.39999961853</ele>
        <time>2022-01-23T09:11:55.000Z</time>
      </trkpt>
      <trkpt lat="47.32191" lon="-2.19128">
        <ele>19.39999961853</ele>
        <time>2022-01-23T09:12:01.000Z</time>
      </trkpt>
      <trkpt lat="47.3218" lon="-2.19118">
        <ele>19.39999961853</ele>
        <time>2022-01-23T09:12:07.000Z</time>
      </trkpt>
      <trkpt lat="47.32179" lon="-2.19117">
        <ele>19.39999961853</ele>
        <time>2022-01-23T09:12:09.000Z</time>
      </trkpt>
      <trkpt lat="47.32177" lon="-2.19115">
        <ele>19.39999961853</ele>
        <time>2022-01-23T09:13:02.000Z</time>
      </trkpt>
      <trkpt lat="47.32176" lon="-2.19114">
        <ele>19.39999961853</ele>
        <time>2022-01-23T09:13:03.000Z</time>
      </trkpt>
      <trkpt lat="47.32167" lon="-2.19106">
        <ele>19.39999961853</ele>
        <time>2022-01-23T09:13:08.000Z</time>
      </trkpt>
      <trkpt lat="47.32154" lon="-2.19093">
        <ele>19.799999237061</ele>
        <time>2022-01-23T09:13:13.000Z</time>
      </trkpt>
      <trkpt lat="47.32152" lon="-2.1909">
        <ele>20.39999961853</ele>
        <time>2022-01-23T09:13:14.000Z</time>
      </trkpt>
      <trkpt lat="47.32149" lon="-2.19087">
        <ele>20.799999237061</ele>
        <time>2022-01-23T09:13:15.000Z</time>
      </trkpt>
      <trkpt lat="47.32147" lon="-2.19084">
        <ele>21.200000762939</ele>
        <time>2022-01-23T09:13:16.000Z</time>
      </trkpt>
      <trkpt lat="47.32145" lon="-2.19082">
        <ele>21.60000038147</ele>
        <time>2022-01-23T09:13:17.000Z</time>
      </trkpt>
      <trkpt lat="47.3214" lon="-2.19075">
        <ele>21.60000038147</ele>
        <time>2022-01-23T09:13:20.000Z</time>
      </trkpt>
      <trkpt lat="47.32135" lon="-2.19067">
        <ele>22</ele>
        <time>2022-01-23T09:13:23.000Z</time>
      </trkpt>
      <trkpt lat="47.32134" lon="-2.19064">
        <ele>22.39999961853</ele>
        <time>2022-01-23T09:13:24.000Z</time>
      </trkpt>
      <trkpt lat="47.32132" lon="-2.19061">
        <ele>22.799999237061</ele>
        <time>2022-01-23T09:13:25.000Z</time>
      </trkpt>
      <trkpt lat="47.32131" lon="-2.19058">
        <ele>23.200000762939</ele>
        <time>2022-01-23T09:13:26.000Z</time>
      </trkpt>
      <trkpt lat="47.3213" lon="-2.19056">
        <ele>23.60000038147</ele>
        <time>2022-01-23T09:13:27.000Z</time>
      </trkpt>
      <trkpt lat="47.32128" lon="-2.19049">
        <ele>23.60000038147</ele>
        <time>2022-01-23T09:13:32.000Z</time>
      </trkpt>
      <trkpt lat="47.32128" lon="-2.19049">
        <ele>23.60000038147</ele>
        <time>2022-01-23T09:13:58.000Z</time>
      </trkpt>
      <trkpt lat="47.32127" lon="-2.1904">
        <ele>23.60000038147</ele>
        <time>2022-01-23T09:14:01.000Z</time>
      </trkpt>
      <trkpt lat="47.32127" lon="-2.19036">
        <ele>23.60000038147</ele>
        <time>2022-01-23T09:14:02.000Z</time>
      </trkpt>
      <trkpt lat="47.32131" lon="-2.19023">
        <ele>23.60000038147</ele>
        <time>2022-01-23T09:14:05.000Z</time>
      </trkpt>
      <trkpt lat="47.32141" lon="-2.19001">
        <ele>24</ele>
        <time>2022-01-23T09:14:09.000Z</time>
      </trkpt>
      <trkpt lat="47.32143" lon="-2.18995">
        <ele>24.39999961853</ele>
        <time>2022-01-23T09:14:10.000Z</time>
      </trkpt>
      <trkpt lat="47.32146" lon="-2.18989">
        <ele>25.200000762939</ele>
        <time>2022-01-23T09:14:11.000Z</time>
      </trkpt>
      <trkpt lat="47.32148" lon="-2.18983">
        <ele>25.60000038147</ele>
        <time>2022-01-23T09:14:12.000Z</time>
      </trkpt>
      <trkpt lat="47.32169" lon="-2.18934">
        <ele>25.200000762939</ele>
        <time>2022-01-23T09:14:19.000Z</time>
      </trkpt>
      <trkpt lat="47.32172" lon="-2.18927">
        <ele>24.799999237061</ele>
        <time>2022-01-23T09:14:20.000Z</time>
      </trkpt>
      <trkpt lat="47.32175" lon="-2.1892">
        <ele>24.39999961853</ele>
        <time>2022-01-23T09:14:21.000Z</time>
      </trkpt>
      <trkpt lat="47.32178" lon="-2.18911">
        <ele>24</ele>
        <time>2022-01-23T09:14:22.000Z</time>
      </trkpt>
      <trkpt lat="47.3218" lon="-2.18904">
        <ele>23.60000038147</ele>
        <time>2022-01-23T09:14:23.000Z</time>
      </trkpt>
      <trkpt lat="47.32189" lon="-2.1888">
        <ele>23.60000038147</ele>
        <time>2022-01-23T09:14:26.000Z</time>
      </trkpt>
      <trkpt lat="47.32199" lon="-2.1885">
        <ele>23.200000762939</ele>
        <time>2022-01-23T09:14:30.000Z</time>
      </trkpt>
      <trkpt lat="47.32201" lon="-2.18842">
        <ele>22.799999237061</ele>
        <time>2022-01-23T09:14:31.000Z</time>
      </trkpt>
      <trkpt lat="47.32204" lon="-2.18834">
        <ele>22.39999961853</ele>
        <time>2022-01-23T09:14:32.000Z</time>
      </trkpt>
      <trkpt lat="47.32206" lon="-2.18826">
        <ele>21.799999237061</ele>
        <time>2022-01-23T09:14:33.000Z</time>
      </trkpt>
      <trkpt lat="47.32209" lon="-2.18818">
        <ele>21.39999961853</ele>
        <time>2022-01-23T09:14:34.000Z</time>
      </trkpt>
      <trkpt lat="47.32227" lon="-2.1874">
        <ele>21.39999961853</ele>
        <time>2022-01-23T09:14:43.000Z</time>
      </trkpt>
      <trkpt lat="47.32229" lon="-2.18731">
        <ele>21</ele>
        <time>2022-01-23T09:14:44.000Z</time>
      </trkpt>
      <trkpt lat="47.32231" lon="-2.18722">
        <ele>20.60000038147</ele>
        <time>2022-01-23T09:14:45.000Z</time>
      </trkpt>
      <trkpt lat="47.32233" lon="-2.18712">
        <ele>20.200000762939</ele>
        <time>2022-01-23T09:14:46.000Z</time>
      </trkpt>
      <trkpt lat="47.32235" lon="-2.18703">
        <ele>19.799999237061</ele>
        <time>2022-01-23T09:14:47.000Z</time>
      </trkpt>
      <trkpt lat="47.32237" lon="-2.18693">
        <ele>19.39999961853</ele>
        <time>2022-01-23T09:14:48.000Z</time>
      </trkpt>
      <trkpt lat="47.3224" lon="-2.18675">
        <ele>19.39999961853</ele>
        <time>2022-01-23T09:14:50.000Z</time>
      </trkpt>
      <trkpt lat="47.32247" lon="-2.18642">
        <ele>19.39999961853</ele>
        <time>2022-01-23T09:14:54.000Z</time>
      </trkpt>
      <trkpt lat="47.32251" lon="-2.18635">
        <ele>19.39999961853</ele>
        <time>2022-01-23T09:14:55.000Z</time>
      </trkpt>
      <trkpt lat="47.32269" lon="-2.18616">
        <ele>19.39999961853</ele>
        <time>2022-01-23T09:14:59.000Z</time>
      </trkpt>
      <trkpt lat="47.32274" lon="-2.18612">
        <ele>19.39999961853</ele>
        <time>2022-01-23T09:15:00.000Z</time>
      </trkpt>
      <trkpt lat="47.32291" lon="-2.18605">
        <ele>19.39999961853</ele>
        <time>2022-01-23T09:15:03.000Z</time>
      </trkpt>
      <trkpt lat="47.32329" lon="-2.18591">
        <ele>19.39999961853</ele>
        <time>2022-01-23T09:15:10.000Z</time>
      </trkpt>
      <trkpt lat="47.32372" lon="-2.18572">
        <ele>19.39999961853</ele>
        <time>2022-01-23T09:15:18.000Z</time>
      </trkpt>
      <trkpt lat="47.32414" lon="-2.18556">
        <ele>19.39999961853</ele>
        <time>2022-01-23T09:15:26.000Z</time>
      </trkpt>
      <trkpt lat="47.3246" lon="-2.18538">
        <ele>19.39999961853</ele>
        <time>2022-01-23T09:15:35.000Z</time>
      </trkpt>
      <trkpt lat="47.3248" lon="-2.1853">
        <ele>19.39999961853</ele>
        <time>2022-01-23T09:15:40.000Z</time>
      </trkpt>
      <trkpt lat="47.32503" lon="-2.1852">
        <ele>19.39999961853</ele>
        <time>2022-01-23T09:15:45.000Z</time>
      </trkpt>
      <trkpt lat="47.32536" lon="-2.18507">
        <ele>19.39999961853</ele>
        <time>2022-01-23T09:15:51.000Z</time>
      </trkpt>
      <trkpt lat="47.32573" lon="-2.18492">
        <ele>19.39999961853</ele>
        <time>2022-01-23T09:15:58.000Z</time>
      </trkpt>
      <trkpt lat="47.32609" lon="-2.18477">
        <ele>19.39999961853</ele>
        <time>2022-01-23T09:16:05.000Z</time>
      </trkpt>
      <trkpt lat="47.32641" lon="-2.18465">
        <ele>19.39999961853</ele>
        <time>2022-01-23T09:16:11.000Z</time>
      </trkpt>
      <trkpt lat="47.32679" lon="-2.1845">
        <ele>19.39999961853</ele>
        <time>2022-01-23T09:16:18.000Z</time>
      </trkpt>
      <trkpt lat="47.32714" lon="-2.18435">
        <ele>19.39999961853</ele>
        <time>2022-01-23T09:16:24.000Z</time>
      </trkpt>
      <trkpt lat="47.32761" lon="-2.18417">
        <ele>19.39999961853</ele>
        <time>2022-01-23T09:16:32.000Z</time>
      </trkpt>
      <trkpt lat="47.32789" lon="-2.18408">
        <ele>19.39999961853</ele>
        <time>2022-01-23T09:16:37.000Z</time>
      </trkpt>
      <trkpt lat="47.32794" lon="-2.18409">
        <ele>19.39999961853</ele>
        <time>2022-01-23T09:16:38.000Z</time>
      </trkpt>
      <trkpt lat="47.32803" lon="-2.18424">
        <ele>19.39999961853</ele>
        <time>2022-01-23T09:16:41.000Z</time>
      </trkpt>
      <trkpt lat="47.32805" lon="-2.18459">
        <ele>19.39999961853</ele>
        <time>2022-01-23T09:16:45.000Z</time>
      </trkpt>
      <trkpt lat="47.32809" lon="-2.18477">
        <ele>19.39999961853</ele>
        <time>2022-01-23T09:16:47.000Z</time>
      </trkpt>
      <trkpt lat="47.32811" lon="-2.18485">
        <ele>19.39999961853</ele>
        <time>2022-01-23T09:16:48.000Z</time>
      </trkpt>
      <trkpt lat="47.32818" lon="-2.18501">
        <ele>19.39999961853</ele>
        <time>2022-01-23T09:16:50.000Z</time>
      </trkpt>
      <trkpt lat="47.32834" lon="-2.18516">
        <ele>19.39999961853</ele>
        <time>2022-01-23T09:16:53.000Z</time>
      </trkpt>
      <trkpt lat="47.32877" lon="-2.18547">
        <ele>19.39999961853</ele>
        <time>2022-01-23T09:17:00.000Z</time>
      </trkpt>
      <trkpt lat="47.32906" lon="-2.18569">
        <ele>19.39999961853</ele>
        <time>2022-01-23T09:17:05.000Z</time>
      </trkpt>
      <trkpt lat="47.32912" lon="-2.18572">
        <ele>19.39999961853</ele>
        <time>2022-01-23T09:17:06.000Z</time>
      </trkpt>
      <trkpt lat="47.3294" lon="-2.18589">
        <ele>19.39999961853</ele>
        <time>2022-01-23T09:17:11.000Z</time>
      </trkpt>
      <trkpt lat="47.32971" lon="-2.18608">
        <ele>19.39999961853</ele>
        <time>2022-01-23T09:17:17.000Z</time>
      </trkpt>
      <trkpt lat="47.32976" lon="-2.1861">
        <ele>19.39999961853</ele>
        <time>2022-01-23T09:17:18.000Z</time>
      </trkpt>
      <trkpt lat="47.3298" lon="-2.18614">
        <ele>19.39999961853</ele>
        <time>2022-01-23T09:17:19.000Z</time>
      </trkpt>
      <trkpt lat="47.32992" lon="-2.18629">
        <ele>19.39999961853</ele>
        <time>2022-01-23T09:17:22.000Z</time>
      </trkpt>
      <trkpt lat="47.33" lon="-2.18653">
        <ele>19.39999961853</ele>
        <time>2022-01-23T09:17:25.000Z</time>
      </trkpt>
      <trkpt lat="47.33002" lon="-2.18661">
        <ele>19.39999961853</ele>
        <time>2022-01-23T09:17:26.000Z</time>
      </trkpt>
      <trkpt lat="47.33016" lon="-2.18704">
        <ele>19.39999961853</ele>
        <time>2022-01-23T09:17:32.000Z</time>
      </trkpt>
      <trkpt lat="47.33022" lon="-2.18715">
        <ele>19.39999961853</ele>
        <time>2022-01-23T09:17:34.000Z</time>
      </trkpt>
      <trkpt lat="47.33032" lon="-2.18719">
        <ele>19.39999961853</ele>
        <time>2022-01-23T09:17:36.000Z</time>
      </trkpt>
      <trkpt lat="47.33044" lon="-2.18719">
        <ele>19.39999961853</ele>
        <time>2022-01-23T09:17:38.000Z</time>
      </trkpt>
      <trkpt lat="47.33062" lon="-2.18718">
        <ele>19.39999961853</ele>
        <time>2022-01-23T09:17:41.000Z</time>
      </trkpt>
      <trkpt lat="47.33075" lon="-2.18717">
        <ele>19.39999961853</ele>
        <time>2022-01-23T09:17:43.000Z</time>
      </trkpt>
      <trkpt lat="47.33101" lon="-2.18717">
        <ele>19.39999961853</ele>
        <time>2022-01-23T09:17:47.000Z</time>
      </trkpt>
      <trkpt lat="47.33146" lon="-2.18716">
        <ele>19.39999961853</ele>
        <time>2022-01-23T09:17:54.000Z</time>
      </trkpt>
      <trkpt lat="47.33184" lon="-2.18716">
        <ele>19</ele>
        <time>2022-01-23T09:18:00.000Z</time>
      </trkpt>
      <trkpt lat="47.3319" lon="-2.18716">
        <ele>18.60000038147</ele>
        <time>2022-01-23T09:18:01.000Z</time>
      </trkpt>
      <trkpt lat="47.33197" lon="-2.18715">
        <ele>18.200000762939</ele>
        <time>2022-01-23T09:18:02.000Z</time>
      </trkpt>
      <trkpt lat="47.33203" lon="-2.18715">
        <ele>17.799999237061</ele>
        <time>2022-01-23T09:18:03.000Z</time>
      </trkpt>
      <trkpt lat="47.33208" lon="-2.18715">
        <ele>17.39999961853</ele>
        <time>2022-01-23T09:18:04.000Z</time>
      </trkpt>
      <trkpt lat="47.33231" lon="-2.18715">
        <ele>17.39999961853</ele>
        <time>2022-01-23T09:18:08.000Z</time>
      </trkpt>
      <trkpt lat="47.33275" lon="-2.18714">
        <ele>17.39999961853</ele>
        <time>2022-01-23T09:18:16.000Z</time>
      </trkpt>
      <trkpt lat="47.33322" lon="-2.18714">
        <ele>17.39999961853</ele>
        <time>2022-01-23T09:18:24.000Z</time>
      </trkpt>
      <trkpt lat="47.33363" lon="-2.18714">
        <ele>17.39999961853</ele>
        <time>2022-01-23T09:18:31.000Z</time>
      </trkpt>
      <trkpt lat="47.33397" lon="-2.18714">
        <ele>17.39999961853</ele>
        <time>2022-01-23T09:18:37.000Z</time>
      </trkpt>
      <trkpt lat="47.33432" lon="-2.18714">
        <ele>17.39999961853</ele>
        <time>2022-01-23T09:18:43.000Z</time>
      </trkpt>
      <trkpt lat="47.33471" lon="-2.18713">
        <ele>17.39999961853</ele>
        <time>2022-01-23T09:18:50.000Z</time>
      </trkpt>
      <trkpt lat="47.33511" lon="-2.18714">
        <ele>17.39999961853</ele>
        <time>2022-01-23T09:18:57.000Z</time>
      </trkpt>
      <trkpt lat="47.33551" lon="-2.18713">
        <ele>17.39999961853</ele>
        <time>2022-01-23T09:19:04.000Z</time>
      </trkpt>
      <trkpt lat="47.33592" lon="-2.18711">
        <ele>17.39999961853</ele>
        <time>2022-01-23T09:19:11.000Z</time>
      </trkpt>
      <trkpt lat="47.33633" lon="-2.1871">
        <ele>17.39999961853</ele>
        <time>2022-01-23T09:19:18.000Z</time>
      </trkpt>
      <trkpt lat="47.33674" lon="-2.18708">
        <ele>17.39999961853</ele>
        <time>2022-01-23T09:19:25.000Z</time>
      </trkpt>
      <trkpt lat="47.33709" lon="-2.18707">
        <ele>17.39999961853</ele>
        <time>2022-01-23T09:19:31.000Z</time>
      </trkpt>
      <trkpt lat="47.33744" lon="-2.18705">
        <ele>17.39999961853</ele>
        <time>2022-01-23T09:19:37.000Z</time>
      </trkpt>
      <trkpt lat="47.33773" lon="-2.18702">
        <ele>17.39999961853</ele>
        <time>2022-01-23T09:19:42.000Z</time>
      </trkpt>
      <trkpt lat="47.33802" lon="-2.18703">
        <ele>17.39999961853</ele>
        <time>2022-01-23T09:19:47.000Z</time>
      </trkpt>
      <trkpt lat="47.33824" lon="-2.18702">
        <ele>17.39999961853</ele>
        <time>2022-01-23T09:19:51.000Z</time>
      </trkpt>
      <trkpt lat="47.33829" lon="-2.18702">
        <ele>17.39999961853</ele>
        <time>2022-01-23T09:19:52.000Z</time>
      </trkpt>
      <trkpt lat="47.33872" lon="-2.187">
        <ele>17.39999961853</ele>
        <time>2022-01-23T09:20:00.000Z</time>
      </trkpt>
      <trkpt lat="47.33904" lon="-2.18698">
        <ele>17.39999961853</ele>
        <time>2022-01-23T09:20:06.000Z</time>
      </trkpt>
      <trkpt lat="47.33941" lon="-2.18696">
        <ele>17.39999961853</ele>
        <time>2022-01-23T09:20:13.000Z</time>
      </trkpt>
      <trkpt lat="47.33957" lon="-2.18696">
        <ele>17.39999961853</ele>
        <time>2022-01-23T09:20:16.000Z</time>
      </trkpt>
      <trkpt lat="47.33968" lon="-2.18695">
        <ele>17.39999961853</ele>
        <time>2022-01-23T09:20:18.000Z</time>
      </trkpt>
      <trkpt lat="47.33999" lon="-2.18695">
        <ele>17.39999961853</ele>
        <time>2022-01-23T09:20:24.000Z</time>
      </trkpt>
      <trkpt lat="47.34034" lon="-2.18693">
        <ele>17.39999961853</ele>
        <time>2022-01-23T09:20:31.000Z</time>
      </trkpt>
      <trkpt lat="47.34048" lon="-2.18691">
        <ele>17.39999961853</ele>
        <time>2022-01-23T09:20:34.000Z</time>
      </trkpt>
      <trkpt lat="47.34055" lon="-2.18684">
        <ele>17.39999961853</ele>
        <time>2022-01-23T09:20:36.000Z</time>
      </trkpt>
      <trkpt lat="47.34057" lon="-2.18668">
        <ele>17.39999961853</ele>
        <time>2022-01-23T09:20:39.000Z</time>
      </trkpt>
      <trkpt lat="47.34062" lon="-2.18645">
        <ele>17.39999961853</ele>
        <time>2022-01-23T09:20:45.000Z</time>
      </trkpt>
      <trkpt lat="47.34065" lon="-2.18634">
        <ele>17.39999961853</ele>
        <time>2022-01-23T09:20:51.000Z</time>
      </trkpt>
      <trkpt lat="47.34066" lon="-2.18632">
        <ele>17.39999961853</ele>
        <time>2022-01-23T09:20:52.000Z</time>
      </trkpt>
      <trkpt lat="47.34066" lon="-2.18633">
        <ele>17.39999961853</ele>
        <time>2022-01-23T09:20:55.000Z</time>
      </trkpt>
      <trkpt lat="47.34065" lon="-2.18636">
        <ele>17.39999961853</ele>
        <time>2022-01-23T09:20:58.000Z</time>
      </trkpt>
      <trkpt lat="47.34063" lon="-2.18641">
        <ele>17.39999961853</ele>
        <time>2022-01-23T09:21:00.000Z</time>
      </trkpt>
      <trkpt lat="47.34059" lon="-2.18659">
        <ele>17.39999961853</ele>
        <time>2022-01-23T09:21:04.000Z</time>
      </trkpt>
      <trkpt lat="47.34058" lon="-2.18664">
        <ele>17.39999961853</ele>
        <time>2022-01-23T09:21:05.000Z</time>
      </trkpt>
      <trkpt lat="47.34055" lon="-2.18681">
        <ele>17.39999961853</ele>
        <time>2022-01-23T09:21:08.000Z</time>
      </trkpt>
      <trkpt lat="47.34056" lon="-2.18695">
        <ele>17.39999961853</ele>
        <time>2022-01-23T09:21:10.000Z</time>
      </trkpt>
      <trkpt lat="47.34057" lon="-2.18702">
        <ele>17.39999961853</ele>
        <time>2022-01-23T09:21:11.000Z</time>
      </trkpt>
      <trkpt lat="47.34064" lon="-2.18719">
        <ele>17.39999961853</ele>
        <time>2022-01-23T09:21:14.000Z</time>
      </trkpt>
      <trkpt lat="47.34067" lon="-2.18725">
        <ele>17.39999961853</ele>
        <time>2022-01-23T09:21:15.000Z</time>
      </trkpt>
      <trkpt lat="47.34082" lon="-2.18754">
        <ele>17.39999961853</ele>
        <time>2022-01-23T09:21:20.000Z</time>
      </trkpt>
      <trkpt lat="47.3409" lon="-2.1879">
        <ele>17.39999961853</ele>
        <time>2022-01-23T09:21:25.000Z</time>
      </trkpt>
      <trkpt lat="47.34092" lon="-2.18805">
        <ele>17.39999961853</ele>
        <time>2022-01-23T09:21:27.000Z</time>
      </trkpt>
      <trkpt lat="47.34091" lon="-2.18829">
        <ele>17.39999961853</ele>
        <time>2022-01-23T09:21:30.000Z</time>
      </trkpt>
      <trkpt lat="47.34081" lon="-2.18893">
        <ele>17.39999961853</ele>
        <time>2022-01-23T09:21:38.000Z</time>
      </trkpt>
      <trkpt lat="47.34074" lon="-2.18953">
        <ele>17.39999961853</ele>
        <time>2022-01-23T09:21:45.000Z</time>
      </trkpt>
      <trkpt lat="47.3407" lon="-2.19006">
        <ele>17.39999961853</ele>
        <time>2022-01-23T09:21:52.000Z</time>
      </trkpt>
      <trkpt lat="47.34069" lon="-2.19033">
        <ele>17.39999961853</ele>
        <time>2022-01-23T09:21:56.000Z</time>
      </trkpt>
      <trkpt lat="47.34069" lon="-2.19046">
        <ele>17.39999961853</ele>
        <time>2022-01-23T09:21:58.000Z</time>
      </trkpt>
      <trkpt lat="47.3407" lon="-2.19052">
        <ele>17.39999961853</ele>
        <time>2022-01-23T09:21:59.000Z</time>
      </trkpt>
      <trkpt lat="47.34082" lon="-2.19064">
        <ele>17.39999961853</ele>
        <time>2022-01-23T09:22:02.000Z</time>
      </trkpt>
      <trkpt lat="47.34093" lon="-2.19065">
        <ele>17.39999961853</ele>
        <time>2022-01-23T09:22:04.000Z</time>
      </trkpt>
      <trkpt lat="47.3411" lon="-2.19069">
        <ele>17.39999961853</ele>
        <time>2022-01-23T09:22:07.000Z</time>
      </trkpt>
      <trkpt lat="47.34121" lon="-2.19074">
        <ele>17.39999961853</ele>
        <time>2022-01-23T09:22:09.000Z</time>
      </trkpt>
      <trkpt lat="47.34143" lon="-2.19086">
        <ele>17.39999961853</ele>
        <time>2022-01-23T09:22:13.000Z</time>
      </trkpt>
      <trkpt lat="47.34176" lon="-2.19099">
        <ele>17.39999961853</ele>
        <time>2022-01-23T09:22:19.000Z</time>
      </trkpt>
      <trkpt lat="47.34188" lon="-2.19099">
        <ele>17.39999961853</ele>
        <time>2022-01-23T09:22:21.000Z</time>
      </trkpt>
      <trkpt lat="47.34206" lon="-2.19093">
        <ele>17.39999961853</ele>
        <time>2022-01-23T09:22:24.000Z</time>
      </trkpt>
      <trkpt lat="47.34239" lon="-2.19076">
        <ele>17.39999961853</ele>
        <time>2022-01-23T09:22:30.000Z</time>
      </trkpt>
      <trkpt lat="47.34272" lon="-2.19056">
        <ele>17.39999961853</ele>
        <time>2022-01-23T09:22:36.000Z</time>
      </trkpt>
      <trkpt lat="47.34315" lon="-2.19032">
        <ele>17.39999961853</ele>
        <time>2022-01-23T09:22:43.000Z</time>
      </trkpt>
      <trkpt lat="47.34332" lon="-2.19024">
        <ele>17.39999961853</ele>
        <time>2022-01-23T09:22:46.000Z</time>
      </trkpt>
      <trkpt lat="47.3435" lon="-2.19015">
        <ele>17.39999961853</ele>
        <time>2022-01-23T09:22:49.000Z</time>
      </trkpt>
      <trkpt lat="47.34389" lon="-2.18987">
        <ele>17.39999961853</ele>
        <time>2022-01-23T09:22:56.000Z</time>
      </trkpt>
      <trkpt lat="47.34414" lon="-2.18959">
        <ele>17.39999961853</ele>
        <time>2022-01-23T09:23:01.000Z</time>
      </trkpt>
      <trkpt lat="47.34419" lon="-2.18953">
        <ele>17.39999961853</ele>
        <time>2022-01-23T09:23:02.000Z</time>
      </trkpt>
      <trkpt lat="47.34427" lon="-2.1894">
        <ele>17.39999961853</ele>
        <time>2022-01-23T09:23:04.000Z</time>
      </trkpt>
      <trkpt lat="47.34443" lon="-2.18915">
        <ele>17.39999961853</ele>
        <time>2022-01-23T09:23:08.000Z</time>
      </trkpt>
      <trkpt lat="47.34455" lon="-2.18896">
        <ele>17.39999961853</ele>
        <time>2022-01-23T09:23:11.000Z</time>
      </trkpt>
      <trkpt lat="47.34468" lon="-2.18877">
        <ele>17.39999961853</ele>
        <time>2022-01-23T09:23:14.000Z</time>
      </trkpt>
      <trkpt lat="47.34497" lon="-2.18849">
        <ele>17.39999961853</ele>
        <time>2022-01-23T09:23:20.000Z</time>
      </trkpt>
      <trkpt lat="47.34512" lon="-2.1884">
        <ele>17.39999961853</ele>
        <time>2022-01-23T09:23:23.000Z</time>
      </trkpt>
      <trkpt lat="47.34522" lon="-2.18837">
        <ele>17.39999961853</ele>
        <time>2022-01-23T09:23:25.000Z</time>
      </trkpt>
      <trkpt lat="47.3456" lon="-2.18825">
        <ele>17.39999961853</ele>
        <time>2022-01-23T09:23:32.000Z</time>
      </trkpt>
      <trkpt lat="47.34602" lon="-2.1881">
        <ele>17.39999961853</ele>
        <time>2022-01-23T09:23:40.000Z</time>
      </trkpt>
      <trkpt lat="47.34612" lon="-2.18802">
        <ele>17.39999961853</ele>
        <time>2022-01-23T09:23:42.000Z</time>
      </trkpt>
      <trkpt lat="47.34625" lon="-2.1879">
        <ele>17.39999961853</ele>
        <time>2022-01-23T09:23:45.000Z</time>
      </trkpt>
      <trkpt lat="47.3465" lon="-2.18763">
        <ele>17.39999961853</ele>
        <time>2022-01-23T09:23:51.000Z</time>
      </trkpt>
      <trkpt lat="47.34673" lon="-2.18747">
        <ele>17.39999961853</ele>
        <time>2022-01-23T09:23:56.000Z</time>
      </trkpt>
      <trkpt lat="47.34679" lon="-2.18746">
        <ele>17.39999961853</ele>
        <time>2022-01-23T09:23:57.000Z</time>
      </trkpt>
      <trkpt lat="47.34699" lon="-2.18742">
        <ele>17.39999961853</ele>
        <time>2022-01-23T09:24:01.000Z</time>
      </trkpt>
      <trkpt lat="47.34704" lon="-2.18738">
        <ele>17.39999961853</ele>
        <time>2022-01-23T09:24:02.000Z</time>
      </trkpt>
      <trkpt lat="47.34727" lon="-2.18724">
        <ele>17.39999961853</ele>
        <time>2022-01-23T09:24:07.000Z</time>
      </trkpt>
      <trkpt lat="47.34743" lon="-2.18726">
        <ele>17.39999961853</ele>
        <time>2022-01-23T09:24:10.000Z</time>
      </trkpt>
      <trkpt lat="47.34747" lon="-2.18727">
        <ele>17.39999961853</ele>
        <time>2022-01-23T09:24:11.000Z</time>
      </trkpt>
      <trkpt lat="47.34752" lon="-2.18729">
        <ele>17.39999961853</ele>
        <time>2022-01-23T09:24:12.000Z</time>
      </trkpt>
      <trkpt lat="47.34801" lon="-2.18736">
        <ele>17.39999961853</ele>
        <time>2022-01-23T09:24:21.000Z</time>
      </trkpt>
      <trkpt lat="47.34837" lon="-2.18743">
        <ele>17.39999961853</ele>
        <time>2022-01-23T09:24:28.000Z</time>
      </trkpt>
      <trkpt lat="47.34871" lon="-2.1875">
        <ele>17.39999961853</ele>
        <time>2022-01-23T09:24:34.000Z</time>
      </trkpt>
      <trkpt lat="47.34883" lon="-2.1875">
        <ele>17.39999961853</ele>
        <time>2022-01-23T09:24:36.000Z</time>
      </trkpt>
      <trkpt lat="47.34901" lon="-2.18744">
        <ele>17.39999961853</ele>
        <time>2022-01-23T09:24:39.000Z</time>
      </trkpt>
      <trkpt lat="47.34933" lon="-2.18729">
        <ele>17.39999961853</ele>
        <time>2022-01-23T09:24:45.000Z</time>
      </trkpt>
      <trkpt lat="47.34971" lon="-2.18712">
        <ele>17.39999961853</ele>
        <time>2022-01-23T09:24:52.000Z</time>
      </trkpt>
      <trkpt lat="47.3501" lon="-2.18702">
        <ele>17.39999961853</ele>
        <time>2022-01-23T09:24:59.000Z</time>
      </trkpt>
      <trkpt lat="47.35021" lon="-2.18701">
        <ele>17.39999961853</ele>
        <time>2022-01-23T09:25:01.000Z</time>
      </trkpt>
      <trkpt lat="47.35036" lon="-2.18705">
        <ele>17.39999961853</ele>
        <time>2022-01-23T09:25:04.000Z</time>
      </trkpt>
      <trkpt lat="47.35052" lon="-2.18723">
        <ele>17.39999961853</ele>
        <time>2022-01-23T09:25:08.000Z</time>
      </trkpt>
      <trkpt lat="47.35063" lon="-2.18735">
        <ele>17.39999961853</ele>
        <time>2022-01-23T09:25:11.000Z</time>
      </trkpt>
      <trkpt lat="47.35073" lon="-2.18738">
        <ele>17.39999961853</ele>
        <time>2022-01-23T09:25:13.000Z</time>
      </trkpt>
      <trkpt lat="47.35088" lon="-2.18735">
        <ele>17.39999961853</ele>
        <time>2022-01-23T09:25:16.000Z</time>
      </trkpt>
      <trkpt lat="47.35094" lon="-2.18735">
        <ele>17.39999961853</ele>
        <time>2022-01-23T09:25:17.000Z</time>
      </trkpt>
      <trkpt lat="47.35123" lon="-2.18739">
        <ele>17.39999961853</ele>
        <time>2022-01-23T09:25:22.000Z</time>
      </trkpt>
      <trkpt lat="47.35158" lon="-2.1874">
        <ele>17.39999961853</ele>
        <time>2022-01-23T09:25:28.000Z</time>
      </trkpt>
      <trkpt lat="47.35197" lon="-2.1874">
        <ele>17.39999961853</ele>
        <time>2022-01-23T09:25:35.000Z</time>
      </trkpt>
      <trkpt lat="47.35203" lon="-2.18739">
        <ele>17.39999961853</ele>
        <time>2022-01-23T09:25:36.000Z</time>
      </trkpt>
      <trkpt lat="47.35219" lon="-2.1873">
        <ele>17.39999961853</ele>
        <time>2022-01-23T09:25:39.000Z</time>
      </trkpt>
      <trkpt lat="47.35224" lon="-2.18727">
        <ele>17.39999961853</ele>
        <time>2022-01-23T09:25:40.000Z</time>
      </trkpt>
      <trkpt lat="47.35244" lon="-2.18715">
        <ele>17.39999961853</ele>
        <time>2022-01-23T09:25:44.000Z</time>
      </trkpt>
      <trkpt lat="47.35249" lon="-2.18713">
        <ele>17.39999961853</ele>
        <time>2022-01-23T09:25:45.000Z</time>
      </trkpt>
      <trkpt lat="47.35274" lon="-2.18696">
        <ele>17.39999961853</ele>
        <time>2022-01-23T09:25:50.000Z</time>
      </trkpt>
      <trkpt lat="47.35278" lon="-2.18692">
        <ele>17.39999961853</ele>
        <time>2022-01-23T09:25:51.000Z</time>
      </trkpt>
      <trkpt lat="47.35308" lon="-2.18665">
        <ele>17.39999961853</ele>
        <time>2022-01-23T09:25:58.000Z</time>
      </trkpt>
      <trkpt lat="47.35332" lon="-2.18653">
        <ele>17.39999961853</ele>
        <time>2022-01-23T09:26:03.000Z</time>
      </trkpt>
      <trkpt lat="47.35337" lon="-2.18652">
        <ele>17.39999961853</ele>
        <time>2022-01-23T09:26:04.000Z</time>
      </trkpt>
      <trkpt lat="47.35354" lon="-2.18656">
        <ele>17.39999961853</ele>
        <time>2022-01-23T09:26:07.000Z</time>
      </trkpt>
      <trkpt lat="47.35359" lon="-2.18659">
        <ele>17.39999961853</ele>
        <time>2022-01-23T09:26:08.000Z</time>
      </trkpt>
      <trkpt lat="47.3538" lon="-2.18681">
        <ele>17.39999961853</ele>
        <time>2022-01-23T09:26:13.000Z</time>
      </trkpt>
      <trkpt lat="47.35403" lon="-2.18713">
        <ele>17.39999961853</ele>
        <time>2022-01-23T09:26:19.000Z</time>
      </trkpt>
      <trkpt lat="47.35407" lon="-2.18719">
        <ele>17.39999961853</ele>
        <time>2022-01-23T09:26:20.000Z</time>
      </trkpt>
      <trkpt lat="47.35434" lon="-2.18758">
        <ele>17.39999961853</ele>
        <time>2022-01-23T09:26:27.000Z</time>
      </trkpt>
      <trkpt lat="47.35455" lon="-2.1877">
        <ele>17.39999961853</ele>
        <time>2022-01-23T09:26:31.000Z</time>
      </trkpt>
      <trkpt lat="47.3546" lon="-2.18772">
        <ele>17.39999961853</ele>
        <time>2022-01-23T09:26:32.000Z</time>
      </trkpt>
      <trkpt lat="47.35482" lon="-2.18775">
        <ele>17.39999961853</ele>
        <time>2022-01-23T09:26:36.000Z</time>
      </trkpt>
      <trkpt lat="47.35487" lon="-2.18773">
        <ele>17.39999961853</ele>
        <time>2022-01-23T09:26:37.000Z</time>
      </trkpt>
      <trkpt lat="47.35502" lon="-2.18769">
        <ele>17.39999961853</ele>
        <time>2022-01-23T09:26:40.000Z</time>
      </trkpt>
      <trkpt lat="47.35516" lon="-2.18764">
        <ele>17.39999961853</ele>
        <time>2022-01-23T09:26:43.000Z</time>
      </trkpt>
      <trkpt lat="47.35522" lon="-2.18763">
        <ele>17.39999961853</ele>
        <time>2022-01-23T09:26:44.000Z</time>
      </trkpt>
      <trkpt lat="47.35532" lon="-2.18764">
        <ele>17.39999961853</ele>
        <time>2022-01-23T09:26:46.000Z</time>
      </trkpt>
      <trkpt lat="47.35547" lon="-2.18769">
        <ele>17.39999961853</ele>
        <time>2022-01-23T09:26:49.000Z</time>
      </trkpt>
      <trkpt lat="47.35557" lon="-2.18772">
        <ele>17.39999961853</ele>
        <time>2022-01-23T09:26:51.000Z</time>
      </trkpt>
      <trkpt lat="47.35571" lon="-2.18781">
        <ele>17.39999961853</ele>
        <time>2022-01-23T09:26:54.000Z</time>
      </trkpt>
      <trkpt lat="47.35608" lon="-2.18799">
        <ele>17.39999961853</ele>
        <time>2022-01-23T09:27:01.000Z</time>
      </trkpt>
      <trkpt lat="47.35641" lon="-2.18806">
        <ele>17.39999961853</ele>
        <time>2022-01-23T09:27:07.000Z</time>
      </trkpt>
      <trkpt lat="47.35668" lon="-2.18802">
        <ele>17.39999961853</ele>
        <time>2022-01-23T09:27:12.000Z</time>
      </trkpt>
      <trkpt lat="47.35673" lon="-2.18801">
        <ele>17.39999961853</ele>
        <time>2022-01-23T09:27:13.000Z</time>
      </trkpt>
      <trkpt lat="47.3571" lon="-2.18794">
        <ele>17.39999961853</ele>
        <time>2022-01-23T09:27:20.000Z</time>
      </trkpt>
      <trkpt lat="47.35739" lon="-2.18784">
        <ele>17.39999961853</ele>
        <time>2022-01-23T09:27:25.000Z</time>
      </trkpt>
      <trkpt lat="47.35749" lon="-2.1878">
        <ele>17.39999961853</ele>
        <time>2022-01-23T09:27:27.000Z</time>
      </trkpt>
      <trkpt lat="47.35782" lon="-2.1876">
        <ele>17.39999961853</ele>
        <time>2022-01-23T09:27:34.000Z</time>
      </trkpt>
      <trkpt lat="47.35787" lon="-2.18759">
        <ele>17.39999961853</ele>
        <time>2022-01-23T09:27:35.000Z</time>
      </trkpt>
      <trkpt lat="47.35808" lon="-2.18761">
        <ele>17.39999961853</ele>
        <time>2022-01-23T09:27:39.000Z</time>
      </trkpt>
      <trkpt lat="47.35818" lon="-2.18768">
        <ele>17.39999961853</ele>
        <time>2022-01-23T09:27:41.000Z</time>
      </trkpt>
      <trkpt lat="47.3583" lon="-2.18775">
        <ele>17.39999961853</ele>
        <time>2022-01-23T09:27:43.000Z</time>
      </trkpt>
      <trkpt lat="47.35836" lon="-2.18776">
        <ele>17.39999961853</ele>
        <time>2022-01-23T09:27:44.000Z</time>
      </trkpt>
      <trkpt lat="47.35859" lon="-2.18775">
        <ele>17.39999961853</ele>
        <time>2022-01-23T09:27:48.000Z</time>
      </trkpt>
      <trkpt lat="47.35874" lon="-2.18773">
        <ele>17.39999961853</ele>
        <time>2022-01-23T09:27:51.000Z</time>
      </trkpt>
      <trkpt lat="47.35889" lon="-2.18772">
        <ele>17.39999961853</ele>
        <time>2022-01-23T09:27:54.000Z</time>
      </trkpt>
      <trkpt lat="47.35924" lon="-2.18771">
        <ele>17.39999961853</ele>
        <time>2022-01-23T09:28:02.000Z</time>
      </trkpt>
      <trkpt lat="47.35936" lon="-2.18769">
        <ele>17.39999961853</ele>
        <time>2022-01-23T09:28:05.000Z</time>
      </trkpt>
      <trkpt lat="47.35947" lon="-2.18768">
        <ele>17.39999961853</ele>
        <time>2022-01-23T09:28:08.000Z</time>
      </trkpt>
      <trkpt lat="47.35959" lon="-2.1876">
        <ele>17.39999961853</ele>
        <time>2022-01-23T09:28:12.000Z</time>
      </trkpt>
      <trkpt lat="47.35963" lon="-2.18744">
        <ele>17.39999961853</ele>
        <time>2022-01-23T09:28:16.000Z</time>
      </trkpt>
      <trkpt lat="47.35963" lon="-2.18734">
        <ele>17.799999237061</ele>
        <time>2022-01-23T09:28:19.000Z</time>
      </trkpt>
      <trkpt lat="47.35963" lon="-2.18731">
        <ele>18.200000762939</ele>
        <time>2022-01-23T09:28:20.000Z</time>
      </trkpt>
      <trkpt lat="47.35963" lon="-2.18728">
        <ele>18.60000038147</ele>
        <time>2022-01-23T09:28:21.000Z</time>
      </trkpt>
      <trkpt lat="47.35963" lon="-2.18725">
        <ele>19</ele>
        <time>2022-01-23T09:28:22.000Z</time>
      </trkpt>
      <trkpt lat="47.35963" lon="-2.18722">
        <ele>19.39999961853</ele>
        <time>2022-01-23T09:28:23.000Z</time>
      </trkpt>
      <trkpt lat="47.35964" lon="-2.18709">
        <ele>19.39999961853</ele>
        <time>2022-01-23T09:28:27.000Z</time>
      </trkpt>
      <trkpt lat="47.35964" lon="-2.18705">
        <ele>19.799999237061</ele>
        <time>2022-01-23T09:28:28.000Z</time>
      </trkpt>
      <trkpt lat="47.35964" lon="-2.18701">
        <ele>20.39999961853</ele>
        <time>2022-01-23T09:28:29.000Z</time>
      </trkpt>
      <trkpt lat="47.35964" lon="-2.18696">
        <ele>20.799999237061</ele>
        <time>2022-01-23T09:28:30.000Z</time>
      </trkpt>
      <trkpt lat="47.35964" lon="-2.18691">
        <ele>21.200000762939</ele>
        <time>2022-01-23T09:28:31.000Z</time>
      </trkpt>
      <trkpt lat="47.35963" lon="-2.18687">
        <ele>21.60000038147</ele>
        <time>2022-01-23T09:28:32.000Z</time>
      </trkpt>
      <trkpt lat="47.35962" lon="-2.18683">
        <ele>21.60000038147</ele>
        <time>2022-01-23T09:28:33.000Z</time>
      </trkpt>
      <trkpt lat="47.3596" lon="-2.18665">
        <ele>21.60000038147</ele>
        <time>2022-01-23T09:28:39.000Z</time>
      </trkpt>
      <trkpt lat="47.35958" lon="-2.18642">
        <ele>21.60000038147</ele>
        <time>2022-01-23T09:28:44.000Z</time>
      </trkpt>
      <trkpt lat="47.35958" lon="-2.18617">
        <ele>21.60000038147</ele>
        <time>2022-01-23T09:28:49.000Z</time>
      </trkpt>
      <trkpt lat="47.3596" lon="-2.18614">
        <ele>21.60000038147</ele>
        <time>2022-01-23T09:28:50.000Z</time>
      </trkpt>
      <trkpt lat="47.35966" lon="-2.18612">
        <ele>21.200000762939</ele>
        <time>2022-01-23T09:28:52.000Z</time>
      </trkpt>
      <trkpt lat="47.35969" lon="-2.18613">
        <ele>20.799999237061</ele>
        <time>2022-01-23T09:28:53.000Z</time>
      </trkpt>
      <trkpt lat="47.35972" lon="-2.18613">
        <ele>20.39999961853</ele>
        <time>2022-01-23T09:28:54.000Z</time>
      </trkpt>
      <trkpt lat="47.35974" lon="-2.18613">
        <ele>20</ele>
        <time>2022-01-23T09:28:55.000Z</time>
      </trkpt>
      <trkpt lat="47.35976" lon="-2.18613">
        <ele>19.39999961853</ele>
        <time>2022-01-23T09:28:56.000Z</time>
      </trkpt>
      <trkpt lat="47.3598" lon="-2.18613">
        <ele>19.39999961853</ele>
        <time>2022-01-23T09:28:58.000Z</time>
      </trkpt>
      <trkpt lat="47.35992" lon="-2.18614">
        <ele>19.39999961853</ele>
        <time>2022-01-23T09:29:04.000Z</time>
      </trkpt>
      <trkpt lat="47.36005" lon="-2.1861">
        <ele>19.39999961853</ele>
        <time>2022-01-23T09:29:11.000Z</time>
      </trkpt>
      <trkpt lat="47.36016" lon="-2.18608">
        <ele>19.39999961853</ele>
        <time>2022-01-23T09:29:19.000Z</time>
      </trkpt>
      <trkpt lat="47.36017" lon="-2.18608">
        <ele>19.39999961853</ele>
        <time>2022-01-23T09:29:21.000Z</time>
      </trkpt>
      <trkpt lat="47.36013" lon="-2.18615">
        <ele>19.39999961853</ele>
        <time>2022-01-23T09:39:24.000Z</time>
      </trkpt>
      <trkpt lat="47.36012" lon="-2.1862">
        <ele>19.39999961853</ele>
        <time>2022-01-23T09:39:26.000Z</time>
      </trkpt>
      <trkpt lat="47.36012" lon="-2.18625">
        <ele>19.39999961853</ele>
        <time>2022-01-23T09:39:28.000Z</time>
      </trkpt>
      <trkpt lat="47.36011" lon="-2.1863">
        <ele>19.39999961853</ele>
        <time>2022-01-23T09:39:31.000Z</time>
      </trkpt>
      <trkpt lat="47.36009" lon="-2.18631">
        <ele>19.39999961853</ele>
        <time>2022-01-23T09:39:33.000Z</time>
      </trkpt>
      <trkpt lat="47.36003" lon="-2.18634">
        <ele>19.39999961853</ele>
        <time>2022-01-23T09:39:37.000Z</time>
      </trkpt>
      <trkpt lat="47.35985" lon="-2.18639">
        <ele>19.39999961853</ele>
        <time>2022-01-23T09:39:43.000Z</time>
      </trkpt>
      <trkpt lat="47.35981" lon="-2.1864">
        <ele>19.39999961853</ele>
        <time>2022-01-23T09:39:45.000Z</time>
      </trkpt>
      <trkpt lat="47.3598" lon="-2.18638">
        <ele>19.39999961853</ele>
        <time>2022-01-23T09:39:46.000Z</time>
      </trkpt>
      <trkpt lat="47.35981" lon="-2.18633">
        <ele>19.39999961853</ele>
        <time>2022-01-23T09:39:49.000Z</time>
      </trkpt>
      <trkpt lat="47.35993" lon="-2.18633">
        <ele>19.39999961853</ele>
        <time>2022-01-23T09:39:54.000Z</time>
      </trkpt>
      <trkpt lat="47.35998" lon="-2.18631">
        <ele>19.39999961853</ele>
        <time>2022-01-23T09:39:56.000Z</time>
      </trkpt>
      <trkpt lat="47.36007" lon="-2.18624">
        <ele>19.39999961853</ele>
        <time>2022-01-23T09:40:01.000Z</time>
      </trkpt>
      <trkpt lat="47.36008" lon="-2.18623">
        <ele>19.39999961853</ele>
        <time>2022-01-23T09:40:02.000Z</time>
      </trkpt>
      <trkpt lat="47.36006" lon="-2.18618">
        <ele>19.39999961853</ele>
        <time>2022-01-23T09:40:04.000Z</time>
      </trkpt>
      <trkpt lat="47.36005" lon="-2.18616">
        <ele>19.39999961853</ele>
        <time>2022-01-23T09:40:05.000Z</time>
      </trkpt>
      <trkpt lat="47.35996" lon="-2.18619">
        <ele>19.39999961853</ele>
        <time>2022-01-23T09:40:09.000Z</time>
      </trkpt>
      <trkpt lat="47.35992" lon="-2.1862">
        <ele>19.39999961853</ele>
        <time>2022-01-23T09:40:11.000Z</time>
      </trkpt>
      <trkpt lat="47.35988" lon="-2.18617">
        <ele>19.39999961853</ele>
        <time>2022-01-23T09:40:13.000Z</time>
      </trkpt>
      <trkpt lat="47.35974" lon="-2.18614">
        <ele>19.39999961853</ele>
        <time>2022-01-23T09:40:20.000Z</time>
      </trkpt>
      <trkpt lat="47.35965" lon="-2.18612">
        <ele>19.39999961853</ele>
        <time>2022-01-23T09:40:26.000Z</time>
      </trkpt>
      <trkpt lat="47.35964" lon="-2.18612">
        <ele>19.39999961853</ele>
        <time>2022-01-23T09:40:27.000Z</time>
      </trkpt>
      <trkpt lat="47.35962" lon="-2.18614">
        <ele>19.39999961853</ele>
        <time>2022-01-23T09:40:30.000Z</time>
      </trkpt>
      <trkpt lat="47.35961" lon="-2.18614">
        <ele>19.39999961853</ele>
        <time>2022-01-23T09:40:41.000Z</time>
      </trkpt>
      <trkpt lat="47.3596" lon="-2.18615">
        <ele>19.39999961853</ele>
        <time>2022-01-23T09:40:42.000Z</time>
      </trkpt>
      <trkpt lat="47.35957" lon="-2.18622">
        <ele>19.39999961853</ele>
        <time>2022-01-23T09:40:46.000Z</time>
      </trkpt>
      <trkpt lat="47.35955" lon="-2.18646">
        <ele>19.39999961853</ele>
        <time>2022-01-23T09:40:54.000Z</time>
      </trkpt>
      <trkpt lat="47.35954" lon="-2.18648">
        <ele>19.39999961853</ele>
        <time>2022-01-23T09:40:55.000Z</time>
      </trkpt>
      <trkpt lat="47.35948" lon="-2.18655">
        <ele>19.39999961853</ele>
        <time>2022-01-23T09:40:58.000Z</time>
      </trkpt>
      <trkpt lat="47.35933" lon="-2.18669">
        <ele>19.39999961853</ele>
        <time>2022-01-23T09:41:03.000Z</time>
      </trkpt>
      <trkpt lat="47.35912" lon="-2.18675">
        <ele>19.39999961853</ele>
        <time>2022-01-23T09:41:09.000Z</time>
      </trkpt>
      <trkpt lat="47.35884" lon="-2.18672">
        <ele>19.39999961853</ele>
        <time>2022-01-23T09:41:16.000Z</time>
      </trkpt>
      <trkpt lat="47.35861" lon="-2.18666">
        <ele>19.39999961853</ele>
        <time>2022-01-23T09:41:22.000Z</time>
      </trkpt>
      <trkpt lat="47.35828" lon="-2.18657">
        <ele>19.39999961853</ele>
        <time>2022-01-23T09:41:29.000Z</time>
      </trkpt>
      <trkpt lat="47.35797" lon="-2.18651">
        <ele>19.39999961853</ele>
        <time>2022-01-23T09:41:35.000Z</time>
      </trkpt>
      <trkpt lat="47.35791" lon="-2.18651">
        <ele>19.39999961853</ele>
        <time>2022-01-23T09:41:36.000Z</time>
      </trkpt>
      <trkpt lat="47.35764" lon="-2.18657">
        <ele>19.39999961853</ele>
        <time>2022-01-23T09:41:41.000Z</time>
      </trkpt>
      <trkpt lat="47.35731" lon="-2.18664">
        <ele>19.39999961853</ele>
        <time>2022-01-23T09:41:47.000Z</time>
      </trkpt>
      <trkpt lat="47.3572" lon="-2.18666">
        <ele>19.39999961853</ele>
        <time>2022-01-23T09:41:49.000Z</time>
      </trkpt>
      <trkpt lat="47.35693" lon="-2.18662">
        <ele>19.39999961853</ele>
        <time>2022-01-23T09:41:54.000Z</time>
      </trkpt>
      <trkpt lat="47.35657" lon="-2.1865">
        <ele>19.39999961853</ele>
        <time>2022-01-23T09:42:01.000Z</time>
      </trkpt>
      <trkpt lat="47.35616" lon="-2.18633">
        <ele>19.39999961853</ele>
        <time>2022-01-23T09:42:10.000Z</time>
      </trkpt>
      <trkpt lat="47.35596" lon="-2.18627">
        <ele>19.39999961853</ele>
        <time>2022-01-23T09:42:15.000Z</time>
      </trkpt>
      <trkpt lat="47.35573" lon="-2.18624">
        <ele>19.39999961853</ele>
        <time>2022-01-23T09:42:20.000Z</time>
      </trkpt>
      <trkpt lat="47.35564" lon="-2.1862">
        <ele>19.39999961853</ele>
        <time>2022-01-23T09:42:22.000Z</time>
      </trkpt>
      <trkpt lat="47.3554" lon="-2.18601">
        <ele>19.39999961853</ele>
        <time>2022-01-23T09:42:28.000Z</time>
      </trkpt>
      <trkpt lat="47.35536" lon="-2.18598">
        <ele>19.39999961853</ele>
        <time>2022-01-23T09:42:29.000Z</time>
      </trkpt>
      <trkpt lat="47.35528" lon="-2.18592">
        <ele>19.39999961853</ele>
        <time>2022-01-23T09:42:31.000Z</time>
      </trkpt>
      <trkpt lat="47.35517" lon="-2.18582">
        <ele>19.39999961853</ele>
        <time>2022-01-23T09:42:34.000Z</time>
      </trkpt>
      <trkpt lat="47.35485" lon="-2.18551">
        <ele>19.39999961853</ele>
        <time>2022-01-23T09:42:42.000Z</time>
      </trkpt>
      <trkpt lat="47.35451" lon="-2.18521">
        <ele>19.39999961853</ele>
        <time>2022-01-23T09:42:49.000Z</time>
      </trkpt>
      <trkpt lat="47.35431" lon="-2.18502">
        <ele>19.39999961853</ele>
        <time>2022-01-23T09:42:53.000Z</time>
      </trkpt>
      <trkpt lat="47.35418" lon="-2.18485">
        <ele>19.39999961853</ele>
        <time>2022-01-23T09:42:56.000Z</time>
      </trkpt>
      <trkpt lat="47.35386" lon="-2.18435">
        <ele>19.39999961853</ele>
        <time>2022-01-23T09:43:04.000Z</time>
      </trkpt>
      <trkpt lat="47.35359" lon="-2.18391">
        <ele>19.39999961853</ele>
        <time>2022-01-23T09:43:11.000Z</time>
      </trkpt>
      <trkpt lat="47.35343" lon="-2.18379">
        <ele>19.39999961853</ele>
        <time>2022-01-23T09:43:14.000Z</time>
      </trkpt>
      <trkpt lat="47.35337" lon="-2.18378">
        <ele>19.39999961853</ele>
        <time>2022-01-23T09:43:15.000Z</time>
      </trkpt>
      <trkpt lat="47.35293" lon="-2.18373">
        <ele>19.39999961853</ele>
        <time>2022-01-23T09:43:22.000Z</time>
      </trkpt>
      <trkpt lat="47.3524" lon="-2.18365">
        <ele>19.39999961853</ele>
        <time>2022-01-23T09:43:30.000Z</time>
      </trkpt>
      <trkpt lat="47.35197" lon="-2.18352">
        <ele>19.39999961853</ele>
        <time>2022-01-23T09:43:37.000Z</time>
      </trkpt>
      <trkpt lat="47.35154" lon="-2.18332">
        <ele>19.39999961853</ele>
        <time>2022-01-23T09:43:44.000Z</time>
      </trkpt>
      <trkpt lat="47.35104" lon="-2.18314">
        <ele>19.39999961853</ele>
        <time>2022-01-23T09:43:52.000Z</time>
      </trkpt>
      <trkpt lat="47.35085" lon="-2.18307">
        <ele>19.39999961853</ele>
        <time>2022-01-23T09:43:55.000Z</time>
      </trkpt>
      <trkpt lat="47.35066" lon="-2.18298">
        <ele>19.39999961853</ele>
        <time>2022-01-23T09:43:58.000Z</time>
      </trkpt>
      <trkpt lat="47.35026" lon="-2.18268">
        <ele>19.39999961853</ele>
        <time>2022-01-23T09:44:05.000Z</time>
      </trkpt>
      <trkpt lat="47.34976" lon="-2.18226">
        <ele>19.39999961853</ele>
        <time>2022-01-23T09:44:14.000Z</time>
      </trkpt>
      <trkpt lat="47.34925" lon="-2.18191">
        <ele>19.39999961853</ele>
        <time>2022-01-23T09:44:23.000Z</time>
      </trkpt>
      <trkpt lat="47.34886" lon="-2.18159">
        <ele>19.39999961853</ele>
        <time>2022-01-23T09:44:30.000Z</time>
      </trkpt>
      <trkpt lat="47.34851" lon="-2.18127">
        <ele>19.39999961853</ele>
        <time>2022-01-23T09:44:37.000Z</time>
      </trkpt>
      <trkpt lat="47.34813" lon="-2.18097">
        <ele>19.39999961853</ele>
        <time>2022-01-23T09:44:44.000Z</time>
      </trkpt>
      <trkpt lat="47.34773" lon="-2.18071">
        <ele>19.39999961853</ele>
        <time>2022-01-23T09:44:51.000Z</time>
      </trkpt>
      <trkpt lat="47.34722" lon="-2.18039">
        <ele>19.39999961853</ele>
        <time>2022-01-23T09:45:00.000Z</time>
      </trkpt>
      <trkpt lat="47.34717" lon="-2.18035">
        <ele>19.39999961853</ele>
        <time>2022-01-23T09:45:01.000Z</time>
      </trkpt>
      <trkpt lat="47.34693" lon="-2.18029">
        <ele>19.39999961853</ele>
        <time>2022-01-23T09:45:05.000Z</time>
      </trkpt>
      <trkpt lat="47.34686" lon="-2.1803">
        <ele>19.39999961853</ele>
        <time>2022-01-23T09:45:06.000Z</time>
      </trkpt>
      <trkpt lat="47.34669" lon="-2.18034">
        <ele>19.39999961853</ele>
        <time>2022-01-23T09:45:09.000Z</time>
      </trkpt>
      <trkpt lat="47.34658" lon="-2.18041">
        <ele>19.39999961853</ele>
        <time>2022-01-23T09:45:11.000Z</time>
      </trkpt>
      <trkpt lat="47.34622" lon="-2.18068">
        <ele>19.39999961853</ele>
        <time>2022-01-23T09:45:18.000Z</time>
      </trkpt>
      <trkpt lat="47.34619" lon="-2.18072">
        <ele>19.39999961853</ele>
        <time>2022-01-23T09:45:19.000Z</time>
      </trkpt>
      <trkpt lat="47.34615" lon="-2.18087">
        <ele>19.39999961853</ele>
        <time>2022-01-23T09:45:21.000Z</time>
      </trkpt>
      <trkpt lat="47.34608" lon="-2.18119">
        <ele>19.39999961853</ele>
        <time>2022-01-23T09:45:25.000Z</time>
      </trkpt>
      <trkpt lat="47.34606" lon="-2.18127">
        <ele>19.39999961853</ele>
        <time>2022-01-23T09:45:26.000Z</time>
      </trkpt>
      <trkpt lat="47.34588" lon="-2.18168">
        <ele>19.39999961853</ele>
        <time>2022-01-23T09:45:31.000Z</time>
      </trkpt>
      <trkpt lat="47.34557" lon="-2.18237">
        <ele>19.39999961853</ele>
        <time>2022-01-23T09:45:39.000Z</time>
      </trkpt>
      <trkpt lat="47.34553" lon="-2.18245">
        <ele>19.39999961853</ele>
        <time>2022-01-23T09:45:40.000Z</time>
      </trkpt>
      <trkpt lat="47.34525" lon="-2.18304">
        <ele>19.39999961853</ele>
        <time>2022-01-23T09:45:48.000Z</time>
      </trkpt>
      <trkpt lat="47.34508" lon="-2.18339">
        <ele>19.39999961853</ele>
        <time>2022-01-23T09:45:53.000Z</time>
      </trkpt>
      <trkpt lat="47.34503" lon="-2.18345">
        <ele>19.39999961853</ele>
        <time>2022-01-23T09:45:54.000Z</time>
      </trkpt>
      <trkpt lat="47.34481" lon="-2.18365">
        <ele>19.39999961853</ele>
        <time>2022-01-23T09:45:58.000Z</time>
      </trkpt>
      <trkpt lat="47.34475" lon="-2.18369">
        <ele>19.39999961853</ele>
        <time>2022-01-23T09:45:59.000Z</time>
      </trkpt>
      <trkpt lat="47.3443" lon="-2.18393">
        <ele>19.39999961853</ele>
        <time>2022-01-23T09:46:06.000Z</time>
      </trkpt>
      <trkpt lat="47.34373" lon="-2.18419">
        <ele>19.39999961853</ele>
        <time>2022-01-23T09:46:15.000Z</time>
      </trkpt>
      <trkpt lat="47.34325" lon="-2.18435">
        <ele>19.39999961853</ele>
        <time>2022-01-23T09:46:23.000Z</time>
      </trkpt>
      <trkpt lat="47.34277" lon="-2.18454">
        <ele>19.39999961853</ele>
        <time>2022-01-23T09:46:31.000Z</time>
      </trkpt>
      <trkpt lat="47.34227" lon="-2.18472">
        <ele>19.39999961853</ele>
        <time>2022-01-23T09:46:39.000Z</time>
      </trkpt>
      <trkpt lat="47.34186" lon="-2.18487">
        <ele>19.39999961853</ele>
        <time>2022-01-23T09:46:46.000Z</time>
      </trkpt>
      <trkpt lat="47.34144" lon="-2.18502">
        <ele>19.39999961853</ele>
        <time>2022-01-23T09:46:53.000Z</time>
      </trkpt>
      <trkpt lat="47.34115" lon="-2.18512">
        <ele>19.39999961853</ele>
        <time>2022-01-23T09:46:58.000Z</time>
      </trkpt>
      <trkpt lat="47.34103" lon="-2.18511">
        <ele>19.39999961853</ele>
        <time>2022-01-23T09:47:00.000Z</time>
      </trkpt>
      <trkpt lat="47.34088" lon="-2.18499">
        <ele>19.39999961853</ele>
        <time>2022-01-23T09:47:03.000Z</time>
      </trkpt>
      <trkpt lat="47.34082" lon="-2.18474">
        <ele>19.39999961853</ele>
        <time>2022-01-23T09:47:06.000Z</time>
      </trkpt>
      <trkpt lat="47.34082" lon="-2.18445">
        <ele>19.39999961853</ele>
        <time>2022-01-23T09:47:09.000Z</time>
      </trkpt>
      <trkpt lat="47.34083" lon="-2.18426">
        <ele>19.39999961853</ele>
        <time>2022-01-23T09:47:11.000Z</time>
      </trkpt>
      <trkpt lat="47.34087" lon="-2.18352">
        <ele>19.39999961853</ele>
        <time>2022-01-23T09:47:19.000Z</time>
      </trkpt>
      <trkpt lat="47.34085" lon="-2.18299">
        <ele>19.39999961853</ele>
        <time>2022-01-23T09:47:25.000Z</time>
      </trkpt>
      <trkpt lat="47.34081" lon="-2.1823">
        <ele>19.39999961853</ele>
        <time>2022-01-23T09:47:33.000Z</time>
      </trkpt>
      <trkpt lat="47.34079" lon="-2.18222">
        <ele>19.39999961853</ele>
        <time>2022-01-23T09:47:34.000Z</time>
      </trkpt>
      <trkpt lat="47.34075" lon="-2.18206">
        <ele>19.39999961853</ele>
        <time>2022-01-23T09:47:36.000Z</time>
      </trkpt>
      <trkpt lat="47.34072" lon="-2.18198">
        <ele>19.39999961853</ele>
        <time>2022-01-23T09:47:37.000Z</time>
      </trkpt>
      <trkpt lat="47.34052" lon="-2.1815">
        <ele>19.39999961853</ele>
        <time>2022-01-23T09:47:43.000Z</time>
      </trkpt>
      <trkpt lat="47.3404" lon="-2.18097">
        <ele>19.39999961853</ele>
        <time>2022-01-23T09:47:49.000Z</time>
      </trkpt>
      <trkpt lat="47.34024" lon="-2.18018">
        <ele>19.39999961853</ele>
        <time>2022-01-23T09:47:58.000Z</time>
      </trkpt>
      <trkpt lat="47.3402" lon="-2.17977">
        <ele>19.39999961853</ele>
        <time>2022-01-23T09:48:03.000Z</time>
      </trkpt>
      <trkpt lat="47.34024" lon="-2.17931">
        <ele>19.39999961853</ele>
        <time>2022-01-23T09:48:09.000Z</time>
      </trkpt>
      <trkpt lat="47.34025" lon="-2.17923">
        <ele>19.39999961853</ele>
        <time>2022-01-23T09:48:10.000Z</time>
      </trkpt>
      <trkpt lat="47.34023" lon="-2.17885">
        <ele>19.39999961853</ele>
        <time>2022-01-23T09:48:15.000Z</time>
      </trkpt>
      <trkpt lat="47.34022" lon="-2.17877">
        <ele>19.39999961853</ele>
        <time>2022-01-23T09:48:16.000Z</time>
      </trkpt>
      <trkpt lat="47.34017" lon="-2.17853">
        <ele>19.39999961853</ele>
        <time>2022-01-23T09:48:19.000Z</time>
      </trkpt>
      <trkpt lat="47.34011" lon="-2.17837">
        <ele>19.39999961853</ele>
        <time>2022-01-23T09:48:21.000Z</time>
      </trkpt>
      <trkpt lat="47.33999" lon="-2.17804">
        <ele>19.39999961853</ele>
        <time>2022-01-23T09:48:25.000Z</time>
      </trkpt>
      <trkpt lat="47.33998" lon="-2.17795">
        <ele>19.39999961853</ele>
        <time>2022-01-23T09:48:26.000Z</time>
      </trkpt>
      <trkpt lat="47.33996" lon="-2.17768">
        <ele>19.39999961853</ele>
        <time>2022-01-23T09:48:29.000Z</time>
      </trkpt>
      <trkpt lat="47.33997" lon="-2.1776">
        <ele>19.39999961853</ele>
        <time>2022-01-23T09:48:30.000Z</time>
      </trkpt>
      <trkpt lat="47.33998" lon="-2.17731">
        <ele>19.39999961853</ele>
        <time>2022-01-23T09:48:34.000Z</time>
      </trkpt>
      <trkpt lat="47.33997" lon="-2.17724">
        <ele>19.39999961853</ele>
        <time>2022-01-23T09:48:35.000Z</time>
      </trkpt>
      <trkpt lat="47.33996" lon="-2.17717">
        <ele>19.39999961853</ele>
        <time>2022-01-23T09:48:36.000Z</time>
      </trkpt>
      <trkpt lat="47.33993" lon="-2.17701">
        <ele>19.39999961853</ele>
        <time>2022-01-23T09:48:38.000Z</time>
      </trkpt>
      <trkpt lat="47.33987" lon="-2.17687">
        <ele>19.39999961853</ele>
        <time>2022-01-23T09:48:40.000Z</time>
      </trkpt>
      <trkpt lat="47.33963" lon="-2.17635">
        <ele>19.39999961853</ele>
        <time>2022-01-23T09:48:47.000Z</time>
      </trkpt>
      <trkpt lat="47.33948" lon="-2.17585">
        <ele>19.39999961853</ele>
        <time>2022-01-23T09:48:53.000Z</time>
      </trkpt>
      <trkpt lat="47.3394" lon="-2.17549">
        <ele>19.39999961853</ele>
        <time>2022-01-23T09:48:58.000Z</time>
      </trkpt>
      <trkpt lat="47.33939" lon="-2.17543">
        <ele>19.39999961853</ele>
        <time>2022-01-23T09:48:59.000Z</time>
      </trkpt>
      <trkpt lat="47.33938" lon="-2.17513">
        <ele>19.39999961853</ele>
        <time>2022-01-23T09:49:04.000Z</time>
      </trkpt>
      <trkpt lat="47.33925" lon="-2.1751">
        <ele>19.39999961853</ele>
        <time>2022-01-23T09:49:07.000Z</time>
      </trkpt>
      <trkpt lat="47.33915" lon="-2.17517">
        <ele>19.39999961853</ele>
        <time>2022-01-23T09:49:09.000Z</time>
      </trkpt>
      <trkpt lat="47.33904" lon="-2.17524">
        <ele>19.39999961853</ele>
        <time>2022-01-23T09:49:11.000Z</time>
      </trkpt>
      <trkpt lat="47.33868" lon="-2.17548">
        <ele>19.39999961853</ele>
        <time>2022-01-23T09:49:17.000Z</time>
      </trkpt>
      <trkpt lat="47.33816" lon="-2.17579">
        <ele>19.39999961853</ele>
        <time>2022-01-23T09:49:25.000Z</time>
      </trkpt>
      <trkpt lat="47.33767" lon="-2.1761">
        <ele>19.39999961853</ele>
        <time>2022-01-23T09:49:33.000Z</time>
      </trkpt>
      <trkpt lat="47.33713" lon="-2.17645">
        <ele>19.39999961853</ele>
        <time>2022-01-23T09:49:42.000Z</time>
      </trkpt>
      <trkpt lat="47.33707" lon="-2.17649">
        <ele>19.39999961853</ele>
        <time>2022-01-23T09:49:43.000Z</time>
      </trkpt>
      <trkpt lat="47.33656" lon="-2.17682">
        <ele>19.39999961853</ele>
        <time>2022-01-23T09:49:51.000Z</time>
      </trkpt>
      <trkpt lat="47.33615" lon="-2.17707">
        <ele>19.39999961853</ele>
        <time>2022-01-23T09:49:58.000Z</time>
      </trkpt>
      <trkpt lat="47.33561" lon="-2.1774">
        <ele>19.39999961853</ele>
        <time>2022-01-23T09:50:07.000Z</time>
      </trkpt>
      <trkpt lat="47.33513" lon="-2.17772">
        <ele>19.39999961853</ele>
        <time>2022-01-23T09:50:15.000Z</time>
      </trkpt>
      <trkpt lat="47.3346" lon="-2.17805">
        <ele>19.39999961853</ele>
        <time>2022-01-23T09:50:24.000Z</time>
      </trkpt>
      <trkpt lat="47.33414" lon="-2.17835">
        <ele>19.39999961853</ele>
        <time>2022-01-23T09:50:32.000Z</time>
      </trkpt>
      <trkpt lat="47.33382" lon="-2.17855">
        <ele>19.39999961853</ele>
        <time>2022-01-23T09:50:38.000Z</time>
      </trkpt>
      <trkpt lat="47.33353" lon="-2.17874">
        <ele>19.39999961853</ele>
        <time>2022-01-23T09:50:44.000Z</time>
      </trkpt>
      <trkpt lat="47.33328" lon="-2.1789">
        <ele>19.39999961853</ele>
        <time>2022-01-23T09:50:50.000Z</time>
      </trkpt>
      <trkpt lat="47.33323" lon="-2.1789">
        <ele>19.39999961853</ele>
        <time>2022-01-23T09:50:51.000Z</time>
      </trkpt>
      <trkpt lat="47.33312" lon="-2.17878">
        <ele>19.39999961853</ele>
        <time>2022-01-23T09:50:54.000Z</time>
      </trkpt>
      <trkpt lat="47.33306" lon="-2.17865">
        <ele>19.39999961853</ele>
        <time>2022-01-23T09:50:56.000Z</time>
      </trkpt>
      <trkpt lat="47.33295" lon="-2.17838">
        <ele>19.39999961853</ele>
        <time>2022-01-23T09:51:00.000Z</time>
      </trkpt>
      <trkpt lat="47.33283" lon="-2.17814">
        <ele>19.39999961853</ele>
        <time>2022-01-23T09:51:04.000Z</time>
      </trkpt>
      <trkpt lat="47.33279" lon="-2.17813">
        <ele>19.39999961853</ele>
        <time>2022-01-23T09:51:05.000Z</time>
      </trkpt>
      <trkpt lat="47.33266" lon="-2.17824">
        <ele>19.39999961853</ele>
        <time>2022-01-23T09:51:08.000Z</time>
      </trkpt>
      <trkpt lat="47.33251" lon="-2.17836">
        <ele>19.39999961853</ele>
        <time>2022-01-23T09:51:11.000Z</time>
      </trkpt>
      <trkpt lat="47.3324" lon="-2.17844">
        <ele>19.39999961853</ele>
        <time>2022-01-23T09:51:13.000Z</time>
      </trkpt>
      <trkpt lat="47.33189" lon="-2.17885">
        <ele>19.39999961853</ele>
        <time>2022-01-23T09:51:22.000Z</time>
      </trkpt>
      <trkpt lat="47.33143" lon="-2.17921">
        <ele>19.39999961853</ele>
        <time>2022-01-23T09:51:30.000Z</time>
      </trkpt>
      <trkpt lat="47.33102" lon="-2.17951">
        <ele>19.39999961853</ele>
        <time>2022-01-23T09:51:37.000Z</time>
      </trkpt>
      <trkpt lat="47.33057" lon="-2.17977">
        <ele>19.39999961853</ele>
        <time>2022-01-23T09:51:44.000Z</time>
      </trkpt>
      <trkpt lat="47.33043" lon="-2.17983">
        <ele>19.799999237061</ele>
        <time>2022-01-23T09:51:46.000Z</time>
      </trkpt>
      <trkpt lat="47.33036" lon="-2.17985">
        <ele>20.200000762939</ele>
        <time>2022-01-23T09:51:47.000Z</time>
      </trkpt>
      <trkpt lat="47.33029" lon="-2.17988">
        <ele>20.60000038147</ele>
        <time>2022-01-23T09:51:48.000Z</time>
      </trkpt>
      <trkpt lat="47.33022" lon="-2.1799">
        <ele>21</ele>
        <time>2022-01-23T09:51:49.000Z</time>
      </trkpt>
      <trkpt lat="47.33016" lon="-2.17992">
        <ele>21.60000038147</ele>
        <time>2022-01-23T09:51:50.000Z</time>
      </trkpt>
      <trkpt lat="47.33003" lon="-2.17995">
        <ele>21.60000038147</ele>
        <time>2022-01-23T09:51:52.000Z</time>
      </trkpt>
      <trkpt lat="47.32949" lon="-2.18009">
        <ele>21.60000038147</ele>
        <time>2022-01-23T09:52:00.000Z</time>
      </trkpt>
      <trkpt lat="47.32915" lon="-2.18018">
        <ele>21.60000038147</ele>
        <time>2022-01-23T09:52:05.000Z</time>
      </trkpt>
      <trkpt lat="47.32868" lon="-2.1803">
        <ele>21.60000038147</ele>
        <time>2022-01-23T09:52:12.000Z</time>
      </trkpt>
      <trkpt lat="47.32818" lon="-2.18043">
        <ele>21.60000038147</ele>
        <time>2022-01-23T09:52:20.000Z</time>
      </trkpt>
      <trkpt lat="47.32761" lon="-2.18058">
        <ele>21.60000038147</ele>
        <time>2022-01-23T09:52:29.000Z</time>
      </trkpt>
      <trkpt lat="47.32741" lon="-2.18063">
        <ele>21</ele>
        <time>2022-01-23T09:52:32.000Z</time>
      </trkpt>
      <trkpt lat="47.32734" lon="-2.18064">
        <ele>20.60000038147</ele>
        <time>2022-01-23T09:52:33.000Z</time>
      </trkpt>
      <trkpt lat="47.32727" lon="-2.18066">
        <ele>20.200000762939</ele>
        <time>2022-01-23T09:52:34.000Z</time>
      </trkpt>
      <trkpt lat="47.32721" lon="-2.18068">
        <ele>19.799999237061</ele>
        <time>2022-01-23T09:52:35.000Z</time>
      </trkpt>
      <trkpt lat="47.32714" lon="-2.18069">
        <ele>19.39999961853</ele>
        <time>2022-01-23T09:52:36.000Z</time>
      </trkpt>
      <trkpt lat="47.32701" lon="-2.18073">
        <ele>19.39999961853</ele>
        <time>2022-01-23T09:52:38.000Z</time>
      </trkpt>
      <trkpt lat="47.32644" lon="-2.18089">
        <ele>19.39999961853</ele>
        <time>2022-01-23T09:52:47.000Z</time>
      </trkpt>
      <trkpt lat="47.32602" lon="-2.18099">
        <ele>19.39999961853</ele>
        <time>2022-01-23T09:52:54.000Z</time>
      </trkpt>
      <trkpt lat="47.32552" lon="-2.18113">
        <ele>19.39999961853</ele>
        <time>2022-01-23T09:53:02.000Z</time>
      </trkpt>
      <trkpt lat="47.32497" lon="-2.18126">
        <ele>19.39999961853</ele>
        <time>2022-01-23T09:53:11.000Z</time>
      </trkpt>
      <trkpt lat="47.32441" lon="-2.18141">
        <ele>19.39999961853</ele>
        <time>2022-01-23T09:53:20.000Z</time>
      </trkpt>
      <trkpt lat="47.32435" lon="-2.18143">
        <ele>19.39999961853</ele>
        <time>2022-01-23T09:53:21.000Z</time>
      </trkpt>
      <trkpt lat="47.32411" lon="-2.18149">
        <ele>20</ele>
        <time>2022-01-23T09:53:25.000Z</time>
      </trkpt>
      <trkpt lat="47.32406" lon="-2.1815">
        <ele>20.39999961853</ele>
        <time>2022-01-23T09:53:26.000Z</time>
      </trkpt>
      <trkpt lat="47.32401" lon="-2.18151">
        <ele>21</ele>
        <time>2022-01-23T09:53:27.000Z</time>
      </trkpt>
      <trkpt lat="47.32396" lon="-2.18153">
        <ele>21.39999961853</ele>
        <time>2022-01-23T09:53:28.000Z</time>
      </trkpt>
      <trkpt lat="47.32391" lon="-2.18154">
        <ele>22</ele>
        <time>2022-01-23T09:53:29.000Z</time>
      </trkpt>
      <trkpt lat="47.32386" lon="-2.18156">
        <ele>22.39999961853</ele>
        <time>2022-01-23T09:53:30.000Z</time>
      </trkpt>
      <trkpt lat="47.32381" lon="-2.18157">
        <ele>22.799999237061</ele>
        <time>2022-01-23T09:53:31.000Z</time>
      </trkpt>
      <trkpt lat="47.32376" lon="-2.18158">
        <ele>23.39999961853</ele>
        <time>2022-01-23T09:53:32.000Z</time>
      </trkpt>
      <trkpt lat="47.32371" lon="-2.1816">
        <ele>23.799999237061</ele>
        <time>2022-01-23T09:53:33.000Z</time>
      </trkpt>
      <trkpt lat="47.32366" lon="-2.18161">
        <ele>24.200000762939</ele>
        <time>2022-01-23T09:53:34.000Z</time>
      </trkpt>
      <trkpt lat="47.3236" lon="-2.18162">
        <ele>24.200000762939</ele>
        <time>2022-01-23T09:53:35.000Z</time>
      </trkpt>
      <trkpt lat="47.32345" lon="-2.18167">
        <ele>24.60000038147</ele>
        <time>2022-01-23T09:53:38.000Z</time>
      </trkpt>
      <trkpt lat="47.32339" lon="-2.18168">
        <ele>25</ele>
        <time>2022-01-23T09:53:39.000Z</time>
      </trkpt>
      <trkpt lat="47.32334" lon="-2.18169">
        <ele>25.39999961853</ele>
        <time>2022-01-23T09:53:40.000Z</time>
      </trkpt>
      <trkpt lat="47.32328" lon="-2.18171">
        <ele>25.799999237061</ele>
        <time>2022-01-23T09:53:41.000Z</time>
      </trkpt>
      <trkpt lat="47.32323" lon="-2.18172">
        <ele>26.200000762939</ele>
        <time>2022-01-23T09:53:42.000Z</time>
      </trkpt>
      <trkpt lat="47.32278" lon="-2.18183">
        <ele>26.200000762939</ele>
        <time>2022-01-23T09:53:50.000Z</time>
      </trkpt>
      <trkpt lat="47.3224" lon="-2.18193">
        <ele>26.200000762939</ele>
        <time>2022-01-23T09:53:56.000Z</time>
      </trkpt>
      <trkpt lat="47.3221" lon="-2.182">
        <ele>25.799999237061</ele>
        <time>2022-01-23T09:54:00.000Z</time>
      </trkpt>
      <trkpt lat="47.32201" lon="-2.18203">
        <ele>25.200000762939</ele>
        <time>2022-01-23T09:54:01.000Z</time>
      </trkpt>
      <trkpt lat="47.32193" lon="-2.18205">
        <ele>24.799999237061</ele>
        <time>2022-01-23T09:54:02.000Z</time>
      </trkpt>
      <trkpt lat="47.32185" lon="-2.18207">
        <ele>24.200000762939</ele>
        <time>2022-01-23T09:54:03.000Z</time>
      </trkpt>
      <trkpt lat="47.32177" lon="-2.18209">
        <ele>23.799999237061</ele>
        <time>2022-01-23T09:54:04.000Z</time>
      </trkpt>
      <trkpt lat="47.32169" lon="-2.18211">
        <ele>23.39999961853</ele>
        <time>2022-01-23T09:54:05.000Z</time>
      </trkpt>
      <trkpt lat="47.32161" lon="-2.18213">
        <ele>23</ele>
        <time>2022-01-23T09:54:06.000Z</time>
      </trkpt>
      <trkpt lat="47.32154" lon="-2.18215">
        <ele>22.39999961853</ele>
        <time>2022-01-23T09:54:07.000Z</time>
      </trkpt>
      <trkpt lat="47.32146" lon="-2.18217">
        <ele>22</ele>
        <time>2022-01-23T09:54:08.000Z</time>
      </trkpt>
      <trkpt lat="47.32139" lon="-2.18219">
        <ele>21.60000038147</ele>
        <time>2022-01-23T09:54:09.000Z</time>
      </trkpt>
      <trkpt lat="47.32099" lon="-2.1823">
        <ele>21.60000038147</ele>
        <time>2022-01-23T09:54:15.000Z</time>
      </trkpt>
      <trkpt lat="47.32051" lon="-2.1824">
        <ele>21.60000038147</ele>
        <time>2022-01-23T09:54:23.000Z</time>
      </trkpt>
      <trkpt lat="47.32017" lon="-2.18251">
        <ele>21.60000038147</ele>
        <time>2022-01-23T09:54:29.000Z</time>
      </trkpt>
      <trkpt lat="47.32011" lon="-2.18252">
        <ele>21.60000038147</ele>
        <time>2022-01-23T09:54:30.000Z</time>
      </trkpt>
      <trkpt lat="47.31989" lon="-2.18258">
        <ele>21.60000038147</ele>
        <time>2022-01-23T09:54:34.000Z</time>
      </trkpt>
      <trkpt lat="47.31948" lon="-2.18268">
        <ele>21.60000038147</ele>
        <time>2022-01-23T09:54:41.000Z</time>
      </trkpt>
      <trkpt lat="47.31902" lon="-2.18279">
        <ele>21.60000038147</ele>
        <time>2022-01-23T09:54:48.000Z</time>
      </trkpt>
      <trkpt lat="47.31863" lon="-2.1829">
        <ele>21.60000038147</ele>
        <time>2022-01-23T09:54:54.000Z</time>
      </trkpt>
      <trkpt lat="47.31823" lon="-2.18301">
        <ele>21.60000038147</ele>
        <time>2022-01-23T09:55:00.000Z</time>
      </trkpt>
      <trkpt lat="47.31775" lon="-2.18311">
        <ele>21.60000038147</ele>
        <time>2022-01-23T09:55:07.000Z</time>
      </trkpt>
      <trkpt lat="47.31723" lon="-2.18326">
        <ele>21.60000038147</ele>
        <time>2022-01-23T09:55:15.000Z</time>
      </trkpt>
      <trkpt lat="47.31666" lon="-2.18341">
        <ele>21.60000038147</ele>
        <time>2022-01-23T09:55:23.000Z</time>
      </trkpt>
      <trkpt lat="47.31611" lon="-2.18355">
        <ele>21.60000038147</ele>
        <time>2022-01-23T09:55:31.000Z</time>
      </trkpt>
      <trkpt lat="47.31565" lon="-2.18362">
        <ele>21.60000038147</ele>
        <time>2022-01-23T09:55:38.000Z</time>
      </trkpt>
      <trkpt lat="47.31512" lon="-2.18363">
        <ele>21.60000038147</ele>
        <time>2022-01-23T09:55:46.000Z</time>
      </trkpt>
      <trkpt lat="47.31469" lon="-2.18368">
        <ele>21.60000038147</ele>
        <time>2022-01-23T09:55:54.000Z</time>
      </trkpt>
      <trkpt lat="47.31427" lon="-2.18374">
        <ele>21.60000038147</ele>
        <time>2022-01-23T09:56:01.000Z</time>
      </trkpt>
      <trkpt lat="47.31382" lon="-2.18377">
        <ele>21.60000038147</ele>
        <time>2022-01-23T09:56:08.000Z</time>
      </trkpt>
      <trkpt lat="47.31345" lon="-2.18381">
        <ele>21.60000038147</ele>
        <time>2022-01-23T09:56:14.000Z</time>
      </trkpt>
      <trkpt lat="47.31294" lon="-2.18392">
        <ele>21.60000038147</ele>
        <time>2022-01-23T09:56:22.000Z</time>
      </trkpt>
      <trkpt lat="47.31255" lon="-2.18411">
        <ele>21.60000038147</ele>
        <time>2022-01-23T09:56:28.000Z</time>
      </trkpt>
      <trkpt lat="47.31204" lon="-2.1844">
        <ele>21.60000038147</ele>
        <time>2022-01-23T09:56:36.000Z</time>
      </trkpt>
      <trkpt lat="47.31154" lon="-2.18457">
        <ele>21.60000038147</ele>
        <time>2022-01-23T09:56:44.000Z</time>
      </trkpt>
      <trkpt lat="47.31102" lon="-2.18464">
        <ele>21.60000038147</ele>
        <time>2022-01-23T09:56:52.000Z</time>
      </trkpt>
      <trkpt lat="47.31058" lon="-2.18463">
        <ele>21.60000038147</ele>
        <time>2022-01-23T09:56:59.000Z</time>
      </trkpt>
      <trkpt lat="47.31028" lon="-2.18464">
        <ele>22</ele>
        <time>2022-01-23T09:57:04.000Z</time>
      </trkpt>
      <trkpt lat="47.31022" lon="-2.18463">
        <ele>22.39999961853</ele>
        <time>2022-01-23T09:57:05.000Z</time>
      </trkpt>
      <trkpt lat="47.31015" lon="-2.18464">
        <ele>22.799999237061</ele>
        <time>2022-01-23T09:57:06.000Z</time>
      </trkpt>
      <trkpt lat="47.31008" lon="-2.18464">
        <ele>23.200000762939</ele>
        <time>2022-01-23T09:57:07.000Z</time>
      </trkpt>
      <trkpt lat="47.31001" lon="-2.18463">
        <ele>23.60000038147</ele>
        <time>2022-01-23T09:57:08.000Z</time>
      </trkpt>
      <trkpt lat="47.30986" lon="-2.18463">
        <ele>23.60000038147</ele>
        <time>2022-01-23T09:57:10.000Z</time>
      </trkpt>
      <trkpt lat="47.30946" lon="-2.18462">
        <ele>23.60000038147</ele>
        <time>2022-01-23T09:57:16.000Z</time>
      </trkpt>
      <trkpt lat="47.30888" lon="-2.18462">
        <ele>23.60000038147</ele>
        <time>2022-01-23T09:57:25.000Z</time>
      </trkpt>
      <trkpt lat="47.30838" lon="-2.1846">
        <ele>23.60000038147</ele>
        <time>2022-01-23T09:57:33.000Z</time>
      </trkpt>
      <trkpt lat="47.30822" lon="-2.18461">
        <ele>23.60000038147</ele>
        <time>2022-01-23T09:57:36.000Z</time>
      </trkpt>
      <trkpt lat="47.30812" lon="-2.18461">
        <ele>23.60000038147</ele>
        <time>2022-01-23T09:57:38.000Z</time>
      </trkpt>
      <trkpt lat="47.30783" lon="-2.18461">
        <ele>23.60000038147</ele>
        <time>2022-01-23T09:57:45.000Z</time>
      </trkpt>
      <trkpt lat="47.30767" lon="-2.1847">
        <ele>23.60000038147</ele>
        <time>2022-01-23T09:57:50.000Z</time>
      </trkpt>
      <trkpt lat="47.30743" lon="-2.18484">
        <ele>23.60000038147</ele>
        <time>2022-01-23T09:57:56.000Z</time>
      </trkpt>
      <trkpt lat="47.30713" lon="-2.18507">
        <ele>23.60000038147</ele>
        <time>2022-01-23T09:58:03.000Z</time>
      </trkpt>
      <trkpt lat="47.3071" lon="-2.18511">
        <ele>23.60000038147</ele>
        <time>2022-01-23T09:58:04.000Z</time>
      </trkpt>
      <trkpt lat="47.30689" lon="-2.18537">
        <ele>23.60000038147</ele>
        <time>2022-01-23T09:58:11.000Z</time>
      </trkpt>
      <trkpt lat="47.30671" lon="-2.18562">
        <ele>23.60000038147</ele>
        <time>2022-01-23T09:58:19.000Z</time>
      </trkpt>
      <trkpt lat="47.3066" lon="-2.18576">
        <ele>23.60000038147</ele>
        <time>2022-01-23T09:58:23.000Z</time>
      </trkpt>
      <trkpt lat="47.30656" lon="-2.1858">
        <ele>23.60000038147</ele>
        <time>2022-01-23T09:58:24.000Z</time>
      </trkpt>
      <trkpt lat="47.30636" lon="-2.186">
        <ele>23.60000038147</ele>
        <time>2022-01-23T09:58:29.000Z</time>
      </trkpt>
      <trkpt lat="47.3063" lon="-2.18602">
        <ele>23.60000038147</ele>
        <time>2022-01-23T09:58:30.000Z</time>
      </trkpt>
      <trkpt lat="47.30599" lon="-2.18616">
        <ele>23.60000038147</ele>
        <time>2022-01-23T09:58:36.000Z</time>
      </trkpt>
      <trkpt lat="47.30581" lon="-2.18637">
        <ele>23.60000038147</ele>
        <time>2022-01-23T09:58:40.000Z</time>
      </trkpt>
      <trkpt lat="47.30577" lon="-2.18642">
        <ele>23.60000038147</ele>
        <time>2022-01-23T09:58:41.000Z</time>
      </trkpt>
      <trkpt lat="47.30568" lon="-2.18652">
        <ele>23.200000762939</ele>
        <time>2022-01-23T09:58:43.000Z</time>
      </trkpt>
      <trkpt lat="47.30564" lon="-2.18657">
        <ele>22.799999237061</ele>
        <time>2022-01-23T09:58:44.000Z</time>
      </trkpt>
      <trkpt lat="47.3056" lon="-2.18662">
        <ele>22.39999961853</ele>
        <time>2022-01-23T09:58:45.000Z</time>
      </trkpt>
      <trkpt lat="47.30556" lon="-2.18666">
        <ele>22</ele>
        <time>2022-01-23T09:58:46.000Z</time>
      </trkpt>
      <trkpt lat="47.30553" lon="-2.1867">
        <ele>21.60000038147</ele>
        <time>2022-01-23T09:58:47.000Z</time>
      </trkpt>
      <trkpt lat="47.30549" lon="-2.18674">
        <ele>21.60000038147</ele>
        <time>2022-01-23T09:58:48.000Z</time>
      </trkpt>
      <trkpt lat="47.30524" lon="-2.18705">
        <ele>21.60000038147</ele>
        <time>2022-01-23T09:58:55.000Z</time>
      </trkpt>
      <trkpt lat="47.30505" lon="-2.18729">
        <ele>21.60000038147</ele>
        <time>2022-01-23T09:59:01.000Z</time>
      </trkpt>
      <trkpt lat="47.30493" lon="-2.18746">
        <ele>21.60000038147</ele>
        <time>2022-01-23T09:59:06.000Z</time>
      </trkpt>
      <trkpt lat="47.30483" lon="-2.18757">
        <ele>21.60000038147</ele>
        <time>2022-01-23T09:59:12.000Z</time>
      </trkpt>
      <trkpt lat="47.30475" lon="-2.18767">
        <ele>21.60000038147</ele>
        <time>2022-01-23T09:59:19.000Z</time>
      </trkpt>
      <trkpt lat="47.30464" lon="-2.18782">
        <ele>21.60000038147</ele>
        <time>2022-01-23T09:59:28.000Z</time>
      </trkpt>
      <trkpt lat="47.30457" lon="-2.18798">
        <ele>21.60000038147</ele>
        <time>2022-01-23T09:59:33.000Z</time>
      </trkpt>
      <trkpt lat="47.30449" lon="-2.18809">
        <ele>21.60000038147</ele>
        <time>2022-01-23T09:59:37.000Z</time>
      </trkpt>
      <trkpt lat="47.30436" lon="-2.1883">
        <ele>21.60000038147</ele>
        <time>2022-01-23T09:59:42.000Z</time>
      </trkpt>
      <trkpt lat="47.30427" lon="-2.18843">
        <ele>21.60000038147</ele>
        <time>2022-01-23T09:59:45.000Z</time>
      </trkpt>
      <trkpt lat="47.30419" lon="-2.18856">
        <ele>21.60000038147</ele>
        <time>2022-01-23T09:59:48.000Z</time>
      </trkpt>
      <trkpt lat="47.30407" lon="-2.18879">
        <ele>21.60000038147</ele>
        <time>2022-01-23T09:59:54.000Z</time>
      </trkpt>
      <trkpt lat="47.30396" lon="-2.18897">
        <ele>21.60000038147</ele>
        <time>2022-01-23T09:59:59.000Z</time>
      </trkpt>
      <trkpt lat="47.30379" lon="-2.18911">
        <ele>21.60000038147</ele>
        <time>2022-01-23T10:00:05.000Z</time>
      </trkpt>
      <trkpt lat="47.30365" lon="-2.18922">
        <ele>21.60000038147</ele>
        <time>2022-01-23T10:00:09.000Z</time>
      </trkpt>
      <trkpt lat="47.30361" lon="-2.18927">
        <ele>21.60000038147</ele>
        <time>2022-01-23T10:00:10.000Z</time>
      </trkpt>
      <trkpt lat="47.30337" lon="-2.1896">
        <ele>21.60000038147</ele>
        <time>2022-01-23T10:00:16.000Z</time>
      </trkpt>
      <trkpt lat="47.30309" lon="-2.18997">
        <ele>21.60000038147</ele>
        <time>2022-01-23T10:00:23.000Z</time>
      </trkpt>
      <trkpt lat="47.30298" lon="-2.1901">
        <ele>21.60000038147</ele>
        <time>2022-01-23T10:00:26.000Z</time>
      </trkpt>
      <trkpt lat="47.30287" lon="-2.19026">
        <ele>21.60000038147</ele>
        <time>2022-01-23T10:00:29.000Z</time>
      </trkpt>
      <trkpt lat="47.30257" lon="-2.19065">
        <ele>21.60000038147</ele>
        <time>2022-01-23T10:00:37.000Z</time>
      </trkpt>
      <trkpt lat="47.30222" lon="-2.19108">
        <ele>21.60000038147</ele>
        <time>2022-01-23T10:00:46.000Z</time>
      </trkpt>
      <trkpt lat="47.3019" lon="-2.19151">
        <ele>21.60000038147</ele>
        <time>2022-01-23T10:00:54.000Z</time>
      </trkpt>
      <trkpt lat="47.3015" lon="-2.19203">
        <ele>21.60000038147</ele>
        <time>2022-01-23T10:01:04.000Z</time>
      </trkpt>
      <trkpt lat="47.30146" lon="-2.19208">
        <ele>21.60000038147</ele>
        <time>2022-01-23T10:01:05.000Z</time>
      </trkpt>
      <trkpt lat="47.30113" lon="-2.19251">
        <ele>21.60000038147</ele>
        <time>2022-01-23T10:01:13.000Z</time>
      </trkpt>
      <trkpt lat="47.30093" lon="-2.19281">
        <ele>21.60000038147</ele>
        <time>2022-01-23T10:01:19.000Z</time>
      </trkpt>
      <trkpt lat="47.30088" lon="-2.19286">
        <ele>21.60000038147</ele>
        <time>2022-01-23T10:01:20.000Z</time>
      </trkpt>
      <trkpt lat="47.30076" lon="-2.19309">
        <ele>21.60000038147</ele>
        <time>2022-01-23T10:01:24.000Z</time>
      </trkpt>
      <trkpt lat="47.30073" lon="-2.19315">
        <ele>21.60000038147</ele>
        <time>2022-01-23T10:01:25.000Z</time>
      </trkpt>
      <trkpt lat="47.30063" lon="-2.19346">
        <ele>21.60000038147</ele>
        <time>2022-01-23T10:01:29.000Z</time>
      </trkpt>
      <trkpt lat="47.30049" lon="-2.19394">
        <ele>21.60000038147</ele>
        <time>2022-01-23T10:01:35.000Z</time>
      </trkpt>
      <trkpt lat="47.30041" lon="-2.19449">
        <ele>21.60000038147</ele>
        <time>2022-01-23T10:01:42.000Z</time>
      </trkpt>
      <trkpt lat="47.30045" lon="-2.19492">
        <ele>21.60000038147</ele>
        <time>2022-01-23T10:01:48.000Z</time>
      </trkpt>
      <trkpt lat="47.3005" lon="-2.1952">
        <ele>21.60000038147</ele>
        <time>2022-01-23T10:01:53.000Z</time>
      </trkpt>
      <trkpt lat="47.30047" lon="-2.19528">
        <ele>21.60000038147</ele>
        <time>2022-01-23T10:01:55.000Z</time>
      </trkpt>
      <trkpt lat="47.30044" lon="-2.1953">
        <ele>21.60000038147</ele>
        <time>2022-01-23T10:01:56.000Z</time>
      </trkpt>
      <trkpt lat="47.30041" lon="-2.19526">
        <ele>21.60000038147</ele>
        <time>2022-01-23T10:01:59.000Z</time>
      </trkpt>
      <trkpt lat="47.30029" lon="-2.19522">
        <ele>21.60000038147</ele>
        <time>2022-01-23T10:02:04.000Z</time>
      </trkpt>
      <trkpt lat="47.30017" lon="-2.1953">
        <ele>21.60000038147</ele>
        <time>2022-01-23T10:02:07.000Z</time>
      </trkpt>
      <trkpt lat="47.30012" lon="-2.19533">
        <ele>21.60000038147</ele>
        <time>2022-01-23T10:02:08.000Z</time>
      </trkpt>
      <trkpt lat="47.29991" lon="-2.1955">
        <ele>21.60000038147</ele>
        <time>2022-01-23T10:02:13.000Z</time>
      </trkpt>
      <trkpt lat="47.2997" lon="-2.1957">
        <ele>21.60000038147</ele>
        <time>2022-01-23T10:02:18.000Z</time>
      </trkpt>
      <trkpt lat="47.29967" lon="-2.19575">
        <ele>21.60000038147</ele>
        <time>2022-01-23T10:02:19.000Z</time>
      </trkpt>
      <trkpt lat="47.29959" lon="-2.19584">
        <ele>21.60000038147</ele>
        <time>2022-01-23T10:02:21.000Z</time>
      </trkpt>
      <trkpt lat="47.29945" lon="-2.19602">
        <ele>21.60000038147</ele>
        <time>2022-01-23T10:02:25.000Z</time>
      </trkpt>
      <trkpt lat="47.29922" lon="-2.1963">
        <ele>21.60000038147</ele>
        <time>2022-01-23T10:02:31.000Z</time>
      </trkpt>
      <trkpt lat="47.29919" lon="-2.19636">
        <ele>21.60000038147</ele>
        <time>2022-01-23T10:02:32.000Z</time>
      </trkpt>
      <trkpt lat="47.29907" lon="-2.19651">
        <ele>21.60000038147</ele>
        <time>2022-01-23T10:02:35.000Z</time>
      </trkpt>
      <trkpt lat="47.29895" lon="-2.19667">
        <ele>21.60000038147</ele>
        <time>2022-01-23T10:02:38.000Z</time>
      </trkpt>
      <trkpt lat="47.29863" lon="-2.19702">
        <ele>21.60000038147</ele>
        <time>2022-01-23T10:02:45.000Z</time>
      </trkpt>
      <trkpt lat="47.29858" lon="-2.19705">
        <ele>21.60000038147</ele>
        <time>2022-01-23T10:02:46.000Z</time>
      </trkpt>
      <trkpt lat="47.29843" lon="-2.19711">
        <ele>21.60000038147</ele>
        <time>2022-01-23T10:02:49.000Z</time>
      </trkpt>
      <trkpt lat="47.29834" lon="-2.19713">
        <ele>21.60000038147</ele>
        <time>2022-01-23T10:02:51.000Z</time>
      </trkpt>
      <trkpt lat="47.2983" lon="-2.19715">
        <ele>21.60000038147</ele>
        <time>2022-01-23T10:02:52.000Z</time>
      </trkpt>
      <trkpt lat="47.29817" lon="-2.19719">
        <ele>21.60000038147</ele>
        <time>2022-01-23T10:02:55.000Z</time>
      </trkpt>
      <trkpt lat="47.29813" lon="-2.19722">
        <ele>21.60000038147</ele>
        <time>2022-01-23T10:02:56.000Z</time>
      </trkpt>
      <trkpt lat="47.2981" lon="-2.19734">
        <ele>21.60000038147</ele>
        <time>2022-01-23T10:02:58.000Z</time>
      </trkpt>
      <trkpt lat="47.29815" lon="-2.19754">
        <ele>21.60000038147</ele>
        <time>2022-01-23T10:03:01.000Z</time>
      </trkpt>
      <trkpt lat="47.29816" lon="-2.19768">
        <ele>21.60000038147</ele>
        <time>2022-01-23T10:03:03.000Z</time>
      </trkpt>
      <trkpt lat="47.29818" lon="-2.19798">
        <ele>21.60000038147</ele>
        <time>2022-01-23T10:03:07.000Z</time>
      </trkpt>
      <trkpt lat="47.29816" lon="-2.19853">
        <ele>21.60000038147</ele>
        <time>2022-01-23T10:03:14.000Z</time>
      </trkpt>
      <trkpt lat="47.29816" lon="-2.19883">
        <ele>21.60000038147</ele>
        <time>2022-01-23T10:03:18.000Z</time>
      </trkpt>
      <trkpt lat="47.29816" lon="-2.19905">
        <ele>21.60000038147</ele>
        <time>2022-01-23T10:03:21.000Z</time>
      </trkpt>
      <trkpt lat="47.29815" lon="-2.19934">
        <ele>21.60000038147</ele>
        <time>2022-01-23T10:03:25.000Z</time>
      </trkpt>
      <trkpt lat="47.29814" lon="-2.19948">
        <ele>22</ele>
        <time>2022-01-23T10:03:27.000Z</time>
      </trkpt>
      <trkpt lat="47.29814" lon="-2.19956">
        <ele>22.39999961853</ele>
        <time>2022-01-23T10:03:28.000Z</time>
      </trkpt>
      <trkpt lat="47.29813" lon="-2.19962">
        <ele>22.799999237061</ele>
        <time>2022-01-23T10:03:29.000Z</time>
      </trkpt>
      <trkpt lat="47.29812" lon="-2.19969">
        <ele>23.200000762939</ele>
        <time>2022-01-23T10:03:30.000Z</time>
      </trkpt>
      <trkpt lat="47.29809" lon="-2.19975">
        <ele>23.60000038147</ele>
        <time>2022-01-23T10:03:31.000Z</time>
      </trkpt>
      <trkpt lat="47.29807" lon="-2.19981">
        <ele>23.60000038147</ele>
        <time>2022-01-23T10:03:32.000Z</time>
      </trkpt>
      <trkpt lat="47.29793" lon="-2.20029">
        <ele>23.60000038147</ele>
        <time>2022-01-23T10:03:39.000Z</time>
      </trkpt>
      <trkpt lat="47.29787" lon="-2.20056">
        <ele>23.60000038147</ele>
        <time>2022-01-23T10:03:43.000Z</time>
      </trkpt>
      <trkpt lat="47.29788" lon="-2.20071">
        <ele>23.60000038147</ele>
        <time>2022-01-23T10:03:45.000Z</time>
      </trkpt>
      <trkpt lat="47.29786" lon="-2.20086">
        <ele>23.60000038147</ele>
        <time>2022-01-23T10:03:47.000Z</time>
      </trkpt>
      <trkpt lat="47.29776" lon="-2.20104">
        <ele>23.60000038147</ele>
        <time>2022-01-23T10:03:50.000Z</time>
      </trkpt>
      <trkpt lat="47.2976" lon="-2.2011">
        <ele>23.60000038147</ele>
        <time>2022-01-23T10:03:53.000Z</time>
      </trkpt>
      <trkpt lat="47.29754" lon="-2.2011">
        <ele>23.60000038147</ele>
        <time>2022-01-23T10:03:54.000Z</time>
      </trkpt>
      <trkpt lat="47.29725" lon="-2.2012">
        <ele>23.60000038147</ele>
        <time>2022-01-23T10:03:59.000Z</time>
      </trkpt>
      <trkpt lat="47.2968" lon="-2.20131">
        <ele>23.60000038147</ele>
        <time>2022-01-23T10:04:06.000Z</time>
      </trkpt>
      <trkpt lat="47.29631" lon="-2.20144">
        <ele>23.60000038147</ele>
        <time>2022-01-23T10:04:13.000Z</time>
      </trkpt>
      <trkpt lat="47.29624" lon="-2.20147">
        <ele>23.60000038147</ele>
        <time>2022-01-23T10:04:14.000Z</time>
      </trkpt>
      <trkpt lat="47.29617" lon="-2.20148">
        <ele>23.60000038147</ele>
        <time>2022-01-23T10:04:15.000Z</time>
      </trkpt>
      <trkpt lat="47.29597" lon="-2.20151">
        <ele>23.60000038147</ele>
        <time>2022-01-23T10:04:18.000Z</time>
      </trkpt>
      <trkpt lat="47.29591" lon="-2.20152">
        <ele>23.60000038147</ele>
        <time>2022-01-23T10:04:19.000Z</time>
      </trkpt>
      <trkpt lat="47.29546" lon="-2.2016">
        <ele>23.60000038147</ele>
        <time>2022-01-23T10:04:26.000Z</time>
      </trkpt>
      <trkpt lat="47.29499" lon="-2.2017">
        <ele>23.60000038147</ele>
        <time>2022-01-23T10:04:34.000Z</time>
      </trkpt>
      <trkpt lat="47.29462" lon="-2.20179">
        <ele>23.60000038147</ele>
        <time>2022-01-23T10:04:40.000Z</time>
      </trkpt>
      <trkpt lat="47.29419" lon="-2.20189">
        <ele>23.60000038147</ele>
        <time>2022-01-23T10:04:47.000Z</time>
      </trkpt>
      <trkpt lat="47.29388" lon="-2.20195">
        <ele>23.60000038147</ele>
        <time>2022-01-23T10:04:52.000Z</time>
      </trkpt>
      <trkpt lat="47.29382" lon="-2.20195">
        <ele>23.60000038147</ele>
        <time>2022-01-23T10:04:53.000Z</time>
      </trkpt>
      <trkpt lat="47.29377" lon="-2.20194">
        <ele>23.200000762939</ele>
        <time>2022-01-23T10:04:54.000Z</time>
      </trkpt>
      <trkpt lat="47.29371" lon="-2.20193">
        <ele>22.799999237061</ele>
        <time>2022-01-23T10:04:55.000Z</time>
      </trkpt>
      <trkpt lat="47.29365" lon="-2.20192">
        <ele>22.39999961853</ele>
        <time>2022-01-23T10:04:56.000Z</time>
      </trkpt>
      <trkpt lat="47.2936" lon="-2.2019">
        <ele>22</ele>
        <time>2022-01-23T10:04:57.000Z</time>
      </trkpt>
      <trkpt lat="47.29355" lon="-2.20188">
        <ele>21.60000038147</ele>
        <time>2022-01-23T10:04:58.000Z</time>
      </trkpt>
      <trkpt lat="47.29345" lon="-2.20184">
        <ele>21.60000038147</ele>
        <time>2022-01-23T10:05:00.000Z</time>
      </trkpt>
      <trkpt lat="47.29334" lon="-2.2018">
        <ele>21.60000038147</ele>
        <time>2022-01-23T10:05:02.000Z</time>
      </trkpt>
      <trkpt lat="47.29317" lon="-2.20177">
        <ele>21.60000038147</ele>
        <time>2022-01-23T10:05:05.000Z</time>
      </trkpt>
      <trkpt lat="47.29311" lon="-2.20176">
        <ele>21.60000038147</ele>
        <time>2022-01-23T10:05:06.000Z</time>
      </trkpt>
      <trkpt lat="47.29299" lon="-2.2018">
        <ele>21.60000038147</ele>
        <time>2022-01-23T10:05:08.000Z</time>
      </trkpt>
      <trkpt lat="47.29282" lon="-2.20189">
        <ele>21.60000038147</ele>
        <time>2022-01-23T10:05:11.000Z</time>
      </trkpt>
      <trkpt lat="47.29272" lon="-2.20198">
        <ele>21.60000038147</ele>
        <time>2022-01-23T10:05:13.000Z</time>
      </trkpt>
      <trkpt lat="47.2927" lon="-2.20208">
        <ele>21.60000038147</ele>
        <time>2022-01-23T10:05:14.000Z</time>
      </trkpt>
      <trkpt lat="47.29258" lon="-2.20257">
        <ele>21.60000038147</ele>
        <time>2022-01-23T10:05:20.000Z</time>
      </trkpt>
      <trkpt lat="47.29256" lon="-2.20266">
        <ele>21.60000038147</ele>
        <time>2022-01-23T10:05:21.000Z</time>
      </trkpt>
      <trkpt lat="47.29248" lon="-2.20288">
        <ele>21.60000038147</ele>
        <time>2022-01-23T10:05:24.000Z</time>
      </trkpt>
      <trkpt lat="47.29245" lon="-2.20296">
        <ele>21.60000038147</ele>
        <time>2022-01-23T10:05:25.000Z</time>
      </trkpt>
      <trkpt lat="47.29223" lon="-2.20336">
        <ele>21.60000038147</ele>
        <time>2022-01-23T10:05:31.000Z</time>
      </trkpt>
      <trkpt lat="47.29219" lon="-2.20342">
        <ele>21.60000038147</ele>
        <time>2022-01-23T10:05:32.000Z</time>
      </trkpt>
      <trkpt lat="47.29194" lon="-2.20367">
        <ele>21.60000038147</ele>
        <time>2022-01-23T10:05:37.000Z</time>
      </trkpt>
      <trkpt lat="47.29162" lon="-2.2039">
        <ele>21.60000038147</ele>
        <time>2022-01-23T10:05:43.000Z</time>
      </trkpt>
      <trkpt lat="47.29131" lon="-2.20416">
        <ele>21.60000038147</ele>
        <time>2022-01-23T10:05:49.000Z</time>
      </trkpt>
      <trkpt lat="47.29092" lon="-2.20437">
        <ele>21.60000038147</ele>
        <time>2022-01-23T10:05:56.000Z</time>
      </trkpt>
      <trkpt lat="47.29048" lon="-2.20452">
        <ele>21.60000038147</ele>
        <time>2022-01-23T10:06:03.000Z</time>
      </trkpt>
      <trkpt lat="47.28998" lon="-2.2047">
        <ele>21.60000038147</ele>
        <time>2022-01-23T10:06:11.000Z</time>
      </trkpt>
      <trkpt lat="47.28968" lon="-2.2048">
        <ele>21.60000038147</ele>
        <time>2022-01-23T10:06:17.000Z</time>
      </trkpt>
      <trkpt lat="47.28964" lon="-2.20483">
        <ele>21.60000038147</ele>
        <time>2022-01-23T10:06:21.000Z</time>
      </trkpt>
      <trkpt lat="47.2895" lon="-2.20488">
        <ele>21.60000038147</ele>
        <time>2022-01-23T10:06:25.000Z</time>
      </trkpt>
      <trkpt lat="47.28924" lon="-2.20501">
        <ele>21.60000038147</ele>
        <time>2022-01-23T10:06:31.000Z</time>
      </trkpt>
      <trkpt lat="47.28919" lon="-2.20504">
        <ele>21.60000038147</ele>
        <time>2022-01-23T10:06:32.000Z</time>
      </trkpt>
      <trkpt lat="47.28902" lon="-2.2052">
        <ele>21.60000038147</ele>
        <time>2022-01-23T10:06:36.000Z</time>
      </trkpt>
      <trkpt lat="47.28862" lon="-2.20559">
        <ele>21.60000038147</ele>
        <time>2022-01-23T10:06:45.000Z</time>
      </trkpt>
      <trkpt lat="47.28836" lon="-2.20584">
        <ele>21.60000038147</ele>
        <time>2022-01-23T10:06:52.000Z</time>
      </trkpt>
      <trkpt lat="47.28826" lon="-2.20588">
        <ele>21.60000038147</ele>
        <time>2022-01-23T10:06:55.000Z</time>
      </trkpt>
      <trkpt lat="47.28823" lon="-2.20586">
        <ele>21.60000038147</ele>
        <time>2022-01-23T10:06:56.000Z</time>
      </trkpt>
      <trkpt lat="47.28815" lon="-2.20569">
        <ele>21.60000038147</ele>
        <time>2022-01-23T10:07:00.000Z</time>
      </trkpt>
      <trkpt lat="47.28814" lon="-2.20564">
        <ele>21.60000038147</ele>
        <time>2022-01-23T10:07:01.000Z</time>
      </trkpt>
      <trkpt lat="47.28806" lon="-2.20525">
        <ele>21.60000038147</ele>
        <time>2022-01-23T10:07:08.000Z</time>
      </trkpt>
      <trkpt lat="47.288" lon="-2.20479">
        <ele>21.60000038147</ele>
        <time>2022-01-23T10:07:16.000Z</time>
      </trkpt>
      <trkpt lat="47.28797" lon="-2.20448">
        <ele>21.60000038147</ele>
        <time>2022-01-23T10:07:21.000Z</time>
      </trkpt>
      <trkpt lat="47.28796" lon="-2.20441">
        <ele>21.60000038147</ele>
        <time>2022-01-23T10:07:22.000Z</time>
      </trkpt>
      <trkpt lat="47.28795" lon="-2.20434">
        <ele>21.60000038147</ele>
        <time>2022-01-23T10:07:23.000Z</time>
      </trkpt>
      <trkpt lat="47.28792" lon="-2.204">
        <ele>21.60000038147</ele>
        <time>2022-01-23T10:07:28.000Z</time>
      </trkpt>
      <trkpt lat="47.28788" lon="-2.20354">
        <ele>21.60000038147</ele>
        <time>2022-01-23T10:07:34.000Z</time>
      </trkpt>
      <trkpt lat="47.28794" lon="-2.20326">
        <ele>21.60000038147</ele>
        <time>2022-01-23T10:07:38.000Z</time>
      </trkpt>
      <trkpt lat="47.28799" lon="-2.20314">
        <ele>21.60000038147</ele>
        <time>2022-01-23T10:07:40.000Z</time>
      </trkpt>
      <trkpt lat="47.28809" lon="-2.20293">
        <ele>21.60000038147</ele>
        <time>2022-01-23T10:07:44.000Z</time>
      </trkpt>
      <trkpt lat="47.28808" lon="-2.20282">
        <ele>21.60000038147</ele>
        <time>2022-01-23T10:07:46.000Z</time>
      </trkpt>
      <trkpt lat="47.28795" lon="-2.2027">
        <ele>21.60000038147</ele>
        <time>2022-01-23T10:07:50.000Z</time>
      </trkpt>
      <trkpt lat="47.28792" lon="-2.20266">
        <ele>21.60000038147</ele>
        <time>2022-01-23T10:07:51.000Z</time>
      </trkpt>
      <trkpt lat="47.2878" lon="-2.20255">
        <ele>21.60000038147</ele>
        <time>2022-01-23T10:07:54.000Z</time>
      </trkpt>
      <trkpt lat="47.28771" lon="-2.20249">
        <ele>21.60000038147</ele>
        <time>2022-01-23T10:07:56.000Z</time>
      </trkpt>
      <trkpt lat="47.28754" lon="-2.20251">
        <ele>21.60000038147</ele>
        <time>2022-01-23T10:07:59.000Z</time>
      </trkpt>
      <trkpt lat="47.28749" lon="-2.20253">
        <ele>21.60000038147</ele>
        <time>2022-01-23T10:08:00.000Z</time>
      </trkpt>
      <trkpt lat="47.28701" lon="-2.20266">
        <ele>21.60000038147</ele>
        <time>2022-01-23T10:08:08.000Z</time>
      </trkpt>
      <trkpt lat="47.2866" lon="-2.20276">
        <ele>21.60000038147</ele>
        <time>2022-01-23T10:08:15.000Z</time>
      </trkpt>
      <trkpt lat="47.28604" lon="-2.20288">
        <ele>21.60000038147</ele>
        <time>2022-01-23T10:08:24.000Z</time>
      </trkpt>
      <trkpt lat="47.28548" lon="-2.20301">
        <ele>21.60000038147</ele>
        <time>2022-01-23T10:08:33.000Z</time>
      </trkpt>
      <trkpt lat="47.28509" lon="-2.20314">
        <ele>21.60000038147</ele>
        <time>2022-01-23T10:08:40.000Z</time>
      </trkpt>
      <trkpt lat="47.28504" lon="-2.20315">
        <ele>21.60000038147</ele>
        <time>2022-01-23T10:08:41.000Z</time>
      </trkpt>
      <trkpt lat="47.28491" lon="-2.20315">
        <ele>21.60000038147</ele>
        <time>2022-01-23T10:08:44.000Z</time>
      </trkpt>
      <trkpt lat="47.28468" lon="-2.20316">
        <ele>21.60000038147</ele>
        <time>2022-01-23T10:08:50.000Z</time>
      </trkpt>
      <trkpt lat="47.28461" lon="-2.20317">
        <ele>21.60000038147</ele>
        <time>2022-01-23T10:08:52.000Z</time>
      </trkpt>
      <trkpt lat="47.28456" lon="-2.20311">
        <ele>21.60000038147</ele>
        <time>2022-01-23T10:08:54.000Z</time>
      </trkpt>
      <trkpt lat="47.28454" lon="-2.20289">
        <ele>21.60000038147</ele>
        <time>2022-01-23T10:08:58.000Z</time>
      </trkpt>
      <trkpt lat="47.2845" lon="-2.20251">
        <ele>21.60000038147</ele>
        <time>2022-01-23T10:09:04.000Z</time>
      </trkpt>
      <trkpt lat="47.28448" lon="-2.20232">
        <ele>21.60000038147</ele>
        <time>2022-01-23T10:09:07.000Z</time>
      </trkpt>
      <trkpt lat="47.28446" lon="-2.20215">
        <ele>21.60000038147</ele>
        <time>2022-01-23T10:09:10.000Z</time>
      </trkpt>
      <trkpt lat="47.28442" lon="-2.20207">
        <ele>21.60000038147</ele>
        <time>2022-01-23T10:09:12.000Z</time>
      </trkpt>
      <trkpt lat="47.28439" lon="-2.20205">
        <ele>21.60000038147</ele>
        <time>2022-01-23T10:09:13.000Z</time>
      </trkpt>
      <trkpt lat="47.28428" lon="-2.20192">
        <ele>21.60000038147</ele>
        <time>2022-01-23T10:09:17.000Z</time>
      </trkpt>
      <trkpt lat="47.28421" lon="-2.20167">
        <ele>21.60000038147</ele>
        <time>2022-01-23T10:09:22.000Z</time>
      </trkpt>
      <trkpt lat="47.28415" lon="-2.20153">
        <ele>21.60000038147</ele>
        <time>2022-01-23T10:09:25.000Z</time>
      </trkpt>
      <trkpt lat="47.28411" lon="-2.20152">
        <ele>21.60000038147</ele>
        <time>2022-01-23T10:09:26.000Z</time>
      </trkpt>
      <trkpt lat="47.28398" lon="-2.20154">
        <ele>21.60000038147</ele>
        <time>2022-01-23T10:09:29.000Z</time>
      </trkpt>
      <trkpt lat="47.28393" lon="-2.20156">
        <ele>21.60000038147</ele>
        <time>2022-01-23T10:09:30.000Z</time>
      </trkpt>
      <trkpt lat="47.28382" lon="-2.20159">
        <ele>21.60000038147</ele>
        <time>2022-01-23T10:09:32.000Z</time>
      </trkpt>
      <trkpt lat="47.28364" lon="-2.20161">
        <ele>21.60000038147</ele>
        <time>2022-01-23T10:09:35.000Z</time>
      </trkpt>
      <trkpt lat="47.28319" lon="-2.20172">
        <ele>21.60000038147</ele>
        <time>2022-01-23T10:09:42.000Z</time>
      </trkpt>
      <trkpt lat="47.28277" lon="-2.20187">
        <ele>21.60000038147</ele>
        <time>2022-01-23T10:09:49.000Z</time>
      </trkpt>
      <trkpt lat="47.28241" lon="-2.202">
        <ele>21.60000038147</ele>
        <time>2022-01-23T10:09:56.000Z</time>
      </trkpt>
      <trkpt lat="47.28206" lon="-2.20211">
        <ele>21.60000038147</ele>
        <time>2022-01-23T10:10:03.000Z</time>
      </trkpt>
      <trkpt lat="47.28166" lon="-2.20225">
        <ele>21.60000038147</ele>
        <time>2022-01-23T10:10:11.000Z</time>
      </trkpt>
      <trkpt lat="47.28144" lon="-2.2023">
        <ele>21.60000038147</ele>
        <time>2022-01-23T10:10:15.000Z</time>
      </trkpt>
      <trkpt lat="47.28132" lon="-2.20229">
        <ele>21.60000038147</ele>
        <time>2022-01-23T10:10:17.000Z</time>
      </trkpt>
      <trkpt lat="47.28104" lon="-2.20233">
        <ele>21.60000038147</ele>
        <time>2022-01-23T10:10:22.000Z</time>
      </trkpt>
      <trkpt lat="47.2805" lon="-2.20246">
        <ele>22</ele>
        <time>2022-01-23T10:10:32.000Z</time>
      </trkpt>
      <trkpt lat="47.28045" lon="-2.20248">
        <ele>23</ele>
        <time>2022-01-23T10:10:33.000Z</time>
      </trkpt>
      <trkpt lat="47.28039" lon="-2.20248">
        <ele>23.39999961853</ele>
        <time>2022-01-23T10:10:34.000Z</time>
      </trkpt>
      <trkpt lat="47.28033" lon="-2.2025">
        <ele>23.799999237061</ele>
        <time>2022-01-23T10:10:35.000Z</time>
      </trkpt>
      <trkpt lat="47.28013" lon="-2.20257">
        <ele>23.799999237061</ele>
        <time>2022-01-23T10:10:39.000Z</time>
      </trkpt>
      <trkpt lat="47.27975" lon="-2.20265">
        <ele>23.799999237061</ele>
        <time>2022-01-23T10:10:47.000Z</time>
      </trkpt>
      <trkpt lat="47.27951" lon="-2.2027">
        <ele>23.799999237061</ele>
        <time>2022-01-23T10:10:53.000Z</time>
      </trkpt>
      <trkpt lat="47.27917" lon="-2.20281">
        <ele>23.799999237061</ele>
        <time>2022-01-23T10:11:00.000Z</time>
      </trkpt>
      <trkpt lat="47.2788" lon="-2.20289">
        <ele>23.799999237061</ele>
        <time>2022-01-23T10:11:07.000Z</time>
      </trkpt>
      <trkpt lat="47.27839" lon="-2.203">
        <ele>23.799999237061</ele>
        <time>2022-01-23T10:11:15.000Z</time>
      </trkpt>
      <trkpt lat="47.27801" lon="-2.20308">
        <ele>23.799999237061</ele>
        <time>2022-01-23T10:11:22.000Z</time>
      </trkpt>
      <trkpt lat="47.27767" lon="-2.20317">
        <ele>23.799999237061</ele>
        <time>2022-01-23T10:11:28.000Z</time>
      </trkpt>
      <trkpt lat="47.27729" lon="-2.20329">
        <ele>23.799999237061</ele>
        <time>2022-01-23T10:11:35.000Z</time>
      </trkpt>
      <trkpt lat="47.27682" lon="-2.2034">
        <ele>23.799999237061</ele>
        <time>2022-01-23T10:11:43.000Z</time>
      </trkpt>
      <trkpt lat="47.27648" lon="-2.20346">
        <ele>23.799999237061</ele>
        <time>2022-01-23T10:11:49.000Z</time>
      </trkpt>
      <trkpt lat="47.27615" lon="-2.20357">
        <ele>23.799999237061</ele>
        <time>2022-01-23T10:11:55.000Z</time>
      </trkpt>
      <trkpt lat="47.2758" lon="-2.20368">
        <ele>23.799999237061</ele>
        <time>2022-01-23T10:12:01.000Z</time>
      </trkpt>
      <trkpt lat="47.27542" lon="-2.20379">
        <ele>23.799999237061</ele>
        <time>2022-01-23T10:12:07.000Z</time>
      </trkpt>
      <trkpt lat="47.27536" lon="-2.20381">
        <ele>23.799999237061</ele>
        <time>2022-01-23T10:12:08.000Z</time>
      </trkpt>
      <trkpt lat="47.27491" lon="-2.20392">
        <ele>23.799999237061</ele>
        <time>2022-01-23T10:12:15.000Z</time>
      </trkpt>
      <trkpt lat="47.27479" lon="-2.20394">
        <ele>23.799999237061</ele>
        <time>2022-01-23T10:12:17.000Z</time>
      </trkpt>
      <trkpt lat="47.27469" lon="-2.20392">
        <ele>23.799999237061</ele>
        <time>2022-01-23T10:12:19.000Z</time>
      </trkpt>
      <trkpt lat="47.27458" lon="-2.2038">
        <ele>23.799999237061</ele>
        <time>2022-01-23T10:12:22.000Z</time>
      </trkpt>
      <trkpt lat="47.27455" lon="-2.20355">
        <ele>23.799999237061</ele>
        <time>2022-01-23T10:12:26.000Z</time>
      </trkpt>
      <trkpt lat="47.27455" lon="-2.20343">
        <ele>23.799999237061</ele>
        <time>2022-01-23T10:12:28.000Z</time>
      </trkpt>
      <trkpt lat="47.27453" lon="-2.20323">
        <ele>23.799999237061</ele>
        <time>2022-01-23T10:12:32.000Z</time>
      </trkpt>
      <trkpt lat="47.27451" lon="-2.20295">
        <ele>23.799999237061</ele>
        <time>2022-01-23T10:12:39.000Z</time>
      </trkpt>
      <trkpt lat="47.27448" lon="-2.20277">
        <ele>23.799999237061</ele>
        <time>2022-01-23T10:12:46.000Z</time>
      </trkpt>
      <trkpt lat="47.27446" lon="-2.20274">
        <ele>23.799999237061</ele>
        <time>2022-01-23T10:12:48.000Z</time>
      </trkpt>
      <trkpt lat="47.2744" lon="-2.20273">
        <ele>23.799999237061</ele>
        <time>2022-01-23T10:12:51.000Z</time>
      </trkpt>
      <trkpt lat="47.27427" lon="-2.2027">
        <ele>23.799999237061</ele>
        <time>2022-01-23T10:12:58.000Z</time>
      </trkpt>
      <trkpt lat="47.27416" lon="-2.20268">
        <ele>23.799999237061</ele>
        <time>2022-01-23T10:13:05.000Z</time>
      </trkpt>
      <trkpt lat="47.27404" lon="-2.20263">
        <ele>23.799999237061</ele>
        <time>2022-01-23T10:13:13.000Z</time>
      </trkpt>
      <trkpt lat="47.27403" lon="-2.20264">
        <ele>23.799999237061</ele>
        <time>2022-01-23T10:13:14.000Z</time>
      </trkpt>
      <trkpt lat="47.27396" lon="-2.20266">
        <ele>23.799999237061</ele>
        <time>2022-01-23T10:13:18.000Z</time>
      </trkpt>
      <trkpt lat="47.27382" lon="-2.2027">
        <ele>23.799999237061</ele>
        <time>2022-01-23T10:13:26.000Z</time>
      </trkpt>
      <trkpt lat="47.27368" lon="-2.20269">
        <ele>23.799999237061</ele>
        <time>2022-01-23T10:13:33.000Z</time>
      </trkpt>
      <trkpt lat="47.27355" lon="-2.20272">
        <ele>23.799999237061</ele>
        <time>2022-01-23T10:13:41.000Z</time>
      </trkpt>
      <trkpt lat="47.27342" lon="-2.20277">
        <ele>23.799999237061</ele>
        <time>2022-01-23T10:13:48.000Z</time>
      </trkpt>
      <trkpt lat="47.27329" lon="-2.20281">
        <ele>23.799999237061</ele>
        <time>2022-01-23T10:13:55.000Z</time>
      </trkpt>
      <trkpt lat="47.27324" lon="-2.20283">
        <ele>23.799999237061</ele>
        <time>2022-01-23T10:13:59.000Z</time>
      </trkpt>
      <trkpt lat="47.27321" lon="-2.20282">
        <ele>23.799999237061</ele>
        <time>2022-01-23T10:14:01.000Z</time>
      </trkpt>
      <trkpt lat="47.27318" lon="-2.20278">
        <ele>23.799999237061</ele>
        <time>2022-01-23T10:14:03.000Z</time>
      </trkpt>
      <trkpt lat="47.27313" lon="-2.20274">
        <ele>23.799999237061</ele>
        <time>2022-01-23T10:14:06.000Z</time>
      </trkpt>
      <trkpt lat="47.27311" lon="-2.20273">
        <ele>23.799999237061</ele>
        <time>2022-01-23T10:14:07.000Z</time>
      </trkpt>
      <trkpt lat="47.27307" lon="-2.2027">
        <ele>23.799999237061</ele>
        <time>2022-01-23T10:14:10.000Z</time>
      </trkpt>
      <trkpt lat="47.27305" lon="-2.20265">
        <ele>23.799999237061</ele>
        <time>2022-01-23T10:14:13.000Z</time>
      </trkpt>
      <trkpt lat="47.27304" lon="-2.20261">
        <ele>23.799999237061</ele>
        <time>2022-01-23T10:14:15.000Z</time>
      </trkpt>
      <trkpt lat="47.27301" lon="-2.20248">
        <ele>23.799999237061</ele>
        <time>2022-01-23T10:14:21.000Z</time>
      </trkpt>
      <trkpt lat="47.27299" lon="-2.20233">
        <ele>23.799999237061</ele>
        <time>2022-01-23T10:14:28.000Z</time>
      </trkpt>
      <trkpt lat="47.27293" lon="-2.20223">
        <ele>23.799999237061</ele>
        <time>2022-01-23T10:14:34.000Z</time>
      </trkpt>
      <trkpt lat="47.27292" lon="-2.20224">
        <ele>23.799999237061</ele>
        <time>2022-01-23T10:14:35.000Z</time>
      </trkpt>
      <trkpt lat="47.27285" lon="-2.20229">
        <ele>23.799999237061</ele>
        <time>2022-01-23T10:14:40.000Z</time>
      </trkpt>
      <trkpt lat="47.27275" lon="-2.20229">
        <ele>23.799999237061</ele>
        <time>2022-01-23T10:14:44.000Z</time>
      </trkpt>
      <trkpt lat="47.27272" lon="-2.20229">
        <ele>23.799999237061</ele>
        <time>2022-01-23T10:14:45.000Z</time>
      </trkpt>
      <trkpt lat="47.2726" lon="-2.20232">
        <ele>23.799999237061</ele>
        <time>2022-01-23T10:14:49.000Z</time>
      </trkpt>
      <trkpt lat="47.27241" lon="-2.20235">
        <ele>23.799999237061</ele>
        <time>2022-01-23T10:14:55.000Z</time>
      </trkpt>
      <trkpt lat="47.27225" lon="-2.2024">
        <ele>23.799999237061</ele>
        <time>2022-01-23T10:15:00.000Z</time>
      </trkpt>
      <trkpt lat="47.27197" lon="-2.20246">
        <ele>23.799999237061</ele>
        <time>2022-01-23T10:15:07.000Z</time>
      </trkpt>
      <trkpt lat="47.27174" lon="-2.20249">
        <ele>23.799999237061</ele>
        <time>2022-01-23T10:15:13.000Z</time>
      </trkpt>
      <trkpt lat="47.27142" lon="-2.20255">
        <ele>23.799999237061</ele>
        <time>2022-01-23T10:15:20.000Z</time>
      </trkpt>
      <trkpt lat="47.27113" lon="-2.20265">
        <ele>23.799999237061</ele>
        <time>2022-01-23T10:15:27.000Z</time>
      </trkpt>
      <trkpt lat="47.27108" lon="-2.20283">
        <ele>23.799999237061</ele>
        <time>2022-01-23T10:15:30.000Z</time>
      </trkpt>
      <trkpt lat="47.27109" lon="-2.2029">
        <ele>24.200000762939</ele>
        <time>2022-01-23T10:15:31.000Z</time>
      </trkpt>
      <trkpt lat="47.2711" lon="-2.20296">
        <ele>24.60000038147</ele>
        <time>2022-01-23T10:15:32.000Z</time>
      </trkpt>
      <trkpt lat="47.27112" lon="-2.20303">
        <ele>25</ele>
        <time>2022-01-23T10:15:33.000Z</time>
      </trkpt>
      <trkpt lat="47.27114" lon="-2.2031">
        <ele>25.39999961853</ele>
        <time>2022-01-23T10:15:34.000Z</time>
      </trkpt>
      <trkpt lat="47.27115" lon="-2.20317">
        <ele>25.799999237061</ele>
        <time>2022-01-23T10:15:35.000Z</time>
      </trkpt>
      <trkpt lat="47.27119" lon="-2.20343">
        <ele>25.799999237061</ele>
        <time>2022-01-23T10:15:39.000Z</time>
      </trkpt>
      <trkpt lat="47.27117" lon="-2.20355">
        <ele>25.799999237061</ele>
        <time>2022-01-23T10:15:41.000Z</time>
      </trkpt>
      <trkpt lat="47.27118" lon="-2.20381">
        <ele>25.799999237061</ele>
        <time>2022-01-23T10:15:45.000Z</time>
      </trkpt>
      <trkpt lat="47.27128" lon="-2.20421">
        <ele>25.799999237061</ele>
        <time>2022-01-23T10:15:51.000Z</time>
      </trkpt>
      <trkpt lat="47.27139" lon="-2.20446">
        <ele>25.799999237061</ele>
        <time>2022-01-23T10:15:55.000Z</time>
      </trkpt>
      <trkpt lat="47.27143" lon="-2.20452">
        <ele>25.799999237061</ele>
        <time>2022-01-23T10:15:56.000Z</time>
      </trkpt>
      <trkpt lat="47.27145" lon="-2.20458">
        <ele>25.799999237061</ele>
        <time>2022-01-23T10:15:57.000Z</time>
      </trkpt>
      <trkpt lat="47.27147" lon="-2.20479">
        <ele>25.799999237061</ele>
        <time>2022-01-23T10:16:00.000Z</time>
      </trkpt>
      <trkpt lat="47.27146" lon="-2.20486">
        <ele>25.799999237061</ele>
        <time>2022-01-23T10:16:01.000Z</time>
      </trkpt>
      <trkpt lat="47.27141" lon="-2.2054">
        <ele>25.799999237061</ele>
        <time>2022-01-23T10:16:08.000Z</time>
      </trkpt>
      <trkpt lat="47.27141" lon="-2.20547">
        <ele>25.799999237061</ele>
        <time>2022-01-23T10:16:09.000Z</time>
      </trkpt>
      <trkpt lat="47.2714" lon="-2.20569">
        <ele>25.799999237061</ele>
        <time>2022-01-23T10:16:12.000Z</time>
      </trkpt>
      <trkpt lat="47.27139" lon="-2.20584">
        <ele>25.799999237061</ele>
        <time>2022-01-23T10:16:14.000Z</time>
      </trkpt>
      <trkpt lat="47.27139" lon="-2.20591">
        <ele>25.799999237061</ele>
        <time>2022-01-23T10:16:15.000Z</time>
      </trkpt>
      <trkpt lat="47.27135" lon="-2.20619">
        <ele>25.799999237061</ele>
        <time>2022-01-23T10:16:19.000Z</time>
      </trkpt>
      <trkpt lat="47.27129" lon="-2.20661">
        <ele>25.799999237061</ele>
        <time>2022-01-23T10:16:25.000Z</time>
      </trkpt>
      <trkpt lat="47.27127" lon="-2.20675">
        <ele>25.799999237061</ele>
        <time>2022-01-23T10:16:27.000Z</time>
      </trkpt>
      <trkpt lat="47.27123" lon="-2.20704">
        <ele>25.799999237061</ele>
        <time>2022-01-23T10:16:31.000Z</time>
      </trkpt>
      <trkpt lat="47.27114" lon="-2.20763">
        <ele>25.799999237061</ele>
        <time>2022-01-23T10:16:39.000Z</time>
      </trkpt>
      <trkpt lat="47.27108" lon="-2.20804">
        <ele>25.799999237061</ele>
        <time>2022-01-23T10:16:45.000Z</time>
      </trkpt>
      <trkpt lat="47.27106" lon="-2.20825">
        <ele>25.799999237061</ele>
        <time>2022-01-23T10:16:48.000Z</time>
      </trkpt>
      <trkpt lat="47.27104" lon="-2.20847">
        <ele>25.799999237061</ele>
        <time>2022-01-23T10:16:51.000Z</time>
      </trkpt>
      <trkpt lat="47.27096" lon="-2.20883">
        <ele>25.799999237061</ele>
        <time>2022-01-23T10:16:56.000Z</time>
      </trkpt>
      <trkpt lat="47.27079" lon="-2.20936">
        <ele>25.799999237061</ele>
        <time>2022-01-23T10:17:03.000Z</time>
      </trkpt>
      <trkpt lat="47.27063" lon="-2.20981">
        <ele>25.799999237061</ele>
        <time>2022-01-23T10:17:09.000Z</time>
      </trkpt>
      <trkpt lat="47.27046" lon="-2.21026">
        <ele>25.799999237061</ele>
        <time>2022-01-23T10:17:15.000Z</time>
      </trkpt>
      <trkpt lat="47.27029" lon="-2.21076">
        <ele>25.799999237061</ele>
        <time>2022-01-23T10:17:22.000Z</time>
      </trkpt>
      <trkpt lat="47.27016" lon="-2.2112">
        <ele>25.799999237061</ele>
        <time>2022-01-23T10:17:28.000Z</time>
      </trkpt>
      <trkpt lat="47.27003" lon="-2.21155">
        <ele>25.799999237061</ele>
        <time>2022-01-23T10:17:33.000Z</time>
      </trkpt>
      <trkpt lat="47.26996" lon="-2.21168">
        <ele>25.799999237061</ele>
        <time>2022-01-23T10:17:35.000Z</time>
      </trkpt>
      <trkpt lat="47.26986" lon="-2.21187">
        <ele>25.799999237061</ele>
        <time>2022-01-23T10:17:38.000Z</time>
      </trkpt>
      <trkpt lat="47.26978" lon="-2.21197">
        <ele>25.799999237061</ele>
        <time>2022-01-23T10:17:40.000Z</time>
      </trkpt>
      <trkpt lat="47.26949" lon="-2.21241">
        <ele>25.799999237061</ele>
        <time>2022-01-23T10:17:48.000Z</time>
      </trkpt>
      <trkpt lat="47.26942" lon="-2.21252">
        <ele>25.799999237061</ele>
        <time>2022-01-23T10:17:50.000Z</time>
      </trkpt>
      <trkpt lat="47.26928" lon="-2.21275">
        <ele>25.799999237061</ele>
        <time>2022-01-23T10:17:54.000Z</time>
      </trkpt>
      <trkpt lat="47.26909" lon="-2.21303">
        <ele>25.799999237061</ele>
        <time>2022-01-23T10:17:59.000Z</time>
      </trkpt>
      <trkpt lat="47.26907" lon="-2.2131">
        <ele>25.799999237061</ele>
        <time>2022-01-23T10:18:00.000Z</time>
      </trkpt>
      <trkpt lat="47.26898" lon="-2.21353">
        <ele>25.799999237061</ele>
        <time>2022-01-23T10:18:06.000Z</time>
      </trkpt>
      <trkpt lat="47.26889" lon="-2.21406">
        <ele>25.799999237061</ele>
        <time>2022-01-23T10:18:13.000Z</time>
      </trkpt>
      <trkpt lat="47.26876" lon="-2.21474">
        <ele>25.799999237061</ele>
        <time>2022-01-23T10:18:22.000Z</time>
      </trkpt>
      <trkpt lat="47.26874" lon="-2.21482">
        <ele>26.200000762939</ele>
        <time>2022-01-23T10:18:23.000Z</time>
      </trkpt>
      <trkpt lat="47.26872" lon="-2.2149">
        <ele>26.60000038147</ele>
        <time>2022-01-23T10:18:24.000Z</time>
      </trkpt>
      <trkpt lat="47.26871" lon="-2.21498">
        <ele>27</ele>
        <time>2022-01-23T10:18:25.000Z</time>
      </trkpt>
      <trkpt lat="47.2687" lon="-2.21505">
        <ele>27.39999961853</ele>
        <time>2022-01-23T10:18:26.000Z</time>
      </trkpt>
      <trkpt lat="47.26868" lon="-2.21513">
        <ele>27.799999237061</ele>
        <time>2022-01-23T10:18:27.000Z</time>
      </trkpt>
      <trkpt lat="47.26865" lon="-2.21529">
        <ele>27.799999237061</ele>
        <time>2022-01-23T10:18:29.000Z</time>
      </trkpt>
      <trkpt lat="47.26855" lon="-2.21581">
        <ele>27.799999237061</ele>
        <time>2022-01-23T10:18:36.000Z</time>
      </trkpt>
      <trkpt lat="47.26851" lon="-2.21596">
        <ele>27.799999237061</ele>
        <time>2022-01-23T10:18:38.000Z</time>
      </trkpt>
      <trkpt lat="47.26843" lon="-2.21641">
        <ele>27.799999237061</ele>
        <time>2022-01-23T10:18:44.000Z</time>
      </trkpt>
      <trkpt lat="47.26835" lon="-2.21695">
        <ele>27.799999237061</ele>
        <time>2022-01-23T10:18:51.000Z</time>
      </trkpt>
      <trkpt lat="47.26823" lon="-2.21742">
        <ele>27.799999237061</ele>
        <time>2022-01-23T10:18:57.000Z</time>
      </trkpt>
      <trkpt lat="47.26811" lon="-2.21789">
        <ele>27.799999237061</ele>
        <time>2022-01-23T10:19:03.000Z</time>
      </trkpt>
      <trkpt lat="47.26808" lon="-2.21805">
        <ele>27.799999237061</ele>
        <time>2022-01-23T10:19:05.000Z</time>
      </trkpt>
      <trkpt lat="47.26801" lon="-2.21826">
        <ele>27.799999237061</ele>
        <time>2022-01-23T10:19:08.000Z</time>
      </trkpt>
      <trkpt lat="47.26799" lon="-2.21833">
        <ele>27.799999237061</ele>
        <time>2022-01-23T10:19:09.000Z</time>
      </trkpt>
      <trkpt lat="47.26795" lon="-2.21856">
        <ele>27.799999237061</ele>
        <time>2022-01-23T10:19:12.000Z</time>
      </trkpt>
      <trkpt lat="47.26784" lon="-2.21902">
        <ele>27.799999237061</ele>
        <time>2022-01-23T10:19:18.000Z</time>
      </trkpt>
      <trkpt lat="47.26765" lon="-2.21967">
        <ele>27.799999237061</ele>
        <time>2022-01-23T10:19:26.000Z</time>
      </trkpt>
      <trkpt lat="47.26753" lon="-2.22007">
        <ele>27.39999961853</ele>
        <time>2022-01-23T10:19:31.000Z</time>
      </trkpt>
      <trkpt lat="47.2675" lon="-2.22016">
        <ele>27</ele>
        <time>2022-01-23T10:19:32.000Z</time>
      </trkpt>
      <trkpt lat="47.26748" lon="-2.22024">
        <ele>26.60000038147</ele>
        <time>2022-01-23T10:19:33.000Z</time>
      </trkpt>
      <trkpt lat="47.26746" lon="-2.22033">
        <ele>26.200000762939</ele>
        <time>2022-01-23T10:19:34.000Z</time>
      </trkpt>
      <trkpt lat="47.26743" lon="-2.22042">
        <ele>25.799999237061</ele>
        <time>2022-01-23T10:19:35.000Z</time>
      </trkpt>
      <trkpt lat="47.26731" lon="-2.22075">
        <ele>25.799999237061</ele>
        <time>2022-01-23T10:19:39.000Z</time>
      </trkpt>
      <trkpt lat="47.26706" lon="-2.22132">
        <ele>25.799999237061</ele>
        <time>2022-01-23T10:19:46.000Z</time>
      </trkpt>
      <trkpt lat="47.26694" lon="-2.22154">
        <ele>25.799999237061</ele>
        <time>2022-01-23T10:19:49.000Z</time>
      </trkpt>
      <trkpt lat="47.26683" lon="-2.22176">
        <ele>25.799999237061</ele>
        <time>2022-01-23T10:19:52.000Z</time>
      </trkpt>
      <trkpt lat="47.26666" lon="-2.22203">
        <ele>25.799999237061</ele>
        <time>2022-01-23T10:19:56.000Z</time>
      </trkpt>
      <trkpt lat="47.26658" lon="-2.22216">
        <ele>25.799999237061</ele>
        <time>2022-01-23T10:19:58.000Z</time>
      </trkpt>
      <trkpt lat="47.2665" lon="-2.22231">
        <ele>25.799999237061</ele>
        <time>2022-01-23T10:20:00.000Z</time>
      </trkpt>
      <trkpt lat="47.26642" lon="-2.22255">
        <ele>25.799999237061</ele>
        <time>2022-01-23T10:20:03.000Z</time>
      </trkpt>
      <trkpt lat="47.26623" lon="-2.22291">
        <ele>25.799999237061</ele>
        <time>2022-01-23T10:20:08.000Z</time>
      </trkpt>
      <trkpt lat="47.26595" lon="-2.22341">
        <ele>25.799999237061</ele>
        <time>2022-01-23T10:20:15.000Z</time>
      </trkpt>
      <trkpt lat="47.26568" lon="-2.22393">
        <ele>25.799999237061</ele>
        <time>2022-01-23T10:20:22.000Z</time>
      </trkpt>
      <trkpt lat="47.2656" lon="-2.22408">
        <ele>25.799999237061</ele>
        <time>2022-01-23T10:20:24.000Z</time>
      </trkpt>
      <trkpt lat="47.2655" lon="-2.22429">
        <ele>25.799999237061</ele>
        <time>2022-01-23T10:20:27.000Z</time>
      </trkpt>
      <trkpt lat="47.26537" lon="-2.22448">
        <ele>25.799999237061</ele>
        <time>2022-01-23T10:20:30.000Z</time>
      </trkpt>
      <trkpt lat="47.26533" lon="-2.22454">
        <ele>25.799999237061</ele>
        <time>2022-01-23T10:20:31.000Z</time>
      </trkpt>
      <trkpt lat="47.26508" lon="-2.22492">
        <ele>25.799999237061</ele>
        <time>2022-01-23T10:20:37.000Z</time>
      </trkpt>
      <trkpt lat="47.26503" lon="-2.22496">
        <ele>25.799999237061</ele>
        <time>2022-01-23T10:20:38.000Z</time>
      </trkpt>
      <trkpt lat="47.26485" lon="-2.22507">
        <ele>25.799999237061</ele>
        <time>2022-01-23T10:20:41.000Z</time>
      </trkpt>
      <trkpt lat="47.26479" lon="-2.2251">
        <ele>25.799999237061</ele>
        <time>2022-01-23T10:20:42.000Z</time>
      </trkpt>
      <trkpt lat="47.26441" lon="-2.22523">
        <ele>25.799999237061</ele>
        <time>2022-01-23T10:20:48.000Z</time>
      </trkpt>
      <trkpt lat="47.26404" lon="-2.22535">
        <ele>25.799999237061</ele>
        <time>2022-01-23T10:20:54.000Z</time>
      </trkpt>
      <trkpt lat="47.26365" lon="-2.22539">
        <ele>25.799999237061</ele>
        <time>2022-01-23T10:21:00.000Z</time>
      </trkpt>
      <trkpt lat="47.26359" lon="-2.22539">
        <ele>25.799999237061</ele>
        <time>2022-01-23T10:21:01.000Z</time>
      </trkpt>
      <trkpt lat="47.26332" lon="-2.22534">
        <ele>25.799999237061</ele>
        <time>2022-01-23T10:21:05.000Z</time>
      </trkpt>
      <trkpt lat="47.26294" lon="-2.22521">
        <ele>25.799999237061</ele>
        <time>2022-01-23T10:21:11.000Z</time>
      </trkpt>
      <trkpt lat="47.26253" lon="-2.22499">
        <ele>25.799999237061</ele>
        <time>2022-01-23T10:21:18.000Z</time>
      </trkpt>
      <trkpt lat="47.26242" lon="-2.22492">
        <ele>25.799999237061</ele>
        <time>2022-01-23T10:21:20.000Z</time>
      </trkpt>
      <trkpt lat="47.26221" lon="-2.22473">
        <ele>25.799999237061</ele>
        <time>2022-01-23T10:21:24.000Z</time>
      </trkpt>
      <trkpt lat="47.26215" lon="-2.2247">
        <ele>25.799999237061</ele>
        <time>2022-01-23T10:21:25.000Z</time>
      </trkpt>
      <trkpt lat="47.26191" lon="-2.22461">
        <ele>25.799999237061</ele>
        <time>2022-01-23T10:21:29.000Z</time>
      </trkpt>
      <trkpt lat="47.2615" lon="-2.22458">
        <ele>25.799999237061</ele>
        <time>2022-01-23T10:21:36.000Z</time>
      </trkpt>
      <trkpt lat="47.26121" lon="-2.22453">
        <ele>25.799999237061</ele>
        <time>2022-01-23T10:21:41.000Z</time>
      </trkpt>
      <trkpt lat="47.26088" lon="-2.22442">
        <ele>25.799999237061</ele>
        <time>2022-01-23T10:21:47.000Z</time>
      </trkpt>
      <trkpt lat="47.26082" lon="-2.22439">
        <ele>25.799999237061</ele>
        <time>2022-01-23T10:21:48.000Z</time>
      </trkpt>
      <trkpt lat="47.26061" lon="-2.22424">
        <ele>25.799999237061</ele>
        <time>2022-01-23T10:21:52.000Z</time>
      </trkpt>
      <trkpt lat="47.26052" lon="-2.22413">
        <ele>25.799999237061</ele>
        <time>2022-01-23T10:21:54.000Z</time>
      </trkpt>
      <trkpt lat="47.26038" lon="-2.22398">
        <ele>25.799999237061</ele>
        <time>2022-01-23T10:21:57.000Z</time>
      </trkpt>
      <trkpt lat="47.26033" lon="-2.22393">
        <ele>25.799999237061</ele>
        <time>2022-01-23T10:21:58.000Z</time>
      </trkpt>
      <trkpt lat="47.26011" lon="-2.22383">
        <ele>25.799999237061</ele>
        <time>2022-01-23T10:22:02.000Z</time>
      </trkpt>
      <trkpt lat="47.25994" lon="-2.22381">
        <ele>25.799999237061</ele>
        <time>2022-01-23T10:22:05.000Z</time>
      </trkpt>
      <trkpt lat="47.25983" lon="-2.22378">
        <ele>25.799999237061</ele>
        <time>2022-01-23T10:22:07.000Z</time>
      </trkpt>
      <trkpt lat="47.25966" lon="-2.22372">
        <ele>25.799999237061</ele>
        <time>2022-01-23T10:22:10.000Z</time>
      </trkpt>
      <trkpt lat="47.2595" lon="-2.22362">
        <ele>25.799999237061</ele>
        <time>2022-01-23T10:22:13.000Z</time>
      </trkpt>
      <trkpt lat="47.25932" lon="-2.22348">
        <ele>25.799999237061</ele>
        <time>2022-01-23T10:22:17.000Z</time>
      </trkpt>
      <trkpt lat="47.25917" lon="-2.22338">
        <ele>25.799999237061</ele>
        <time>2022-01-23T10:22:20.000Z</time>
      </trkpt>
      <trkpt lat="47.25882" lon="-2.22319">
        <ele>25.799999237061</ele>
        <time>2022-01-23T10:22:27.000Z</time>
      </trkpt>
      <trkpt lat="47.25862" lon="-2.22324">
        <ele>25.799999237061</ele>
        <time>2022-01-23T10:22:31.000Z</time>
      </trkpt>
      <trkpt lat="47.25851" lon="-2.22342">
        <ele>26.200000762939</ele>
        <time>2022-01-23T10:22:34.000Z</time>
      </trkpt>
      <trkpt lat="47.25848" lon="-2.2235">
        <ele>26.60000038147</ele>
        <time>2022-01-23T10:22:35.000Z</time>
      </trkpt>
      <trkpt lat="47.25846" lon="-2.22357">
        <ele>27</ele>
        <time>2022-01-23T10:22:36.000Z</time>
      </trkpt>
      <trkpt lat="47.25843" lon="-2.22364">
        <ele>27.39999961853</ele>
        <time>2022-01-23T10:22:37.000Z</time>
      </trkpt>
      <trkpt lat="47.25841" lon="-2.22372">
        <ele>27.799999237061</ele>
        <time>2022-01-23T10:22:38.000Z</time>
      </trkpt>
      <trkpt lat="47.25831" lon="-2.22403">
        <ele>27.799999237061</ele>
        <time>2022-01-23T10:22:42.000Z</time>
      </trkpt>
      <trkpt lat="47.25829" lon="-2.22411">
        <ele>27.799999237061</ele>
        <time>2022-01-23T10:22:43.000Z</time>
      </trkpt>
      <trkpt lat="47.2582" lon="-2.22451">
        <ele>27.799999237061</ele>
        <time>2022-01-23T10:22:48.000Z</time>
      </trkpt>
      <trkpt lat="47.25809" lon="-2.22509">
        <ele>27.799999237061</ele>
        <time>2022-01-23T10:22:55.000Z</time>
      </trkpt>
      <trkpt lat="47.25804" lon="-2.22558">
        <ele>27.799999237061</ele>
        <time>2022-01-23T10:23:01.000Z</time>
      </trkpt>
      <trkpt lat="47.25798" lon="-2.22633">
        <ele>27.799999237061</ele>
        <time>2022-01-23T10:23:10.000Z</time>
      </trkpt>
      <trkpt lat="47.258" lon="-2.2268">
        <ele>27.799999237061</ele>
        <time>2022-01-23T10:23:16.000Z</time>
      </trkpt>
      <trkpt lat="47.25802" lon="-2.22716">
        <ele>27.799999237061</ele>
        <time>2022-01-23T10:23:21.000Z</time>
      </trkpt>
      <trkpt lat="47.25801" lon="-2.22724">
        <ele>27.39999961853</ele>
        <time>2022-01-23T10:23:22.000Z</time>
      </trkpt>
      <trkpt lat="47.25799" lon="-2.22732">
        <ele>27</ele>
        <time>2022-01-23T10:23:23.000Z</time>
      </trkpt>
      <trkpt lat="47.25796" lon="-2.2274">
        <ele>26.39999961853</ele>
        <time>2022-01-23T10:23:24.000Z</time>
      </trkpt>
      <trkpt lat="47.25793" lon="-2.22748">
        <ele>26</ele>
        <time>2022-01-23T10:23:25.000Z</time>
      </trkpt>
      <trkpt lat="47.2579" lon="-2.22756">
        <ele>25.60000038147</ele>
        <time>2022-01-23T10:23:26.000Z</time>
      </trkpt>
      <trkpt lat="47.25784" lon="-2.22771">
        <ele>25.60000038147</ele>
        <time>2022-01-23T10:23:28.000Z</time>
      </trkpt>
      <trkpt lat="47.25772" lon="-2.2279">
        <ele>25.60000038147</ele>
        <time>2022-01-23T10:23:31.000Z</time>
      </trkpt>
      <trkpt lat="47.25753" lon="-2.22807">
        <ele>25.60000038147</ele>
        <time>2022-01-23T10:23:35.000Z</time>
      </trkpt>
      <trkpt lat="47.25742" lon="-2.22814">
        <ele>25.60000038147</ele>
        <time>2022-01-23T10:23:37.000Z</time>
      </trkpt>
      <trkpt lat="47.25732" lon="-2.22824">
        <ele>25.60000038147</ele>
        <time>2022-01-23T10:23:39.000Z</time>
      </trkpt>
      <trkpt lat="47.25728" lon="-2.2283">
        <ele>25.60000038147</ele>
        <time>2022-01-23T10:23:40.000Z</time>
      </trkpt>
      <trkpt lat="47.25723" lon="-2.22835">
        <ele>25.60000038147</ele>
        <time>2022-01-23T10:23:41.000Z</time>
      </trkpt>
      <trkpt lat="47.25699" lon="-2.22856">
        <ele>25.60000038147</ele>
        <time>2022-01-23T10:23:46.000Z</time>
      </trkpt>
      <trkpt lat="47.25689" lon="-2.22865">
        <ele>25.60000038147</ele>
        <time>2022-01-23T10:23:48.000Z</time>
      </trkpt>
      <trkpt lat="47.25679" lon="-2.22884">
        <ele>26.200000762939</ele>
        <time>2022-01-23T10:23:51.000Z</time>
      </trkpt>
      <trkpt lat="47.25677" lon="-2.22891">
        <ele>26.60000038147</ele>
        <time>2022-01-23T10:23:52.000Z</time>
      </trkpt>
      <trkpt lat="47.25675" lon="-2.22899">
        <ele>27</ele>
        <time>2022-01-23T10:23:53.000Z</time>
      </trkpt>
      <trkpt lat="47.25673" lon="-2.22906">
        <ele>27.39999961853</ele>
        <time>2022-01-23T10:23:54.000Z</time>
      </trkpt>
      <trkpt lat="47.25671" lon="-2.22914">
        <ele>28</ele>
        <time>2022-01-23T10:23:55.000Z</time>
      </trkpt>
      <trkpt lat="47.2567" lon="-2.22922">
        <ele>28</ele>
        <time>2022-01-23T10:23:56.000Z</time>
      </trkpt>
      <trkpt lat="47.25669" lon="-2.22946">
        <ele>28.39999961853</ele>
        <time>2022-01-23T10:23:59.000Z</time>
      </trkpt>
      <trkpt lat="47.25669" lon="-2.22954">
        <ele>28.799999237061</ele>
        <time>2022-01-23T10:24:00.000Z</time>
      </trkpt>
      <trkpt lat="47.25669" lon="-2.22962">
        <ele>29.200000762939</ele>
        <time>2022-01-23T10:24:01.000Z</time>
      </trkpt>
      <trkpt lat="47.25669" lon="-2.22971">
        <ele>29.799999237061</ele>
        <time>2022-01-23T10:24:02.000Z</time>
      </trkpt>
      <trkpt lat="47.25669" lon="-2.22979">
        <ele>30.200000762939</ele>
        <time>2022-01-23T10:24:03.000Z</time>
      </trkpt>
      <trkpt lat="47.2567" lon="-2.23028">
        <ele>30.200000762939</ele>
        <time>2022-01-23T10:24:09.000Z</time>
      </trkpt>
      <trkpt lat="47.2567" lon="-2.23071">
        <ele>30.60000038147</ele>
        <time>2022-01-23T10:24:14.000Z</time>
      </trkpt>
      <trkpt lat="47.2567" lon="-2.23079">
        <ele>31</ele>
        <time>2022-01-23T10:24:15.000Z</time>
      </trkpt>
      <trkpt lat="47.2567" lon="-2.23088">
        <ele>31.39999961853</ele>
        <time>2022-01-23T10:24:16.000Z</time>
      </trkpt>
      <trkpt lat="47.2567" lon="-2.23097">
        <ele>31.799999237061</ele>
        <time>2022-01-23T10:24:17.000Z</time>
      </trkpt>
      <trkpt lat="47.25669" lon="-2.23105">
        <ele>32.200000762939</ele>
        <time>2022-01-23T10:24:18.000Z</time>
      </trkpt>
      <trkpt lat="47.25668" lon="-2.23147">
        <ele>32.200000762939</ele>
        <time>2022-01-23T10:24:23.000Z</time>
      </trkpt>
      <trkpt lat="47.25668" lon="-2.23155">
        <ele>32.200000762939</ele>
        <time>2022-01-23T10:24:24.000Z</time>
      </trkpt>
      <trkpt lat="47.25666" lon="-2.23213">
        <ele>32.200000762939</ele>
        <time>2022-01-23T10:24:31.000Z</time>
      </trkpt>
      <trkpt lat="47.25665" lon="-2.23237">
        <ele>32.200000762939</ele>
        <time>2022-01-23T10:24:34.000Z</time>
      </trkpt>
      <trkpt lat="47.25669" lon="-2.2325">
        <ele>32.799999237061</ele>
        <time>2022-01-23T10:24:36.000Z</time>
      </trkpt>
      <trkpt lat="47.25671" lon="-2.23256">
        <ele>33.200000762939</ele>
        <time>2022-01-23T10:24:37.000Z</time>
      </trkpt>
      <trkpt lat="47.25674" lon="-2.23262">
        <ele>33.599998474121</ele>
        <time>2022-01-23T10:24:38.000Z</time>
      </trkpt>
      <trkpt lat="47.25677" lon="-2.23269">
        <ele>34</ele>
        <time>2022-01-23T10:24:39.000Z</time>
      </trkpt>
      <trkpt lat="47.25679" lon="-2.23276">
        <ele>34.599998474121</ele>
        <time>2022-01-23T10:24:40.000Z</time>
      </trkpt>
      <trkpt lat="47.25686" lon="-2.23296">
        <ele>34.599998474121</ele>
        <time>2022-01-23T10:24:43.000Z</time>
      </trkpt>
      <trkpt lat="47.25687" lon="-2.23303">
        <ele>34.599998474121</ele>
        <time>2022-01-23T10:24:44.000Z</time>
      </trkpt>
      <trkpt lat="47.25691" lon="-2.2333">
        <ele>34.599998474121</ele>
        <time>2022-01-23T10:24:48.000Z</time>
      </trkpt>
      <trkpt lat="47.25691" lon="-2.23379">
        <ele>35</ele>
        <time>2022-01-23T10:24:55.000Z</time>
      </trkpt>
      <trkpt lat="47.25692" lon="-2.23386">
        <ele>35.799999237061</ele>
        <time>2022-01-23T10:24:56.000Z</time>
      </trkpt>
      <trkpt lat="47.25692" lon="-2.23393">
        <ele>36.200000762939</ele>
        <time>2022-01-23T10:24:57.000Z</time>
      </trkpt>
      <trkpt lat="47.25693" lon="-2.23399">
        <ele>36.599998474121</ele>
        <time>2022-01-23T10:24:58.000Z</time>
      </trkpt>
      <trkpt lat="47.25699" lon="-2.23448">
        <ele>36.599998474121</ele>
        <time>2022-01-23T10:25:05.000Z</time>
      </trkpt>
      <trkpt lat="47.25705" lon="-2.23503">
        <ele>36.599998474121</ele>
        <time>2022-01-23T10:25:12.000Z</time>
      </trkpt>
      <trkpt lat="47.25711" lon="-2.23559">
        <ele>36.599998474121</ele>
        <time>2022-01-23T10:25:19.000Z</time>
      </trkpt>
      <trkpt lat="47.25716" lon="-2.23609">
        <ele>36.599998474121</ele>
        <time>2022-01-23T10:25:26.000Z</time>
      </trkpt>
      <trkpt lat="47.2572" lon="-2.23668">
        <ele>36.599998474121</ele>
        <time>2022-01-23T10:25:34.000Z</time>
      </trkpt>
      <trkpt lat="47.2572" lon="-2.23683">
        <ele>36.599998474121</ele>
        <time>2022-01-23T10:25:36.000Z</time>
      </trkpt>
      <trkpt lat="47.2572" lon="-2.23713">
        <ele>36.599998474121</ele>
        <time>2022-01-23T10:25:40.000Z</time>
      </trkpt>
      <trkpt lat="47.25725" lon="-2.23772">
        <ele>36.599998474121</ele>
        <time>2022-01-23T10:25:48.000Z</time>
      </trkpt>
      <trkpt lat="47.25728" lon="-2.23802">
        <ele>36.599998474121</ele>
        <time>2022-01-23T10:25:52.000Z</time>
      </trkpt>
      <trkpt lat="47.25729" lon="-2.23816">
        <ele>37</ele>
        <time>2022-01-23T10:25:54.000Z</time>
      </trkpt>
      <trkpt lat="47.2573" lon="-2.23823">
        <ele>37.400001525879</ele>
        <time>2022-01-23T10:25:55.000Z</time>
      </trkpt>
      <trkpt lat="47.25731" lon="-2.23831">
        <ele>37.799999237061</ele>
        <time>2022-01-23T10:25:56.000Z</time>
      </trkpt>
      <trkpt lat="47.25732" lon="-2.23838">
        <ele>38.200000762939</ele>
        <time>2022-01-23T10:25:57.000Z</time>
      </trkpt>
      <trkpt lat="47.25733" lon="-2.23845">
        <ele>38.599998474121</ele>
        <time>2022-01-23T10:25:58.000Z</time>
      </trkpt>
      <trkpt lat="47.25734" lon="-2.23867">
        <ele>38.599998474121</ele>
        <time>2022-01-23T10:26:01.000Z</time>
      </trkpt>
      <trkpt lat="47.25738" lon="-2.23882">
        <ele>38.599998474121</ele>
        <time>2022-01-23T10:26:03.000Z</time>
      </trkpt>
      <trkpt lat="47.25744" lon="-2.23914">
        <ele>38.599998474121</ele>
        <time>2022-01-23T10:26:07.000Z</time>
      </trkpt>
      <trkpt lat="47.25748" lon="-2.23929">
        <ele>38.599998474121</ele>
        <time>2022-01-23T10:26:09.000Z</time>
      </trkpt>
      <trkpt lat="47.25753" lon="-2.23943">
        <ele>38.599998474121</ele>
        <time>2022-01-23T10:26:11.000Z</time>
      </trkpt>
      <trkpt lat="47.25756" lon="-2.23959">
        <ele>38.599998474121</ele>
        <time>2022-01-23T10:26:13.000Z</time>
      </trkpt>
      <trkpt lat="47.25758" lon="-2.23982">
        <ele>38.599998474121</ele>
        <time>2022-01-23T10:26:16.000Z</time>
      </trkpt>
      <trkpt lat="47.25756" lon="-2.24037">
        <ele>38.599998474121</ele>
        <time>2022-01-23T10:26:23.000Z</time>
      </trkpt>
      <trkpt lat="47.25754" lon="-2.24053">
        <ele>39.200000762939</ele>
        <time>2022-01-23T10:26:25.000Z</time>
      </trkpt>
      <trkpt lat="47.25753" lon="-2.24061">
        <ele>39.599998474121</ele>
        <time>2022-01-23T10:26:26.000Z</time>
      </trkpt>
      <trkpt lat="47.25753" lon="-2.24069">
        <ele>40</ele>
        <time>2022-01-23T10:26:27.000Z</time>
      </trkpt>
      <trkpt lat="47.25753" lon="-2.24077">
        <ele>40.400001525879</ele>
        <time>2022-01-23T10:26:28.000Z</time>
      </trkpt>
      <trkpt lat="47.25752" lon="-2.24085">
        <ele>40.799999237061</ele>
        <time>2022-01-23T10:26:29.000Z</time>
      </trkpt>
      <trkpt lat="47.25752" lon="-2.24092">
        <ele>40.799999237061</ele>
        <time>2022-01-23T10:26:30.000Z</time>
      </trkpt>
      <trkpt lat="47.2575" lon="-2.24141">
        <ele>41.400001525879</ele>
        <time>2022-01-23T10:26:37.000Z</time>
      </trkpt>
      <trkpt lat="47.25749" lon="-2.24148">
        <ele>41.799999237061</ele>
        <time>2022-01-23T10:26:38.000Z</time>
      </trkpt>
      <trkpt lat="47.25749" lon="-2.24154">
        <ele>42.200000762939</ele>
        <time>2022-01-23T10:26:39.000Z</time>
      </trkpt>
      <trkpt lat="47.25748" lon="-2.2416">
        <ele>42.599998474121</ele>
        <time>2022-01-23T10:26:40.000Z</time>
      </trkpt>
      <trkpt lat="47.25748" lon="-2.24166">
        <ele>43</ele>
        <time>2022-01-23T10:26:41.000Z</time>
      </trkpt>
      <trkpt lat="47.25747" lon="-2.24193">
        <ele>43</ele>
        <time>2022-01-23T10:26:45.000Z</time>
      </trkpt>
      <trkpt lat="47.25747" lon="-2.24236">
        <ele>43</ele>
        <time>2022-01-23T10:26:51.000Z</time>
      </trkpt>
      <trkpt lat="47.25747" lon="-2.24242">
        <ele>43</ele>
        <time>2022-01-23T10:26:52.000Z</time>
      </trkpt>
      <trkpt lat="47.25748" lon="-2.24272">
        <ele>43</ele>
        <time>2022-01-23T10:26:56.000Z</time>
      </trkpt>
      <trkpt lat="47.25745" lon="-2.24325">
        <ele>43</ele>
        <time>2022-01-23T10:27:02.000Z</time>
      </trkpt>
      <trkpt lat="47.25746" lon="-2.24362">
        <ele>43.400001525879</ele>
        <time>2022-01-23T10:27:06.000Z</time>
      </trkpt>
      <trkpt lat="47.25746" lon="-2.24371">
        <ele>43.799999237061</ele>
        <time>2022-01-23T10:27:07.000Z</time>
      </trkpt>
      <trkpt lat="47.25746" lon="-2.2438">
        <ele>44.200000762939</ele>
        <time>2022-01-23T10:27:08.000Z</time>
      </trkpt>
      <trkpt lat="47.25746" lon="-2.24389">
        <ele>44.799999237061</ele>
        <time>2022-01-23T10:27:09.000Z</time>
      </trkpt>
      <trkpt lat="47.25746" lon="-2.24397">
        <ele>45.200000762939</ele>
        <time>2022-01-23T10:27:10.000Z</time>
      </trkpt>
      <trkpt lat="47.2575" lon="-2.24439">
        <ele>45.200000762939</ele>
        <time>2022-01-23T10:27:15.000Z</time>
      </trkpt>
      <trkpt lat="47.25754" lon="-2.24479">
        <ele>45.200000762939</ele>
        <time>2022-01-23T10:27:20.000Z</time>
      </trkpt>
      <trkpt lat="47.25756" lon="-2.24485">
        <ele>45.200000762939</ele>
        <time>2022-01-23T10:27:21.000Z</time>
      </trkpt>
      <trkpt lat="47.25768" lon="-2.24492">
        <ele>45.200000762939</ele>
        <time>2022-01-23T10:27:24.000Z</time>
      </trkpt>
      <trkpt lat="47.25776" lon="-2.24508">
        <ele>45.200000762939</ele>
        <time>2022-01-23T10:27:28.000Z</time>
      </trkpt>
      <trkpt lat="47.2578" lon="-2.24532">
        <ele>45.599998474121</ele>
        <time>2022-01-23T10:27:33.000Z</time>
      </trkpt>
      <trkpt lat="47.25781" lon="-2.24537">
        <ele>46</ele>
        <time>2022-01-23T10:27:34.000Z</time>
      </trkpt>
      <trkpt lat="47.25782" lon="-2.24542">
        <ele>46.400001525879</ele>
        <time>2022-01-23T10:27:35.000Z</time>
      </trkpt>
      <trkpt lat="47.25783" lon="-2.24546">
        <ele>46.799999237061</ele>
        <time>2022-01-23T10:27:36.000Z</time>
      </trkpt>
      <trkpt lat="47.25784" lon="-2.24552">
        <ele>47.200000762939</ele>
        <time>2022-01-23T10:27:37.000Z</time>
      </trkpt>
      <trkpt lat="47.25787" lon="-2.24571">
        <ele>47.200000762939</ele>
        <time>2022-01-23T10:27:41.000Z</time>
      </trkpt>
      <trkpt lat="47.25792" lon="-2.24595">
        <ele>47.200000762939</ele>
        <time>2022-01-23T10:27:47.000Z</time>
      </trkpt>
      <trkpt lat="47.25795" lon="-2.24622">
        <ele>47.200000762939</ele>
        <time>2022-01-23T10:27:53.000Z</time>
      </trkpt>
      <trkpt lat="47.25797" lon="-2.24631">
        <ele>47.599998474121</ele>
        <time>2022-01-23T10:27:55.000Z</time>
      </trkpt>
      <trkpt lat="47.25798" lon="-2.24637">
        <ele>48</ele>
        <time>2022-01-23T10:27:56.000Z</time>
      </trkpt>
      <trkpt lat="47.25798" lon="-2.24642">
        <ele>48.400001525879</ele>
        <time>2022-01-23T10:27:57.000Z</time>
      </trkpt>
      <trkpt lat="47.25799" lon="-2.24648">
        <ele>48.799999237061</ele>
        <time>2022-01-23T10:27:58.000Z</time>
      </trkpt>
      <trkpt lat="47.25799" lon="-2.24654">
        <ele>49.200000762939</ele>
        <time>2022-01-23T10:27:59.000Z</time>
      </trkpt>
      <trkpt lat="47.25798" lon="-2.24682">
        <ele>49.200000762939</ele>
        <time>2022-01-23T10:28:04.000Z</time>
      </trkpt>
      <trkpt lat="47.25798" lon="-2.24715">
        <ele>49.200000762939</ele>
        <time>2022-01-23T10:28:11.000Z</time>
      </trkpt>
      <trkpt lat="47.25798" lon="-2.24734">
        <ele>49.200000762939</ele>
        <time>2022-01-23T10:28:16.000Z</time>
      </trkpt>
      <trkpt lat="47.25795" lon="-2.24757">
        <ele>49.200000762939</ele>
        <time>2022-01-23T10:28:22.000Z</time>
      </trkpt>
      <trkpt lat="47.25792" lon="-2.24786">
        <ele>49.200000762939</ele>
        <time>2022-01-23T10:28:29.000Z</time>
      </trkpt>
      <trkpt lat="47.2579" lon="-2.24799">
        <ele>49.200000762939</ele>
        <time>2022-01-23T10:28:33.000Z</time>
      </trkpt>
      <trkpt lat="47.25789" lon="-2.24802">
        <ele>49.200000762939</ele>
        <time>2022-01-23T10:28:34.000Z</time>
      </trkpt>
      <trkpt lat="47.25784" lon="-2.24819">
        <ele>49.200000762939</ele>
        <time>2022-01-23T10:28:39.000Z</time>
      </trkpt>
      <trkpt lat="47.25783" lon="-2.24822">
        <ele>49.200000762939</ele>
        <time>2022-01-23T10:28:40.000Z</time>
      </trkpt>
      <trkpt lat="47.25781" lon="-2.24835">
        <ele>49.599998474121</ele>
        <time>2022-01-23T10:28:43.000Z</time>
      </trkpt>
      <trkpt lat="47.2578" lon="-2.24839">
        <ele>50</ele>
        <time>2022-01-23T10:28:44.000Z</time>
      </trkpt>
      <trkpt lat="47.2578" lon="-2.24843">
        <ele>50.400001525879</ele>
        <time>2022-01-23T10:28:45.000Z</time>
      </trkpt>
      <trkpt lat="47.25778" lon="-2.24848">
        <ele>50.799999237061</ele>
        <time>2022-01-23T10:28:46.000Z</time>
      </trkpt>
      <trkpt lat="47.25776" lon="-2.24852">
        <ele>51.200000762939</ele>
        <time>2022-01-23T10:28:47.000Z</time>
      </trkpt>
      <trkpt lat="47.25766" lon="-2.24866">
        <ele>51.200000762939</ele>
        <time>2022-01-23T10:28:52.000Z</time>
      </trkpt>
      <trkpt lat="47.25753" lon="-2.24875">
        <ele>51.200000762939</ele>
        <time>2022-01-23T10:28:59.000Z</time>
      </trkpt>
      <trkpt lat="47.25742" lon="-2.2488">
        <ele>51.200000762939</ele>
        <time>2022-01-23T10:29:05.000Z</time>
      </trkpt>
      <trkpt lat="47.25726" lon="-2.24889">
        <ele>51.200000762939</ele>
        <time>2022-01-23T10:29:11.000Z</time>
      </trkpt>
      <trkpt lat="47.25717" lon="-2.24903">
        <ele>51.200000762939</ele>
        <time>2022-01-23T10:29:15.000Z</time>
      </trkpt>
      <trkpt lat="47.25711" lon="-2.24929">
        <ele>51.200000762939</ele>
        <time>2022-01-23T10:29:20.000Z</time>
      </trkpt>
      <trkpt lat="47.25706" lon="-2.24956">
        <ele>51.200000762939</ele>
        <time>2022-01-23T10:29:26.000Z</time>
      </trkpt>
      <trkpt lat="47.25699" lon="-2.24992">
        <ele>51.200000762939</ele>
        <time>2022-01-23T10:29:36.000Z</time>
      </trkpt>
      <trkpt lat="47.25692" lon="-2.25018">
        <ele>51.200000762939</ele>
        <time>2022-01-23T10:29:43.000Z</time>
      </trkpt>
      <trkpt lat="47.25686" lon="-2.25052">
        <ele>51.200000762939</ele>
        <time>2022-01-23T10:29:51.000Z</time>
      </trkpt>
      <trkpt lat="47.2568" lon="-2.25086">
        <ele>51.200000762939</ele>
        <time>2022-01-23T10:29:57.000Z</time>
      </trkpt>
      <trkpt lat="47.25679" lon="-2.25097">
        <ele>51.200000762939</ele>
        <time>2022-01-23T10:29:59.000Z</time>
      </trkpt>
      <trkpt lat="47.25676" lon="-2.25114">
        <ele>51.200000762939</ele>
        <time>2022-01-23T10:30:02.000Z</time>
      </trkpt>
      <trkpt lat="47.25674" lon="-2.25125">
        <ele>51.200000762939</ele>
        <time>2022-01-23T10:30:04.000Z</time>
      </trkpt>
      <trkpt lat="47.25671" lon="-2.25146">
        <ele>51.200000762939</ele>
        <time>2022-01-23T10:30:08.000Z</time>
      </trkpt>
      <trkpt lat="47.25661" lon="-2.25195">
        <ele>51.200000762939</ele>
        <time>2022-01-23T10:30:16.000Z</time>
      </trkpt>
      <trkpt lat="47.25659" lon="-2.25201">
        <ele>51.200000762939</ele>
        <time>2022-01-23T10:30:17.000Z</time>
      </trkpt>
      <trkpt lat="47.25656" lon="-2.25221">
        <ele>51.200000762939</ele>
        <time>2022-01-23T10:30:20.000Z</time>
      </trkpt>
      <trkpt lat="47.25647" lon="-2.25277">
        <ele>51.200000762939</ele>
        <time>2022-01-23T10:30:28.000Z</time>
      </trkpt>
      <trkpt lat="47.25642" lon="-2.2531">
        <ele>51.200000762939</ele>
        <time>2022-01-23T10:30:33.000Z</time>
      </trkpt>
      <trkpt lat="47.25641" lon="-2.25317">
        <ele>51.200000762939</ele>
        <time>2022-01-23T10:30:34.000Z</time>
      </trkpt>
      <trkpt lat="47.25635" lon="-2.25363">
        <ele>51.200000762939</ele>
        <time>2022-01-23T10:30:41.000Z</time>
      </trkpt>
      <trkpt lat="47.25624" lon="-2.25409">
        <ele>51.200000762939</ele>
        <time>2022-01-23T10:30:49.000Z</time>
      </trkpt>
      <trkpt lat="47.25609" lon="-2.2544">
        <ele>51.200000762939</ele>
        <time>2022-01-23T10:30:55.000Z</time>
      </trkpt>
      <trkpt lat="47.25585" lon="-2.25478">
        <ele>51.200000762939</ele>
        <time>2022-01-23T10:31:02.000Z</time>
      </trkpt>
      <trkpt lat="47.25563" lon="-2.25512">
        <ele>51.200000762939</ele>
        <time>2022-01-23T10:31:08.000Z</time>
      </trkpt>
      <trkpt lat="47.25541" lon="-2.25544">
        <ele>50.799999237061</ele>
        <time>2022-01-23T10:31:13.000Z</time>
      </trkpt>
      <trkpt lat="47.25536" lon="-2.25552">
        <ele>50.200000762939</ele>
        <time>2022-01-23T10:31:14.000Z</time>
      </trkpt>
      <trkpt lat="47.25532" lon="-2.25559">
        <ele>49.799999237061</ele>
        <time>2022-01-23T10:31:15.000Z</time>
      </trkpt>
      <trkpt lat="47.25527" lon="-2.25567">
        <ele>49.200000762939</ele>
        <time>2022-01-23T10:31:16.000Z</time>
      </trkpt>
      <trkpt lat="47.25522" lon="-2.25575">
        <ele>48.599998474121</ele>
        <time>2022-01-23T10:31:17.000Z</time>
      </trkpt>
      <trkpt lat="47.25517" lon="-2.25583">
        <ele>47.400001525879</ele>
        <time>2022-01-23T10:31:18.000Z</time>
      </trkpt>
      <trkpt lat="47.25512" lon="-2.25591">
        <ele>46.599998474121</ele>
        <time>2022-01-23T10:31:19.000Z</time>
      </trkpt>
      <trkpt lat="47.25506" lon="-2.256">
        <ele>46</ele>
        <time>2022-01-23T10:31:20.000Z</time>
      </trkpt>
      <trkpt lat="47.25501" lon="-2.25609">
        <ele>45.200000762939</ele>
        <time>2022-01-23T10:31:21.000Z</time>
      </trkpt>
      <trkpt lat="47.25495" lon="-2.25619">
        <ele>44.400001525879</ele>
        <time>2022-01-23T10:31:22.000Z</time>
      </trkpt>
      <trkpt lat="47.25489" lon="-2.25628">
        <ele>43.799999237061</ele>
        <time>2022-01-23T10:31:23.000Z</time>
      </trkpt>
      <trkpt lat="47.25484" lon="-2.25636">
        <ele>43.200000762939</ele>
        <time>2022-01-23T10:31:24.000Z</time>
      </trkpt>
      <trkpt lat="47.2548" lon="-2.25643">
        <ele>42.400001525879</ele>
        <time>2022-01-23T10:31:25.000Z</time>
      </trkpt>
      <trkpt lat="47.25476" lon="-2.25649">
        <ele>41.599998474121</ele>
        <time>2022-01-23T10:31:26.000Z</time>
      </trkpt>
      <trkpt lat="47.25473" lon="-2.25654">
        <ele>40.799999237061</ele>
        <time>2022-01-23T10:31:27.000Z</time>
      </trkpt>
      <trkpt lat="47.2547" lon="-2.25659">
        <ele>40.200000762939</ele>
        <time>2022-01-23T10:31:28.000Z</time>
      </trkpt>
      <trkpt lat="47.25467" lon="-2.25664">
        <ele>39.400001525879</ele>
        <time>2022-01-23T10:31:29.000Z</time>
      </trkpt>
      <trkpt lat="47.25464" lon="-2.25669">
        <ele>38.599998474121</ele>
        <time>2022-01-23T10:31:30.000Z</time>
      </trkpt>
      <trkpt lat="47.25463" lon="-2.25672">
        <ele>37.799999237061</ele>
        <time>2022-01-23T10:31:31.000Z</time>
      </trkpt>
      <trkpt lat="47.25461" lon="-2.25676">
        <ele>37</ele>
        <time>2022-01-23T10:31:32.000Z</time>
      </trkpt>
      <trkpt lat="47.2546" lon="-2.25678">
        <ele>37</ele>
        <time>2022-01-23T10:31:33.000Z</time>
      </trkpt>
      <trkpt lat="47.25459" lon="-2.25688">
        <ele>36.599998474121</ele>
        <time>2022-01-23T10:31:36.000Z</time>
      </trkpt>
      <trkpt lat="47.25457" lon="-2.25692">
        <ele>36</ele>
        <time>2022-01-23T10:31:37.000Z</time>
      </trkpt>
      <trkpt lat="47.25455" lon="-2.25697">
        <ele>35.400001525879</ele>
        <time>2022-01-23T10:31:38.000Z</time>
      </trkpt>
      <trkpt lat="47.25453" lon="-2.25702">
        <ele>35</ele>
        <time>2022-01-23T10:31:39.000Z</time>
      </trkpt>
      <trkpt lat="47.25451" lon="-2.25707">
        <ele>34.400001525879</ele>
        <time>2022-01-23T10:31:40.000Z</time>
      </trkpt>
      <trkpt lat="47.25449" lon="-2.25716">
        <ele>34.400001525879</ele>
        <time>2022-01-23T10:31:42.000Z</time>
      </trkpt>
      <trkpt lat="47.2545" lon="-2.25735">
        <ele>34.400001525879</ele>
        <time>2022-01-23T10:31:47.000Z</time>
      </trkpt>
      <trkpt lat="47.25451" lon="-2.25744">
        <ele>34.799999237061</ele>
        <time>2022-01-23T10:31:50.000Z</time>
      </trkpt>
      <trkpt lat="47.25451" lon="-2.25748">
        <ele>35.200000762939</ele>
        <time>2022-01-23T10:31:51.000Z</time>
      </trkpt>
      <trkpt lat="47.25451" lon="-2.25751">
        <ele>35.799999237061</ele>
        <time>2022-01-23T10:31:52.000Z</time>
      </trkpt>
      <trkpt lat="47.2545" lon="-2.25756">
        <ele>36.200000762939</ele>
        <time>2022-01-23T10:31:53.000Z</time>
      </trkpt>
      <trkpt lat="47.2545" lon="-2.2576">
        <ele>36.599998474121</ele>
        <time>2022-01-23T10:31:54.000Z</time>
      </trkpt>
      <trkpt lat="47.25449" lon="-2.25786">
        <ele>36.599998474121</ele>
        <time>2022-01-23T10:31:59.000Z</time>
      </trkpt>
      <trkpt lat="47.25444" lon="-2.25803">
        <ele>36.599998474121</ele>
        <time>2022-01-23T10:32:03.000Z</time>
      </trkpt>
      <trkpt lat="47.25437" lon="-2.25831">
        <ele>36.599998474121</ele>
        <time>2022-01-23T10:32:08.000Z</time>
      </trkpt>
      <trkpt lat="47.25434" lon="-2.25845">
        <ele>36.599998474121</ele>
        <time>2022-01-23T10:32:10.000Z</time>
      </trkpt>
      <trkpt lat="47.25433" lon="-2.25862">
        <ele>36.599998474121</ele>
        <time>2022-01-23T10:32:13.000Z</time>
      </trkpt>
      <trkpt lat="47.25434" lon="-2.25867">
        <ele>36.599998474121</ele>
        <time>2022-01-23T10:32:14.000Z</time>
      </trkpt>
      <trkpt lat="47.25435" lon="-2.25901">
        <ele>36.599998474121</ele>
        <time>2022-01-23T10:32:21.000Z</time>
      </trkpt>
      <trkpt lat="47.25435" lon="-2.25916">
        <ele>36.599998474121</ele>
        <time>2022-01-23T10:32:25.000Z</time>
      </trkpt>
      <trkpt lat="47.25432" lon="-2.25925">
        <ele>36.599998474121</ele>
        <time>2022-01-23T10:32:27.000Z</time>
      </trkpt>
      <trkpt lat="47.25416" lon="-2.25946">
        <ele>36.599998474121</ele>
        <time>2022-01-23T10:32:31.000Z</time>
      </trkpt>
      <trkpt lat="47.25411" lon="-2.25958">
        <ele>36.599998474121</ele>
        <time>2022-01-23T10:32:33.000Z</time>
      </trkpt>
      <trkpt lat="47.25407" lon="-2.25968">
        <ele>36.599998474121</ele>
        <time>2022-01-23T10:32:35.000Z</time>
      </trkpt>
      <trkpt lat="47.25397" lon="-2.25978">
        <ele>36.599998474121</ele>
        <time>2022-01-23T10:32:40.000Z</time>
      </trkpt>
      <trkpt lat="47.25388" lon="-2.25981">
        <ele>36.599998474121</ele>
        <time>2022-01-23T10:32:45.000Z</time>
      </trkpt>
      <trkpt lat="47.25387" lon="-2.25982">
        <ele>37</ele>
        <time>2022-01-23T10:32:46.000Z</time>
      </trkpt>
      <trkpt lat="47.25386" lon="-2.25982">
        <ele>37.599998474121</ele>
        <time>2022-01-23T10:32:47.000Z</time>
      </trkpt>
      <trkpt lat="47.25386" lon="-2.25982">
        <ele>38</ele>
        <time>2022-01-23T10:32:48.000Z</time>
      </trkpt>
      <trkpt lat="47.25385" lon="-2.25982">
        <ele>38.599998474121</ele>
        <time>2022-01-23T10:32:49.000Z</time>
      </trkpt>
      <trkpt lat="47.25384" lon="-2.25982">
        <ele>39</ele>
        <time>2022-01-23T10:32:50.000Z</time>
      </trkpt>
      <trkpt lat="47.25382" lon="-2.25981">
        <ele>39</ele>
        <time>2022-01-23T10:32:52.000Z</time>
      </trkpt>
      <trkpt lat="47.25381" lon="-2.25981">
        <ele>39.400001525879</ele>
        <time>2022-01-23T10:32:53.000Z</time>
      </trkpt>
      <trkpt lat="47.2538" lon="-2.25981">
        <ele>39.799999237061</ele>
        <time>2022-01-23T10:32:54.000Z</time>
      </trkpt>
      <trkpt lat="47.25379" lon="-2.25981">
        <ele>40.400001525879</ele>
        <time>2022-01-23T10:32:55.000Z</time>
      </trkpt>
      <trkpt lat="47.25377" lon="-2.25981">
        <ele>40.799999237061</ele>
        <time>2022-01-23T10:32:56.000Z</time>
      </trkpt>
      <trkpt lat="47.25374" lon="-2.25981">
        <ele>41.200000762939</ele>
        <time>2022-01-23T10:32:57.000Z</time>
      </trkpt>
      <trkpt lat="47.25372" lon="-2.25982">
        <ele>41.200000762939</ele>
        <time>2022-01-23T10:32:58.000Z</time>
      </trkpt>
      <trkpt lat="47.25368" lon="-2.25985">
        <ele>41.599998474121</ele>
        <time>2022-01-23T10:33:00.000Z</time>
      </trkpt>
      <trkpt lat="47.25365" lon="-2.25986">
        <ele>42</ele>
        <time>2022-01-23T10:33:01.000Z</time>
      </trkpt>
      <trkpt lat="47.25363" lon="-2.25988">
        <ele>42.599998474121</ele>
        <time>2022-01-23T10:33:02.000Z</time>
      </trkpt>
      <trkpt lat="47.25362" lon="-2.25989">
        <ele>43</ele>
        <time>2022-01-23T10:33:03.000Z</time>
      </trkpt>
      <trkpt lat="47.25361" lon="-2.25991">
        <ele>43.400001525879</ele>
        <time>2022-01-23T10:33:04.000Z</time>
      </trkpt>
      <trkpt lat="47.25363" lon="-2.26001">
        <ele>43.400001525879</ele>
        <time>2022-01-23T10:33:09.000Z</time>
      </trkpt>
      <trkpt lat="47.25364" lon="-2.26004">
        <ele>43.799999237061</ele>
        <time>2022-01-23T10:33:10.000Z</time>
      </trkpt>
      <trkpt lat="47.25364" lon="-2.26007">
        <ele>44.200000762939</ele>
        <time>2022-01-23T10:33:11.000Z</time>
      </trkpt>
      <trkpt lat="47.25364" lon="-2.26009">
        <ele>44.599998474121</ele>
        <time>2022-01-23T10:33:12.000Z</time>
      </trkpt>
      <trkpt lat="47.25366" lon="-2.26011">
        <ele>45</ele>
        <time>2022-01-23T10:33:13.000Z</time>
      </trkpt>
      <trkpt lat="47.25366" lon="-2.26013">
        <ele>45.400001525879</ele>
        <time>2022-01-23T10:33:14.000Z</time>
      </trkpt>
      <trkpt lat="47.25369" lon="-2.26016">
        <ele>45.400001525879</ele>
        <time>2022-01-23T10:33:16.000Z</time>
      </trkpt>
      <trkpt lat="47.25379" lon="-2.26025">
        <ele>44.599998474121</ele>
        <time>2022-01-23T10:33:21.000Z</time>
      </trkpt>
      <trkpt lat="47.25381" lon="-2.26027">
        <ele>44.200000762939</ele>
        <time>2022-01-23T10:33:22.000Z</time>
      </trkpt>
      <trkpt lat="47.25382" lon="-2.2603">
        <ele>43.799999237061</ele>
        <time>2022-01-23T10:33:23.000Z</time>
      </trkpt>
      <trkpt lat="47.25383" lon="-2.26033">
        <ele>43.400001525879</ele>
        <time>2022-01-23T10:33:24.000Z</time>
      </trkpt>
      <trkpt lat="47.25387" lon="-2.26044">
        <ele>43.400001525879</ele>
        <time>2022-01-23T10:33:27.000Z</time>
      </trkpt>
      <trkpt lat="47.25391" lon="-2.26069">
        <ele>43.400001525879</ele>
        <time>2022-01-23T10:33:32.000Z</time>
      </trkpt>
      <trkpt lat="47.25392" lon="-2.26084">
        <ele>43.400001525879</ele>
        <time>2022-01-23T10:33:36.000Z</time>
      </trkpt>
      <trkpt lat="47.25391" lon="-2.26086">
        <ele>43.400001525879</ele>
        <time>2022-01-23T10:33:38.000Z</time>
      </trkpt>
      <trkpt lat="47.25393" lon="-2.26101">
        <ele>43.400001525879</ele>
        <time>2022-01-23T10:34:03.000Z</time>
      </trkpt>
      <trkpt lat="47.25392" lon="-2.26106">
        <ele>43.400001525879</ele>
        <time>2022-01-23T10:34:05.000Z</time>
      </trkpt>
      <trkpt lat="47.25388" lon="-2.26113">
        <ele>43.400001525879</ele>
        <time>2022-01-23T10:34:10.000Z</time>
      </trkpt>
      <trkpt lat="47.25388" lon="-2.26118">
        <ele>43.400001525879</ele>
        <time>2022-01-23T10:34:12.000Z</time>
      </trkpt>
      <trkpt lat="47.25386" lon="-2.2613">
        <ele>43.400001525879</ele>
        <time>2022-01-23T10:34:15.000Z</time>
      </trkpt>
      <trkpt lat="47.25384" lon="-2.26135">
        <ele>43.799999237061</ele>
        <time>2022-01-23T10:34:16.000Z</time>
      </trkpt>
      <trkpt lat="47.25381" lon="-2.26138">
        <ele>44.200000762939</ele>
        <time>2022-01-23T10:34:17.000Z</time>
      </trkpt>
      <trkpt lat="47.25379" lon="-2.26143">
        <ele>44.599998474121</ele>
        <time>2022-01-23T10:34:18.000Z</time>
      </trkpt>
      <trkpt lat="47.25378" lon="-2.26146">
        <ele>45</ele>
        <time>2022-01-23T10:34:19.000Z</time>
      </trkpt>
      <trkpt lat="47.25376" lon="-2.26151">
        <ele>45.400001525879</ele>
        <time>2022-01-23T10:34:20.000Z</time>
      </trkpt>
      <trkpt lat="47.25375" lon="-2.26169">
        <ele>45.799999237061</ele>
        <time>2022-01-23T10:34:25.000Z</time>
      </trkpt>
      <trkpt lat="47.25376" lon="-2.26173">
        <ele>46.200000762939</ele>
        <time>2022-01-23T10:34:26.000Z</time>
      </trkpt>
      <trkpt lat="47.25376" lon="-2.26176">
        <ele>46.599998474121</ele>
        <time>2022-01-23T10:34:27.000Z</time>
      </trkpt>
      <trkpt lat="47.25377" lon="-2.26179">
        <ele>47</ele>
        <time>2022-01-23T10:34:28.000Z</time>
      </trkpt>
      <trkpt lat="47.25377" lon="-2.26182">
        <ele>47.400001525879</ele>
        <time>2022-01-23T10:34:29.000Z</time>
      </trkpt>
      <trkpt lat="47.25381" lon="-2.26192">
        <ele>47.400001525879</ele>
        <time>2022-01-23T10:34:32.000Z</time>
      </trkpt>
      <trkpt lat="47.25388" lon="-2.26212">
        <ele>47.400001525879</ele>
        <time>2022-01-23T10:34:37.000Z</time>
      </trkpt>
      <trkpt lat="47.25396" lon="-2.26244">
        <ele>47.400001525879</ele>
        <time>2022-01-23T10:34:42.000Z</time>
      </trkpt>
      <trkpt lat="47.25396" lon="-2.26248">
        <ele>47.799999237061</ele>
        <time>2022-01-23T10:34:43.000Z</time>
      </trkpt>
      <trkpt lat="47.25396" lon="-2.26252">
        <ele>48.200000762939</ele>
        <time>2022-01-23T10:34:44.000Z</time>
      </trkpt>
      <trkpt lat="47.25394" lon="-2.26256">
        <ele>48.599998474121</ele>
        <time>2022-01-23T10:34:45.000Z</time>
      </trkpt>
      <trkpt lat="47.25392" lon="-2.26259">
        <ele>49</ele>
        <time>2022-01-23T10:34:46.000Z</time>
      </trkpt>
      <trkpt lat="47.2539" lon="-2.26263">
        <ele>49.400001525879</ele>
        <time>2022-01-23T10:34:47.000Z</time>
      </trkpt>
      <trkpt lat="47.25389" lon="-2.2627">
        <ele>49.799999237061</ele>
        <time>2022-01-23T10:34:49.000Z</time>
      </trkpt>
      <trkpt lat="47.25389" lon="-2.26274">
        <ele>50.200000762939</ele>
        <time>2022-01-23T10:34:50.000Z</time>
      </trkpt>
      <trkpt lat="47.2539" lon="-2.26278">
        <ele>50.799999237061</ele>
        <time>2022-01-23T10:34:51.000Z</time>
      </trkpt>
      <trkpt lat="47.25392" lon="-2.26282">
        <ele>51.200000762939</ele>
        <time>2022-01-23T10:34:52.000Z</time>
      </trkpt>
      <trkpt lat="47.25393" lon="-2.26285">
        <ele>51.599998474121</ele>
        <time>2022-01-23T10:34:53.000Z</time>
      </trkpt>
      <trkpt lat="47.25397" lon="-2.26296">
        <ele>51.599998474121</ele>
        <time>2022-01-23T10:34:56.000Z</time>
      </trkpt>
      <trkpt lat="47.25398" lon="-2.263">
        <ele>51.599998474121</ele>
        <time>2022-01-23T10:34:58.000Z</time>
      </trkpt>
      <trkpt lat="47.25399" lon="-2.26305">
        <ele>51.599998474121</ele>
        <time>2022-01-23T10:35:00.000Z</time>
      </trkpt>
      <trkpt lat="47.254" lon="-2.26318">
        <ele>51.599998474121</ele>
        <time>2022-01-23T10:35:05.000Z</time>
      </trkpt>
      <trkpt lat="47.25397" lon="-2.26338">
        <ele>51.599998474121</ele>
        <time>2022-01-23T10:35:09.000Z</time>
      </trkpt>
      <trkpt lat="47.25399" lon="-2.26373">
        <ele>51.599998474121</ele>
        <time>2022-01-23T10:35:14.000Z</time>
      </trkpt>
      <trkpt lat="47.254" lon="-2.26388">
        <ele>51.599998474121</ele>
        <time>2022-01-23T10:35:16.000Z</time>
      </trkpt>
      <trkpt lat="47.25403" lon="-2.26414">
        <ele>51.599998474121</ele>
        <time>2022-01-23T10:35:20.000Z</time>
      </trkpt>
      <trkpt lat="47.25407" lon="-2.26444">
        <ele>52.400001525879</ele>
        <time>2022-01-23T10:35:25.000Z</time>
      </trkpt>
      <trkpt lat="47.25408" lon="-2.26449">
        <ele>52.799999237061</ele>
        <time>2022-01-23T10:35:26.000Z</time>
      </trkpt>
      <trkpt lat="47.25409" lon="-2.26455">
        <ele>53.400001525879</ele>
        <time>2022-01-23T10:35:27.000Z</time>
      </trkpt>
      <trkpt lat="47.25411" lon="-2.26461">
        <ele>53.799999237061</ele>
        <time>2022-01-23T10:35:28.000Z</time>
      </trkpt>
      <trkpt lat="47.25415" lon="-2.26484">
        <ele>53.799999237061</ele>
        <time>2022-01-23T10:35:32.000Z</time>
      </trkpt>
      <trkpt lat="47.25423" lon="-2.26507">
        <ele>53.799999237061</ele>
        <time>2022-01-23T10:35:37.000Z</time>
      </trkpt>
      <trkpt lat="47.25427" lon="-2.26537">
        <ele>53.799999237061</ele>
        <time>2022-01-23T10:35:42.000Z</time>
      </trkpt>
      <trkpt lat="47.25428" lon="-2.2655">
        <ele>53.799999237061</ele>
        <time>2022-01-23T10:35:44.000Z</time>
      </trkpt>
      <trkpt lat="47.25434" lon="-2.26564">
        <ele>53.799999237061</ele>
        <time>2022-01-23T10:35:46.000Z</time>
      </trkpt>
      <trkpt lat="47.25446" lon="-2.26601">
        <ele>53.799999237061</ele>
        <time>2022-01-23T10:35:52.000Z</time>
      </trkpt>
      <trkpt lat="47.25448" lon="-2.26631">
        <ele>54.200000762939</ele>
        <time>2022-01-23T10:35:58.000Z</time>
      </trkpt>
      <trkpt lat="47.25449" lon="-2.26635">
        <ele>54.599998474121</ele>
        <time>2022-01-23T10:35:59.000Z</time>
      </trkpt>
      <trkpt lat="47.2545" lon="-2.26639">
        <ele>55</ele>
        <time>2022-01-23T10:36:00.000Z</time>
      </trkpt>
      <trkpt lat="47.2545" lon="-2.26644">
        <ele>55.599998474121</ele>
        <time>2022-01-23T10:36:01.000Z</time>
      </trkpt>
      <trkpt lat="47.2545" lon="-2.26648">
        <ele>56</ele>
        <time>2022-01-23T10:36:02.000Z</time>
      </trkpt>
      <trkpt lat="47.25451" lon="-2.26653">
        <ele>56</ele>
        <time>2022-01-23T10:36:03.000Z</time>
      </trkpt>
      <trkpt lat="47.2546" lon="-2.2667">
        <ele>56</ele>
        <time>2022-01-23T10:36:07.000Z</time>
      </trkpt>
      <trkpt lat="47.25474" lon="-2.26687">
        <ele>56</ele>
        <time>2022-01-23T10:36:11.000Z</time>
      </trkpt>
      <trkpt lat="47.25478" lon="-2.26692">
        <ele>56</ele>
        <time>2022-01-23T10:36:12.000Z</time>
      </trkpt>
      <trkpt lat="47.25481" lon="-2.26709">
        <ele>56</ele>
        <time>2022-01-23T10:36:15.000Z</time>
      </trkpt>
      <trkpt lat="47.2548" lon="-2.26717">
        <ele>56</ele>
        <time>2022-01-23T10:36:17.000Z</time>
      </trkpt>
      <trkpt lat="47.2548" lon="-2.26721">
        <ele>56</ele>
        <time>2022-01-23T10:36:19.000Z</time>
      </trkpt>
      <trkpt lat="47.25479" lon="-2.26722">
        <ele>56</ele>
        <time>2022-01-23T10:36:20.000Z</time>
      </trkpt>
      <trkpt lat="47.25472" lon="-2.26728">
        <ele>56</ele>
        <time>2022-01-23T10:36:23.000Z</time>
      </trkpt>
      <trkpt lat="47.2547" lon="-2.26731">
        <ele>56</ele>
        <time>2022-01-23T10:36:24.000Z</time>
      </trkpt>
      <trkpt lat="47.2546" lon="-2.26739">
        <ele>56.400001525879</ele>
        <time>2022-01-23T10:36:29.000Z</time>
      </trkpt>
      <trkpt lat="47.25458" lon="-2.26741">
        <ele>56.799999237061</ele>
        <time>2022-01-23T10:36:30.000Z</time>
      </trkpt>
      <trkpt lat="47.25456" lon="-2.26742">
        <ele>57.200000762939</ele>
        <time>2022-01-23T10:36:31.000Z</time>
      </trkpt>
      <trkpt lat="47.25455" lon="-2.26743">
        <ele>57.599998474121</ele>
        <time>2022-01-23T10:36:32.000Z</time>
      </trkpt>
      <trkpt lat="47.25452" lon="-2.26744">
        <ele>58</ele>
        <time>2022-01-23T10:36:33.000Z</time>
      </trkpt>
      <trkpt lat="47.25446" lon="-2.26748">
        <ele>58</ele>
        <time>2022-01-23T10:36:36.000Z</time>
      </trkpt>
      <trkpt lat="47.2543" lon="-2.26744">
        <ele>58</ele>
        <time>2022-01-23T10:36:40.000Z</time>
      </trkpt>
      <trkpt lat="47.25416" lon="-2.2674">
        <ele>58</ele>
        <time>2022-01-23T10:36:43.000Z</time>
      </trkpt>
      <trkpt lat="47.25411" lon="-2.26739">
        <ele>58.400001525879</ele>
        <time>2022-01-23T10:36:44.000Z</time>
      </trkpt>
      <trkpt lat="47.25406" lon="-2.26738">
        <ele>58.799999237061</ele>
        <time>2022-01-23T10:36:45.000Z</time>
      </trkpt>
      <trkpt lat="47.25401" lon="-2.26738">
        <ele>59.200000762939</ele>
        <time>2022-01-23T10:36:46.000Z</time>
      </trkpt>
      <trkpt lat="47.25396" lon="-2.26738">
        <ele>59.599998474121</ele>
        <time>2022-01-23T10:36:47.000Z</time>
      </trkpt>
      <trkpt lat="47.25391" lon="-2.26737">
        <ele>60.200000762939</ele>
        <time>2022-01-23T10:36:48.000Z</time>
      </trkpt>
      <trkpt lat="47.25349" lon="-2.26734">
        <ele>60.200000762939</ele>
        <time>2022-01-23T10:36:56.000Z</time>
      </trkpt>
      <trkpt lat="47.25329" lon="-2.26731">
        <ele>60.200000762939</ele>
        <time>2022-01-23T10:37:00.000Z</time>
      </trkpt>
      <trkpt lat="47.25318" lon="-2.26727">
        <ele>60.200000762939</ele>
        <time>2022-01-23T10:37:02.000Z</time>
      </trkpt>
      <trkpt lat="47.25308" lon="-2.26726">
        <ele>60.200000762939</ele>
        <time>2022-01-23T10:37:04.000Z</time>
      </trkpt>
      <trkpt lat="47.253" lon="-2.26726">
        <ele>60.200000762939</ele>
        <time>2022-01-23T10:37:06.000Z</time>
      </trkpt>
      <trkpt lat="47.25273" lon="-2.26728">
        <ele>60.599998474121</ele>
        <time>2022-01-23T10:37:11.000Z</time>
      </trkpt>
      <trkpt lat="47.25267" lon="-2.26729">
        <ele>61</ele>
        <time>2022-01-23T10:37:12.000Z</time>
      </trkpt>
      <trkpt lat="47.25261" lon="-2.2673">
        <ele>61.400001525879</ele>
        <time>2022-01-23T10:37:13.000Z</time>
      </trkpt>
      <trkpt lat="47.25256" lon="-2.26732">
        <ele>61.799999237061</ele>
        <time>2022-01-23T10:37:14.000Z</time>
      </trkpt>
      <trkpt lat="47.25251" lon="-2.26734">
        <ele>62.200000762939</ele>
        <time>2022-01-23T10:37:15.000Z</time>
      </trkpt>
      <trkpt lat="47.25245" lon="-2.26738">
        <ele>62.200000762939</ele>
        <time>2022-01-23T10:37:16.000Z</time>
      </trkpt>
      <trkpt lat="47.25236" lon="-2.26745">
        <ele>62.200000762939</ele>
        <time>2022-01-23T10:37:18.000Z</time>
      </trkpt>
      <trkpt lat="47.25218" lon="-2.2676">
        <ele>62.200000762939</ele>
        <time>2022-01-23T10:37:22.000Z</time>
      </trkpt>
      <trkpt lat="47.25191" lon="-2.26779">
        <ele>62.200000762939</ele>
        <time>2022-01-23T10:37:28.000Z</time>
      </trkpt>
      <trkpt lat="47.25187" lon="-2.26781">
        <ele>62.200000762939</ele>
        <time>2022-01-23T10:37:29.000Z</time>
      </trkpt>
      <trkpt lat="47.25178" lon="-2.26788">
        <ele>62.200000762939</ele>
        <time>2022-01-23T10:37:31.000Z</time>
      </trkpt>
      <trkpt lat="47.25172" lon="-2.26798">
        <ele>62.200000762939</ele>
        <time>2022-01-23T10:37:33.000Z</time>
      </trkpt>
      <trkpt lat="47.25161" lon="-2.26819">
        <ele>62.200000762939</ele>
        <time>2022-01-23T10:37:37.000Z</time>
      </trkpt>
      <trkpt lat="47.25158" lon="-2.26833">
        <ele>62.200000762939</ele>
        <time>2022-01-23T10:37:39.000Z</time>
      </trkpt>
      <trkpt lat="47.2515" lon="-2.26866">
        <ele>62.200000762939</ele>
        <time>2022-01-23T10:37:44.000Z</time>
      </trkpt>
      <trkpt lat="47.25149" lon="-2.26881">
        <ele>62.200000762939</ele>
        <time>2022-01-23T10:37:47.000Z</time>
      </trkpt>
      <trkpt lat="47.25149" lon="-2.2692">
        <ele>62.200000762939</ele>
        <time>2022-01-23T10:37:52.000Z</time>
      </trkpt>
      <trkpt lat="47.25148" lon="-2.26936">
        <ele>62.200000762939</ele>
        <time>2022-01-23T10:37:54.000Z</time>
      </trkpt>
      <trkpt lat="47.25153" lon="-2.26949">
        <ele>62.200000762939</ele>
        <time>2022-01-23T10:37:56.000Z</time>
      </trkpt>
      <trkpt lat="47.25161" lon="-2.26967">
        <ele>62.200000762939</ele>
        <time>2022-01-23T10:37:59.000Z</time>
      </trkpt>
      <trkpt lat="47.25164" lon="-2.26972">
        <ele>62.200000762939</ele>
        <time>2022-01-23T10:38:00.000Z</time>
      </trkpt>
      <trkpt lat="47.25174" lon="-2.26973">
        <ele>62.200000762939</ele>
        <time>2022-01-23T10:38:03.000Z</time>
      </trkpt>
      <trkpt lat="47.2518" lon="-2.26984">
        <ele>62.200000762939</ele>
        <time>2022-01-23T10:38:06.000Z</time>
      </trkpt>
      <trkpt lat="47.25181" lon="-2.26997">
        <ele>62.200000762939</ele>
        <time>2022-01-23T10:38:08.000Z</time>
      </trkpt>
      <trkpt lat="47.25182" lon="-2.27005">
        <ele>62.200000762939</ele>
        <time>2022-01-23T10:38:09.000Z</time>
      </trkpt>
      <trkpt lat="47.25184" lon="-2.2701">
        <ele>62.200000762939</ele>
        <time>2022-01-23T10:38:10.000Z</time>
      </trkpt>
      <trkpt lat="47.25194" lon="-2.2703">
        <ele>62.200000762939</ele>
        <time>2022-01-23T10:38:14.000Z</time>
      </trkpt>
      <trkpt lat="47.25197" lon="-2.27036">
        <ele>62.200000762939</ele>
        <time>2022-01-23T10:38:15.000Z</time>
      </trkpt>
      <trkpt lat="47.25202" lon="-2.2705">
        <ele>62.200000762939</ele>
        <time>2022-01-23T10:38:17.000Z</time>
      </trkpt>
      <trkpt lat="47.25206" lon="-2.27064">
        <ele>62.200000762939</ele>
        <time>2022-01-23T10:38:19.000Z</time>
      </trkpt>
      <trkpt lat="47.25209" lon="-2.27071">
        <ele>62.200000762939</ele>
        <time>2022-01-23T10:38:20.000Z</time>
      </trkpt>
      <trkpt lat="47.2522" lon="-2.27088">
        <ele>62.200000762939</ele>
        <time>2022-01-23T10:38:23.000Z</time>
      </trkpt>
      <trkpt lat="47.25225" lon="-2.27093">
        <ele>62.200000762939</ele>
        <time>2022-01-23T10:38:24.000Z</time>
      </trkpt>
      <trkpt lat="47.25228" lon="-2.27099">
        <ele>62.200000762939</ele>
        <time>2022-01-23T10:38:25.000Z</time>
      </trkpt>
      <trkpt lat="47.25238" lon="-2.27117">
        <ele>62.200000762939</ele>
        <time>2022-01-23T10:38:28.000Z</time>
      </trkpt>
      <trkpt lat="47.25252" lon="-2.27141">
        <ele>62.200000762939</ele>
        <time>2022-01-23T10:38:32.000Z</time>
      </trkpt>
      <trkpt lat="47.2526" lon="-2.27148">
        <ele>62.200000762939</ele>
        <time>2022-01-23T10:38:34.000Z</time>
      </trkpt>
      <trkpt lat="47.25266" lon="-2.27159">
        <ele>62.200000762939</ele>
        <time>2022-01-23T10:38:36.000Z</time>
      </trkpt>
      <trkpt lat="47.25276" lon="-2.27175">
        <ele>62.200000762939</ele>
        <time>2022-01-23T10:38:39.000Z</time>
      </trkpt>
      <trkpt lat="47.2529" lon="-2.27201">
        <ele>62.200000762939</ele>
        <time>2022-01-23T10:38:44.000Z</time>
      </trkpt>
      <trkpt lat="47.25295" lon="-2.27214">
        <ele>62.200000762939</ele>
        <time>2022-01-23T10:38:46.000Z</time>
      </trkpt>
      <trkpt lat="47.25303" lon="-2.27234">
        <ele>62.200000762939</ele>
        <time>2022-01-23T10:38:49.000Z</time>
      </trkpt>
      <trkpt lat="47.25309" lon="-2.27247">
        <ele>62.200000762939</ele>
        <time>2022-01-23T10:38:51.000Z</time>
      </trkpt>
      <trkpt lat="47.25317" lon="-2.27258">
        <ele>62.200000762939</ele>
        <time>2022-01-23T10:38:53.000Z</time>
      </trkpt>
      <trkpt lat="47.25329" lon="-2.27271">
        <ele>62.200000762939</ele>
        <time>2022-01-23T10:38:56.000Z</time>
      </trkpt>
      <trkpt lat="47.25336" lon="-2.27281">
        <ele>62.200000762939</ele>
        <time>2022-01-23T10:38:58.000Z</time>
      </trkpt>
      <trkpt lat="47.25341" lon="-2.27292">
        <ele>62.200000762939</ele>
        <time>2022-01-23T10:39:00.000Z</time>
      </trkpt>
      <trkpt lat="47.25343" lon="-2.27298">
        <ele>62.200000762939</ele>
        <time>2022-01-23T10:39:01.000Z</time>
      </trkpt>
      <trkpt lat="47.25348" lon="-2.27318">
        <ele>62.200000762939</ele>
        <time>2022-01-23T10:39:04.000Z</time>
      </trkpt>
      <trkpt lat="47.25352" lon="-2.27323">
        <ele>62.200000762939</ele>
        <time>2022-01-23T10:39:05.000Z</time>
      </trkpt>
      <trkpt lat="47.25364" lon="-2.27343">
        <ele>62.200000762939</ele>
        <time>2022-01-23T10:39:10.000Z</time>
      </trkpt>
      <trkpt lat="47.25367" lon="-2.27358">
        <ele>62.200000762939</ele>
        <time>2022-01-23T10:39:14.000Z</time>
      </trkpt>
      <trkpt lat="47.25371" lon="-2.27372">
        <ele>62.200000762939</ele>
        <time>2022-01-23T10:39:17.000Z</time>
      </trkpt>
      <trkpt lat="47.25375" lon="-2.27374">
        <ele>62.200000762939</ele>
        <time>2022-01-23T10:39:18.000Z</time>
      </trkpt>
      <trkpt lat="47.25387" lon="-2.27373">
        <ele>62.200000762939</ele>
        <time>2022-01-23T10:39:21.000Z</time>
      </trkpt>
      <trkpt lat="47.25395" lon="-2.27387">
        <ele>62.200000762939</ele>
        <time>2022-01-23T10:39:24.000Z</time>
      </trkpt>
      <trkpt lat="47.25402" lon="-2.27411">
        <ele>62.200000762939</ele>
        <time>2022-01-23T10:39:27.000Z</time>
      </trkpt>
      <trkpt lat="47.25406" lon="-2.27428">
        <ele>62.200000762939</ele>
        <time>2022-01-23T10:39:29.000Z</time>
      </trkpt>
      <trkpt lat="47.25409" lon="-2.27437">
        <ele>62.200000762939</ele>
        <time>2022-01-23T10:39:30.000Z</time>
      </trkpt>
      <trkpt lat="47.25422" lon="-2.27468">
        <ele>62.200000762939</ele>
        <time>2022-01-23T10:39:34.000Z</time>
      </trkpt>
      <trkpt lat="47.25436" lon="-2.27496">
        <ele>62.200000762939</ele>
        <time>2022-01-23T10:39:38.000Z</time>
      </trkpt>
      <trkpt lat="47.25441" lon="-2.27501">
        <ele>62.200000762939</ele>
        <time>2022-01-23T10:39:39.000Z</time>
      </trkpt>
      <trkpt lat="47.25454" lon="-2.27529">
        <ele>62.200000762939</ele>
        <time>2022-01-23T10:39:43.000Z</time>
      </trkpt>
      <trkpt lat="47.25458" lon="-2.27545">
        <ele>62.200000762939</ele>
        <time>2022-01-23T10:39:45.000Z</time>
      </trkpt>
      <trkpt lat="47.25465" lon="-2.27569">
        <ele>62.200000762939</ele>
        <time>2022-01-23T10:39:48.000Z</time>
      </trkpt>
      <trkpt lat="47.25466" lon="-2.27576">
        <ele>62.200000762939</ele>
        <time>2022-01-23T10:39:49.000Z</time>
      </trkpt>
      <trkpt lat="47.25474" lon="-2.27602">
        <ele>62.200000762939</ele>
        <time>2022-01-23T10:39:53.000Z</time>
      </trkpt>
      <trkpt lat="47.25477" lon="-2.27607">
        <ele>62.200000762939</ele>
        <time>2022-01-23T10:39:54.000Z</time>
      </trkpt>
      <trkpt lat="47.25484" lon="-2.27623">
        <ele>62.200000762939</ele>
        <time>2022-01-23T10:39:57.000Z</time>
      </trkpt>
      <trkpt lat="47.25487" lon="-2.27635">
        <ele>62.200000762939</ele>
        <time>2022-01-23T10:39:59.000Z</time>
      </trkpt>
      <trkpt lat="47.25489" lon="-2.27651">
        <ele>62.200000762939</ele>
        <time>2022-01-23T10:40:01.000Z</time>
      </trkpt>
      <trkpt lat="47.25491" lon="-2.27659">
        <ele>62.200000762939</ele>
        <time>2022-01-23T10:40:02.000Z</time>
      </trkpt>
      <trkpt lat="47.25494" lon="-2.27675">
        <ele>62.200000762939</ele>
        <time>2022-01-23T10:40:04.000Z</time>
      </trkpt>
      <trkpt lat="47.25507" lon="-2.27725">
        <ele>62.200000762939</ele>
        <time>2022-01-23T10:40:10.000Z</time>
      </trkpt>
      <trkpt lat="47.25508" lon="-2.27733">
        <ele>62.200000762939</ele>
        <time>2022-01-23T10:40:11.000Z</time>
      </trkpt>
      <trkpt lat="47.25505" lon="-2.27749">
        <ele>62.200000762939</ele>
        <time>2022-01-23T10:40:14.000Z</time>
      </trkpt>
      <trkpt lat="47.2549" lon="-2.27768">
        <ele>62.200000762939</ele>
        <time>2022-01-23T10:40:18.000Z</time>
      </trkpt>
      <trkpt lat="47.25463" lon="-2.27801">
        <ele>62.200000762939</ele>
        <time>2022-01-23T10:40:23.000Z</time>
      </trkpt>
      <trkpt lat="47.25433" lon="-2.27827">
        <ele>62.200000762939</ele>
        <time>2022-01-23T10:40:27.000Z</time>
      </trkpt>
      <trkpt lat="47.25426" lon="-2.27832">
        <ele>62.200000762939</ele>
        <time>2022-01-23T10:40:28.000Z</time>
      </trkpt>
      <trkpt lat="47.25393" lon="-2.2785">
        <ele>61.799999237061</ele>
        <time>2022-01-23T10:40:33.000Z</time>
      </trkpt>
      <trkpt lat="47.25386" lon="-2.27853">
        <ele>61.400001525879</ele>
        <time>2022-01-23T10:40:34.000Z</time>
      </trkpt>
      <trkpt lat="47.25379" lon="-2.27855">
        <ele>61</ele>
        <time>2022-01-23T10:40:35.000Z</time>
      </trkpt>
      <trkpt lat="47.25372" lon="-2.27857">
        <ele>60.599998474121</ele>
        <time>2022-01-23T10:40:36.000Z</time>
      </trkpt>
      <trkpt lat="47.25364" lon="-2.27859">
        <ele>60</ele>
        <time>2022-01-23T10:40:37.000Z</time>
      </trkpt>
      <trkpt lat="47.25342" lon="-2.27866">
        <ele>60</ele>
        <time>2022-01-23T10:40:40.000Z</time>
      </trkpt>
      <trkpt lat="47.25291" lon="-2.27875">
        <ele>60</ele>
        <time>2022-01-23T10:40:47.000Z</time>
      </trkpt>
      <trkpt lat="47.25268" lon="-2.27881">
        <ele>59.599998474121</ele>
        <time>2022-01-23T10:40:50.000Z</time>
      </trkpt>
      <trkpt lat="47.25261" lon="-2.27884">
        <ele>59.200000762939</ele>
        <time>2022-01-23T10:40:51.000Z</time>
      </trkpt>
      <trkpt lat="47.25254" lon="-2.27887">
        <ele>58.799999237061</ele>
        <time>2022-01-23T10:40:52.000Z</time>
      </trkpt>
      <trkpt lat="47.25247" lon="-2.2789">
        <ele>58.400001525879</ele>
        <time>2022-01-23T10:40:53.000Z</time>
      </trkpt>
      <trkpt lat="47.2524" lon="-2.27894">
        <ele>58</ele>
        <time>2022-01-23T10:40:54.000Z</time>
      </trkpt>
      <trkpt lat="47.252" lon="-2.27915">
        <ele>58</ele>
        <time>2022-01-23T10:41:00.000Z</time>
      </trkpt>
      <trkpt lat="47.2516" lon="-2.27943">
        <ele>58</ele>
        <time>2022-01-23T10:41:06.000Z</time>
      </trkpt>
      <trkpt lat="47.25147" lon="-2.27952">
        <ele>57.599998474121</ele>
        <time>2022-01-23T10:41:08.000Z</time>
      </trkpt>
      <trkpt lat="47.25141" lon="-2.27958">
        <ele>57.200000762939</ele>
        <time>2022-01-23T10:41:09.000Z</time>
      </trkpt>
      <trkpt lat="47.25135" lon="-2.27964">
        <ele>56.799999237061</ele>
        <time>2022-01-23T10:41:10.000Z</time>
      </trkpt>
      <trkpt lat="47.25129" lon="-2.2797">
        <ele>56.400001525879</ele>
        <time>2022-01-23T10:41:11.000Z</time>
      </trkpt>
      <trkpt lat="47.25123" lon="-2.27977">
        <ele>56</ele>
        <time>2022-01-23T10:41:12.000Z</time>
      </trkpt>
      <trkpt lat="47.25118" lon="-2.27985">
        <ele>56</ele>
        <time>2022-01-23T10:41:13.000Z</time>
      </trkpt>
      <trkpt lat="47.25104" lon="-2.28012">
        <ele>56</ele>
        <time>2022-01-23T10:41:16.000Z</time>
      </trkpt>
      <trkpt lat="47.251" lon="-2.28021">
        <ele>55.599998474121</ele>
        <time>2022-01-23T10:41:17.000Z</time>
      </trkpt>
      <trkpt lat="47.25097" lon="-2.28031">
        <ele>55.200000762939</ele>
        <time>2022-01-23T10:41:18.000Z</time>
      </trkpt>
      <trkpt lat="47.25094" lon="-2.28039">
        <ele>54.799999237061</ele>
        <time>2022-01-23T10:41:19.000Z</time>
      </trkpt>
      <trkpt lat="47.25092" lon="-2.28046">
        <ele>54.400001525879</ele>
        <time>2022-01-23T10:41:20.000Z</time>
      </trkpt>
      <trkpt lat="47.25091" lon="-2.28051">
        <ele>54</ele>
        <time>2022-01-23T10:41:21.000Z</time>
      </trkpt>
      <trkpt lat="47.25084" lon="-2.28065">
        <ele>53.599998474121</ele>
        <time>2022-01-23T10:41:25.000Z</time>
      </trkpt>
      <trkpt lat="47.25083" lon="-2.2807">
        <ele>53.200000762939</ele>
        <time>2022-01-23T10:41:26.000Z</time>
      </trkpt>
      <trkpt lat="47.2508" lon="-2.28075">
        <ele>52.799999237061</ele>
        <time>2022-01-23T10:41:27.000Z</time>
      </trkpt>
      <trkpt lat="47.25077" lon="-2.28081">
        <ele>52.400001525879</ele>
        <time>2022-01-23T10:41:28.000Z</time>
      </trkpt>
      <trkpt lat="47.25076" lon="-2.28088">
        <ele>52</ele>
        <time>2022-01-23T10:41:29.000Z</time>
      </trkpt>
      <trkpt lat="47.25073" lon="-2.28111">
        <ele>52</ele>
        <time>2022-01-23T10:41:33.000Z</time>
      </trkpt>
      <trkpt lat="47.2507" lon="-2.28125">
        <ele>52</ele>
        <time>2022-01-23T10:41:35.000Z</time>
      </trkpt>
      <trkpt lat="47.25065" lon="-2.2814">
        <ele>52</ele>
        <time>2022-01-23T10:41:37.000Z</time>
      </trkpt>
      <trkpt lat="47.25048" lon="-2.28199">
        <ele>52</ele>
        <time>2022-01-23T10:41:44.000Z</time>
      </trkpt>
      <trkpt lat="47.25034" lon="-2.28259">
        <ele>52</ele>
        <time>2022-01-23T10:41:51.000Z</time>
      </trkpt>
      <trkpt lat="47.25029" lon="-2.28303">
        <ele>52</ele>
        <time>2022-01-23T10:41:56.000Z</time>
      </trkpt>
      <trkpt lat="47.25029" lon="-2.28311">
        <ele>52</ele>
        <time>2022-01-23T10:41:57.000Z</time>
      </trkpt>
      <trkpt lat="47.25028" lon="-2.28318">
        <ele>52</ele>
        <time>2022-01-23T10:41:58.000Z</time>
      </trkpt>
      <trkpt lat="47.25022" lon="-2.28328">
        <ele>52</ele>
        <time>2022-01-23T10:42:00.000Z</time>
      </trkpt>
      <trkpt lat="47.25017" lon="-2.28332">
        <ele>51.400001525879</ele>
        <time>2022-01-23T10:42:01.000Z</time>
      </trkpt>
      <trkpt lat="47.25012" lon="-2.28338">
        <ele>50.400001525879</ele>
        <time>2022-01-23T10:42:02.000Z</time>
      </trkpt>
      <trkpt lat="47.25006" lon="-2.28345">
        <ele>50</ele>
        <time>2022-01-23T10:42:03.000Z</time>
      </trkpt>
      <trkpt lat="47.25001" lon="-2.28354">
        <ele>49.599998474121</ele>
        <time>2022-01-23T10:42:04.000Z</time>
      </trkpt>
      <trkpt lat="47.24989" lon="-2.28383">
        <ele>49.200000762939</ele>
        <time>2022-01-23T10:42:07.000Z</time>
      </trkpt>
      <trkpt lat="47.24984" lon="-2.28391">
        <ele>48.799999237061</ele>
        <time>2022-01-23T10:42:08.000Z</time>
      </trkpt>
      <trkpt lat="47.24978" lon="-2.28397">
        <ele>48.200000762939</ele>
        <time>2022-01-23T10:42:09.000Z</time>
      </trkpt>
      <trkpt lat="47.24971" lon="-2.28401">
        <ele>47.799999237061</ele>
        <time>2022-01-23T10:42:10.000Z</time>
      </trkpt>
      <trkpt lat="47.24965" lon="-2.28406">
        <ele>47.400001525879</ele>
        <time>2022-01-23T10:42:11.000Z</time>
      </trkpt>
      <trkpt lat="47.24959" lon="-2.28409">
        <ele>47.400001525879</ele>
        <time>2022-01-23T10:42:12.000Z</time>
      </trkpt>
      <trkpt lat="47.24943" lon="-2.28417">
        <ele>48</ele>
        <time>2022-01-23T10:42:15.000Z</time>
      </trkpt>
      <trkpt lat="47.24937" lon="-2.2842">
        <ele>48.400001525879</ele>
        <time>2022-01-23T10:42:16.000Z</time>
      </trkpt>
      <trkpt lat="47.24931" lon="-2.28423">
        <ele>48.799999237061</ele>
        <time>2022-01-23T10:42:17.000Z</time>
      </trkpt>
      <trkpt lat="47.24926" lon="-2.28425">
        <ele>49.200000762939</ele>
        <time>2022-01-23T10:42:18.000Z</time>
      </trkpt>
      <trkpt lat="47.24919" lon="-2.28427">
        <ele>49.799999237061</ele>
        <time>2022-01-23T10:42:19.000Z</time>
      </trkpt>
      <trkpt lat="47.24912" lon="-2.28429">
        <ele>49.799999237061</ele>
        <time>2022-01-23T10:42:20.000Z</time>
      </trkpt>
      <trkpt lat="47.249" lon="-2.28433">
        <ele>50.200000762939</ele>
        <time>2022-01-23T10:42:22.000Z</time>
      </trkpt>
      <trkpt lat="47.24894" lon="-2.28437">
        <ele>50.599998474121</ele>
        <time>2022-01-23T10:42:23.000Z</time>
      </trkpt>
      <trkpt lat="47.24889" lon="-2.28441">
        <ele>51</ele>
        <time>2022-01-23T10:42:24.000Z</time>
      </trkpt>
      <trkpt lat="47.24884" lon="-2.28446">
        <ele>51.400001525879</ele>
        <time>2022-01-23T10:42:25.000Z</time>
      </trkpt>
      <trkpt lat="47.24878" lon="-2.28451">
        <ele>51.799999237061</ele>
        <time>2022-01-23T10:42:26.000Z</time>
      </trkpt>
      <trkpt lat="47.24863" lon="-2.28467">
        <ele>52.200000762939</ele>
        <time>2022-01-23T10:42:29.000Z</time>
      </trkpt>
      <trkpt lat="47.24858" lon="-2.28472">
        <ele>52.599998474121</ele>
        <time>2022-01-23T10:42:30.000Z</time>
      </trkpt>
      <trkpt lat="47.24853" lon="-2.28476">
        <ele>53.200000762939</ele>
        <time>2022-01-23T10:42:31.000Z</time>
      </trkpt>
      <trkpt lat="47.24848" lon="-2.2848">
        <ele>53.599998474121</ele>
        <time>2022-01-23T10:42:32.000Z</time>
      </trkpt>
      <trkpt lat="47.24843" lon="-2.28484">
        <ele>54</ele>
        <time>2022-01-23T10:42:33.000Z</time>
      </trkpt>
      <trkpt lat="47.24819" lon="-2.28502">
        <ele>54</ele>
        <time>2022-01-23T10:42:38.000Z</time>
      </trkpt>
      <trkpt lat="47.24791" lon="-2.28526">
        <ele>54.400001525879</ele>
        <time>2022-01-23T10:42:44.000Z</time>
      </trkpt>
      <trkpt lat="47.24786" lon="-2.28531">
        <ele>54.799999237061</ele>
        <time>2022-01-23T10:42:45.000Z</time>
      </trkpt>
      <trkpt lat="47.24781" lon="-2.28535">
        <ele>55.400001525879</ele>
        <time>2022-01-23T10:42:46.000Z</time>
      </trkpt>
      <trkpt lat="47.24777" lon="-2.2854">
        <ele>55.799999237061</ele>
        <time>2022-01-23T10:42:47.000Z</time>
      </trkpt>
      <trkpt lat="47.24772" lon="-2.28545">
        <ele>56.200000762939</ele>
        <time>2022-01-23T10:42:48.000Z</time>
      </trkpt>
      <trkpt lat="47.24749" lon="-2.28572">
        <ele>56.200000762939</ele>
        <time>2022-01-23T10:42:53.000Z</time>
      </trkpt>
      <trkpt lat="47.24742" lon="-2.28596">
        <ele>56.200000762939</ele>
        <time>2022-01-23T10:42:56.000Z</time>
      </trkpt>
      <trkpt lat="47.2474" lon="-2.28605">
        <ele>56.200000762939</ele>
        <time>2022-01-23T10:42:57.000Z</time>
      </trkpt>
      <trkpt lat="47.24735" lon="-2.2862">
        <ele>56.200000762939</ele>
        <time>2022-01-23T10:42:59.000Z</time>
      </trkpt>
      <trkpt lat="47.24728" lon="-2.28634">
        <ele>56.200000762939</ele>
        <time>2022-01-23T10:43:01.000Z</time>
      </trkpt>
      <trkpt lat="47.24712" lon="-2.28648">
        <ele>56.200000762939</ele>
        <time>2022-01-23T10:43:04.000Z</time>
      </trkpt>
      <trkpt lat="47.24707" lon="-2.28653">
        <ele>56.200000762939</ele>
        <time>2022-01-23T10:43:05.000Z</time>
      </trkpt>
      <trkpt lat="47.24694" lon="-2.28668">
        <ele>56.200000762939</ele>
        <time>2022-01-23T10:43:08.000Z</time>
      </trkpt>
      <trkpt lat="47.2469" lon="-2.28674">
        <ele>56.200000762939</ele>
        <time>2022-01-23T10:43:09.000Z</time>
      </trkpt>
      <trkpt lat="47.2466" lon="-2.2871">
        <ele>56.200000762939</ele>
        <time>2022-01-23T10:43:15.000Z</time>
      </trkpt>
      <trkpt lat="47.24632" lon="-2.28747">
        <ele>56.200000762939</ele>
        <time>2022-01-23T10:43:21.000Z</time>
      </trkpt>
      <trkpt lat="47.24599" lon="-2.28792">
        <ele>56.200000762939</ele>
        <time>2022-01-23T10:43:28.000Z</time>
      </trkpt>
      <trkpt lat="47.24588" lon="-2.288">
        <ele>56.200000762939</ele>
        <time>2022-01-23T10:43:30.000Z</time>
      </trkpt>
      <trkpt lat="47.24575" lon="-2.28809">
        <ele>56.200000762939</ele>
        <time>2022-01-23T10:43:32.000Z</time>
      </trkpt>
      <trkpt lat="47.24569" lon="-2.28814">
        <ele>55.799999237061</ele>
        <time>2022-01-23T10:43:33.000Z</time>
      </trkpt>
      <trkpt lat="47.24563" lon="-2.28821">
        <ele>55.400001525879</ele>
        <time>2022-01-23T10:43:34.000Z</time>
      </trkpt>
      <trkpt lat="47.24559" lon="-2.28827">
        <ele>55</ele>
        <time>2022-01-23T10:43:35.000Z</time>
      </trkpt>
      <trkpt lat="47.24554" lon="-2.28834">
        <ele>54.599998474121</ele>
        <time>2022-01-23T10:43:36.000Z</time>
      </trkpt>
      <trkpt lat="47.24549" lon="-2.2884">
        <ele>54.200000762939</ele>
        <time>2022-01-23T10:43:37.000Z</time>
      </trkpt>
      <trkpt lat="47.24529" lon="-2.28866">
        <ele>54.200000762939</ele>
        <time>2022-01-23T10:43:41.000Z</time>
      </trkpt>
      <trkpt lat="47.24523" lon="-2.28892">
        <ele>54.200000762939</ele>
        <time>2022-01-23T10:43:44.000Z</time>
      </trkpt>
      <trkpt lat="47.24529" lon="-2.28918">
        <ele>54.200000762939</ele>
        <time>2022-01-23T10:43:47.000Z</time>
      </trkpt>
      <trkpt lat="47.24535" lon="-2.28933">
        <ele>54.200000762939</ele>
        <time>2022-01-23T10:43:49.000Z</time>
      </trkpt>
      <trkpt lat="47.24545" lon="-2.28963">
        <ele>54.200000762939</ele>
        <time>2022-01-23T10:43:53.000Z</time>
      </trkpt>
      <trkpt lat="47.24554" lon="-2.2902">
        <ele>54.200000762939</ele>
        <time>2022-01-23T10:44:00.000Z</time>
      </trkpt>
      <trkpt lat="47.2455" lon="-2.29069">
        <ele>54.200000762939</ele>
        <time>2022-01-23T10:44:06.000Z</time>
      </trkpt>
      <trkpt lat="47.24536" lon="-2.29133">
        <ele>54.200000762939</ele>
        <time>2022-01-23T10:44:14.000Z</time>
      </trkpt>
      <trkpt lat="47.24525" lon="-2.29173">
        <ele>54.200000762939</ele>
        <time>2022-01-23T10:44:19.000Z</time>
      </trkpt>
      <trkpt lat="47.24523" lon="-2.29182">
        <ele>54.200000762939</ele>
        <time>2022-01-23T10:44:20.000Z</time>
      </trkpt>
      <trkpt lat="47.24522" lon="-2.2919">
        <ele>54.599998474121</ele>
        <time>2022-01-23T10:44:21.000Z</time>
      </trkpt>
      <trkpt lat="47.24521" lon="-2.29199">
        <ele>55</ele>
        <time>2022-01-23T10:44:22.000Z</time>
      </trkpt>
      <trkpt lat="47.24519" lon="-2.29207">
        <ele>55.400001525879</ele>
        <time>2022-01-23T10:44:23.000Z</time>
      </trkpt>
      <trkpt lat="47.24518" lon="-2.29215">
        <ele>55.799999237061</ele>
        <time>2022-01-23T10:44:24.000Z</time>
      </trkpt>
      <trkpt lat="47.24517" lon="-2.29224">
        <ele>56.200000762939</ele>
        <time>2022-01-23T10:44:25.000Z</time>
      </trkpt>
      <trkpt lat="47.24516" lon="-2.29258">
        <ele>56.200000762939</ele>
        <time>2022-01-23T10:44:29.000Z</time>
      </trkpt>
      <trkpt lat="47.24517" lon="-2.29315">
        <ele>56.200000762939</ele>
        <time>2022-01-23T10:44:36.000Z</time>
      </trkpt>
      <trkpt lat="47.24519" lon="-2.29331">
        <ele>56.200000762939</ele>
        <time>2022-01-23T10:44:38.000Z</time>
      </trkpt>
      <trkpt lat="47.2452" lon="-2.29347">
        <ele>56.200000762939</ele>
        <time>2022-01-23T10:44:40.000Z</time>
      </trkpt>
      <trkpt lat="47.24521" lon="-2.29354">
        <ele>56.200000762939</ele>
        <time>2022-01-23T10:44:41.000Z</time>
      </trkpt>
      <trkpt lat="47.24523" lon="-2.29398">
        <ele>56.200000762939</ele>
        <time>2022-01-23T10:44:47.000Z</time>
      </trkpt>
      <trkpt lat="47.24519" lon="-2.29418">
        <ele>56.200000762939</ele>
        <time>2022-01-23T10:44:52.000Z</time>
      </trkpt>
      <trkpt lat="47.24518" lon="-2.29418">
        <ele>56.200000762939</ele>
        <time>2022-01-23T10:44:53.000Z</time>
      </trkpt>
      <trkpt lat="47.24508" lon="-2.29421">
        <ele>56.200000762939</ele>
        <time>2022-01-23T10:44:56.000Z</time>
      </trkpt>
      <trkpt lat="47.24486" lon="-2.29424">
        <ele>56.200000762939</ele>
        <time>2022-01-23T10:45:00.000Z</time>
      </trkpt>
      <trkpt lat="47.24456" lon="-2.29427">
        <ele>56.200000762939</ele>
        <time>2022-01-23T10:45:05.000Z</time>
      </trkpt>
      <trkpt lat="47.24432" lon="-2.29431">
        <ele>56.200000762939</ele>
        <time>2022-01-23T10:45:09.000Z</time>
      </trkpt>
      <trkpt lat="47.2442" lon="-2.29433">
        <ele>56.200000762939</ele>
        <time>2022-01-23T10:45:11.000Z</time>
      </trkpt>
      <trkpt lat="47.24399" lon="-2.29436">
        <ele>56.200000762939</ele>
        <time>2022-01-23T10:45:14.000Z</time>
      </trkpt>
      <trkpt lat="47.24393" lon="-2.29439">
        <ele>55.799999237061</ele>
        <time>2022-01-23T10:45:15.000Z</time>
      </trkpt>
      <trkpt lat="47.24386" lon="-2.29444">
        <ele>55.200000762939</ele>
        <time>2022-01-23T10:45:16.000Z</time>
      </trkpt>
      <trkpt lat="47.24381" lon="-2.29449">
        <ele>54.799999237061</ele>
        <time>2022-01-23T10:45:17.000Z</time>
      </trkpt>
      <trkpt lat="47.24375" lon="-2.29456">
        <ele>54.400001525879</ele>
        <time>2022-01-23T10:45:18.000Z</time>
      </trkpt>
      <trkpt lat="47.2437" lon="-2.29462">
        <ele>54</ele>
        <time>2022-01-23T10:45:19.000Z</time>
      </trkpt>
      <trkpt lat="47.24365" lon="-2.29467">
        <ele>54</ele>
        <time>2022-01-23T10:45:20.000Z</time>
      </trkpt>
      <trkpt lat="47.24359" lon="-2.2947">
        <ele>54</ele>
        <time>2022-01-23T10:45:21.000Z</time>
      </trkpt>
      <trkpt lat="47.24344" lon="-2.29468">
        <ele>54</ele>
        <time>2022-01-23T10:45:23.000Z</time>
      </trkpt>
      <trkpt lat="47.24328" lon="-2.2946">
        <ele>54</ele>
        <time>2022-01-23T10:45:25.000Z</time>
      </trkpt>
      <trkpt lat="47.24324" lon="-2.29453">
        <ele>54</ele>
        <time>2022-01-23T10:45:26.000Z</time>
      </trkpt>
      <trkpt lat="47.24319" lon="-2.29448">
        <ele>54</ele>
        <time>2022-01-23T10:45:27.000Z</time>
      </trkpt>
      <trkpt lat="47.24308" lon="-2.29439">
        <ele>54</ele>
        <time>2022-01-23T10:45:29.000Z</time>
      </trkpt>
      <trkpt lat="47.24296" lon="-2.29438">
        <ele>53.400001525879</ele>
        <time>2022-01-23T10:45:31.000Z</time>
      </trkpt>
      <trkpt lat="47.24289" lon="-2.2944">
        <ele>53</ele>
        <time>2022-01-23T10:45:32.000Z</time>
      </trkpt>
      <trkpt lat="47.24283" lon="-2.29443">
        <ele>52.599998474121</ele>
        <time>2022-01-23T10:45:33.000Z</time>
      </trkpt>
      <trkpt lat="47.24277" lon="-2.29447">
        <ele>52.200000762939</ele>
        <time>2022-01-23T10:45:34.000Z</time>
      </trkpt>
      <trkpt lat="47.24271" lon="-2.29451">
        <ele>51.799999237061</ele>
        <time>2022-01-23T10:45:35.000Z</time>
      </trkpt>
      <trkpt lat="47.24265" lon="-2.29457">
        <ele>51.799999237061</ele>
        <time>2022-01-23T10:45:36.000Z</time>
      </trkpt>
      <trkpt lat="47.24254" lon="-2.29466">
        <ele>51.799999237061</ele>
        <time>2022-01-23T10:45:38.000Z</time>
      </trkpt>
      <trkpt lat="47.24235" lon="-2.29467">
        <ele>51.799999237061</ele>
        <time>2022-01-23T10:45:41.000Z</time>
      </trkpt>
      <trkpt lat="47.24223" lon="-2.2946">
        <ele>51.799999237061</ele>
        <time>2022-01-23T10:45:43.000Z</time>
      </trkpt>
      <trkpt lat="47.24211" lon="-2.29453">
        <ele>51.799999237061</ele>
        <time>2022-01-23T10:45:45.000Z</time>
      </trkpt>
      <trkpt lat="47.24198" lon="-2.29447">
        <ele>51.799999237061</ele>
        <time>2022-01-23T10:45:47.000Z</time>
      </trkpt>
      <trkpt lat="47.24184" lon="-2.29445">
        <ele>51.799999237061</ele>
        <time>2022-01-23T10:45:49.000Z</time>
      </trkpt>
      <trkpt lat="47.24159" lon="-2.29447">
        <ele>51.799999237061</ele>
        <time>2022-01-23T10:45:53.000Z</time>
      </trkpt>
      <trkpt lat="47.24136" lon="-2.29454">
        <ele>52.200000762939</ele>
        <time>2022-01-23T10:45:57.000Z</time>
      </trkpt>
      <trkpt lat="47.2413" lon="-2.29457">
        <ele>52.599998474121</ele>
        <time>2022-01-23T10:45:58.000Z</time>
      </trkpt>
      <trkpt lat="47.24125" lon="-2.2946">
        <ele>53.200000762939</ele>
        <time>2022-01-23T10:45:59.000Z</time>
      </trkpt>
      <trkpt lat="47.2412" lon="-2.29464">
        <ele>53.599998474121</ele>
        <time>2022-01-23T10:46:00.000Z</time>
      </trkpt>
      <trkpt lat="47.24115" lon="-2.29467">
        <ele>54</ele>
        <time>2022-01-23T10:46:01.000Z</time>
      </trkpt>
      <trkpt lat="47.24106" lon="-2.29475">
        <ele>54</ele>
        <time>2022-01-23T10:46:03.000Z</time>
      </trkpt>
      <trkpt lat="47.24101" lon="-2.2948">
        <ele>54</ele>
        <time>2022-01-23T10:46:04.000Z</time>
      </trkpt>
      <trkpt lat="47.24098" lon="-2.29496">
        <ele>54</ele>
        <time>2022-01-23T10:46:06.000Z</time>
      </trkpt>
      <trkpt lat="47.24101" lon="-2.29522">
        <ele>54</ele>
        <time>2022-01-23T10:46:09.000Z</time>
      </trkpt>
      <trkpt lat="47.24106" lon="-2.29537">
        <ele>54</ele>
        <time>2022-01-23T10:46:11.000Z</time>
      </trkpt>
      <trkpt lat="47.24113" lon="-2.29566">
        <ele>54</ele>
        <time>2022-01-23T10:46:15.000Z</time>
      </trkpt>
      <trkpt lat="47.24113" lon="-2.29573">
        <ele>54</ele>
        <time>2022-01-23T10:46:16.000Z</time>
      </trkpt>
      <trkpt lat="47.2411" lon="-2.29586">
        <ele>54</ele>
        <time>2022-01-23T10:46:18.000Z</time>
      </trkpt>
      <trkpt lat="47.24098" lon="-2.29597">
        <ele>54</ele>
        <time>2022-01-23T10:46:21.000Z</time>
      </trkpt>
      <trkpt lat="47.24079" lon="-2.29609">
        <ele>54.400001525879</ele>
        <time>2022-01-23T10:46:25.000Z</time>
      </trkpt>
      <trkpt lat="47.24074" lon="-2.29612">
        <ele>54.799999237061</ele>
        <time>2022-01-23T10:46:26.000Z</time>
      </trkpt>
      <trkpt lat="47.24068" lon="-2.29615">
        <ele>55.200000762939</ele>
        <time>2022-01-23T10:46:27.000Z</time>
      </trkpt>
      <trkpt lat="47.24064" lon="-2.29618">
        <ele>55.599998474121</ele>
        <time>2022-01-23T10:46:28.000Z</time>
      </trkpt>
      <trkpt lat="47.24059" lon="-2.29622">
        <ele>56</ele>
        <time>2022-01-23T10:46:29.000Z</time>
      </trkpt>
      <trkpt lat="47.2405" lon="-2.2963">
        <ele>56</ele>
        <time>2022-01-23T10:46:31.000Z</time>
      </trkpt>
      <trkpt lat="47.24046" lon="-2.29646">
        <ele>56</ele>
        <time>2022-01-23T10:46:35.000Z</time>
      </trkpt>
      <trkpt lat="47.24051" lon="-2.2966">
        <ele>56</ele>
        <time>2022-01-23T10:46:38.000Z</time>
      </trkpt>
      <trkpt lat="47.24053" lon="-2.29665">
        <ele>56</ele>
        <time>2022-01-23T10:46:39.000Z</time>
      </trkpt>
      <trkpt lat="47.24062" lon="-2.29702">
        <ele>56</ele>
        <time>2022-01-23T10:46:45.000Z</time>
      </trkpt>
      <trkpt lat="47.24071" lon="-2.29743">
        <ele>56</ele>
        <time>2022-01-23T10:46:52.000Z</time>
      </trkpt>
      <trkpt lat="47.2408" lon="-2.29793">
        <ele>56</ele>
        <time>2022-01-23T10:47:00.000Z</time>
      </trkpt>
      <trkpt lat="47.24081" lon="-2.298">
        <ele>56</ele>
        <time>2022-01-23T10:47:01.000Z</time>
      </trkpt>
      <trkpt lat="47.24082" lon="-2.29825">
        <ele>56</ele>
        <time>2022-01-23T10:47:05.000Z</time>
      </trkpt>
      <trkpt lat="47.24085" lon="-2.29829">
        <ele>56</ele>
        <time>2022-01-23T10:47:06.000Z</time>
      </trkpt>
      <trkpt lat="47.24091" lon="-2.29834">
        <ele>56</ele>
        <time>2022-01-23T10:47:08.000Z</time>
      </trkpt>
      <trkpt lat="47.24109" lon="-2.29834">
        <ele>56</ele>
        <time>2022-01-23T10:47:12.000Z</time>
      </trkpt>
      <trkpt lat="47.24117" lon="-2.29832">
        <ele>56</ele>
        <time>2022-01-23T10:47:14.000Z</time>
      </trkpt>
      <trkpt lat="47.24133" lon="-2.29826">
        <ele>56</ele>
        <time>2022-01-23T10:47:17.000Z</time>
      </trkpt>
      <trkpt lat="47.24142" lon="-2.29828">
        <ele>56</ele>
        <time>2022-01-23T10:47:19.000Z</time>
      </trkpt>
      <trkpt lat="47.2415" lon="-2.29834">
        <ele>56</ele>
        <time>2022-01-23T10:47:21.000Z</time>
      </trkpt>
      <trkpt lat="47.24156" lon="-2.29839">
        <ele>56</ele>
        <time>2022-01-23T10:47:23.000Z</time>
      </trkpt>
      <trkpt lat="47.24163" lon="-2.29847">
        <ele>56</ele>
        <time>2022-01-23T10:47:26.000Z</time>
      </trkpt>
      <trkpt lat="47.24169" lon="-2.29862">
        <ele>56</ele>
        <time>2022-01-23T10:47:30.000Z</time>
      </trkpt>
      <trkpt lat="47.24176" lon="-2.29878">
        <ele>56</ele>
        <time>2022-01-23T10:47:36.000Z</time>
      </trkpt>
      <trkpt lat="47.24176" lon="-2.29901">
        <ele>56</ele>
        <time>2022-01-23T10:47:41.000Z</time>
      </trkpt>
      <trkpt lat="47.24171" lon="-2.29932">
        <ele>56</ele>
        <time>2022-01-23T10:47:46.000Z</time>
      </trkpt>
      <trkpt lat="47.24171" lon="-2.29962">
        <ele>56</ele>
        <time>2022-01-23T10:47:51.000Z</time>
      </trkpt>
      <trkpt lat="47.24183" lon="-2.29984">
        <ele>56</ele>
        <time>2022-01-23T10:47:56.000Z</time>
      </trkpt>
      <trkpt lat="47.24185" lon="-2.29988">
        <ele>55.599998474121</ele>
        <time>2022-01-23T10:47:57.000Z</time>
      </trkpt>
      <trkpt lat="47.24186" lon="-2.29992">
        <ele>55.200000762939</ele>
        <time>2022-01-23T10:47:58.000Z</time>
      </trkpt>
      <trkpt lat="47.24187" lon="-2.29999">
        <ele>54.799999237061</ele>
        <time>2022-01-23T10:47:59.000Z</time>
      </trkpt>
      <trkpt lat="47.24187" lon="-2.30004">
        <ele>54.400001525879</ele>
        <time>2022-01-23T10:48:00.000Z</time>
      </trkpt>
      <trkpt lat="47.24187" lon="-2.30008">
        <ele>54</ele>
        <time>2022-01-23T10:48:01.000Z</time>
      </trkpt>
      <trkpt lat="47.24184" lon="-2.30014">
        <ele>54</ele>
        <time>2022-01-23T10:48:05.000Z</time>
      </trkpt>
      <trkpt lat="47.24176" lon="-2.30023">
        <ele>54</ele>
        <time>2022-01-23T10:48:09.000Z</time>
      </trkpt>
      <trkpt lat="47.24176" lon="-2.30028">
        <ele>54</ele>
        <time>2022-01-23T10:48:10.000Z</time>
      </trkpt>
      <trkpt lat="47.24168" lon="-2.30059">
        <ele>54</ele>
        <time>2022-01-23T10:48:15.000Z</time>
      </trkpt>
      <trkpt lat="47.24164" lon="-2.30073">
        <ele>53.599998474121</ele>
        <time>2022-01-23T10:48:17.000Z</time>
      </trkpt>
      <trkpt lat="47.24162" lon="-2.30083">
        <ele>53.200000762939</ele>
        <time>2022-01-23T10:48:18.000Z</time>
      </trkpt>
      <trkpt lat="47.24158" lon="-2.30093">
        <ele>52.799999237061</ele>
        <time>2022-01-23T10:48:19.000Z</time>
      </trkpt>
      <trkpt lat="47.24157" lon="-2.30101">
        <ele>52.400001525879</ele>
        <time>2022-01-23T10:48:20.000Z</time>
      </trkpt>
      <trkpt lat="47.24156" lon="-2.30109">
        <ele>52</ele>
        <time>2022-01-23T10:48:21.000Z</time>
      </trkpt>
      <trkpt lat="47.24151" lon="-2.30124">
        <ele>51.400001525879</ele>
        <time>2022-01-23T10:48:23.000Z</time>
      </trkpt>
      <trkpt lat="47.24147" lon="-2.30132">
        <ele>51</ele>
        <time>2022-01-23T10:48:24.000Z</time>
      </trkpt>
      <trkpt lat="47.24144" lon="-2.30134">
        <ele>50.599998474121</ele>
        <time>2022-01-23T10:48:25.000Z</time>
      </trkpt>
      <trkpt lat="47.24141" lon="-2.30136">
        <ele>50.200000762939</ele>
        <time>2022-01-23T10:48:26.000Z</time>
      </trkpt>
      <trkpt lat="47.24138" lon="-2.30136">
        <ele>49.599998474121</ele>
        <time>2022-01-23T10:48:27.000Z</time>
      </trkpt>
      <trkpt lat="47.24136" lon="-2.30139">
        <ele>49.599998474121</ele>
        <time>2022-01-23T10:48:29.000Z</time>
      </trkpt>
      <trkpt lat="47.24131" lon="-2.30136">
        <ele>49.599998474121</ele>
        <time>2022-01-23T10:48:34.000Z</time>
      </trkpt>
      <trkpt lat="47.2413" lon="-2.30134">
        <ele>49.599998474121</ele>
        <time>2022-01-23T10:48:35.000Z</time>
      </trkpt>
      <trkpt lat="47.24126" lon="-2.30129">
        <ele>50.200000762939</ele>
        <time>2022-01-23T10:48:38.000Z</time>
      </trkpt>
      <trkpt lat="47.24123" lon="-2.30128">
        <ele>50.599998474121</ele>
        <time>2022-01-23T10:48:39.000Z</time>
      </trkpt>
      <trkpt lat="47.24121" lon="-2.30126">
        <ele>51</ele>
        <time>2022-01-23T10:48:40.000Z</time>
      </trkpt>
      <trkpt lat="47.2412" lon="-2.30125">
        <ele>51.400001525879</ele>
        <time>2022-01-23T10:48:41.000Z</time>
      </trkpt>
      <trkpt lat="47.24118" lon="-2.30125">
        <ele>51.799999237061</ele>
        <time>2022-01-23T10:48:42.000Z</time>
      </trkpt>
      <trkpt lat="47.24113" lon="-2.30126">
        <ele>51.799999237061</ele>
        <time>2022-01-23T10:48:44.000Z</time>
      </trkpt>
      <trkpt lat="47.24101" lon="-2.30124">
        <ele>51.799999237061</ele>
        <time>2022-01-23T10:48:48.000Z</time>
      </trkpt>
      <trkpt lat="47.24081" lon="-2.30122">
        <ele>51.799999237061</ele>
        <time>2022-01-23T10:48:54.000Z</time>
      </trkpt>
      <trkpt lat="47.24074" lon="-2.30123">
        <ele>52.200000762939</ele>
        <time>2022-01-23T10:48:56.000Z</time>
      </trkpt>
      <trkpt lat="47.24071" lon="-2.30124">
        <ele>52.599998474121</ele>
        <time>2022-01-23T10:48:57.000Z</time>
      </trkpt>
      <trkpt lat="47.24069" lon="-2.30124">
        <ele>53</ele>
        <time>2022-01-23T10:48:58.000Z</time>
      </trkpt>
      <trkpt lat="47.24066" lon="-2.30125">
        <ele>53.400001525879</ele>
        <time>2022-01-23T10:48:59.000Z</time>
      </trkpt>
      <trkpt lat="47.24063" lon="-2.30124">
        <ele>53.799999237061</ele>
        <time>2022-01-23T10:49:00.000Z</time>
      </trkpt>
      <trkpt lat="47.2406" lon="-2.30122">
        <ele>53.799999237061</ele>
        <time>2022-01-23T10:49:01.000Z</time>
      </trkpt>
      <trkpt lat="47.24055" lon="-2.30122">
        <ele>53.799999237061</ele>
        <time>2022-01-23T10:49:04.000Z</time>
      </trkpt>
      <trkpt lat="47.24045" lon="-2.30123">
        <ele>53.799999237061</ele>
        <time>2022-01-23T10:49:10.000Z</time>
      </trkpt>
      <trkpt lat="47.24033" lon="-2.30122">
        <ele>53.799999237061</ele>
        <time>2022-01-23T10:49:14.000Z</time>
      </trkpt>
      <trkpt lat="47.24025" lon="-2.30121">
        <ele>53.799999237061</ele>
        <time>2022-01-23T10:49:16.000Z</time>
      </trkpt>
      <trkpt lat="47.24014" lon="-2.30131">
        <ele>53.799999237061</ele>
        <time>2022-01-23T10:49:20.000Z</time>
      </trkpt>
      <trkpt lat="47.24009" lon="-2.30136">
        <ele>53.799999237061</ele>
        <time>2022-01-23T10:49:24.000Z</time>
      </trkpt>
      <trkpt lat="47.24007" lon="-2.30145">
        <ele>53.799999237061</ele>
        <time>2022-01-23T10:49:28.000Z</time>
      </trkpt>
      <trkpt lat="47.24008" lon="-2.30149">
        <ele>53.799999237061</ele>
        <time>2022-01-23T10:49:30.000Z</time>
      </trkpt>
      <trkpt lat="47.24011" lon="-2.30154">
        <ele>53.799999237061</ele>
        <time>2022-01-23T10:49:32.000Z</time>
      </trkpt>
      <trkpt lat="47.24015" lon="-2.30161">
        <ele>53.799999237061</ele>
        <time>2022-01-23T10:49:36.000Z</time>
      </trkpt>
      <trkpt lat="47.24026" lon="-2.30173">
        <ele>53.799999237061</ele>
        <time>2022-01-23T10:49:43.000Z</time>
      </trkpt>
      <trkpt lat="47.24035" lon="-2.30182">
        <ele>53.799999237061</ele>
        <time>2022-01-23T10:49:48.000Z</time>
      </trkpt>
      <trkpt lat="47.24038" lon="-2.3018">
        <ele>53.799999237061</ele>
        <time>2022-01-23T10:49:49.000Z</time>
      </trkpt>
      <trkpt lat="47.24044" lon="-2.30176">
        <ele>53.799999237061</ele>
        <time>2022-01-23T10:49:51.000Z</time>
      </trkpt>
      <trkpt lat="47.24052" lon="-2.30171">
        <ele>53.799999237061</ele>
        <time>2022-01-23T10:49:53.000Z</time>
      </trkpt>
      <trkpt lat="47.24057" lon="-2.30169">
        <ele>53.799999237061</ele>
        <time>2022-01-23T10:49:54.000Z</time>
      </trkpt>
      <trkpt lat="47.24066" lon="-2.30165">
        <ele>53.799999237061</ele>
        <time>2022-01-23T10:49:56.000Z</time>
      </trkpt>
      <trkpt lat="47.2407" lon="-2.30162">
        <ele>53.799999237061</ele>
        <time>2022-01-23T10:49:57.000Z</time>
      </trkpt>
      <trkpt lat="47.24081" lon="-2.30156">
        <ele>53.799999237061</ele>
        <time>2022-01-23T10:50:00.000Z</time>
      </trkpt>
      <trkpt lat="47.24102" lon="-2.30161">
        <ele>53.400001525879</ele>
        <time>2022-01-23T10:50:05.000Z</time>
      </trkpt>
      <trkpt lat="47.24105" lon="-2.3016">
        <ele>53</ele>
        <time>2022-01-23T10:50:06.000Z</time>
      </trkpt>
      <trkpt lat="47.24107" lon="-2.30157">
        <ele>52.599998474121</ele>
        <time>2022-01-23T10:50:07.000Z</time>
      </trkpt>
      <trkpt lat="47.2411" lon="-2.30156">
        <ele>52.200000762939</ele>
        <time>2022-01-23T10:50:08.000Z</time>
      </trkpt>
      <trkpt lat="47.24111" lon="-2.30155">
        <ele>51.799999237061</ele>
        <time>2022-01-23T10:50:09.000Z</time>
      </trkpt>
      <trkpt lat="47.24113" lon="-2.30156">
        <ele>51.799999237061</ele>
        <time>2022-01-23T10:50:10.000Z</time>
      </trkpt>
      <trkpt lat="47.24118" lon="-2.30159">
        <ele>51.799999237061</ele>
        <time>2022-01-23T10:50:13.000Z</time>
      </trkpt>
      <trkpt lat="47.2412" lon="-2.3016">
        <ele>51.400001525879</ele>
        <time>2022-01-23T10:50:14.000Z</time>
      </trkpt>
      <trkpt lat="47.24122" lon="-2.30159">
        <ele>51</ele>
        <time>2022-01-23T10:50:15.000Z</time>
      </trkpt>
      <trkpt lat="47.24124" lon="-2.30158">
        <ele>50.599998474121</ele>
        <time>2022-01-23T10:50:16.000Z</time>
      </trkpt>
      <trkpt lat="47.24126" lon="-2.30157">
        <ele>50.200000762939</ele>
        <time>2022-01-23T10:50:17.000Z</time>
      </trkpt>
      <trkpt lat="47.24127" lon="-2.30159">
        <ele>49.599998474121</ele>
        <time>2022-01-23T10:50:18.000Z</time>
      </trkpt>
      <trkpt lat="47.24129" lon="-2.30161">
        <ele>49</ele>
        <time>2022-01-23T10:50:19.000Z</time>
      </trkpt>
      <trkpt lat="47.24131" lon="-2.30164">
        <ele>48.599998474121</ele>
        <time>2022-01-23T10:50:20.000Z</time>
      </trkpt>
      <trkpt lat="47.24133" lon="-2.30167">
        <ele>48</ele>
        <time>2022-01-23T10:50:21.000Z</time>
      </trkpt>
      <trkpt lat="47.24135" lon="-2.30171">
        <ele>47.400001525879</ele>
        <time>2022-01-23T10:50:22.000Z</time>
      </trkpt>
      <trkpt lat="47.24137" lon="-2.30174">
        <ele>47.400001525879</ele>
        <time>2022-01-23T10:50:23.000Z</time>
      </trkpt>
      <trkpt lat="47.24149" lon="-2.302">
        <ele>47.400001525879</ele>
        <time>2022-01-23T10:50:27.000Z</time>
      </trkpt>
      <trkpt lat="47.24151" lon="-2.30207">
        <ele>47</ele>
        <time>2022-01-23T10:50:28.000Z</time>
      </trkpt>
      <trkpt lat="47.24153" lon="-2.30213">
        <ele>46.599998474121</ele>
        <time>2022-01-23T10:50:29.000Z</time>
      </trkpt>
      <trkpt lat="47.24156" lon="-2.30219">
        <ele>46.200000762939</ele>
        <time>2022-01-23T10:50:30.000Z</time>
      </trkpt>
      <trkpt lat="47.24161" lon="-2.30226">
        <ele>45.799999237061</ele>
        <time>2022-01-23T10:50:31.000Z</time>
      </trkpt>
      <trkpt lat="47.24164" lon="-2.30232">
        <ele>45.400001525879</ele>
        <time>2022-01-23T10:50:32.000Z</time>
      </trkpt>
      <trkpt lat="47.24169" lon="-2.30235">
        <ele>45.400001525879</ele>
        <time>2022-01-23T10:50:33.000Z</time>
      </trkpt>
      <trkpt lat="47.24177" lon="-2.30231">
        <ele>45</ele>
        <time>2022-01-23T10:50:35.000Z</time>
      </trkpt>
      <trkpt lat="47.24182" lon="-2.3023">
        <ele>44.400001525879</ele>
        <time>2022-01-23T10:50:36.000Z</time>
      </trkpt>
      <trkpt lat="47.24187" lon="-2.30231">
        <ele>44</ele>
        <time>2022-01-23T10:50:37.000Z</time>
      </trkpt>
      <trkpt lat="47.24191" lon="-2.30233">
        <ele>43.599998474121</ele>
        <time>2022-01-23T10:50:38.000Z</time>
      </trkpt>
      <trkpt lat="47.24192" lon="-2.30241">
        <ele>43.200000762939</ele>
        <time>2022-01-23T10:50:39.000Z</time>
      </trkpt>
      <trkpt lat="47.24194" lon="-2.30257">
        <ele>43.200000762939</ele>
        <time>2022-01-23T10:50:41.000Z</time>
      </trkpt>
      <trkpt lat="47.24196" lon="-2.30275">
        <ele>43.200000762939</ele>
        <time>2022-01-23T10:50:43.000Z</time>
      </trkpt>
      <trkpt lat="47.24195" lon="-2.30282">
        <ele>43.200000762939</ele>
        <time>2022-01-23T10:50:44.000Z</time>
      </trkpt>
      <trkpt lat="47.24199" lon="-2.30308">
        <ele>43.200000762939</ele>
        <time>2022-01-23T10:50:47.000Z</time>
      </trkpt>
      <trkpt lat="47.24206" lon="-2.30327">
        <ele>43.200000762939</ele>
        <time>2022-01-23T10:50:50.000Z</time>
      </trkpt>
      <trkpt lat="47.2421" lon="-2.30328">
        <ele>43.200000762939</ele>
        <time>2022-01-23T10:50:51.000Z</time>
      </trkpt>
      <trkpt lat="47.24218" lon="-2.30326">
        <ele>43.599998474121</ele>
        <time>2022-01-23T10:50:53.000Z</time>
      </trkpt>
      <trkpt lat="47.24221" lon="-2.30323">
        <ele>44.200000762939</ele>
        <time>2022-01-23T10:50:54.000Z</time>
      </trkpt>
      <trkpt lat="47.24224" lon="-2.30321">
        <ele>44.599998474121</ele>
        <time>2022-01-23T10:50:55.000Z</time>
      </trkpt>
      <trkpt lat="47.24226" lon="-2.30318">
        <ele>45.200000762939</ele>
        <time>2022-01-23T10:50:56.000Z</time>
      </trkpt>
      <trkpt lat="47.24228" lon="-2.30318">
        <ele>45.599998474121</ele>
        <time>2022-01-23T10:50:57.000Z</time>
      </trkpt>
      <trkpt lat="47.2423" lon="-2.30319">
        <ele>46.200000762939</ele>
        <time>2022-01-23T10:50:58.000Z</time>
      </trkpt>
      <trkpt lat="47.24232" lon="-2.3032">
        <ele>46.799999237061</ele>
        <time>2022-01-23T10:50:59.000Z</time>
      </trkpt>
      <trkpt lat="47.24234" lon="-2.30323">
        <ele>47.200000762939</ele>
        <time>2022-01-23T10:51:00.000Z</time>
      </trkpt>
      <trkpt lat="47.24238" lon="-2.30327">
        <ele>47.799999237061</ele>
        <time>2022-01-23T10:51:01.000Z</time>
      </trkpt>
      <trkpt lat="47.2424" lon="-2.30331">
        <ele>47.799999237061</ele>
        <time>2022-01-23T10:51:02.000Z</time>
      </trkpt>
      <trkpt lat="47.24246" lon="-2.30339">
        <ele>48.599998474121</ele>
        <time>2022-01-23T10:51:04.000Z</time>
      </trkpt>
      <trkpt lat="47.24248" lon="-2.30344">
        <ele>49</ele>
        <time>2022-01-23T10:51:05.000Z</time>
      </trkpt>
      <trkpt lat="47.24251" lon="-2.30348">
        <ele>49.400001525879</ele>
        <time>2022-01-23T10:51:06.000Z</time>
      </trkpt>
      <trkpt lat="47.24254" lon="-2.30352">
        <ele>50</ele>
        <time>2022-01-23T10:51:07.000Z</time>
      </trkpt>
      <trkpt lat="47.24263" lon="-2.30368">
        <ele>50</ele>
        <time>2022-01-23T10:51:10.000Z</time>
      </trkpt>
      <trkpt lat="47.24283" lon="-2.30398">
        <ele>50</ele>
        <time>2022-01-23T10:51:16.000Z</time>
      </trkpt>
      <trkpt lat="47.24287" lon="-2.30402">
        <ele>50</ele>
        <time>2022-01-23T10:51:17.000Z</time>
      </trkpt>
      <trkpt lat="47.24295" lon="-2.30409">
        <ele>50</ele>
        <time>2022-01-23T10:51:19.000Z</time>
      </trkpt>
      <trkpt lat="47.24314" lon="-2.30422">
        <ele>50</ele>
        <time>2022-01-23T10:51:24.000Z</time>
      </trkpt>
      <trkpt lat="47.24338" lon="-2.30438">
        <ele>50</ele>
        <time>2022-01-23T10:51:29.000Z</time>
      </trkpt>
      <trkpt lat="47.24351" lon="-2.30444">
        <ele>50</ele>
        <time>2022-01-23T10:51:32.000Z</time>
      </trkpt>
      <trkpt lat="47.2436" lon="-2.30444">
        <ele>49.400001525879</ele>
        <time>2022-01-23T10:51:34.000Z</time>
      </trkpt>
      <trkpt lat="47.24364" lon="-2.30442">
        <ele>49</ele>
        <time>2022-01-23T10:51:35.000Z</time>
      </trkpt>
      <trkpt lat="47.24368" lon="-2.30443">
        <ele>48.599998474121</ele>
        <time>2022-01-23T10:51:36.000Z</time>
      </trkpt>
      <trkpt lat="47.2437" lon="-2.30446">
        <ele>48.200000762939</ele>
        <time>2022-01-23T10:51:37.000Z</time>
      </trkpt>
      <trkpt lat="47.24371" lon="-2.30451">
        <ele>47.599998474121</ele>
        <time>2022-01-23T10:51:38.000Z</time>
      </trkpt>
      <trkpt lat="47.24369" lon="-2.30466">
        <ele>47.599998474121</ele>
        <time>2022-01-23T10:51:40.000Z</time>
      </trkpt>
      <trkpt lat="47.24368" lon="-2.30474">
        <ele>47.200000762939</ele>
        <time>2022-01-23T10:51:41.000Z</time>
      </trkpt>
      <trkpt lat="47.24367" lon="-2.30481">
        <ele>46.799999237061</ele>
        <time>2022-01-23T10:51:42.000Z</time>
      </trkpt>
      <trkpt lat="47.24364" lon="-2.30488">
        <ele>46.400001525879</ele>
        <time>2022-01-23T10:51:43.000Z</time>
      </trkpt>
      <trkpt lat="47.24362" lon="-2.30495">
        <ele>46</ele>
        <time>2022-01-23T10:51:44.000Z</time>
      </trkpt>
      <trkpt lat="47.2436" lon="-2.30501">
        <ele>45.599998474121</ele>
        <time>2022-01-23T10:51:45.000Z</time>
      </trkpt>
      <trkpt lat="47.24358" lon="-2.30513">
        <ele>45.200000762939</ele>
        <time>2022-01-23T10:51:47.000Z</time>
      </trkpt>
      <trkpt lat="47.24358" lon="-2.30518">
        <ele>44.599998474121</ele>
        <time>2022-01-23T10:51:48.000Z</time>
      </trkpt>
      <trkpt lat="47.24359" lon="-2.30527">
        <ele>44.200000762939</ele>
        <time>2022-01-23T10:51:49.000Z</time>
      </trkpt>
      <trkpt lat="47.24359" lon="-2.30536">
        <ele>43.799999237061</ele>
        <time>2022-01-23T10:51:50.000Z</time>
      </trkpt>
      <trkpt lat="47.2436" lon="-2.30544">
        <ele>43.200000762939</ele>
        <time>2022-01-23T10:51:51.000Z</time>
      </trkpt>
      <trkpt lat="47.24362" lon="-2.30552">
        <ele>42.799999237061</ele>
        <time>2022-01-23T10:51:52.000Z</time>
      </trkpt>
      <trkpt lat="47.24365" lon="-2.30556">
        <ele>42.200000762939</ele>
        <time>2022-01-23T10:51:53.000Z</time>
      </trkpt>
      <trkpt lat="47.2437" lon="-2.3056">
        <ele>41.400001525879</ele>
        <time>2022-01-23T10:51:54.000Z</time>
      </trkpt>
      <trkpt lat="47.24385" lon="-2.30567">
        <ele>41.400001525879</ele>
        <time>2022-01-23T10:51:57.000Z</time>
      </trkpt>
      <trkpt lat="47.24404" lon="-2.30573">
        <ele>41.400001525879</ele>
        <time>2022-01-23T10:52:01.000Z</time>
      </trkpt>
      <trkpt lat="47.24409" lon="-2.30573">
        <ele>41.400001525879</ele>
        <time>2022-01-23T10:52:02.000Z</time>
      </trkpt>
      <trkpt lat="47.24428" lon="-2.30569">
        <ele>41.400001525879</ele>
        <time>2022-01-23T10:52:06.000Z</time>
      </trkpt>
      <trkpt lat="47.2445" lon="-2.30556">
        <ele>41.400001525879</ele>
        <time>2022-01-23T10:52:11.000Z</time>
      </trkpt>
      <trkpt lat="47.24456" lon="-2.3055">
        <ele>41.799999237061</ele>
        <time>2022-01-23T10:52:13.000Z</time>
      </trkpt>
      <trkpt lat="47.2446" lon="-2.30549">
        <ele>42.200000762939</ele>
        <time>2022-01-23T10:52:14.000Z</time>
      </trkpt>
      <trkpt lat="47.24464" lon="-2.3055">
        <ele>42.599998474121</ele>
        <time>2022-01-23T10:52:15.000Z</time>
      </trkpt>
      <trkpt lat="47.24467" lon="-2.30552">
        <ele>43</ele>
        <time>2022-01-23T10:52:16.000Z</time>
      </trkpt>
      <trkpt lat="47.24469" lon="-2.30554">
        <ele>43.400001525879</ele>
        <time>2022-01-23T10:52:17.000Z</time>
      </trkpt>
      <trkpt lat="47.24471" lon="-2.30563">
        <ele>43.400001525879</ele>
        <time>2022-01-23T10:52:19.000Z</time>
      </trkpt>
      <trkpt lat="47.24465" lon="-2.30576">
        <ele>43.400001525879</ele>
        <time>2022-01-23T10:52:22.000Z</time>
      </trkpt>
      <trkpt lat="47.24463" lon="-2.3058">
        <ele>43.400001525879</ele>
        <time>2022-01-23T10:52:23.000Z</time>
      </trkpt>
      <trkpt lat="47.24461" lon="-2.30584">
        <ele>43.799999237061</ele>
        <time>2022-01-23T10:52:24.000Z</time>
      </trkpt>
      <trkpt lat="47.24459" lon="-2.30587">
        <ele>44.200000762939</ele>
        <time>2022-01-23T10:52:25.000Z</time>
      </trkpt>
      <trkpt lat="47.24457" lon="-2.30589">
        <ele>44.599998474121</ele>
        <time>2022-01-23T10:52:26.000Z</time>
      </trkpt>
      <trkpt lat="47.24456" lon="-2.30591">
        <ele>45</ele>
        <time>2022-01-23T10:52:27.000Z</time>
      </trkpt>
      <trkpt lat="47.24455" lon="-2.30593">
        <ele>45.400001525879</ele>
        <time>2022-01-23T10:52:28.000Z</time>
      </trkpt>
      <trkpt lat="47.24452" lon="-2.30595">
        <ele>45.400001525879</ele>
        <time>2022-01-23T10:52:30.000Z</time>
      </trkpt>
      <trkpt lat="47.2445" lon="-2.30601">
        <ele>45.400001525879</ele>
        <time>2022-01-23T10:52:33.000Z</time>
      </trkpt>
      <trkpt lat="47.24445" lon="-2.30606">
        <ele>45.400001525879</ele>
        <time>2022-01-23T10:52:38.000Z</time>
      </trkpt>
      <trkpt lat="47.24443" lon="-2.30611">
        <ele>45.400001525879</ele>
        <time>2022-01-23T10:52:42.000Z</time>
      </trkpt>
      <trkpt lat="47.24438" lon="-2.30617">
        <ele>45.400001525879</ele>
        <time>2022-01-23T10:52:45.000Z</time>
      </trkpt>
      <trkpt lat="47.24429" lon="-2.30622">
        <ele>45.400001525879</ele>
        <time>2022-01-23T10:52:50.000Z</time>
      </trkpt>
      <trkpt lat="47.2442" lon="-2.30631">
        <ele>45.799999237061</ele>
        <time>2022-01-23T10:52:55.000Z</time>
      </trkpt>
      <trkpt lat="47.2442" lon="-2.30634">
        <ele>46.200000762939</ele>
        <time>2022-01-23T10:52:56.000Z</time>
      </trkpt>
      <trkpt lat="47.2442" lon="-2.30638">
        <ele>46.599998474121</ele>
        <time>2022-01-23T10:52:57.000Z</time>
      </trkpt>
      <trkpt lat="47.2442" lon="-2.30641">
        <ele>47</ele>
        <time>2022-01-23T10:52:58.000Z</time>
      </trkpt>
      <trkpt lat="47.24419" lon="-2.30645">
        <ele>47.400001525879</ele>
        <time>2022-01-23T10:52:59.000Z</time>
      </trkpt>
      <trkpt lat="47.24415" lon="-2.30659">
        <ele>47.400001525879</ele>
        <time>2022-01-23T10:53:02.000Z</time>
      </trkpt>
      <trkpt lat="47.24407" lon="-2.30696">
        <ele>47.400001525879</ele>
        <time>2022-01-23T10:53:09.000Z</time>
      </trkpt>
      <trkpt lat="47.24405" lon="-2.30723">
        <ele>47.400001525879</ele>
        <time>2022-01-23T10:53:14.000Z</time>
      </trkpt>
      <trkpt lat="47.24398" lon="-2.30753">
        <ele>47.400001525879</ele>
        <time>2022-01-23T10:53:20.000Z</time>
      </trkpt>
      <trkpt lat="47.24393" lon="-2.30759">
        <ele>47.400001525879</ele>
        <time>2022-01-23T10:53:21.000Z</time>
      </trkpt>
      <trkpt lat="47.24382" lon="-2.30774">
        <ele>47.400001525879</ele>
        <time>2022-01-23T10:53:23.000Z</time>
      </trkpt>
      <trkpt lat="47.24377" lon="-2.30779">
        <ele>47.400001525879</ele>
        <time>2022-01-23T10:53:24.000Z</time>
      </trkpt>
      <trkpt lat="47.24363" lon="-2.30786">
        <ele>47.400001525879</ele>
        <time>2022-01-23T10:53:26.000Z</time>
      </trkpt>
      <trkpt lat="47.24344" lon="-2.30791">
        <ele>47.400001525879</ele>
        <time>2022-01-23T10:53:28.000Z</time>
      </trkpt>
      <trkpt lat="47.24335" lon="-2.30795">
        <ele>47.400001525879</ele>
        <time>2022-01-23T10:53:29.000Z</time>
      </trkpt>
      <trkpt lat="47.24327" lon="-2.30799">
        <ele>47</ele>
        <time>2022-01-23T10:53:30.000Z</time>
      </trkpt>
      <trkpt lat="47.2432" lon="-2.30803">
        <ele>46.599998474121</ele>
        <time>2022-01-23T10:53:31.000Z</time>
      </trkpt>
      <trkpt lat="47.24313" lon="-2.30808">
        <ele>46.200000762939</ele>
        <time>2022-01-23T10:53:32.000Z</time>
      </trkpt>
      <trkpt lat="47.24307" lon="-2.30814">
        <ele>45.400001525879</ele>
        <time>2022-01-23T10:53:33.000Z</time>
      </trkpt>
      <trkpt lat="47.24302" lon="-2.30822">
        <ele>45.400001525879</ele>
        <time>2022-01-23T10:53:34.000Z</time>
      </trkpt>
      <trkpt lat="47.24287" lon="-2.30847">
        <ele>45</ele>
        <time>2022-01-23T10:53:37.000Z</time>
      </trkpt>
      <trkpt lat="47.24286" lon="-2.30859">
        <ele>44.599998474121</ele>
        <time>2022-01-23T10:53:38.000Z</time>
      </trkpt>
      <trkpt lat="47.24284" lon="-2.30869">
        <ele>44.200000762939</ele>
        <time>2022-01-23T10:53:39.000Z</time>
      </trkpt>
      <trkpt lat="47.24283" lon="-2.30879">
        <ele>43.799999237061</ele>
        <time>2022-01-23T10:53:40.000Z</time>
      </trkpt>
      <trkpt lat="47.24284" lon="-2.30889">
        <ele>43.200000762939</ele>
        <time>2022-01-23T10:53:41.000Z</time>
      </trkpt>
      <trkpt lat="47.24286" lon="-2.30898">
        <ele>43.200000762939</ele>
        <time>2022-01-23T10:53:42.000Z</time>
      </trkpt>
      <trkpt lat="47.24287" lon="-2.30908">
        <ele>43.200000762939</ele>
        <time>2022-01-23T10:53:43.000Z</time>
      </trkpt>
      <trkpt lat="47.2429" lon="-2.30928">
        <ele>42.799999237061</ele>
        <time>2022-01-23T10:53:45.000Z</time>
      </trkpt>
      <trkpt lat="47.24289" lon="-2.30939">
        <ele>42.400001525879</ele>
        <time>2022-01-23T10:53:46.000Z</time>
      </trkpt>
      <trkpt lat="47.24288" lon="-2.3095">
        <ele>42</ele>
        <time>2022-01-23T10:53:47.000Z</time>
      </trkpt>
      <trkpt lat="47.24286" lon="-2.30962">
        <ele>41.400001525879</ele>
        <time>2022-01-23T10:53:48.000Z</time>
      </trkpt>
      <trkpt lat="47.24285" lon="-2.30974">
        <ele>41</ele>
        <time>2022-01-23T10:53:49.000Z</time>
      </trkpt>
      <trkpt lat="47.24284" lon="-2.30986">
        <ele>40.599998474121</ele>
        <time>2022-01-23T10:53:50.000Z</time>
      </trkpt>
      <trkpt lat="47.24283" lon="-2.30999">
        <ele>40.200000762939</ele>
        <time>2022-01-23T10:53:51.000Z</time>
      </trkpt>
      <trkpt lat="47.24282" lon="-2.31011">
        <ele>39.799999237061</ele>
        <time>2022-01-23T10:53:52.000Z</time>
      </trkpt>
      <trkpt lat="47.2428" lon="-2.3102">
        <ele>39</ele>
        <time>2022-01-23T10:53:53.000Z</time>
      </trkpt>
      <trkpt lat="47.24278" lon="-2.31028">
        <ele>38.400001525879</ele>
        <time>2022-01-23T10:53:54.000Z</time>
      </trkpt>
      <trkpt lat="47.24279" lon="-2.31035">
        <ele>37.799999237061</ele>
        <time>2022-01-23T10:53:55.000Z</time>
      </trkpt>
      <trkpt lat="47.24282" lon="-2.31038">
        <ele>37.200000762939</ele>
        <time>2022-01-23T10:53:56.000Z</time>
      </trkpt>
      <trkpt lat="47.24288" lon="-2.31036">
        <ele>36.599998474121</ele>
        <time>2022-01-23T10:53:57.000Z</time>
      </trkpt>
      <trkpt lat="47.24291" lon="-2.31034">
        <ele>35.400001525879</ele>
        <time>2022-01-23T10:53:58.000Z</time>
      </trkpt>
      <trkpt lat="47.24295" lon="-2.31035">
        <ele>35</ele>
        <time>2022-01-23T10:53:59.000Z</time>
      </trkpt>
      <trkpt lat="47.24298" lon="-2.31036">
        <ele>34.400001525879</ele>
        <time>2022-01-23T10:54:00.000Z</time>
      </trkpt>
      <trkpt lat="47.24302" lon="-2.31036">
        <ele>34.400001525879</ele>
        <time>2022-01-23T10:54:01.000Z</time>
      </trkpt>
      <trkpt lat="47.24316" lon="-2.31036">
        <ele>34.799999237061</ele>
        <time>2022-01-23T10:54:05.000Z</time>
      </trkpt>
      <trkpt lat="47.2432" lon="-2.31037">
        <ele>35.400001525879</ele>
        <time>2022-01-23T10:54:06.000Z</time>
      </trkpt>
      <trkpt lat="47.24324" lon="-2.31039">
        <ele>35.799999237061</ele>
        <time>2022-01-23T10:54:07.000Z</time>
      </trkpt>
      <trkpt lat="47.24328" lon="-2.31045">
        <ele>36.200000762939</ele>
        <time>2022-01-23T10:54:08.000Z</time>
      </trkpt>
      <trkpt lat="47.24331" lon="-2.3105">
        <ele>36.599998474121</ele>
        <time>2022-01-23T10:54:09.000Z</time>
      </trkpt>
      <trkpt lat="47.24338" lon="-2.31061">
        <ele>36.599998474121</ele>
        <time>2022-01-23T10:54:11.000Z</time>
      </trkpt>
      <trkpt lat="47.24346" lon="-2.31078">
        <ele>36.599998474121</ele>
        <time>2022-01-23T10:54:14.000Z</time>
      </trkpt>
      <trkpt lat="47.24355" lon="-2.31102">
        <ele>36.599998474121</ele>
        <time>2022-01-23T10:54:18.000Z</time>
      </trkpt>
      <trkpt lat="47.24364" lon="-2.31128">
        <ele>36.599998474121</ele>
        <time>2022-01-23T10:54:22.000Z</time>
      </trkpt>
      <trkpt lat="47.24371" lon="-2.31139">
        <ele>36.599998474121</ele>
        <time>2022-01-23T10:54:24.000Z</time>
      </trkpt>
      <trkpt lat="47.24399" lon="-2.31176">
        <ele>36.599998474121</ele>
        <time>2022-01-23T10:54:31.000Z</time>
      </trkpt>
      <trkpt lat="47.24402" lon="-2.31179">
        <ele>36.599998474121</ele>
        <time>2022-01-23T10:54:32.000Z</time>
      </trkpt>
      <trkpt lat="47.2441" lon="-2.31185">
        <ele>36.599998474121</ele>
        <time>2022-01-23T10:54:35.000Z</time>
      </trkpt>
      <trkpt lat="47.24417" lon="-2.31202">
        <ele>36.599998474121</ele>
        <time>2022-01-23T10:54:39.000Z</time>
      </trkpt>
      <trkpt lat="47.2442" lon="-2.31209">
        <ele>36.200000762939</ele>
        <time>2022-01-23T10:54:40.000Z</time>
      </trkpt>
      <trkpt lat="47.24422" lon="-2.31214">
        <ele>35.799999237061</ele>
        <time>2022-01-23T10:54:41.000Z</time>
      </trkpt>
      <trkpt lat="47.24425" lon="-2.31219">
        <ele>35.400001525879</ele>
        <time>2022-01-23T10:54:42.000Z</time>
      </trkpt>
      <trkpt lat="47.24428" lon="-2.31223">
        <ele>34.799999237061</ele>
        <time>2022-01-23T10:54:43.000Z</time>
      </trkpt>
      <trkpt lat="47.24432" lon="-2.31225">
        <ele>34.400001525879</ele>
        <time>2022-01-23T10:54:44.000Z</time>
      </trkpt>
      <trkpt lat="47.24436" lon="-2.31224">
        <ele>34.400001525879</ele>
        <time>2022-01-23T10:54:45.000Z</time>
      </trkpt>
      <trkpt lat="47.24439" lon="-2.31224">
        <ele>34.400001525879</ele>
        <time>2022-01-23T10:54:46.000Z</time>
      </trkpt>
      <trkpt lat="47.24448" lon="-2.31233">
        <ele>34.400001525879</ele>
        <time>2022-01-23T10:54:50.000Z</time>
      </trkpt>
      <trkpt lat="47.24453" lon="-2.31249">
        <ele>34.799999237061</ele>
        <time>2022-01-23T10:54:53.000Z</time>
      </trkpt>
      <trkpt lat="47.24455" lon="-2.31255">
        <ele>35.200000762939</ele>
        <time>2022-01-23T10:54:54.000Z</time>
      </trkpt>
      <trkpt lat="47.24457" lon="-2.31259">
        <ele>35.599998474121</ele>
        <time>2022-01-23T10:54:55.000Z</time>
      </trkpt>
      <trkpt lat="47.2446" lon="-2.31265">
        <ele>36</ele>
        <time>2022-01-23T10:54:56.000Z</time>
      </trkpt>
      <trkpt lat="47.24462" lon="-2.3127">
        <ele>36.400001525879</ele>
        <time>2022-01-23T10:54:57.000Z</time>
      </trkpt>
      <trkpt lat="47.24476" lon="-2.31302">
        <ele>36.400001525879</ele>
        <time>2022-01-23T10:55:03.000Z</time>
      </trkpt>
      <trkpt lat="47.24484" lon="-2.31312">
        <ele>36.400001525879</ele>
        <time>2022-01-23T10:55:08.000Z</time>
      </trkpt>
      <trkpt lat="47.24485" lon="-2.31313">
        <ele>36.400001525879</ele>
        <time>2022-01-23T10:55:11.000Z</time>
      </trkpt>
      <trkpt lat="47.24487" lon="-2.31315">
        <ele>36.400001525879</ele>
        <time>2022-01-23T10:55:23.000Z</time>
      </trkpt>
      <trkpt lat="47.24489" lon="-2.31318">
        <ele>36.400001525879</ele>
        <time>2022-01-23T10:55:24.000Z</time>
      </trkpt>
      <trkpt lat="47.24493" lon="-2.31325">
        <ele>37</ele>
        <time>2022-01-23T10:55:26.000Z</time>
      </trkpt>
      <trkpt lat="47.24495" lon="-2.31329">
        <ele>37.400001525879</ele>
        <time>2022-01-23T10:55:27.000Z</time>
      </trkpt>
      <trkpt lat="47.24497" lon="-2.31333">
        <ele>37.799999237061</ele>
        <time>2022-01-23T10:55:28.000Z</time>
      </trkpt>
      <trkpt lat="47.24498" lon="-2.31336">
        <ele>38.200000762939</ele>
        <time>2022-01-23T10:55:29.000Z</time>
      </trkpt>
      <trkpt lat="47.245" lon="-2.31339">
        <ele>38.599998474121</ele>
        <time>2022-01-23T10:55:30.000Z</time>
      </trkpt>
      <trkpt lat="47.24509" lon="-2.31357">
        <ele>39</ele>
        <time>2022-01-23T10:55:34.000Z</time>
      </trkpt>
      <trkpt lat="47.24512" lon="-2.31361">
        <ele>39.400001525879</ele>
        <time>2022-01-23T10:55:35.000Z</time>
      </trkpt>
      <trkpt lat="47.24515" lon="-2.31364">
        <ele>40.400001525879</ele>
        <time>2022-01-23T10:55:36.000Z</time>
      </trkpt>
      <trkpt lat="47.24517" lon="-2.31367">
        <ele>40.799999237061</ele>
        <time>2022-01-23T10:55:37.000Z</time>
      </trkpt>
      <trkpt lat="47.24526" lon="-2.31373">
        <ele>40.799999237061</ele>
        <time>2022-01-23T10:55:40.000Z</time>
      </trkpt>
      <trkpt lat="47.24533" lon="-2.31378">
        <ele>41.200000762939</ele>
        <time>2022-01-23T10:55:42.000Z</time>
      </trkpt>
      <trkpt lat="47.24537" lon="-2.3138">
        <ele>41.599998474121</ele>
        <time>2022-01-23T10:55:43.000Z</time>
      </trkpt>
      <trkpt lat="47.24541" lon="-2.31383">
        <ele>42</ele>
        <time>2022-01-23T10:55:44.000Z</time>
      </trkpt>
      <trkpt lat="47.24545" lon="-2.31384">
        <ele>42.400001525879</ele>
        <time>2022-01-23T10:55:45.000Z</time>
      </trkpt>
      <trkpt lat="47.24549" lon="-2.31385">
        <ele>43</ele>
        <time>2022-01-23T10:55:46.000Z</time>
      </trkpt>
      <trkpt lat="47.24564" lon="-2.31384">
        <ele>43</ele>
        <time>2022-01-23T10:55:50.000Z</time>
      </trkpt>
      <trkpt lat="47.24567" lon="-2.31385">
        <ele>43</ele>
        <time>2022-01-23T10:55:51.000Z</time>
      </trkpt>
      <trkpt lat="47.24572" lon="-2.31391">
        <ele>43</ele>
        <time>2022-01-23T10:55:53.000Z</time>
      </trkpt>
      <trkpt lat="47.24574" lon="-2.31398">
        <ele>43</ele>
        <time>2022-01-23T10:55:54.000Z</time>
      </trkpt>
      <trkpt lat="47.24578" lon="-2.3141">
        <ele>43</ele>
        <time>2022-01-23T10:55:56.000Z</time>
      </trkpt>
      <trkpt lat="47.24581" lon="-2.31429">
        <ele>43</ele>
        <time>2022-01-23T10:55:59.000Z</time>
      </trkpt>
      <trkpt lat="47.24584" lon="-2.31443">
        <ele>43</ele>
        <time>2022-01-23T10:56:01.000Z</time>
      </trkpt>
      <trkpt lat="47.24588" lon="-2.3147">
        <ele>43</ele>
        <time>2022-01-23T10:56:05.000Z</time>
      </trkpt>
      <trkpt lat="47.2459" lon="-2.31485">
        <ele>43</ele>
        <time>2022-01-23T10:56:07.000Z</time>
      </trkpt>
      <trkpt lat="47.24592" lon="-2.31499">
        <ele>43</ele>
        <time>2022-01-23T10:56:09.000Z</time>
      </trkpt>
      <trkpt lat="47.24597" lon="-2.31526">
        <ele>43</ele>
        <time>2022-01-23T10:56:13.000Z</time>
      </trkpt>
      <trkpt lat="47.24599" lon="-2.31546">
        <ele>43</ele>
        <time>2022-01-23T10:56:16.000Z</time>
      </trkpt>
      <trkpt lat="47.24604" lon="-2.31566">
        <ele>43</ele>
        <time>2022-01-23T10:56:19.000Z</time>
      </trkpt>
      <trkpt lat="47.24606" lon="-2.31573">
        <ele>43</ele>
        <time>2022-01-23T10:56:20.000Z</time>
      </trkpt>
      <trkpt lat="47.24619" lon="-2.31596">
        <ele>43</ele>
        <time>2022-01-23T10:56:24.000Z</time>
      </trkpt>
      <trkpt lat="47.24623" lon="-2.31601">
        <ele>43</ele>
        <time>2022-01-23T10:56:25.000Z</time>
      </trkpt>
      <trkpt lat="47.24642" lon="-2.3163">
        <ele>43</ele>
        <time>2022-01-23T10:56:31.000Z</time>
      </trkpt>
      <trkpt lat="47.24663" lon="-2.31659">
        <ele>43</ele>
        <time>2022-01-23T10:56:37.000Z</time>
      </trkpt>
      <trkpt lat="47.24666" lon="-2.31664">
        <ele>43</ele>
        <time>2022-01-23T10:56:38.000Z</time>
      </trkpt>
      <trkpt lat="47.24686" lon="-2.31696">
        <ele>43</ele>
        <time>2022-01-23T10:56:44.000Z</time>
      </trkpt>
      <trkpt lat="47.2471" lon="-2.31731">
        <ele>43</ele>
        <time>2022-01-23T10:56:51.000Z</time>
      </trkpt>
      <trkpt lat="47.24716" lon="-2.3174">
        <ele>43</ele>
        <time>2022-01-23T10:56:53.000Z</time>
      </trkpt>
      <trkpt lat="47.24733" lon="-2.31762">
        <ele>43</ele>
        <time>2022-01-23T10:56:58.000Z</time>
      </trkpt>
      <trkpt lat="47.24756" lon="-2.31799">
        <ele>43</ele>
        <time>2022-01-23T10:57:05.000Z</time>
      </trkpt>
      <trkpt lat="47.24779" lon="-2.31836">
        <ele>43</ele>
        <time>2022-01-23T10:57:12.000Z</time>
      </trkpt>
      <trkpt lat="47.24797" lon="-2.31863">
        <ele>43</ele>
        <time>2022-01-23T10:57:18.000Z</time>
      </trkpt>
      <trkpt lat="47.24799" lon="-2.31871">
        <ele>43</ele>
        <time>2022-01-23T10:57:21.000Z</time>
      </trkpt>
      <trkpt lat="47.24797" lon="-2.31875">
        <ele>43</ele>
        <time>2022-01-23T10:57:22.000Z</time>
      </trkpt>
      <trkpt lat="47.24789" lon="-2.31884">
        <ele>43</ele>
        <time>2022-01-23T10:57:25.000Z</time>
      </trkpt>
      <trkpt lat="47.24782" lon="-2.3189">
        <ele>43</ele>
        <time>2022-01-23T10:57:27.000Z</time>
      </trkpt>
      <trkpt lat="47.24778" lon="-2.31893">
        <ele>43</ele>
        <time>2022-01-23T10:57:28.000Z</time>
      </trkpt>
      <trkpt lat="47.24763" lon="-2.31905">
        <ele>43</ele>
        <time>2022-01-23T10:57:32.000Z</time>
      </trkpt>
      <trkpt lat="47.24759" lon="-2.3191">
        <ele>43</ele>
        <time>2022-01-23T10:57:33.000Z</time>
      </trkpt>
      <trkpt lat="47.24756" lon="-2.31923">
        <ele>43</ele>
        <time>2022-01-23T10:57:35.000Z</time>
      </trkpt>
      <trkpt lat="47.24762" lon="-2.31945">
        <ele>43</ele>
        <time>2022-01-23T10:57:38.000Z</time>
      </trkpt>
      <trkpt lat="47.24765" lon="-2.31952">
        <ele>43</ele>
        <time>2022-01-23T10:57:39.000Z</time>
      </trkpt>
      <trkpt lat="47.24783" lon="-2.31988">
        <ele>43</ele>
        <time>2022-01-23T10:57:44.000Z</time>
      </trkpt>
      <trkpt lat="47.24806" lon="-2.32038">
        <ele>43</ele>
        <time>2022-01-23T10:57:51.000Z</time>
      </trkpt>
      <trkpt lat="47.24826" lon="-2.32082">
        <ele>43</ele>
        <time>2022-01-23T10:57:57.000Z</time>
      </trkpt>
      <trkpt lat="47.24842" lon="-2.32117">
        <ele>42.400001525879</ele>
        <time>2022-01-23T10:58:02.000Z</time>
      </trkpt>
      <trkpt lat="47.24844" lon="-2.32123">
        <ele>42</ele>
        <time>2022-01-23T10:58:03.000Z</time>
      </trkpt>
      <trkpt lat="47.24847" lon="-2.3213">
        <ele>41.599998474121</ele>
        <time>2022-01-23T10:58:04.000Z</time>
      </trkpt>
      <trkpt lat="47.2485" lon="-2.32136">
        <ele>40.599998474121</ele>
        <time>2022-01-23T10:58:05.000Z</time>
      </trkpt>
      <trkpt lat="47.24865" lon="-2.3217">
        <ele>40.599998474121</ele>
        <time>2022-01-23T10:58:10.000Z</time>
      </trkpt>
      <trkpt lat="47.24876" lon="-2.32197">
        <ele>40.599998474121</ele>
        <time>2022-01-23T10:58:14.000Z</time>
      </trkpt>
      <trkpt lat="47.24877" lon="-2.32202">
        <ele>40.599998474121</ele>
        <time>2022-01-23T10:58:15.000Z</time>
      </trkpt>
      <trkpt lat="47.24871" lon="-2.32216">
        <ele>40.200000762939</ele>
        <time>2022-01-23T10:58:18.000Z</time>
      </trkpt>
      <trkpt lat="47.24868" lon="-2.32219">
        <ele>39.799999237061</ele>
        <time>2022-01-23T10:58:19.000Z</time>
      </trkpt>
      <trkpt lat="47.24862" lon="-2.32224">
        <ele>39.400001525879</ele>
        <time>2022-01-23T10:58:20.000Z</time>
      </trkpt>
      <trkpt lat="47.24856" lon="-2.32231">
        <ele>39</ele>
        <time>2022-01-23T10:58:21.000Z</time>
      </trkpt>
      <trkpt lat="47.24849" lon="-2.32237">
        <ele>38.599998474121</ele>
        <time>2022-01-23T10:58:22.000Z</time>
      </trkpt>
      <trkpt lat="47.24842" lon="-2.32243">
        <ele>38.200000762939</ele>
        <time>2022-01-23T10:58:23.000Z</time>
      </trkpt>
      <trkpt lat="47.24835" lon="-2.3225">
        <ele>37.799999237061</ele>
        <time>2022-01-23T10:58:24.000Z</time>
      </trkpt>
      <trkpt lat="47.24828" lon="-2.32256">
        <ele>37.400001525879</ele>
        <time>2022-01-23T10:58:25.000Z</time>
      </trkpt>
      <trkpt lat="47.24821" lon="-2.32262">
        <ele>36.799999237061</ele>
        <time>2022-01-23T10:58:26.000Z</time>
      </trkpt>
      <trkpt lat="47.24814" lon="-2.32269">
        <ele>36.200000762939</ele>
        <time>2022-01-23T10:58:27.000Z</time>
      </trkpt>
      <trkpt lat="47.24807" lon="-2.32275">
        <ele>35.400001525879</ele>
        <time>2022-01-23T10:58:28.000Z</time>
      </trkpt>
      <trkpt lat="47.24802" lon="-2.3228">
        <ele>34.200000762939</ele>
        <time>2022-01-23T10:58:29.000Z</time>
      </trkpt>
      <trkpt lat="47.24796" lon="-2.32284">
        <ele>33.599998474121</ele>
        <time>2022-01-23T10:58:30.000Z</time>
      </trkpt>
      <trkpt lat="47.24792" lon="-2.32289">
        <ele>33</ele>
        <time>2022-01-23T10:58:31.000Z</time>
      </trkpt>
      <trkpt lat="47.2479" lon="-2.32296">
        <ele>32.400001525879</ele>
        <time>2022-01-23T10:58:32.000Z</time>
      </trkpt>
      <trkpt lat="47.24789" lon="-2.32303">
        <ele>31.799999237061</ele>
        <time>2022-01-23T10:58:33.000Z</time>
      </trkpt>
      <trkpt lat="47.24791" lon="-2.3231">
        <ele>31.799999237061</ele>
        <time>2022-01-23T10:58:34.000Z</time>
      </trkpt>
      <trkpt lat="47.24797" lon="-2.32323">
        <ele>31.799999237061</ele>
        <time>2022-01-23T10:58:36.000Z</time>
      </trkpt>
      <trkpt lat="47.24805" lon="-2.32336">
        <ele>31.799999237061</ele>
        <time>2022-01-23T10:58:38.000Z</time>
      </trkpt>
      <trkpt lat="47.24825" lon="-2.32375">
        <ele>31.799999237061</ele>
        <time>2022-01-23T10:58:43.000Z</time>
      </trkpt>
      <trkpt lat="47.24859" lon="-2.32438">
        <ele>31.799999237061</ele>
        <time>2022-01-23T10:58:51.000Z</time>
      </trkpt>
      <trkpt lat="47.24879" lon="-2.32487">
        <ele>31.799999237061</ele>
        <time>2022-01-23T10:58:57.000Z</time>
      </trkpt>
      <trkpt lat="47.249" lon="-2.32547">
        <ele>31.799999237061</ele>
        <time>2022-01-23T10:59:04.000Z</time>
      </trkpt>
      <trkpt lat="47.24907" lon="-2.32565">
        <ele>31.39999961853</ele>
        <time>2022-01-23T10:59:06.000Z</time>
      </trkpt>
      <trkpt lat="47.2491" lon="-2.32573">
        <ele>31</ele>
        <time>2022-01-23T10:59:07.000Z</time>
      </trkpt>
      <trkpt lat="47.24914" lon="-2.32583">
        <ele>30.60000038147</ele>
        <time>2022-01-23T10:59:08.000Z</time>
      </trkpt>
      <trkpt lat="47.24917" lon="-2.32591">
        <ele>30</ele>
        <time>2022-01-23T10:59:09.000Z</time>
      </trkpt>
      <trkpt lat="47.24921" lon="-2.326">
        <ele>29.60000038147</ele>
        <time>2022-01-23T10:59:10.000Z</time>
      </trkpt>
      <trkpt lat="47.24924" lon="-2.3261">
        <ele>29.60000038147</ele>
        <time>2022-01-23T10:59:11.000Z</time>
      </trkpt>
      <trkpt lat="47.24953" lon="-2.32684">
        <ele>29.60000038147</ele>
        <time>2022-01-23T10:59:19.000Z</time>
      </trkpt>
      <trkpt lat="47.24956" lon="-2.32693">
        <ele>29.60000038147</ele>
        <time>2022-01-23T10:59:20.000Z</time>
      </trkpt>
      <trkpt lat="47.24963" lon="-2.32711">
        <ele>29.200000762939</ele>
        <time>2022-01-23T10:59:22.000Z</time>
      </trkpt>
      <trkpt lat="47.24966" lon="-2.3272">
        <ele>28.60000038147</ele>
        <time>2022-01-23T10:59:23.000Z</time>
      </trkpt>
      <trkpt lat="47.24969" lon="-2.32728">
        <ele>28.200000762939</ele>
        <time>2022-01-23T10:59:24.000Z</time>
      </trkpt>
      <trkpt lat="47.24971" lon="-2.32737">
        <ele>27.799999237061</ele>
        <time>2022-01-23T10:59:25.000Z</time>
      </trkpt>
      <trkpt lat="47.24974" lon="-2.32745">
        <ele>27.200000762939</ele>
        <time>2022-01-23T10:59:26.000Z</time>
      </trkpt>
      <trkpt lat="47.24987" lon="-2.32781">
        <ele>27.200000762939</ele>
        <time>2022-01-23T10:59:32.000Z</time>
      </trkpt>
      <trkpt lat="47.24995" lon="-2.3278">
        <ele>27.200000762939</ele>
        <time>2022-01-23T10:59:34.000Z</time>
      </trkpt>
      <trkpt lat="47.2501" lon="-2.32762">
        <ele>27.200000762939</ele>
        <time>2022-01-23T10:59:38.000Z</time>
      </trkpt>
      <trkpt lat="47.25019" lon="-2.32756">
        <ele>27.200000762939</ele>
        <time>2022-01-23T10:59:40.000Z</time>
      </trkpt>
      <trkpt lat="47.25023" lon="-2.32754">
        <ele>27.200000762939</ele>
        <time>2022-01-23T10:59:41.000Z</time>
      </trkpt>
      <trkpt lat="47.25027" lon="-2.32755">
        <ele>27.200000762939</ele>
        <time>2022-01-23T10:59:42.000Z</time>
      </trkpt>
      <trkpt lat="47.25036" lon="-2.32766">
        <ele>27.200000762939</ele>
        <time>2022-01-23T10:59:45.000Z</time>
      </trkpt>
      <trkpt lat="47.25041" lon="-2.32776">
        <ele>27.200000762939</ele>
        <time>2022-01-23T10:59:47.000Z</time>
      </trkpt>
      <trkpt lat="47.25048" lon="-2.32797">
        <ele>27.200000762939</ele>
        <time>2022-01-23T10:59:50.000Z</time>
      </trkpt>
      <trkpt lat="47.25053" lon="-2.32813">
        <ele>27.200000762939</ele>
        <time>2022-01-23T10:59:52.000Z</time>
      </trkpt>
      <trkpt lat="47.25061" lon="-2.32823">
        <ele>27.200000762939</ele>
        <time>2022-01-23T10:59:54.000Z</time>
      </trkpt>
      <trkpt lat="47.25073" lon="-2.32836">
        <ele>27.200000762939</ele>
        <time>2022-01-23T10:59:57.000Z</time>
      </trkpt>
      <trkpt lat="47.25076" lon="-2.32839">
        <ele>27.200000762939</ele>
        <time>2022-01-23T10:59:58.000Z</time>
      </trkpt>
      <trkpt lat="47.25078" lon="-2.32851">
        <ele>27.200000762939</ele>
        <time>2022-01-23T11:00:01.000Z</time>
      </trkpt>
      <trkpt lat="47.25077" lon="-2.32856">
        <ele>27.200000762939</ele>
        <time>2022-01-23T11:00:02.000Z</time>
      </trkpt>
      <trkpt lat="47.25078" lon="-2.32868">
        <ele>26.799999237061</ele>
        <time>2022-01-23T11:00:04.000Z</time>
      </trkpt>
      <trkpt lat="47.25078" lon="-2.32873">
        <ele>26.39999961853</ele>
        <time>2022-01-23T11:00:05.000Z</time>
      </trkpt>
      <trkpt lat="47.25078" lon="-2.32877">
        <ele>26</ele>
        <time>2022-01-23T11:00:06.000Z</time>
      </trkpt>
      <trkpt lat="47.25078" lon="-2.32881">
        <ele>25.60000038147</ele>
        <time>2022-01-23T11:00:07.000Z</time>
      </trkpt>
      <trkpt lat="47.25078" lon="-2.32884">
        <ele>25.200000762939</ele>
        <time>2022-01-23T11:00:08.000Z</time>
      </trkpt>
      <trkpt lat="47.25081" lon="-2.32892">
        <ele>25.200000762939</ele>
        <time>2022-01-23T11:00:10.000Z</time>
      </trkpt>
      <trkpt lat="47.25086" lon="-2.32922">
        <ele>25.200000762939</ele>
        <time>2022-01-23T11:00:15.000Z</time>
      </trkpt>
      <trkpt lat="47.25095" lon="-2.32945">
        <ele>25.200000762939</ele>
        <time>2022-01-23T11:00:19.000Z</time>
      </trkpt>
      <trkpt lat="47.25111" lon="-2.32964">
        <ele>25.200000762939</ele>
        <time>2022-01-23T11:00:22.000Z</time>
      </trkpt>
      <trkpt lat="47.25122" lon="-2.32974">
        <ele>25.200000762939</ele>
        <time>2022-01-23T11:00:24.000Z</time>
      </trkpt>
      <trkpt lat="47.25131" lon="-2.32999">
        <ele>25.200000762939</ele>
        <time>2022-01-23T11:00:28.000Z</time>
      </trkpt>
      <trkpt lat="47.25126" lon="-2.33021">
        <ele>25.200000762939</ele>
        <time>2022-01-23T11:00:32.000Z</time>
      </trkpt>
      <trkpt lat="47.25125" lon="-2.33027">
        <ele>25.200000762939</ele>
        <time>2022-01-23T11:00:33.000Z</time>
      </trkpt>
      <trkpt lat="47.25118" lon="-2.33042">
        <ele>25.60000038147</ele>
        <time>2022-01-23T11:00:36.000Z</time>
      </trkpt>
      <trkpt lat="47.25116" lon="-2.33049">
        <ele>26</ele>
        <time>2022-01-23T11:00:37.000Z</time>
      </trkpt>
      <trkpt lat="47.25114" lon="-2.33055">
        <ele>26.39999961853</ele>
        <time>2022-01-23T11:00:38.000Z</time>
      </trkpt>
      <trkpt lat="47.25113" lon="-2.33061">
        <ele>26.799999237061</ele>
        <time>2022-01-23T11:00:39.000Z</time>
      </trkpt>
      <trkpt lat="47.25112" lon="-2.33067">
        <ele>27.200000762939</ele>
        <time>2022-01-23T11:00:40.000Z</time>
      </trkpt>
      <trkpt lat="47.25112" lon="-2.33078">
        <ele>27.200000762939</ele>
        <time>2022-01-23T11:00:42.000Z</time>
      </trkpt>
      <trkpt lat="47.2512" lon="-2.33083">
        <ele>27.200000762939</ele>
        <time>2022-01-23T11:00:45.000Z</time>
      </trkpt>
      <trkpt lat="47.25129" lon="-2.33079">
        <ele>27.200000762939</ele>
        <time>2022-01-23T11:00:47.000Z</time>
      </trkpt>
      <trkpt lat="47.25135" lon="-2.33076">
        <ele>27.200000762939</ele>
        <time>2022-01-23T11:00:48.000Z</time>
      </trkpt>
      <trkpt lat="47.25166" lon="-2.33054">
        <ele>27.200000762939</ele>
        <time>2022-01-23T11:00:54.000Z</time>
      </trkpt>
      <trkpt lat="47.25171" lon="-2.3305">
        <ele>27.200000762939</ele>
        <time>2022-01-23T11:00:55.000Z</time>
      </trkpt>
      <trkpt lat="47.25175" lon="-2.33045">
        <ele>27.200000762939</ele>
        <time>2022-01-23T11:00:56.000Z</time>
      </trkpt>
      <trkpt lat="47.25193" lon="-2.3303">
        <ele>27.200000762939</ele>
        <time>2022-01-23T11:01:00.000Z</time>
      </trkpt>
      <trkpt lat="47.25203" lon="-2.33027">
        <ele>27.200000762939</ele>
        <time>2022-01-23T11:01:03.000Z</time>
      </trkpt>
      <trkpt lat="47.25216" lon="-2.33045">
        <ele>27.200000762939</ele>
        <time>2022-01-23T11:01:07.000Z</time>
      </trkpt>
      <trkpt lat="47.25237" lon="-2.33084">
        <ele>27.200000762939</ele>
        <time>2022-01-23T11:01:13.000Z</time>
      </trkpt>
      <trkpt lat="47.25261" lon="-2.33128">
        <ele>27.200000762939</ele>
        <time>2022-01-23T11:01:20.000Z</time>
      </trkpt>
      <trkpt lat="47.25283" lon="-2.33169">
        <ele>27.200000762939</ele>
        <time>2022-01-23T11:01:26.000Z</time>
      </trkpt>
      <trkpt lat="47.25307" lon="-2.33217">
        <ele>27.200000762939</ele>
        <time>2022-01-23T11:01:33.000Z</time>
      </trkpt>
      <trkpt lat="47.25314" lon="-2.33223">
        <ele>27.200000762939</ele>
        <time>2022-01-23T11:01:35.000Z</time>
      </trkpt>
      <trkpt lat="47.25317" lon="-2.33222">
        <ele>27.200000762939</ele>
        <time>2022-01-23T11:01:36.000Z</time>
      </trkpt>
      <trkpt lat="47.25326" lon="-2.33211">
        <ele>27.200000762939</ele>
        <time>2022-01-23T11:01:39.000Z</time>
      </trkpt>
      <trkpt lat="47.2535" lon="-2.33176">
        <ele>27.200000762939</ele>
        <time>2022-01-23T11:01:46.000Z</time>
      </trkpt>
      <trkpt lat="47.25365" lon="-2.33156">
        <ele>27.200000762939</ele>
        <time>2022-01-23T11:01:50.000Z</time>
      </trkpt>
      <trkpt lat="47.2537" lon="-2.33144">
        <ele>27.200000762939</ele>
        <time>2022-01-23T11:01:52.000Z</time>
      </trkpt>
      <trkpt lat="47.25372" lon="-2.3312">
        <ele>27.200000762939</ele>
        <time>2022-01-23T11:01:56.000Z</time>
      </trkpt>
      <trkpt lat="47.25366" lon="-2.33106">
        <ele>27.200000762939</ele>
        <time>2022-01-23T11:02:00.000Z</time>
      </trkpt>
      <trkpt lat="47.25365" lon="-2.33103">
        <ele>27.200000762939</ele>
        <time>2022-01-23T11:02:01.000Z</time>
      </trkpt>
      <trkpt lat="47.25363" lon="-2.33101">
        <ele>27.200000762939</ele>
        <time>2022-01-23T11:02:02.000Z</time>
      </trkpt>
      <trkpt lat="47.2536" lon="-2.33098">
        <ele>27.200000762939</ele>
        <time>2022-01-23T11:02:05.000Z</time>
      </trkpt>
      <trkpt lat="47.25365" lon="-2.33095">
        <ele>27.200000762939</ele>
        <time>2022-01-23T11:08:47.000Z</time>
      </trkpt>
      <trkpt lat="47.25362" lon="-2.33087">
        <ele>27.200000762939</ele>
        <time>2022-01-23T11:08:50.000Z</time>
      </trkpt>
      <trkpt lat="47.25359" lon="-2.33075">
        <ele>27.60000038147</ele>
        <time>2022-01-23T11:08:53.000Z</time>
      </trkpt>
      <trkpt lat="47.25358" lon="-2.33071">
        <ele>28</ele>
        <time>2022-01-23T11:08:54.000Z</time>
      </trkpt>
      <trkpt lat="47.25357" lon="-2.33066">
        <ele>28.39999961853</ele>
        <time>2022-01-23T11:08:55.000Z</time>
      </trkpt>
      <trkpt lat="47.25355" lon="-2.33062">
        <ele>28.799999237061</ele>
        <time>2022-01-23T11:08:56.000Z</time>
      </trkpt>
      <trkpt lat="47.25353" lon="-2.33058">
        <ele>29.200000762939</ele>
        <time>2022-01-23T11:08:57.000Z</time>
      </trkpt>
      <trkpt lat="47.25345" lon="-2.33038">
        <ele>29.200000762939</ele>
        <time>2022-01-23T11:09:01.000Z</time>
      </trkpt>
      <trkpt lat="47.25329" lon="-2.32993">
        <ele>29.200000762939</ele>
        <time>2022-01-23T11:09:09.000Z</time>
      </trkpt>
      <trkpt lat="47.25313" lon="-2.32954">
        <ele>29.200000762939</ele>
        <time>2022-01-23T11:09:16.000Z</time>
      </trkpt>
      <trkpt lat="47.25308" lon="-2.32928">
        <ele>29.60000038147</ele>
        <time>2022-01-23T11:09:21.000Z</time>
      </trkpt>
      <trkpt lat="47.2531" lon="-2.32923">
        <ele>30</ele>
        <time>2022-01-23T11:09:22.000Z</time>
      </trkpt>
      <trkpt lat="47.25312" lon="-2.32918">
        <ele>30.39999961853</ele>
        <time>2022-01-23T11:09:23.000Z</time>
      </trkpt>
      <trkpt lat="47.25315" lon="-2.32913">
        <ele>30.799999237061</ele>
        <time>2022-01-23T11:09:24.000Z</time>
      </trkpt>
      <trkpt lat="47.25319" lon="-2.32909">
        <ele>31.200000762939</ele>
        <time>2022-01-23T11:09:25.000Z</time>
      </trkpt>
      <trkpt lat="47.25323" lon="-2.32905">
        <ele>31.200000762939</ele>
        <time>2022-01-23T11:09:26.000Z</time>
      </trkpt>
      <trkpt lat="47.25353" lon="-2.32876">
        <ele>31.200000762939</ele>
        <time>2022-01-23T11:09:33.000Z</time>
      </trkpt>
      <trkpt lat="47.25383" lon="-2.32845">
        <ele>31.200000762939</ele>
        <time>2022-01-23T11:09:40.000Z</time>
      </trkpt>
      <trkpt lat="47.25406" lon="-2.32815">
        <ele>31.200000762939</ele>
        <time>2022-01-23T11:09:46.000Z</time>
      </trkpt>
      <trkpt lat="47.25412" lon="-2.32805">
        <ele>31.200000762939</ele>
        <time>2022-01-23T11:09:48.000Z</time>
      </trkpt>
      <trkpt lat="47.25421" lon="-2.32789">
        <ele>31.200000762939</ele>
        <time>2022-01-23T11:09:51.000Z</time>
      </trkpt>
      <trkpt lat="47.25423" lon="-2.32783">
        <ele>31.200000762939</ele>
        <time>2022-01-23T11:09:52.000Z</time>
      </trkpt>
      <trkpt lat="47.2543" lon="-2.32768">
        <ele>31.200000762939</ele>
        <time>2022-01-23T11:09:55.000Z</time>
      </trkpt>
      <trkpt lat="47.25433" lon="-2.32764">
        <ele>31.200000762939</ele>
        <time>2022-01-23T11:09:56.000Z</time>
      </trkpt>
      <trkpt lat="47.25437" lon="-2.3276">
        <ele>31.200000762939</ele>
        <time>2022-01-23T11:09:57.000Z</time>
      </trkpt>
      <trkpt lat="47.25446" lon="-2.32745">
        <ele>31.200000762939</ele>
        <time>2022-01-23T11:10:00.000Z</time>
      </trkpt>
      <trkpt lat="47.25453" lon="-2.32736">
        <ele>31.200000762939</ele>
        <time>2022-01-23T11:10:02.000Z</time>
      </trkpt>
      <trkpt lat="47.25463" lon="-2.32722">
        <ele>31.200000762939</ele>
        <time>2022-01-23T11:10:05.000Z</time>
      </trkpt>
      <trkpt lat="47.2547" lon="-2.32714">
        <ele>31.60000038147</ele>
        <time>2022-01-23T11:10:07.000Z</time>
      </trkpt>
      <trkpt lat="47.25474" lon="-2.32709">
        <ele>32.200000762939</ele>
        <time>2022-01-23T11:10:08.000Z</time>
      </trkpt>
      <trkpt lat="47.25478" lon="-2.32704">
        <ele>32.599998474121</ele>
        <time>2022-01-23T11:10:09.000Z</time>
      </trkpt>
      <trkpt lat="47.25481" lon="-2.327">
        <ele>33</ele>
        <time>2022-01-23T11:10:10.000Z</time>
      </trkpt>
      <trkpt lat="47.25483" lon="-2.32694">
        <ele>33.400001525879</ele>
        <time>2022-01-23T11:10:11.000Z</time>
      </trkpt>
      <trkpt lat="47.25485" lon="-2.32688">
        <ele>33.400001525879</ele>
        <time>2022-01-23T11:10:12.000Z</time>
      </trkpt>
      <trkpt lat="47.25487" lon="-2.32662">
        <ele>33.400001525879</ele>
        <time>2022-01-23T11:10:16.000Z</time>
      </trkpt>
      <trkpt lat="47.25486" lon="-2.3265">
        <ele>33.400001525879</ele>
        <time>2022-01-23T11:10:18.000Z</time>
      </trkpt>
      <trkpt lat="47.25484" lon="-2.32632">
        <ele>33.400001525879</ele>
        <time>2022-01-23T11:10:21.000Z</time>
      </trkpt>
      <trkpt lat="47.25483" lon="-2.32626">
        <ele>33.400001525879</ele>
        <time>2022-01-23T11:10:22.000Z</time>
      </trkpt>
      <trkpt lat="47.25479" lon="-2.32602">
        <ele>33.400001525879</ele>
        <time>2022-01-23T11:10:26.000Z</time>
      </trkpt>
      <trkpt lat="47.25479" lon="-2.32596">
        <ele>33.400001525879</ele>
        <time>2022-01-23T11:10:27.000Z</time>
      </trkpt>
      <trkpt lat="47.2548" lon="-2.32584">
        <ele>33.400001525879</ele>
        <time>2022-01-23T11:10:29.000Z</time>
      </trkpt>
      <trkpt lat="47.25483" lon="-2.32572">
        <ele>33.400001525879</ele>
        <time>2022-01-23T11:10:31.000Z</time>
      </trkpt>
      <trkpt lat="47.25487" lon="-2.32562">
        <ele>33.400001525879</ele>
        <time>2022-01-23T11:10:33.000Z</time>
      </trkpt>
      <trkpt lat="47.25489" lon="-2.32556">
        <ele>33.400001525879</ele>
        <time>2022-01-23T11:10:34.000Z</time>
      </trkpt>
      <trkpt lat="47.25496" lon="-2.32547">
        <ele>33.400001525879</ele>
        <time>2022-01-23T11:10:36.000Z</time>
      </trkpt>
      <trkpt lat="47.25524" lon="-2.32519">
        <ele>33.400001525879</ele>
        <time>2022-01-23T11:10:43.000Z</time>
      </trkpt>
      <trkpt lat="47.2555" lon="-2.32494">
        <ele>33.400001525879</ele>
        <time>2022-01-23T11:10:49.000Z</time>
      </trkpt>
      <trkpt lat="47.25555" lon="-2.32489">
        <ele>32.799999237061</ele>
        <time>2022-01-23T11:10:50.000Z</time>
      </trkpt>
      <trkpt lat="47.2556" lon="-2.32485">
        <ele>32.400001525879</ele>
        <time>2022-01-23T11:10:51.000Z</time>
      </trkpt>
      <trkpt lat="47.25565" lon="-2.3248">
        <ele>32</ele>
        <time>2022-01-23T11:10:52.000Z</time>
      </trkpt>
      <trkpt lat="47.2557" lon="-2.32476">
        <ele>31.60000038147</ele>
        <time>2022-01-23T11:10:53.000Z</time>
      </trkpt>
      <trkpt lat="47.25575" lon="-2.32472">
        <ele>31</ele>
        <time>2022-01-23T11:10:54.000Z</time>
      </trkpt>
      <trkpt lat="47.25585" lon="-2.32462">
        <ele>31</ele>
        <time>2022-01-23T11:10:56.000Z</time>
      </trkpt>
      <trkpt lat="47.25594" lon="-2.32452">
        <ele>30.60000038147</ele>
        <time>2022-01-23T11:10:58.000Z</time>
      </trkpt>
      <trkpt lat="47.25598" lon="-2.32445">
        <ele>30.200000762939</ele>
        <time>2022-01-23T11:10:59.000Z</time>
      </trkpt>
      <trkpt lat="47.25603" lon="-2.3244">
        <ele>29.799999237061</ele>
        <time>2022-01-23T11:11:00.000Z</time>
      </trkpt>
      <trkpt lat="47.25608" lon="-2.32434">
        <ele>29.39999961853</ele>
        <time>2022-01-23T11:11:01.000Z</time>
      </trkpt>
      <trkpt lat="47.25613" lon="-2.32429">
        <ele>29</ele>
        <time>2022-01-23T11:11:03.000Z</time>
      </trkpt>
      <trkpt lat="47.25629" lon="-2.32414">
        <ele>28.60000038147</ele>
        <time>2022-01-23T11:11:06.000Z</time>
      </trkpt>
      <trkpt lat="47.25634" lon="-2.32409">
        <ele>28.200000762939</ele>
        <time>2022-01-23T11:11:07.000Z</time>
      </trkpt>
      <trkpt lat="47.25639" lon="-2.32404">
        <ele>27.799999237061</ele>
        <time>2022-01-23T11:11:08.000Z</time>
      </trkpt>
      <trkpt lat="47.25643" lon="-2.32401">
        <ele>27.39999961853</ele>
        <time>2022-01-23T11:11:09.000Z</time>
      </trkpt>
      <trkpt lat="47.25645" lon="-2.32399">
        <ele>27</ele>
        <time>2022-01-23T11:11:10.000Z</time>
      </trkpt>
      <trkpt lat="47.25653" lon="-2.32397">
        <ele>27</ele>
        <time>2022-01-23T11:11:12.000Z</time>
      </trkpt>
      <trkpt lat="47.25669" lon="-2.32408">
        <ele>27</ele>
        <time>2022-01-23T11:11:16.000Z</time>
      </trkpt>
      <trkpt lat="47.25691" lon="-2.32417">
        <ele>27</ele>
        <time>2022-01-23T11:11:20.000Z</time>
      </trkpt>
      <trkpt lat="47.25696" lon="-2.32418">
        <ele>26.60000038147</ele>
        <time>2022-01-23T11:11:21.000Z</time>
      </trkpt>
      <trkpt lat="47.25702" lon="-2.32418">
        <ele>26.200000762939</ele>
        <time>2022-01-23T11:11:22.000Z</time>
      </trkpt>
      <trkpt lat="47.25707" lon="-2.32419">
        <ele>25.799999237061</ele>
        <time>2022-01-23T11:11:23.000Z</time>
      </trkpt>
      <trkpt lat="47.25713" lon="-2.32419">
        <ele>25.39999961853</ele>
        <time>2022-01-23T11:11:24.000Z</time>
      </trkpt>
      <trkpt lat="47.25719" lon="-2.3242">
        <ele>25</ele>
        <time>2022-01-23T11:11:25.000Z</time>
      </trkpt>
      <trkpt lat="47.2573" lon="-2.32422">
        <ele>25</ele>
        <time>2022-01-23T11:11:27.000Z</time>
      </trkpt>
      <trkpt lat="47.25746" lon="-2.32422">
        <ele>25</ele>
        <time>2022-01-23T11:11:30.000Z</time>
      </trkpt>
      <trkpt lat="47.25759" lon="-2.3242">
        <ele>25</ele>
        <time>2022-01-23T11:11:33.000Z</time>
      </trkpt>
      <trkpt lat="47.25773" lon="-2.32412">
        <ele>25</ele>
        <time>2022-01-23T11:11:37.000Z</time>
      </trkpt>
      <trkpt lat="47.25781" lon="-2.32414">
        <ele>25</ele>
        <time>2022-01-23T11:11:39.000Z</time>
      </trkpt>
      <trkpt lat="47.25784" lon="-2.32419">
        <ele>25</ele>
        <time>2022-01-23T11:11:40.000Z</time>
      </trkpt>
      <trkpt lat="47.25794" lon="-2.3244">
        <ele>25</ele>
        <time>2022-01-23T11:11:43.000Z</time>
      </trkpt>
      <trkpt lat="47.25799" lon="-2.32447">
        <ele>25</ele>
        <time>2022-01-23T11:11:44.000Z</time>
      </trkpt>
      <trkpt lat="47.25815" lon="-2.32458">
        <ele>25</ele>
        <time>2022-01-23T11:11:47.000Z</time>
      </trkpt>
      <trkpt lat="47.2584" lon="-2.32471">
        <ele>25</ele>
        <time>2022-01-23T11:11:51.000Z</time>
      </trkpt>
      <trkpt lat="47.25851" lon="-2.32473">
        <ele>25</ele>
        <time>2022-01-23T11:11:53.000Z</time>
      </trkpt>
      <trkpt lat="47.25868" lon="-2.32475">
        <ele>25</ele>
        <time>2022-01-23T11:11:56.000Z</time>
      </trkpt>
      <trkpt lat="47.25878" lon="-2.32474">
        <ele>25</ele>
        <time>2022-01-23T11:11:58.000Z</time>
      </trkpt>
      <trkpt lat="47.25891" lon="-2.32468">
        <ele>25</ele>
        <time>2022-01-23T11:12:01.000Z</time>
      </trkpt>
      <trkpt lat="47.25897" lon="-2.32461">
        <ele>25</ele>
        <time>2022-01-23T11:12:03.000Z</time>
      </trkpt>
      <trkpt lat="47.25919" lon="-2.32433">
        <ele>25</ele>
        <time>2022-01-23T11:12:09.000Z</time>
      </trkpt>
      <trkpt lat="47.25951" lon="-2.32392">
        <ele>25</ele>
        <time>2022-01-23T11:12:17.000Z</time>
      </trkpt>
      <trkpt lat="47.25958" lon="-2.32382">
        <ele>25</ele>
        <time>2022-01-23T11:12:19.000Z</time>
      </trkpt>
      <trkpt lat="47.25974" lon="-2.32362">
        <ele>25</ele>
        <time>2022-01-23T11:12:23.000Z</time>
      </trkpt>
      <trkpt lat="47.26002" lon="-2.32326">
        <ele>25</ele>
        <time>2022-01-23T11:12:30.000Z</time>
      </trkpt>
      <trkpt lat="47.26028" lon="-2.32293">
        <ele>25</ele>
        <time>2022-01-23T11:12:37.000Z</time>
      </trkpt>
      <trkpt lat="47.26043" lon="-2.32277">
        <ele>25</ele>
        <time>2022-01-23T11:12:42.000Z</time>
      </trkpt>
      <trkpt lat="47.26064" lon="-2.32253">
        <ele>25</ele>
        <time>2022-01-23T11:12:48.000Z</time>
      </trkpt>
      <trkpt lat="47.26074" lon="-2.32239">
        <ele>25</ele>
        <time>2022-01-23T11:12:51.000Z</time>
      </trkpt>
      <trkpt lat="47.26092" lon="-2.32215">
        <ele>25</ele>
        <time>2022-01-23T11:12:56.000Z</time>
      </trkpt>
      <trkpt lat="47.26101" lon="-2.32198">
        <ele>25</ele>
        <time>2022-01-23T11:12:59.000Z</time>
      </trkpt>
      <trkpt lat="47.2611" lon="-2.32178">
        <ele>25</ele>
        <time>2022-01-23T11:13:02.000Z</time>
      </trkpt>
      <trkpt lat="47.26124" lon="-2.3214">
        <ele>25</ele>
        <time>2022-01-23T11:13:08.000Z</time>
      </trkpt>
      <trkpt lat="47.26137" lon="-2.32098">
        <ele>25</ele>
        <time>2022-01-23T11:13:14.000Z</time>
      </trkpt>
      <trkpt lat="47.26148" lon="-2.3206">
        <ele>25</ele>
        <time>2022-01-23T11:13:20.000Z</time>
      </trkpt>
      <trkpt lat="47.26156" lon="-2.32035">
        <ele>25</ele>
        <time>2022-01-23T11:13:24.000Z</time>
      </trkpt>
      <trkpt lat="47.26164" lon="-2.32022">
        <ele>25</ele>
        <time>2022-01-23T11:13:27.000Z</time>
      </trkpt>
      <trkpt lat="47.26174" lon="-2.3202">
        <ele>25</ele>
        <time>2022-01-23T11:13:30.000Z</time>
      </trkpt>
      <trkpt lat="47.26181" lon="-2.32021">
        <ele>25</ele>
        <time>2022-01-23T11:13:32.000Z</time>
      </trkpt>
      <trkpt lat="47.26186" lon="-2.32022">
        <ele>25</ele>
        <time>2022-01-23T11:13:34.000Z</time>
      </trkpt>
      <trkpt lat="47.26193" lon="-2.32021">
        <ele>25</ele>
        <time>2022-01-23T11:13:37.000Z</time>
      </trkpt>
      <trkpt lat="47.26194" lon="-2.32019">
        <ele>25</ele>
        <time>2022-01-23T11:13:38.000Z</time>
      </trkpt>
      <trkpt lat="47.26195" lon="-2.32011">
        <ele>24.60000038147</ele>
        <time>2022-01-23T11:13:40.000Z</time>
      </trkpt>
      <trkpt lat="47.26195" lon="-2.32008">
        <ele>24.200000762939</ele>
        <time>2022-01-23T11:13:41.000Z</time>
      </trkpt>
      <trkpt lat="47.26197" lon="-2.32005">
        <ele>23.799999237061</ele>
        <time>2022-01-23T11:13:42.000Z</time>
      </trkpt>
      <trkpt lat="47.26199" lon="-2.32003">
        <ele>23.39999961853</ele>
        <time>2022-01-23T11:13:43.000Z</time>
      </trkpt>
      <trkpt lat="47.26202" lon="-2.32002">
        <ele>23</ele>
        <time>2022-01-23T11:13:44.000Z</time>
      </trkpt>
      <trkpt lat="47.26206" lon="-2.31997">
        <ele>23</ele>
        <time>2022-01-23T11:13:46.000Z</time>
      </trkpt>
      <trkpt lat="47.26214" lon="-2.31987">
        <ele>23</ele>
        <time>2022-01-23T11:13:49.000Z</time>
      </trkpt>
      <trkpt lat="47.2622" lon="-2.31979">
        <ele>23</ele>
        <time>2022-01-23T11:13:51.000Z</time>
      </trkpt>
      <trkpt lat="47.26237" lon="-2.31964">
        <ele>23</ele>
        <time>2022-01-23T11:13:56.000Z</time>
      </trkpt>
      <trkpt lat="47.26245" lon="-2.3195">
        <ele>23</ele>
        <time>2022-01-23T11:14:00.000Z</time>
      </trkpt>
      <trkpt lat="47.26252" lon="-2.31935">
        <ele>23</ele>
        <time>2022-01-23T11:14:04.000Z</time>
      </trkpt>
      <trkpt lat="47.26264" lon="-2.31915">
        <ele>23</ele>
        <time>2022-01-23T11:14:09.000Z</time>
      </trkpt>
      <trkpt lat="47.26279" lon="-2.31898">
        <ele>23</ele>
        <time>2022-01-23T11:14:14.000Z</time>
      </trkpt>
      <trkpt lat="47.2629" lon="-2.31877">
        <ele>23</ele>
        <time>2022-01-23T11:14:19.000Z</time>
      </trkpt>
      <trkpt lat="47.26292" lon="-2.31849">
        <ele>23</ele>
        <time>2022-01-23T11:14:24.000Z</time>
      </trkpt>
      <trkpt lat="47.26294" lon="-2.31809">
        <ele>23</ele>
        <time>2022-01-23T11:14:32.000Z</time>
      </trkpt>
      <trkpt lat="47.26292" lon="-2.31771">
        <ele>23</ele>
        <time>2022-01-23T11:14:39.000Z</time>
      </trkpt>
      <trkpt lat="47.26288" lon="-2.31745">
        <ele>23</ele>
        <time>2022-01-23T11:14:44.000Z</time>
      </trkpt>
      <trkpt lat="47.26292" lon="-2.31729">
        <ele>23</ele>
        <time>2022-01-23T11:14:48.000Z</time>
      </trkpt>
      <trkpt lat="47.26296" lon="-2.31724">
        <ele>23</ele>
        <time>2022-01-23T11:14:50.000Z</time>
      </trkpt>
      <trkpt lat="47.26299" lon="-2.31722">
        <ele>23.39999961853</ele>
        <time>2022-01-23T11:14:51.000Z</time>
      </trkpt>
      <trkpt lat="47.26302" lon="-2.31719">
        <ele>23.799999237061</ele>
        <time>2022-01-23T11:14:52.000Z</time>
      </trkpt>
      <trkpt lat="47.26307" lon="-2.31717">
        <ele>24.200000762939</ele>
        <time>2022-01-23T11:14:53.000Z</time>
      </trkpt>
      <trkpt lat="47.26311" lon="-2.31714">
        <ele>24.60000038147</ele>
        <time>2022-01-23T11:14:54.000Z</time>
      </trkpt>
      <trkpt lat="47.26316" lon="-2.31709">
        <ele>25</ele>
        <time>2022-01-23T11:14:55.000Z</time>
      </trkpt>
      <trkpt lat="47.26319" lon="-2.31703">
        <ele>25</ele>
        <time>2022-01-23T11:14:56.000Z</time>
      </trkpt>
      <trkpt lat="47.26322" lon="-2.31698">
        <ele>25</ele>
        <time>2022-01-23T11:14:57.000Z</time>
      </trkpt>
      <trkpt lat="47.26328" lon="-2.31694">
        <ele>25</ele>
        <time>2022-01-23T11:15:00.000Z</time>
      </trkpt>
      <trkpt lat="47.26334" lon="-2.31693">
        <ele>25.39999961853</ele>
        <time>2022-01-23T11:15:02.000Z</time>
      </trkpt>
      <trkpt lat="47.26338" lon="-2.31691">
        <ele>25.799999237061</ele>
        <time>2022-01-23T11:15:03.000Z</time>
      </trkpt>
      <trkpt lat="47.26341" lon="-2.31688">
        <ele>26.200000762939</ele>
        <time>2022-01-23T11:15:04.000Z</time>
      </trkpt>
      <trkpt lat="47.26345" lon="-2.31686">
        <ele>26.60000038147</ele>
        <time>2022-01-23T11:15:05.000Z</time>
      </trkpt>
      <trkpt lat="47.26349" lon="-2.31684">
        <ele>27</ele>
        <time>2022-01-23T11:15:06.000Z</time>
      </trkpt>
      <trkpt lat="47.2638" lon="-2.31669">
        <ele>27</ele>
        <time>2022-01-23T11:15:13.000Z</time>
      </trkpt>
      <trkpt lat="47.264" lon="-2.31658">
        <ele>27</ele>
        <time>2022-01-23T11:15:20.000Z</time>
      </trkpt>
      <trkpt lat="47.26411" lon="-2.31648">
        <ele>27</ele>
        <time>2022-01-23T11:15:24.000Z</time>
      </trkpt>
      <trkpt lat="47.26411" lon="-2.31644">
        <ele>27</ele>
        <time>2022-01-23T11:15:25.000Z</time>
      </trkpt>
      <trkpt lat="47.26411" lon="-2.31641">
        <ele>27.39999961853</ele>
        <time>2022-01-23T11:15:26.000Z</time>
      </trkpt>
      <trkpt lat="47.2641" lon="-2.31637">
        <ele>27.799999237061</ele>
        <time>2022-01-23T11:15:27.000Z</time>
      </trkpt>
      <trkpt lat="47.26411" lon="-2.31633">
        <ele>28.200000762939</ele>
        <time>2022-01-23T11:15:28.000Z</time>
      </trkpt>
      <trkpt lat="47.26411" lon="-2.31628">
        <ele>28.60000038147</ele>
        <time>2022-01-23T11:15:29.000Z</time>
      </trkpt>
      <trkpt lat="47.26411" lon="-2.31623">
        <ele>29</ele>
        <time>2022-01-23T11:15:30.000Z</time>
      </trkpt>
      <trkpt lat="47.26412" lon="-2.31584">
        <ele>29</ele>
        <time>2022-01-23T11:15:38.000Z</time>
      </trkpt>
      <trkpt lat="47.26412" lon="-2.31556">
        <ele>29</ele>
        <time>2022-01-23T11:15:45.000Z</time>
      </trkpt>
      <trkpt lat="47.26417" lon="-2.31552">
        <ele>29</ele>
        <time>2022-01-23T11:15:48.000Z</time>
      </trkpt>
      <trkpt lat="47.26418" lon="-2.31553">
        <ele>29</ele>
        <time>2022-01-23T11:15:51.000Z</time>
      </trkpt>
    </trkseg>
  </trk>
</gpx>